<?xml version='1.0' encoding='UTF-8'?><gpx version="1.1" creator="JPX - https://github.com/jenetics/jpx" xmlns="http://www.topografix.com/GPX/1/1"><trk><trkseg><trkpt lat="44.4796034109376" lon="7.87285392009084"><ele>363.0</ele><time>2026-04-02T16:41:22.814Z</time></trkpt><trkpt lat="44.47941101625979" lon="7.8727344051076775"><ele>363.0</ele><time>2026-04-02T16:41:30.814Z</time></trkpt><trkpt lat="44.47961996096592" lon="7.872623479999769"><ele>363.0</ele><time>2026-04-02T16:41:32.813Z</time></trkpt><trkpt lat="44.479535444297454" lon="7.872666381468133"><ele>363.1666666666667</ele><time>2026-04-02T16:41:35.021Z</time></trkpt><trkpt lat="44.47945400558774" lon="7.872662043333398"><ele>363.3333333333333</ele><time>2026-04-02T16:41:41Z</time></trkpt><trkpt lat="44.47938821710788" lon="7.872666223036514"><ele>363.5</ele><time>2026-04-02T16:41:42Z</time></trkpt><trkpt lat="44.47932503585383" lon="7.87270558965137"><ele>363.66666666666663</ele><time>2026-04-02T16:41:44Z</time></trkpt><trkpt lat="44.479213770721" lon="7.872750444990979"><ele>363.8333333333333</ele><time>2026-04-02T16:41:46Z</time></trkpt><trkpt lat="44.47914541236558" lon="7.872781664289118"><ele>364.0</ele><time>2026-04-02T16:41:48Z</time></trkpt><trkpt lat="44.47906719024213" lon="7.872943499560175"><ele>364.0</ele><time>2026-04-02T16:41:54Z</time></trkpt><trkpt lat="44.47907909380241" lon="7.873041341185685"><ele>364.0</ele><time>2026-04-02T16:41:58Z</time></trkpt><trkpt lat="44.479122930667415" lon="7.8731762921357396"><ele>364.0</ele><time>2026-04-02T16:42:00Z</time></trkpt><trkpt lat="44.47917378228482" lon="7.87329693188304"><ele>364.0</ele><time>2026-04-02T16:42:01Z</time></trkpt><trkpt lat="44.47921080655273" lon="7.873385420854407"><ele>364.0</ele><time>2026-04-02T16:42:02Z</time></trkpt><trkpt lat="44.47925275055631" lon="7.873491569813039"><ele>364.0</ele><time>2026-04-02T16:42:03Z</time></trkpt><trkpt lat="44.47929712854415" lon="7.873588816328189"><ele>363.66666666666663</ele><time>2026-04-02T16:42:04Z</time></trkpt><trkpt lat="44.479312823127664" lon="7.873713524821644"><ele>363.3333333333333</ele><time>2026-04-02T16:42:05Z</time></trkpt><trkpt lat="44.47935537710695" lon="7.873799047385718"><ele>363.0</ele><time>2026-04-02T16:42:06Z</time></trkpt><trkpt lat="44.47936636833992" lon="7.873920725291243"><ele>362.6666666666667</ele><time>2026-04-02T16:42:07Z</time></trkpt><trkpt lat="44.47937862962552" lon="7.874042487812543"><ele>362.33333333333337</ele><time>2026-04-02T16:42:08Z</time></trkpt><trkpt lat="44.479399211257" lon="7.874172670098799"><ele>362.0</ele><time>2026-04-02T16:42:09Z</time></trkpt><trkpt lat="44.479415810443214" lon="7.874292897371702"><ele>361.83333333333337</ele><time>2026-04-02T16:42:10Z</time></trkpt><trkpt lat="44.479435727685356" lon="7.874401632552754"><ele>361.6666666666667</ele><time>2026-04-02T16:42:11Z</time></trkpt><trkpt lat="44.479451025835644" lon="7.874517850462368"><ele>361.5</ele><time>2026-04-02T16:42:12Z</time></trkpt><trkpt lat="44.47947861571934" lon="7.874636608389348"><ele>361.3333333333333</ele><time>2026-04-02T16:42:13Z</time></trkpt><trkpt lat="44.4794932252353" lon="7.8747590935246015"><ele>361.16666666666663</ele><time>2026-04-02T16:42:14Z</time></trkpt><trkpt lat="44.47948593779081" lon="7.874876178334693"><ele>361.0</ele><time>2026-04-02T16:42:15Z</time></trkpt><trkpt lat="44.47949235466197" lon="7.874975360482507"><ele>361.0</ele><time>2026-04-02T16:42:16Z</time></trkpt><trkpt lat="44.479488983820815" lon="7.875074764621062"><ele>361.0</ele><time>2026-04-02T16:42:17Z</time></trkpt><trkpt lat="44.479494936685725" lon="7.87518821255589"><ele>361.0</ele><time>2026-04-02T16:42:18Z</time></trkpt><trkpt lat="44.479485354351496" lon="7.87530139303348"><ele>361.0</ele><time>2026-04-02T16:42:18.999Z</time></trkpt><trkpt lat="44.47948419794214" lon="7.875418274232711"><ele>361.0</ele><time>2026-04-02T16:42:19.999Z</time></trkpt><trkpt lat="44.47947364608391" lon="7.875545327603299"><ele>361.0</ele><time>2026-04-02T16:42:20.999Z</time></trkpt><trkpt lat="44.479471898933355" lon="7.875671051700739"><ele>361.0</ele><time>2026-04-02T16:42:21.999Z</time></trkpt><trkpt lat="44.47946519572957" lon="7.8758126841778875"><ele>361.0</ele><time>2026-04-02T16:42:22.999Z</time></trkpt><trkpt lat="44.479457306851" lon="7.875958359261134"><ele>361.0</ele><time>2026-04-02T16:42:23.999Z</time></trkpt><trkpt lat="44.47945301757605" lon="7.876089425972043"><ele>361.0</ele><time>2026-04-02T16:42:24.999Z</time></trkpt><trkpt lat="44.47945302311348" lon="7.876231394595594"><ele>361.0</ele><time>2026-04-02T16:42:25.999Z</time></trkpt><trkpt lat="44.479447442691104" lon="7.876354517857505"><ele>361.0</ele><time>2026-04-02T16:42:26.999Z</time></trkpt><trkpt lat="44.479449541949336" lon="7.876465564231586"><ele>361.0</ele><time>2026-04-02T16:42:27.999Z</time></trkpt><trkpt lat="44.47944904829407" lon="7.876558030147844"><ele>361.0</ele><time>2026-04-02T16:42:28.999Z</time></trkpt><trkpt lat="44.47944665300293" lon="7.876661626249254"><ele>361.0</ele><time>2026-04-02T16:42:29.999Z</time></trkpt><trkpt lat="44.479443522077254" lon="7.8767499301878745"><ele>361.0</ele><time>2026-04-02T16:42:30.999Z</time></trkpt><trkpt lat="44.47946446605372" lon="7.876844966751578"><ele>361.0</ele><time>2026-04-02T16:42:31.999Z</time></trkpt><trkpt lat="44.47944622268314" lon="7.876982648355084"><ele>361.6</ele><time>2026-04-02T16:42:33.999Z</time></trkpt><trkpt lat="44.4793608159418" lon="7.877105363930182"><ele>362.20000000000005</ele><time>2026-04-02T16:42:35.999Z</time></trkpt><trkpt lat="44.47926735780156" lon="7.877122989636724"><ele>362.79999999999995</ele><time>2026-04-02T16:42:36.999Z</time></trkpt><trkpt lat="44.47919786938052" lon="7.877205004419713"><ele>363.4</ele><time>2026-04-02T16:42:37.999Z</time></trkpt><trkpt lat="44.47912878061315" lon="7.87728001400411"><ele>364.0</ele><time>2026-04-02T16:42:38.999Z</time></trkpt><trkpt lat="44.47907304230757" lon="7.877351058624196"><ele>364.0</ele><time>2026-04-02T16:42:39.999Z</time></trkpt><trkpt lat="44.47903658186712" lon="7.87742440644303"><ele>364.0</ele><time>2026-04-02T16:42:40.999Z</time></trkpt><trkpt lat="44.47898013556055" lon="7.877511226543966"><ele>364.0</ele><time>2026-04-02T16:42:42.999Z</time></trkpt><trkpt lat="44.47891823374076" lon="7.877641361270893"><ele>364.0</ele><time>2026-04-02T16:42:44.999Z</time></trkpt><trkpt lat="44.47883143070388" lon="7.877829107167256"><ele>364.0</ele><time>2026-04-02T16:42:46.999Z</time></trkpt><trkpt lat="44.478777134637035" lon="7.877948720604541"><ele>363.66666666666663</ele><time>2026-04-02T16:42:47.999Z</time></trkpt><trkpt lat="44.47873061068141" lon="7.878047860659093"><ele>363.3333333333333</ele><time>2026-04-02T16:42:48.999Z</time></trkpt><trkpt lat="44.478689303366025" lon="7.878142845052456"><ele>363.0</ele><time>2026-04-02T16:42:49.999Z</time></trkpt><trkpt lat="44.47864120863752" lon="7.8782190150758575"><ele>362.6666666666667</ele><time>2026-04-02T16:42:50.999Z</time></trkpt><trkpt lat="44.47859183045617" lon="7.8783013557848"><ele>362.33333333333337</ele><time>2026-04-02T16:42:51.999Z</time></trkpt><trkpt lat="44.47852130748125" lon="7.878362653220855"><ele>362.0</ele><time>2026-04-02T16:42:52.999Z</time></trkpt><trkpt lat="44.47845364271075" lon="7.878430659594944"><ele>362.0</ele><time>2026-04-02T16:42:53.999Z</time></trkpt><trkpt lat="44.47840629881357" lon="7.878516418927573"><ele>362.0</ele><time>2026-04-02T16:42:54.999Z</time></trkpt><trkpt lat="44.4783522611179" lon="7.8786029859305735"><ele>362.0</ele><time>2026-04-02T16:42:55.999Z</time></trkpt><trkpt lat="44.47829802744871" lon="7.878657206416276"><ele>362.0</ele><time>2026-04-02T16:42:56.999Z</time></trkpt><trkpt lat="44.47824054092139" lon="7.878733983018087"><ele>362.0</ele><time>2026-04-02T16:42:57.999Z</time></trkpt><trkpt lat="44.47818317906477" lon="7.8788075439713445"><ele>362.0</ele><time>2026-04-02T16:42:58.999Z</time></trkpt><trkpt lat="44.47808128296724" lon="7.878902537761682"><ele>362.0</ele><time>2026-04-02T16:43:00.999Z</time></trkpt><trkpt lat="44.47802133877574" lon="7.878941063663287"><ele>362.0</ele><time>2026-04-02T16:43:01.999Z</time></trkpt><trkpt lat="44.47803538071002" lon="7.87904878976087"><ele>362.0</ele><time>2026-04-02T16:43:02.999Z</time></trkpt><trkpt lat="44.478007019391605" lon="7.879132951419807"><ele>362.0</ele><time>2026-04-02T16:43:03.999Z</time></trkpt><trkpt lat="44.477946330693975" lon="7.879330107107219"><ele>362.0</ele><time>2026-04-02T16:43:05.999Z</time></trkpt><trkpt lat="44.47799642432622" lon="7.879487767254384"><ele>361.7142857142857</ele><time>2026-04-02T16:43:06.999Z</time></trkpt><trkpt lat="44.47798836861594" lon="7.8795769436530785"><ele>361.42857142857144</ele><time>2026-04-02T16:43:07.999Z</time></trkpt><trkpt lat="44.47795969852716" lon="7.879665125447194"><ele>361.1428571428571</ele><time>2026-04-02T16:43:08.999Z</time></trkpt><trkpt lat="44.477939159617165" lon="7.879777179218716"><ele>360.8571428571429</ele><time>2026-04-02T16:43:09.999Z</time></trkpt><trkpt lat="44.47792066702561" lon="7.879878162020846"><ele>360.5714285714286</ele><time>2026-04-02T16:43:10.999Z</time></trkpt><trkpt lat="44.477892387036434" lon="7.879979513440205"><ele>360.2857142857143</ele><time>2026-04-02T16:43:11.999Z</time></trkpt><trkpt lat="44.47787538250633" lon="7.880071867523881"><ele>360.0</ele><time>2026-04-02T16:43:12.999Z</time></trkpt><trkpt lat="44.47787183373648" lon="7.880201464617766"><ele>358.3333333333333</ele><time>2026-04-02T16:43:13.999Z</time></trkpt><trkpt lat="44.47788984065189" lon="7.880322330765865"><ele>356.6666666666667</ele><time>2026-04-02T16:43:14.999Z</time></trkpt><trkpt lat="44.47790357591325" lon="7.880451930686989"><ele>355.0</ele><time>2026-04-02T16:43:15.999Z</time></trkpt><trkpt lat="44.477924458676924" lon="7.880584483918978"><ele>353.33333333333337</ele><time>2026-04-02T16:43:16.999Z</time></trkpt><trkpt lat="44.477949939654366" lon="7.880693725069044"><ele>351.6666666666667</ele><time>2026-04-02T16:43:17.999Z</time></trkpt><trkpt lat="44.47796703414011" lon="7.88080248599708"><ele>350.0</ele><time>2026-04-02T16:43:18.998Z</time></trkpt><trkpt lat="44.47799188126343" lon="7.880920617331799"><ele>347.0</ele><time>2026-04-02T16:43:19.998Z</time></trkpt><trkpt lat="44.4780199418664" lon="7.881040077350302"><ele>344.0</ele><time>2026-04-02T16:43:20.998Z</time></trkpt><trkpt lat="44.47804571792099" lon="7.881155051365084"><ele>341.0</ele><time>2026-04-02T16:43:21.998Z</time></trkpt><trkpt lat="44.47810037655542" lon="7.881256730352991"><ele>338.0</ele><time>2026-04-02T16:43:22.998Z</time></trkpt><trkpt lat="44.4781532378306" lon="7.88137188345403"><ele>335.0</ele><time>2026-04-02T16:43:23.998Z</time></trkpt><trkpt lat="44.4782124293398" lon="7.8814903166969605"><ele>335.0</ele><time>2026-04-02T16:43:24.998Z</time></trkpt><trkpt lat="44.47828230729614" lon="7.881568356830132"><ele>335.0</ele><time>2026-04-02T16:43:25.998Z</time></trkpt><trkpt lat="44.478346473180785" lon="7.881647272359796"><ele>335.0</ele><time>2026-04-02T16:43:26.998Z</time></trkpt><trkpt lat="44.478418517770955" lon="7.881724064628242"><ele>335.0</ele><time>2026-04-02T16:43:27.998Z</time></trkpt><trkpt lat="44.47849275854344" lon="7.88180055466181"><ele>335.0</ele><time>2026-04-02T16:43:28.998Z</time></trkpt><trkpt lat="44.47855618633392" lon="7.881852448375965"><ele>335.0</ele><time>2026-04-02T16:43:29.998Z</time></trkpt><trkpt lat="44.47861035577478" lon="7.881898152361283"><ele>331.6666666666667</ele><time>2026-04-02T16:43:30.998Z</time></trkpt><trkpt lat="44.47870274193324" lon="7.881960812968298"><ele>328.33333333333337</ele><time>2026-04-02T16:43:32.998Z</time></trkpt><trkpt lat="44.478684793331944" lon="7.882048039706464"><ele>325.0</ele><time>2026-04-02T16:43:36.998Z</time></trkpt><trkpt lat="44.478587160071754" lon="7.8819863087955655"><ele>321.6666666666667</ele><time>2026-04-02T16:43:38.998Z</time></trkpt><trkpt lat="44.478529440966845" lon="7.881924190930007"><ele>318.3333333333333</ele><time>2026-04-02T16:43:39.998Z</time></trkpt><trkpt lat="44.478452012308864" lon="7.88185463358041"><ele>315.0</ele><time>2026-04-02T16:43:40.998Z</time></trkpt><trkpt lat="44.47836772134945" lon="7.881776566095762"><ele>319.0</ele><time>2026-04-02T16:43:42Z</time></trkpt><trkpt lat="44.478275813586876" lon="7.881714625921451"><ele>323.0</ele><time>2026-04-02T16:43:43Z</time></trkpt><trkpt lat="44.478190981665705" lon="7.8816555773114585"><ele>327.0</ele><time>2026-04-02T16:43:44Z</time></trkpt><trkpt lat="44.47811277745565" lon="7.8815972217498205"><ele>331.0</ele><time>2026-04-02T16:43:45Z</time></trkpt><trkpt lat="44.47803963447042" lon="7.881532790486603"><ele>335.0</ele><time>2026-04-02T16:43:46Z</time></trkpt><trkpt lat="44.47798013570969" lon="7.881438436743938"><ele>333.83333333333337</ele><time>2026-04-02T16:43:47Z</time></trkpt><trkpt lat="44.477915660434306" lon="7.881347593424645"><ele>332.6666666666667</ele><time>2026-04-02T16:43:48Z</time></trkpt><trkpt lat="44.47786384603563" lon="7.881255358062085"><ele>331.5</ele><time>2026-04-02T16:43:49Z</time></trkpt><trkpt lat="44.47782694687143" lon="7.88114644218008"><ele>330.3333333333333</ele><time>2026-04-02T16:43:50Z</time></trkpt><trkpt lat="44.477781619883345" lon="7.881034314005422"><ele>329.16666666666663</ele><time>2026-04-02T16:43:51Z</time></trkpt><trkpt lat="44.47775792993616" lon="7.880936132370996"><ele>328.0</ele><time>2026-04-02T16:43:52Z</time></trkpt><trkpt lat="44.477715640025984" lon="7.8808142580130855"><ele>328.0</ele><time>2026-04-02T16:43:54Z</time></trkpt><trkpt lat="44.477657626254796" lon="7.880778820048817"><ele>328.0</ele><time>2026-04-02T16:43:56Z</time></trkpt><trkpt lat="44.47760816276926" lon="7.880845629564849"><ele>328.0</ele><time>2026-04-02T16:43:58Z</time></trkpt><trkpt lat="44.477589722639756" lon="7.881035663954427"><ele>328.0</ele><time>2026-04-02T16:44:00Z</time></trkpt><trkpt lat="44.477646386564025" lon="7.881111914592534"><ele>328.0</ele><time>2026-04-02T16:44:01Z</time></trkpt><trkpt lat="44.47767316293901" lon="7.8812233601715125"><ele>328.0</ele><time>2026-04-02T16:44:02Z</time></trkpt><trkpt lat="44.47772467695869" lon="7.881343150708203"><ele>325.4</ele><time>2026-04-02T16:44:03Z</time></trkpt><trkpt lat="44.47777568496877" lon="7.881459391723464"><ele>322.79999999999995</ele><time>2026-04-02T16:44:04Z</time></trkpt><trkpt lat="44.477832411486624" lon="7.881584198158966"><ele>320.2</ele><time>2026-04-02T16:44:05Z</time></trkpt><trkpt lat="44.477900034849156" lon="7.881707324033122"><ele>317.6</ele><time>2026-04-02T16:44:06Z</time></trkpt><trkpt lat="44.478004997638244" lon="7.881812343627944"><ele>315.0</ele><time>2026-04-02T16:44:07Z</time></trkpt><trkpt lat="44.478089678910656" lon="7.881929980562979"><ele>315.0</ele><time>2026-04-02T16:44:08Z</time></trkpt><trkpt lat="44.47818478265238" lon="7.882033747147471"><ele>315.0</ele><time>2026-04-02T16:44:09Z</time></trkpt><trkpt lat="44.47826597476457" lon="7.882142232200443"><ele>315.0</ele><time>2026-04-02T16:44:10Z</time></trkpt><trkpt lat="44.47834475522826" lon="7.88223992938943"><ele>315.0</ele><time>2026-04-02T16:44:11Z</time></trkpt><trkpt lat="44.47841845964783" lon="7.882335037021024"><ele>315.0</ele><time>2026-04-02T16:44:12Z</time></trkpt><trkpt lat="44.4784849828548" lon="7.882408230566808"><ele>315.0</ele><time>2026-04-02T16:44:13Z</time></trkpt><trkpt lat="44.47854634422016" lon="7.882453077613469"><ele>315.0</ele><time>2026-04-02T16:44:14Z</time></trkpt><trkpt lat="44.47859929187711" lon="7.882512904940461"><ele>315.0</ele><time>2026-04-02T16:44:15Z</time></trkpt><trkpt lat="44.47866661441388" lon="7.882552538990398"><ele>315.0</ele><time>2026-04-02T16:44:16Z</time></trkpt><trkpt lat="44.478742753359846" lon="7.882512617078676"><ele>315.0</ele><time>2026-04-02T16:44:17Z</time></trkpt><trkpt lat="44.47881259044392" lon="7.88250566756649"><ele>315.0</ele><time>2026-04-02T16:44:18Z</time></trkpt><trkpt lat="44.47889842981113" lon="7.88245149808297"><ele>316.8333333333333</ele><time>2026-04-02T16:44:19Z</time></trkpt><trkpt lat="44.4789732413852" lon="7.882421619073636"><ele>318.6666666666667</ele><time>2026-04-02T16:44:20Z</time></trkpt><trkpt lat="44.4790284851585" lon="7.882365987856747"><ele>320.5</ele><time>2026-04-02T16:44:21Z</time></trkpt><trkpt lat="44.4790972062177" lon="7.882332529403817"><ele>322.33333333333337</ele><time>2026-04-02T16:44:22Z</time></trkpt><trkpt lat="44.479186902697414" lon="7.882310852992066"><ele>324.1666666666667</ele><time>2026-04-02T16:44:24Z</time></trkpt><trkpt lat="44.47925202191904" lon="7.882394538959901"><ele>326.0</ele><time>2026-04-02T16:44:25Z</time></trkpt><trkpt lat="44.479300531725286" lon="7.8824518385040925"><ele>326.0</ele><time>2026-04-02T16:44:25.999Z</time></trkpt><trkpt lat="44.47931081380242" lon="7.882546270874107"><ele>326.0</ele><time>2026-04-02T16:44:26.999Z</time></trkpt><trkpt lat="44.47929682957507" lon="7.882640005699859"><ele>326.0</ele><time>2026-04-02T16:44:27.999Z</time></trkpt><trkpt lat="44.479255979331676" lon="7.88275260577364"><ele>326.0</ele><time>2026-04-02T16:44:28.999Z</time></trkpt><trkpt lat="44.47918758664185" lon="7.8828630375166435"><ele>326.0</ele><time>2026-04-02T16:44:29.999Z</time></trkpt><trkpt lat="44.47908734861343" lon="7.882934286192854"><ele>326.0</ele><time>2026-04-02T16:44:30.999Z</time></trkpt><trkpt lat="44.47900013363246" lon="7.88299391438584"><ele>325.6666666666667</ele><time>2026-04-02T16:44:31.999Z</time></trkpt><trkpt lat="44.47889910831908" lon="7.883044814550862"><ele>325.33333333333337</ele><time>2026-04-02T16:44:32.999Z</time></trkpt><trkpt lat="44.47881883122863" lon="7.883102041468987"><ele>325.0</ele><time>2026-04-02T16:44:33.999Z</time></trkpt><trkpt lat="44.47875402660519" lon="7.883148595210498"><ele>324.6666666666667</ele><time>2026-04-02T16:44:34.999Z</time></trkpt><trkpt lat="44.478682773512794" lon="7.883191714712853"><ele>324.3333333333333</ele><time>2026-04-02T16:44:35.999Z</time></trkpt><trkpt lat="44.47862375160956" lon="7.883242758711453"><ele>324.0</ele><time>2026-04-02T16:44:36.999Z</time></trkpt><trkpt lat="44.47857192567757" lon="7.883399041411607"><ele>318.0</ele><time>2026-04-02T16:44:38.999Z</time></trkpt><trkpt lat="44.47855876014695" lon="7.883509207416522"><ele>312.0</ele><time>2026-04-02T16:44:39.999Z</time></trkpt><trkpt lat="44.47857649689111" lon="7.883629673772145"><ele>306.0</ele><time>2026-04-02T16:44:40.999Z</time></trkpt><trkpt lat="44.478608617735944" lon="7.883764172835383"><ele>300.0</ele><time>2026-04-02T16:44:41.999Z</time></trkpt><trkpt lat="44.478654777970476" lon="7.883883863587797"><ele>294.0</ele><time>2026-04-02T16:44:42.999Z</time></trkpt><trkpt lat="44.4787141786442" lon="7.884005827556739"><ele>295.75</ele><time>2026-04-02T16:44:43.999Z</time></trkpt><trkpt lat="44.478794271013406" lon="7.884125875529977"><ele>297.5</ele><time>2026-04-02T16:44:44.999Z</time></trkpt><trkpt lat="44.478878680695885" lon="7.884257419969103"><ele>299.25</ele><time>2026-04-02T16:44:45.999Z</time></trkpt><trkpt lat="44.478973312009316" lon="7.884387206566026"><ele>301.0</ele><time>2026-04-02T16:44:46.999Z</time></trkpt><trkpt lat="44.47907513788474" lon="7.884547321459038"><ele>301.0</ele><time>2026-04-02T16:44:47.999Z</time></trkpt><trkpt lat="44.4791812360532" lon="7.884710136552507"><ele>301.0</ele><time>2026-04-02T16:44:48.999Z</time></trkpt><trkpt lat="44.47928326061658" lon="7.884869805403942"><ele>301.0</ele><time>2026-04-02T16:44:49.999Z</time></trkpt><trkpt lat="44.4793736791952" lon="7.885019557696647"><ele>298.5</ele><time>2026-04-02T16:44:50.999Z</time></trkpt><trkpt lat="44.47943673019568" lon="7.885200080775236"><ele>296.0</ele><time>2026-04-02T16:44:51.999Z</time></trkpt><trkpt lat="44.47949710024478" lon="7.885386954709069"><ele>293.5</ele><time>2026-04-02T16:44:52.999Z</time></trkpt><trkpt lat="44.47954969542748" lon="7.885588168709086"><ele>291.0</ele><time>2026-04-02T16:44:53.999Z</time></trkpt><trkpt lat="44.47959953731909" lon="7.885800035691924"><ele>294.5</ele><time>2026-04-02T16:44:54.999Z</time></trkpt><trkpt lat="44.47964059961714" lon="7.88598709237389"><ele>298.0</ele><time>2026-04-02T16:44:55.999Z</time></trkpt><trkpt lat="44.479683350263116" lon="7.886188762158111"><ele>301.5</ele><time>2026-04-02T16:44:56.999Z</time></trkpt><trkpt lat="44.47972558524025" lon="7.886387999438933"><ele>305.0</ele><time>2026-04-02T16:44:57.999Z</time></trkpt><trkpt lat="44.479762836882585" lon="7.88656583784327"><ele>305.0</ele><time>2026-04-02T16:44:58.999Z</time></trkpt><trkpt lat="44.47979971715653" lon="7.886750643872059"><ele>305.0</ele><time>2026-04-02T16:44:59.999Z</time></trkpt><trkpt lat="44.479826935897414" lon="7.88689405832195"><ele>305.0</ele><time>2026-04-02T16:45:00.999Z</time></trkpt><trkpt lat="44.47986141192265" lon="7.887012383031422"><ele>305.0</ele><time>2026-04-02T16:45:01.999Z</time></trkpt><trkpt lat="44.47986868367372" lon="7.887139517847378"><ele>305.0</ele><time>2026-04-02T16:45:02.999Z</time></trkpt><trkpt lat="44.4798781809695" lon="7.887253633254345"><ele>303.1666666666667</ele><time>2026-04-02T16:45:03.999Z</time></trkpt><trkpt lat="44.47985920598927" lon="7.887365813029209"><ele>301.33333333333337</ele><time>2026-04-02T16:45:04.999Z</time></trkpt><trkpt lat="44.47982473237995" lon="7.887463825343558"><ele>299.5</ele><time>2026-04-02T16:45:05.999Z</time></trkpt><trkpt lat="44.47976141517059" lon="7.8875673589736515"><ele>297.6666666666667</ele><time>2026-04-02T16:45:06.999Z</time></trkpt><trkpt lat="44.47969465898733" lon="7.887653910971661"><ele>295.8333333333333</ele><time>2026-04-02T16:45:07.999Z</time></trkpt><trkpt lat="44.47961300341411" lon="7.887731779915582"><ele>294.0</ele><time>2026-04-02T16:45:08.999Z</time></trkpt><trkpt lat="44.479522924854436" lon="7.88782329864876"><ele>290.8</ele><time>2026-04-02T16:45:09.999Z</time></trkpt><trkpt lat="44.479444940116124" lon="7.887925271177517"><ele>287.59999999999997</ele><time>2026-04-02T16:45:10.999Z</time></trkpt><trkpt lat="44.47940352248036" lon="7.888038756424705"><ele>284.4</ele><time>2026-04-02T16:45:11.999Z</time></trkpt><trkpt lat="44.47936082947607" lon="7.888144285011484"><ele>281.2</ele><time>2026-04-02T16:45:12.999Z</time></trkpt><trkpt lat="44.479344349414106" lon="7.88827122987342"><ele>278.0</ele><time>2026-04-02T16:45:13.999Z</time></trkpt><trkpt lat="44.47935065793659" lon="7.888431476061728"><ele>277.6</ele><time>2026-04-02T16:45:14.999Z</time></trkpt><trkpt lat="44.479364625738604" lon="7.888575915792799"><ele>277.20000000000005</ele><time>2026-04-02T16:45:15.999Z</time></trkpt><trkpt lat="44.47937364652306" lon="7.888732551866593"><ele>276.8</ele><time>2026-04-02T16:45:16.999Z</time></trkpt><trkpt lat="44.479391373300494" lon="7.888876192914832"><ele>276.40000000000003</ele><time>2026-04-02T16:45:17.999Z</time></trkpt><trkpt lat="44.47939797752096" lon="7.889020330397095"><ele>276.0</ele><time>2026-04-02T16:45:18.999Z</time></trkpt><trkpt lat="44.47940625125015" lon="7.889151119428776"><ele>275.6666666666667</ele><time>2026-04-02T16:45:19.999Z</time></trkpt><trkpt lat="44.47941466263865" lon="7.889284618386228"><ele>275.3333333333333</ele><time>2026-04-02T16:45:20.999Z</time></trkpt><trkpt lat="44.479415035828744" lon="7.889406894292916"><ele>275.0</ele><time>2026-04-02T16:45:21.999Z</time></trkpt><trkpt lat="44.47940293249411" lon="7.8895283254428135"><ele>274.66666666666663</ele><time>2026-04-02T16:45:22.998Z</time></trkpt><trkpt lat="44.4793866041226" lon="7.889642296603184"><ele>274.3333333333333</ele><time>2026-04-02T16:45:23.998Z</time></trkpt><trkpt lat="44.479367860296854" lon="7.889744973699776"><ele>274.0</ele><time>2026-04-02T16:45:24.998Z</time></trkpt><trkpt lat="44.479350980661884" lon="7.889860137988541"><ele>274.0</ele><time>2026-04-02T16:45:25.998Z</time></trkpt><trkpt lat="44.47927612018277" lon="7.889967932505478"><ele>274.0</ele><time>2026-04-02T16:45:26.998Z</time></trkpt><trkpt lat="44.4792295576434" lon="7.890071230146826"><ele>274.0</ele><time>2026-04-02T16:45:27.998Z</time></trkpt><trkpt lat="44.479142756890866" lon="7.890147123080076"><ele>274.0</ele><time>2026-04-02T16:45:28.998Z</time></trkpt><trkpt lat="44.47906403307123" lon="7.890218950902392"><ele>274.0</ele><time>2026-04-02T16:45:29.998Z</time></trkpt><trkpt lat="44.478972680079146" lon="7.890260580359432"><ele>274.0</ele><time>2026-04-02T16:45:30.998Z</time></trkpt><trkpt lat="44.47886174532587" lon="7.890293602668418"><ele>274.0</ele><time>2026-04-02T16:45:31.998Z</time></trkpt><trkpt lat="44.478733625533295" lon="7.890304868646109"><ele>274.0</ele><time>2026-04-02T16:45:32.998Z</time></trkpt><trkpt lat="44.47860937877215" lon="7.890318120882218"><ele>274.0</ele><time>2026-04-02T16:45:33.998Z</time></trkpt><trkpt lat="44.478480220007796" lon="7.890323068813077"><ele>273.75</ele><time>2026-04-02T16:45:34.998Z</time></trkpt><trkpt lat="44.478345243298705" lon="7.890324655668705"><ele>273.5</ele><time>2026-04-02T16:45:35.998Z</time></trkpt><trkpt lat="44.478199623943944" lon="7.890305442337711"><ele>273.25</ele><time>2026-04-02T16:45:36.998Z</time></trkpt><trkpt lat="44.478064934404436" lon="7.890249981192936"><ele>273.0</ele><time>2026-04-02T16:45:37.998Z</time></trkpt><trkpt lat="44.47790010222495" lon="7.890218898660461"><ele>273.6666666666667</ele><time>2026-04-02T16:45:38.998Z</time></trkpt><trkpt lat="44.47775661642022" lon="7.890149673326161"><ele>274.33333333333337</ele><time>2026-04-02T16:45:39.998Z</time></trkpt><trkpt lat="44.47759579645737" lon="7.890113541750263"><ele>275.0</ele><time>2026-04-02T16:45:40.998Z</time></trkpt><trkpt lat="44.477431756128304" lon="7.890060191320051"><ele>275.0</ele><time>2026-04-02T16:45:41.998Z</time></trkpt><trkpt lat="44.47725552056425" lon="7.889940821446336"><ele>275.0</ele><time>2026-04-02T16:45:42.998Z</time></trkpt><trkpt lat="44.47709228650997" lon="7.889880786370315"><ele>275.0</ele><time>2026-04-02T16:45:43.998Z</time></trkpt><trkpt lat="44.47692930796925" lon="7.8898217125232115"><ele>274.6666666666667</ele><time>2026-04-02T16:45:44.998Z</time></trkpt><trkpt lat="44.47675435959529" lon="7.889760091739448"><ele>274.3333333333333</ele><time>2026-04-02T16:45:45.998Z</time></trkpt><trkpt lat="44.47657744292767" lon="7.889703443634035"><ele>274.0</ele><time>2026-04-02T16:45:46.998Z</time></trkpt><trkpt lat="44.47639821701655" lon="7.889664368411842"><ele>274.0</ele><time>2026-04-02T16:45:48Z</time></trkpt><trkpt lat="44.47621601593836" lon="7.889632886130298"><ele>274.0</ele><time>2026-04-02T16:45:49Z</time></trkpt><trkpt lat="44.47604298588741" lon="7.8896125590642345"><ele>274.0</ele><time>2026-04-02T16:45:50Z</time></trkpt><trkpt lat="44.475865149053845" lon="7.889618569752167"><ele>274.0</ele><time>2026-04-02T16:45:51Z</time></trkpt><trkpt lat="44.47568111314159" lon="7.889617745648311"><ele>274.0</ele><time>2026-04-02T16:45:52Z</time></trkpt><trkpt lat="44.475506338802745" lon="7.88962088430799"><ele>274.0</ele><time>2026-04-02T16:45:53Z</time></trkpt><trkpt lat="44.47532144386312" lon="7.88962502858981"><ele>274.66666666666663</ele><time>2026-04-02T16:45:54Z</time></trkpt><trkpt lat="44.47514419723831" lon="7.889637166278677"><ele>275.3333333333333</ele><time>2026-04-02T16:45:55Z</time></trkpt><trkpt lat="44.474963180616925" lon="7.889634524188371"><ele>276.0</ele><time>2026-04-02T16:45:56Z</time></trkpt><trkpt lat="44.47477795069796" lon="7.8896355085485075"><ele>276.6666666666667</ele><time>2026-04-02T16:45:57Z</time></trkpt><trkpt lat="44.47460108004477" lon="7.889636442438442"><ele>277.33333333333337</ele><time>2026-04-02T16:45:58Z</time></trkpt><trkpt lat="44.47442249088274" lon="7.889625596644726"><ele>278.0</ele><time>2026-04-02T16:45:59Z</time></trkpt><trkpt lat="44.47425493348388" lon="7.889595555367609"><ele>278.0</ele><time>2026-04-02T16:46:00Z</time></trkpt><trkpt lat="44.474075324668625" lon="7.889555635613383"><ele>278.0</ele><time>2026-04-02T16:46:01Z</time></trkpt><trkpt lat="44.47390215880323" lon="7.889504577019677"><ele>278.0</ele><time>2026-04-02T16:46:02Z</time></trkpt><trkpt lat="44.47372925475178" lon="7.889463039867838"><ele>277.6666666666667</ele><time>2026-04-02T16:46:03Z</time></trkpt><trkpt lat="44.47355829417078" lon="7.889401295511849"><ele>277.3333333333333</ele><time>2026-04-02T16:46:04Z</time></trkpt><trkpt lat="44.473398405002634" lon="7.889337772706128"><ele>277.0</ele><time>2026-04-02T16:46:05Z</time></trkpt><trkpt lat="44.47321846701686" lon="7.889281328981342"><ele>277.66666666666663</ele><time>2026-04-02T16:46:06Z</time></trkpt><trkpt lat="44.473046005974126" lon="7.889214309339492"><ele>278.3333333333333</ele><time>2026-04-02T16:46:07Z</time></trkpt><trkpt lat="44.47287513218096" lon="7.889122346184089"><ele>279.0</ele><time>2026-04-02T16:46:08Z</time></trkpt><trkpt lat="44.472711732124694" lon="7.88903573354777"><ele>279.0</ele><time>2026-04-02T16:46:09Z</time></trkpt><trkpt lat="44.47254254862484" lon="7.888937053534844"><ele>279.0</ele><time>2026-04-02T16:46:10Z</time></trkpt><trkpt lat="44.4723848993671" lon="7.888839389369902"><ele>279.0</ele><time>2026-04-02T16:46:11Z</time></trkpt><trkpt lat="44.472229969887756" lon="7.888738390274375"><ele>279.0</ele><time>2026-04-02T16:46:12Z</time></trkpt><trkpt lat="44.47206928763595" lon="7.888628364713803"><ele>279.0</ele><time>2026-04-02T16:46:13Z</time></trkpt><trkpt lat="44.47191304512986" lon="7.888510302843624"><ele>279.0</ele><time>2026-04-02T16:46:14Z</time></trkpt><trkpt lat="44.471766650101586" lon="7.8883856591879375"><ele>279.6666666666667</ele><time>2026-04-02T16:46:15Z</time></trkpt><trkpt lat="44.471614222675996" lon="7.888253916007676"><ele>280.33333333333337</ele><time>2026-04-02T16:46:16Z</time></trkpt><trkpt lat="44.4714664861927" lon="7.888113638362533"><ele>281.0</ele><time>2026-04-02T16:46:17Z</time></trkpt><trkpt lat="44.471328505903685" lon="7.887973748511457"><ele>281.33333333333337</ele><time>2026-04-02T16:46:18Z</time></trkpt><trkpt lat="44.471190313671414" lon="7.88782548994467"><ele>281.6666666666667</ele><time>2026-04-02T16:46:19Z</time></trkpt><trkpt lat="44.47105764770875" lon="7.887671803297435"><ele>282.0</ele><time>2026-04-02T16:46:20Z</time></trkpt><trkpt lat="44.470934201138405" lon="7.887520960003225"><ele>283.0</ele><time>2026-04-02T16:46:21Z</time></trkpt><trkpt lat="44.47082481684978" lon="7.887345951891507"><ele>284.0</ele><time>2026-04-02T16:46:22Z</time></trkpt><trkpt lat="44.470723609219945" lon="7.8871987347957075"><ele>285.0</ele><time>2026-04-02T16:46:23Z</time></trkpt><trkpt lat="44.47062082140551" lon="7.887063466329842"><ele>285.0</ele><time>2026-04-02T16:46:24Z</time></trkpt><trkpt lat="44.47051780211194" lon="7.886935121581264"><ele>285.0</ele><time>2026-04-02T16:46:25Z</time></trkpt><trkpt lat="44.470416369182715" lon="7.886801154822068"><ele>285.0</ele><time>2026-04-02T16:46:26Z</time></trkpt><trkpt lat="44.47032311354621" lon="7.886666312296441"><ele>285.0</ele><time>2026-04-02T16:46:27Z</time></trkpt><trkpt lat="44.47021616693832" lon="7.886521670856751"><ele>285.5</ele><time>2026-04-02T16:46:28Z</time></trkpt><trkpt lat="44.470116775791666" lon="7.886397005288336"><ele>286.0</ele><time>2026-04-02T16:46:29Z</time></trkpt><trkpt lat="44.4700148015114" lon="7.8862434535186825"><ele>286.5</ele><time>2026-04-02T16:46:30Z</time></trkpt><trkpt lat="44.46991056774282" lon="7.886093133587568"><ele>287.0</ele><time>2026-04-02T16:46:30.999Z</time></trkpt><trkpt lat="44.469805054685715" lon="7.885962468425272"><ele>286.75</ele><time>2026-04-02T16:46:31.999Z</time></trkpt><trkpt lat="44.46969520109771" lon="7.885818313832317"><ele>286.5</ele><time>2026-04-02T16:46:32.999Z</time></trkpt><trkpt lat="44.46958440460062" lon="7.885694191448269"><ele>286.25</ele><time>2026-04-02T16:46:33.999Z</time></trkpt><trkpt lat="44.46946243907205" lon="7.885558407523466"><ele>286.0</ele><time>2026-04-02T16:46:34.999Z</time></trkpt><trkpt lat="44.46933985128426" lon="7.8854358779521805"><ele>286.0</ele><time>2026-04-02T16:46:35.999Z</time></trkpt><trkpt lat="44.469213264651664" lon="7.885311017650234"><ele>286.0</ele><time>2026-04-02T16:46:36.999Z</time></trkpt><trkpt lat="44.46908463644295" lon="7.885191333242766"><ele>286.0</ele><time>2026-04-02T16:46:37.999Z</time></trkpt><trkpt lat="44.46895789353205" lon="7.885074271281346"><ele>286.3333333333333</ele><time>2026-04-02T16:46:38.999Z</time></trkpt><trkpt lat="44.46882955761343" lon="7.884974850503619"><ele>286.6666666666667</ele><time>2026-04-02T16:46:39.999Z</time></trkpt><trkpt lat="44.46869273733885" lon="7.88486439652623"><ele>287.0</ele><time>2026-04-02T16:46:40.999Z</time></trkpt><trkpt lat="44.46854833479785" lon="7.884757308116366"><ele>286.33333333333337</ele><time>2026-04-02T16:46:41.999Z</time></trkpt><trkpt lat="44.46840771006934" lon="7.8846728146209575"><ele>285.6666666666667</ele><time>2026-04-02T16:46:42.999Z</time></trkpt><trkpt lat="44.46826230346881" lon="7.884579914589412"><ele>285.0</ele><time>2026-04-02T16:46:43.999Z</time></trkpt><trkpt lat="44.46811802728375" lon="7.884499575167564"><ele>285.0</ele><time>2026-04-02T16:46:44.999Z</time></trkpt><trkpt lat="44.46797025662242" lon="7.884410683909844"><ele>285.0</ele><time>2026-04-02T16:46:45.999Z</time></trkpt><trkpt lat="44.46780504137713" lon="7.884336827564349"><ele>285.0</ele><time>2026-04-02T16:46:46.999Z</time></trkpt><trkpt lat="44.467663467830086" lon="7.884269754451016"><ele>285.6666666666667</ele><time>2026-04-02T16:46:47.999Z</time></trkpt><trkpt lat="44.4675031677845" lon="7.884211414636643"><ele>286.33333333333337</ele><time>2026-04-02T16:46:48.999Z</time></trkpt><trkpt lat="44.46734189218225" lon="7.884161327539299"><ele>287.0</ele><time>2026-04-02T16:46:49.999Z</time></trkpt><trkpt lat="44.46718208576927" lon="7.884118377708855"><ele>286.33333333333337</ele><time>2026-04-02T16:46:50.999Z</time></trkpt><trkpt lat="44.46702153068699" lon="7.88408082665756"><ele>285.6666666666667</ele><time>2026-04-02T16:46:51.999Z</time></trkpt><trkpt lat="44.46685895267705" lon="7.884058633208071"><ele>285.0</ele><time>2026-04-02T16:46:52.999Z</time></trkpt><trkpt lat="44.46668537534146" lon="7.8840392090323625"><ele>285.0</ele><time>2026-04-02T16:46:53.999Z</time></trkpt><trkpt lat="44.46651408408432" lon="7.884024634953547"><ele>285.0</ele><time>2026-04-02T16:46:54.999Z</time></trkpt><trkpt lat="44.466348015843145" lon="7.884020477346142"><ele>285.0</ele><time>2026-04-02T16:46:55.999Z</time></trkpt><trkpt lat="44.46616925492134" lon="7.8840156414819385"><ele>283.3333333333333</ele><time>2026-04-02T16:46:56.999Z</time></trkpt><trkpt lat="44.46599546895549" lon="7.88403236848501"><ele>281.66666666666663</ele><time>2026-04-02T16:46:57.999Z</time></trkpt><trkpt lat="44.46581787112286" lon="7.884042127860597"><ele>280.0</ele><time>2026-04-02T16:46:58.999Z</time></trkpt><trkpt lat="44.46564475100223" lon="7.884062823324921"><ele>280.0</ele><time>2026-04-02T16:46:59.999Z</time></trkpt><trkpt lat="44.46548285381689" lon="7.884111847387067"><ele>280.0</ele><time>2026-04-02T16:47:00.999Z</time></trkpt><trkpt lat="44.46530333956776" lon="7.88413882646622"><ele>280.0</ele><time>2026-04-02T16:47:01.999Z</time></trkpt><trkpt lat="44.465131585955234" lon="7.884194636467546"><ele>279.66666666666663</ele><time>2026-04-02T16:47:02.999Z</time></trkpt><trkpt lat="44.46496053851025" lon="7.8842576287182045"><ele>279.3333333333333</ele><time>2026-04-02T16:47:03.999Z</time></trkpt><trkpt lat="44.464794734163235" lon="7.884326089155263"><ele>279.0</ele><time>2026-04-02T16:47:04.999Z</time></trkpt><trkpt lat="44.46462260055006" lon="7.884398255313974"><ele>278.3333333333333</ele><time>2026-04-02T16:47:05.999Z</time></trkpt><trkpt lat="44.46445920563793" lon="7.884479738162694"><ele>277.66666666666663</ele><time>2026-04-02T16:47:06.999Z</time></trkpt><trkpt lat="44.46430199512731" lon="7.884565351775179"><ele>277.0</ele><time>2026-04-02T16:47:07.999Z</time></trkpt><trkpt lat="44.46413376351608" lon="7.884655027272896"><ele>277.0</ele><time>2026-04-02T16:47:08.999Z</time></trkpt><trkpt lat="44.463975673228376" lon="7.884749604377356"><ele>277.0</ele><time>2026-04-02T16:47:09.999Z</time></trkpt><trkpt lat="44.46381753701955" lon="7.884858658573665"><ele>277.0</ele><time>2026-04-02T16:47:10.999Z</time></trkpt><trkpt lat="44.463661568462925" lon="7.884970062005289"><ele>275.66666666666663</ele><time>2026-04-02T16:47:11.999Z</time></trkpt><trkpt lat="44.46351628091019" lon="7.8851032507712056"><ele>274.3333333333333</ele><time>2026-04-02T16:47:12.999Z</time></trkpt><trkpt lat="44.46336558571226" lon="7.8852325842483655"><ele>273.0</ele><time>2026-04-02T16:47:13.999Z</time></trkpt><trkpt lat="44.4632201427626" lon="7.885362304007184"><ele>273.0</ele><time>2026-04-02T16:47:14.999Z</time></trkpt><trkpt lat="44.46307365031882" lon="7.885502195459534"><ele>273.0</ele><time>2026-04-02T16:47:15.999Z</time></trkpt><trkpt lat="44.46293928379511" lon="7.885655029855239"><ele>273.0</ele><time>2026-04-02T16:47:16.999Z</time></trkpt><trkpt lat="44.462802454361466" lon="7.885806357230094"><ele>277.3333333333333</ele><time>2026-04-02T16:47:17.999Z</time></trkpt><trkpt lat="44.46267173657968" lon="7.885965962641427"><ele>281.66666666666663</ele><time>2026-04-02T16:47:18.999Z</time></trkpt><trkpt lat="44.46253903368305" lon="7.886136868868648"><ele>286.0</ele><time>2026-04-02T16:47:19.999Z</time></trkpt><trkpt lat="44.462407215061724" lon="7.886308126934468"><ele>286.0</ele><time>2026-04-02T16:47:20.999Z</time></trkpt><trkpt lat="44.462276216745074" lon="7.886478753188428"><ele>286.0</ele><time>2026-04-02T16:47:21.999Z</time></trkpt><trkpt lat="44.46213606955366" lon="7.886642733977642"><ele>286.0</ele><time>2026-04-02T16:47:22.999Z</time></trkpt><trkpt lat="44.46200236130782" lon="7.886807203130742"><ele>284.66666666666663</ele><time>2026-04-02T16:47:23.999Z</time></trkpt><trkpt lat="44.461865958554306" lon="7.886973524880442"><ele>283.3333333333333</ele><time>2026-04-02T16:47:24.999Z</time></trkpt><trkpt lat="44.46172790988153" lon="7.887144654305302"><ele>282.0</ele><time>2026-04-02T16:47:25.999Z</time></trkpt><trkpt lat="44.461595361685" lon="7.887315818724052"><ele>282.0</ele><time>2026-04-02T16:47:26.999Z</time></trkpt><trkpt lat="44.46146017258732" lon="7.887487508683924"><ele>282.0</ele><time>2026-04-02T16:47:27.998Z</time></trkpt><trkpt lat="44.461317084012734" lon="7.887655617381892"><ele>282.0</ele><time>2026-04-02T16:47:28.998Z</time></trkpt><trkpt lat="44.46118412194594" lon="7.887823611198898"><ele>281.6666666666667</ele><time>2026-04-02T16:47:29.998Z</time></trkpt><trkpt lat="44.461042056616066" lon="7.887991505634886"><ele>281.33333333333337</ele><time>2026-04-02T16:47:30.998Z</time></trkpt><trkpt lat="44.46090577217962" lon="7.88815438395691"><ele>281.0</ele><time>2026-04-02T16:47:31.998Z</time></trkpt><trkpt lat="44.46077171112658" lon="7.888323726407114"><ele>281.0</ele><time>2026-04-02T16:47:32.998Z</time></trkpt><trkpt lat="44.460636062186545" lon="7.888490575604293"><ele>281.0</ele><time>2026-04-02T16:47:33.998Z</time></trkpt><trkpt lat="44.46049657706859" lon="7.888653851796659"><ele>281.0</ele><time>2026-04-02T16:47:34.998Z</time></trkpt><trkpt lat="44.460358429069295" lon="7.888822264641113"><ele>281.0</ele><time>2026-04-02T16:47:35.998Z</time></trkpt><trkpt lat="44.46022784828994" lon="7.888989679892946"><ele>281.0</ele><time>2026-04-02T16:47:36.998Z</time></trkpt><trkpt lat="44.46009405438811" lon="7.889146299450362"><ele>281.0</ele><time>2026-04-02T16:47:37.998Z</time></trkpt><trkpt lat="44.45996271814282" lon="7.88929354312831"><ele>279.6666666666667</ele><time>2026-04-02T16:47:38.998Z</time></trkpt><trkpt lat="44.459830516043674" lon="7.889432762879044"><ele>278.3333333333333</ele><time>2026-04-02T16:47:39.998Z</time></trkpt><trkpt lat="44.4596891794378" lon="7.889564354909826"><ele>277.0</ele><time>2026-04-02T16:47:40.998Z</time></trkpt><trkpt lat="44.45953827551897" lon="7.889674995857017"><ele>277.0</ele><time>2026-04-02T16:47:41.998Z</time></trkpt><trkpt lat="44.45938860468544" lon="7.889796709049765"><ele>277.0</ele><time>2026-04-02T16:47:42.998Z</time></trkpt><trkpt lat="44.45923223658557" lon="7.889903835183258"><ele>277.0</ele><time>2026-04-02T16:47:43.998Z</time></trkpt><trkpt lat="44.4590848263203" lon="7.8900034091220475"><ele>277.0</ele><time>2026-04-02T16:47:44.998Z</time></trkpt><trkpt lat="44.45892307857866" lon="7.890085749839656"><ele>277.0</ele><time>2026-04-02T16:47:45.998Z</time></trkpt><trkpt lat="44.45875713415239" lon="7.8901621928079795"><ele>277.0</ele><time>2026-04-02T16:47:46.998Z</time></trkpt><trkpt lat="44.45858363065629" lon="7.890228437836892"><ele>275.66666666666663</ele><time>2026-04-02T16:47:47.998Z</time></trkpt><trkpt lat="44.458404786972224" lon="7.890285800659515"><ele>274.3333333333333</ele><time>2026-04-02T16:47:48.998Z</time></trkpt><trkpt lat="44.45822574684335" lon="7.890342551157005"><ele>273.0</ele><time>2026-04-02T16:47:49.998Z</time></trkpt><trkpt lat="44.458057381808565" lon="7.8903971601465"><ele>272.6666666666667</ele><time>2026-04-02T16:47:50.998Z</time></trkpt><trkpt lat="44.45789225143838" lon="7.890455301047171"><ele>272.33333333333337</ele><time>2026-04-02T16:47:51.998Z</time></trkpt><trkpt lat="44.45772239282011" lon="7.890521618195468"><ele>272.0</ele><time>2026-04-02T16:47:52.998Z</time></trkpt><trkpt lat="44.457548484030376" lon="7.8905846368490264"><ele>272.0</ele><time>2026-04-02T16:47:54Z</time></trkpt><trkpt lat="44.457378842638406" lon="7.890641185927815"><ele>272.0</ele><time>2026-04-02T16:47:55Z</time></trkpt><trkpt lat="44.457214770413565" lon="7.89070189582081"><ele>272.0</ele><time>2026-04-02T16:47:56Z</time></trkpt><trkpt lat="44.45704901414769" lon="7.8907573081210955"><ele>273.33333333333337</ele><time>2026-04-02T16:47:57Z</time></trkpt><trkpt lat="44.456888168647694" lon="7.8908137125168585"><ele>274.6666666666667</ele><time>2026-04-02T16:47:58Z</time></trkpt><trkpt lat="44.45672628600199" lon="7.890865387676099"><ele>276.0</ele><time>2026-04-02T16:47:59Z</time></trkpt><trkpt lat="44.45656824517289" lon="7.890923670720017"><ele>275.6666666666667</ele><time>2026-04-02T16:48:00Z</time></trkpt><trkpt lat="44.45641149022897" lon="7.890977973495025"><ele>275.33333333333337</ele><time>2026-04-02T16:48:01Z</time></trkpt><trkpt lat="44.45625717592842" lon="7.891037339375669"><ele>275.0</ele><time>2026-04-02T16:48:02Z</time></trkpt><trkpt lat="44.45609792558724" lon="7.8910935341837005"><ele>277.33333333333337</ele><time>2026-04-02T16:48:03Z</time></trkpt><trkpt lat="44.455939360469195" lon="7.891148788965668"><ele>279.6666666666667</ele><time>2026-04-02T16:48:04Z</time></trkpt><trkpt lat="44.455775429365346" lon="7.8912063418714915"><ele>282.0</ele><time>2026-04-02T16:48:05Z</time></trkpt><trkpt lat="44.45561648857922" lon="7.891260086596739"><ele>282.0</ele><time>2026-04-02T16:48:06Z</time></trkpt><trkpt lat="44.455461103093825" lon="7.891315531613444"><ele>282.0</ele><time>2026-04-02T16:48:07Z</time></trkpt><trkpt lat="44.45530628056788" lon="7.891372737812463"><ele>282.0</ele><time>2026-04-02T16:48:08Z</time></trkpt><trkpt lat="44.45514850417985" lon="7.891429034279939"><ele>283.0</ele><time>2026-04-02T16:48:09Z</time></trkpt><trkpt lat="44.45498846019807" lon="7.8914853238715255"><ele>284.0</ele><time>2026-04-02T16:48:10Z</time></trkpt><trkpt lat="44.45482331464017" lon="7.8915370230482935"><ele>285.0</ele><time>2026-04-02T16:48:11Z</time></trkpt><trkpt lat="44.45466344632852" lon="7.891588801506926"><ele>284.0</ele><time>2026-04-02T16:48:12Z</time></trkpt><trkpt lat="44.454505439586995" lon="7.891647141378037"><ele>283.0</ele><time>2026-04-02T16:48:13Z</time></trkpt><trkpt lat="44.45434066938983" lon="7.89169898378158"><ele>282.0</ele><time>2026-04-02T16:48:14Z</time></trkpt><trkpt lat="44.45416843303797" lon="7.891754343172226"><ele>282.3333333333333</ele><time>2026-04-02T16:48:15Z</time></trkpt><trkpt lat="44.45399773806725" lon="7.89180879931428"><ele>282.66666666666663</ele><time>2026-04-02T16:48:16Z</time></trkpt><trkpt lat="44.45382443377367" lon="7.891876621688711"><ele>283.0</ele><time>2026-04-02T16:48:17Z</time></trkpt><trkpt lat="44.45364604227287" lon="7.891934392336043"><ele>281.3333333333333</ele><time>2026-04-02T16:48:18Z</time></trkpt><trkpt lat="44.45347393226409" lon="7.891991675460682"><ele>279.6666666666667</ele><time>2026-04-02T16:48:19Z</time></trkpt><trkpt lat="44.45329890708746" lon="7.89205042790671"><ele>278.0</ele><time>2026-04-02T16:48:20Z</time></trkpt><trkpt lat="44.453133375091085" lon="7.892113591770512"><ele>278.0</ele><time>2026-04-02T16:48:21Z</time></trkpt><trkpt lat="44.45297137060567" lon="7.892158887957481"><ele>278.0</ele><time>2026-04-02T16:48:22Z</time></trkpt><trkpt lat="44.45282716779083" lon="7.892230032973206"><ele>278.0</ele><time>2026-04-02T16:48:23Z</time></trkpt><trkpt lat="44.45266786307498" lon="7.892278965863977"><ele>278.5</ele><time>2026-04-02T16:48:24Z</time></trkpt><trkpt lat="44.45251662710493" lon="7.892332039212109"><ele>279.0</ele><time>2026-04-02T16:48:25Z</time></trkpt><trkpt lat="44.45237639550814" lon="7.892378832823591"><ele>279.5</ele><time>2026-04-02T16:48:26Z</time></trkpt><trkpt lat="44.45224947189862" lon="7.892421865528125"><ele>280.0</ele><time>2026-04-02T16:48:27Z</time></trkpt><trkpt lat="44.452133814796156" lon="7.892461012413496"><ele>280.6</ele><time>2026-04-02T16:48:28Z</time></trkpt><trkpt lat="44.45202896215745" lon="7.892490140131659"><ele>281.2</ele><time>2026-04-02T16:48:29Z</time></trkpt><trkpt lat="44.451928269603854" lon="7.892505288190107"><ele>281.8</ele><time>2026-04-02T16:48:30Z</time></trkpt><trkpt lat="44.451835736251184" lon="7.892504692063118"><ele>282.4</ele><time>2026-04-02T16:48:31Z</time></trkpt><trkpt lat="44.45174472277334" lon="7.892480475226198"><ele>283.0</ele><time>2026-04-02T16:48:32Z</time></trkpt><trkpt lat="44.4516483317602" lon="7.8924282688869285"><ele>283.0</ele><time>2026-04-02T16:48:33Z</time></trkpt><trkpt lat="44.45156550890707" lon="7.892372087763623"><ele>283.0</ele><time>2026-04-02T16:48:34Z</time></trkpt><trkpt lat="44.4514738458159" lon="7.892318419065751"><ele>283.0</ele><time>2026-04-02T16:48:35Z</time></trkpt><trkpt lat="44.45137925076737" lon="7.892204064573305"><ele>283.0</ele><time>2026-04-02T16:48:36Z</time></trkpt><trkpt lat="44.45129676949587" lon="7.892076850898652"><ele>283.0</ele><time>2026-04-02T16:48:37Z</time></trkpt><trkpt lat="44.45120837072251" lon="7.891950074011008"><ele>283.3333333333333</ele><time>2026-04-02T16:48:37.999Z</time></trkpt><trkpt lat="44.451141303871836" lon="7.891765757047798"><ele>283.6666666666667</ele><time>2026-04-02T16:48:38.999Z</time></trkpt><trkpt lat="44.45106179674257" lon="7.8915958207254695"><ele>284.0</ele><time>2026-04-02T16:48:39.999Z</time></trkpt><trkpt lat="44.45097332260847" lon="7.891409572148343"><ele>284.0</ele><time>2026-04-02T16:48:40.999Z</time></trkpt><trkpt lat="44.450878877244286" lon="7.8912170762069875"><ele>284.0</ele><time>2026-04-02T16:48:41.999Z</time></trkpt><trkpt lat="44.450787222205406" lon="7.891029997930582"><ele>284.0</ele><time>2026-04-02T16:48:42.999Z</time></trkpt><trkpt lat="44.450686996504025" lon="7.890837141555771"><ele>282.6666666666667</ele><time>2026-04-02T16:48:43.999Z</time></trkpt><trkpt lat="44.45058213378572" lon="7.890623975342904"><ele>281.3333333333333</ele><time>2026-04-02T16:48:44.999Z</time></trkpt><trkpt lat="44.450474744636" lon="7.890407359169834"><ele>280.0</ele><time>2026-04-02T16:48:45.999Z</time></trkpt><trkpt lat="44.45036321704745" lon="7.890183773335189"><ele>283.0</ele><time>2026-04-02T16:48:46.999Z</time></trkpt><trkpt lat="44.45025624411893" lon="7.889969974102777"><ele>286.0</ele><time>2026-04-02T16:48:47.999Z</time></trkpt><trkpt lat="44.450146302576854" lon="7.889744185220795"><ele>289.0</ele><time>2026-04-02T16:48:48.999Z</time></trkpt><trkpt lat="44.45003504701684" lon="7.88951979698516"><ele>289.0</ele><time>2026-04-02T16:48:49.999Z</time></trkpt><trkpt lat="44.4499241428519" lon="7.889290905296363"><ele>289.0</ele><time>2026-04-02T16:48:50.999Z</time></trkpt><trkpt lat="44.44981453273581" lon="7.889065280834979"><ele>289.0</ele><time>2026-04-02T16:48:51.999Z</time></trkpt><trkpt lat="44.44970552558329" lon="7.888835250311245"><ele>290.3333333333333</ele><time>2026-04-02T16:48:52.999Z</time></trkpt><trkpt lat="44.44959257067798" lon="7.888608942347761"><ele>291.6666666666667</ele><time>2026-04-02T16:48:53.999Z</time></trkpt><trkpt lat="44.44948596248225" lon="7.888387899015588"><ele>293.0</ele><time>2026-04-02T16:48:54.999Z</time></trkpt><trkpt lat="44.449383549807905" lon="7.888186445628995"><ele>293.0</ele><time>2026-04-02T16:48:55.999Z</time></trkpt><trkpt lat="44.44927497519373" lon="7.887971961749959"><ele>293.0</ele><time>2026-04-02T16:48:56.999Z</time></trkpt><trkpt lat="44.449166037700515" lon="7.887758709084702"><ele>293.0</ele><time>2026-04-02T16:48:57.999Z</time></trkpt><trkpt lat="44.449063555465756" lon="7.887544838606522"><ele>292.33333333333337</ele><time>2026-04-02T16:48:58.999Z</time></trkpt><trkpt lat="44.44895476750331" lon="7.887327251649429"><ele>291.6666666666667</ele><time>2026-04-02T16:48:59.999Z</time></trkpt><trkpt lat="44.44885166031131" lon="7.887111414160776"><ele>291.0</ele><time>2026-04-02T16:49:00.999Z</time></trkpt><trkpt lat="44.44874463791513" lon="7.886892960712851"><ele>291.6666666666667</ele><time>2026-04-02T16:49:01.999Z</time></trkpt><trkpt lat="44.44864117231676" lon="7.88668341960165"><ele>292.33333333333337</ele><time>2026-04-02T16:49:02.999Z</time></trkpt><trkpt lat="44.44853886017593" lon="7.886482459480714"><ele>293.0</ele><time>2026-04-02T16:49:03.999Z</time></trkpt><trkpt lat="44.44843190156029" lon="7.886262692382692"><ele>293.0</ele><time>2026-04-02T16:49:04.999Z</time></trkpt><trkpt lat="44.44832650653142" lon="7.886044395923052"><ele>293.0</ele><time>2026-04-02T16:49:05.999Z</time></trkpt><trkpt lat="44.44822603527416" lon="7.885842133425887"><ele>293.0</ele><time>2026-04-02T16:49:06.999Z</time></trkpt><trkpt lat="44.44812560623578" lon="7.88563542634094"><ele>293.0</ele><time>2026-04-02T16:49:07.999Z</time></trkpt><trkpt lat="44.44802813849266" lon="7.885441365906473"><ele>293.0</ele><time>2026-04-02T16:49:08.999Z</time></trkpt><trkpt lat="44.447938180754285" lon="7.885241003805888"><ele>293.0</ele><time>2026-04-02T16:49:09.999Z</time></trkpt><trkpt lat="44.447846978380234" lon="7.885033401317365"><ele>293.0</ele><time>2026-04-02T16:49:10.999Z</time></trkpt><trkpt lat="44.4477641275862" lon="7.884823481083736"><ele>293.0</ele><time>2026-04-02T16:49:11.999Z</time></trkpt><trkpt lat="44.447687502641" lon="7.8846078337414145"><ele>293.0</ele><time>2026-04-02T16:49:12.999Z</time></trkpt><trkpt lat="44.44761605318137" lon="7.884398375655097"><ele>293.6666666666667</ele><time>2026-04-02T16:49:13.999Z</time></trkpt><trkpt lat="44.447554923235785" lon="7.884196827768482"><ele>294.3333333333333</ele><time>2026-04-02T16:49:14.999Z</time></trkpt><trkpt lat="44.447497554158815" lon="7.883987644310636"><ele>295.0</ele><time>2026-04-02T16:49:15.999Z</time></trkpt><trkpt lat="44.447454564902614" lon="7.883769563034153"><ele>295.0</ele><time>2026-04-02T16:49:16.999Z</time></trkpt><trkpt lat="44.44741680267576" lon="7.883538943517738"><ele>295.0</ele><time>2026-04-02T16:49:17.999Z</time></trkpt><trkpt lat="44.44738725098492" lon="7.8832943802928135"><ele>295.0</ele><time>2026-04-02T16:49:18.999Z</time></trkpt><trkpt lat="44.447362937133505" lon="7.883048512152757"><ele>297.3333333333333</ele><time>2026-04-02T16:49:19.999Z</time></trkpt><trkpt lat="44.4473418884736" lon="7.882788163397962"><ele>299.6666666666667</ele><time>2026-04-02T16:49:20.999Z</time></trkpt><trkpt lat="44.447327082608396" lon="7.882525455121354"><ele>302.0</ele><time>2026-04-02T16:49:21.999Z</time></trkpt><trkpt lat="44.447304495289764" lon="7.882248369686074"><ele>303.33333333333337</ele><time>2026-04-02T16:49:22.999Z</time></trkpt><trkpt lat="44.447285637514675" lon="7.881976872370559"><ele>304.6666666666667</ele><time>2026-04-02T16:49:23.999Z</time></trkpt><trkpt lat="44.44727222191267" lon="7.881703612297136"><ele>306.0</ele><time>2026-04-02T16:49:24.999Z</time></trkpt><trkpt lat="44.44725917968449" lon="7.881440353932275"><ele>307.0</ele><time>2026-04-02T16:49:25.999Z</time></trkpt><trkpt lat="44.44724659548504" lon="7.881160946125127"><ele>308.0</ele><time>2026-04-02T16:49:26.999Z</time></trkpt><trkpt lat="44.44722310139653" lon="7.880895074528923"><ele>309.0</ele><time>2026-04-02T16:49:27.999Z</time></trkpt><trkpt lat="44.44720937070378" lon="7.880616033137099"><ele>311.3333333333333</ele><time>2026-04-02T16:49:28.999Z</time></trkpt><trkpt lat="44.44720065046162" lon="7.880352002553483"><ele>313.66666666666663</ele><time>2026-04-02T16:49:29.999Z</time></trkpt><trkpt lat="44.44718387998428" lon="7.880114286977824"><ele>316.0</ele><time>2026-04-02T16:49:30.999Z</time></trkpt><trkpt lat="44.44716917472354" lon="7.879883191561508"><ele>319.66666666666663</ele><time>2026-04-02T16:49:31.999Z</time></trkpt><trkpt lat="44.44714979595759" lon="7.879671766577474"><ele>323.3333333333333</ele><time>2026-04-02T16:49:32.999Z</time></trkpt><trkpt lat="44.447115214425615" lon="7.8794551816404885"><ele>327.0</ele><time>2026-04-02T16:49:33.999Z</time></trkpt><trkpt lat="44.447075492548834" lon="7.879226305733741"><ele>319.0</ele><time>2026-04-02T16:49:34.998Z</time></trkpt><trkpt lat="44.4470177822648" lon="7.879023294326311"><ele>311.0</ele><time>2026-04-02T16:49:35.998Z</time></trkpt><trkpt lat="44.446941650612764" lon="7.878840545057307"><ele>303.0</ele><time>2026-04-02T16:49:36.998Z</time></trkpt><trkpt lat="44.4468579417848" lon="7.878648883190398"><ele>303.0</ele><time>2026-04-02T16:49:37.998Z</time></trkpt><trkpt lat="44.44674967894756" lon="7.878468613170005"><ele>303.0</ele><time>2026-04-02T16:49:38.998Z</time></trkpt><trkpt lat="44.446633834361066" lon="7.878321638262566"><ele>303.0</ele><time>2026-04-02T16:49:39.998Z</time></trkpt><trkpt lat="44.44650443325074" lon="7.878206077830562"><ele>302.0</ele><time>2026-04-02T16:49:40.998Z</time></trkpt><trkpt lat="44.446367087517125" lon="7.8781075593998215"><ele>301.0</ele><time>2026-04-02T16:49:41.998Z</time></trkpt><trkpt lat="44.446260286214724" lon="7.877950367396355"><ele>300.0</ele><time>2026-04-02T16:49:42.998Z</time></trkpt><trkpt lat="44.44613636427938" lon="7.8777936993130195"><ele>300.0</ele><time>2026-04-02T16:49:43.998Z</time></trkpt><trkpt lat="44.44602123204885" lon="7.8776502085413895"><ele>300.0</ele><time>2026-04-02T16:49:44.998Z</time></trkpt><trkpt lat="44.44592225524489" lon="7.877478857040766"><ele>300.0</ele><time>2026-04-02T16:49:45.998Z</time></trkpt><trkpt lat="44.44583558630854" lon="7.877307671023586"><ele>307.0</ele><time>2026-04-02T16:49:46.998Z</time></trkpt><trkpt lat="44.4457399384346" lon="7.877129406964364"><ele>314.0</ele><time>2026-04-02T16:49:47.998Z</time></trkpt><trkpt lat="44.44569296227934" lon="7.876917971239929"><ele>321.0</ele><time>2026-04-02T16:49:48.998Z</time></trkpt><trkpt lat="44.445659690037594" lon="7.876711605007645"><ele>325.3333333333333</ele><time>2026-04-02T16:49:49.998Z</time></trkpt><trkpt lat="44.44562091085524" lon="7.8765194641959875"><ele>329.66666666666663</ele><time>2026-04-02T16:49:50.998Z</time></trkpt><trkpt lat="44.44559406999318" lon="7.8762939419153275"><ele>334.0</ele><time>2026-04-02T16:49:51.998Z</time></trkpt><trkpt lat="44.445560622937116" lon="7.876082135776908"><ele>337.3333333333333</ele><time>2026-04-02T16:49:52.998Z</time></trkpt><trkpt lat="44.445523476572504" lon="7.8758769841042024"><ele>340.6666666666667</ele><time>2026-04-02T16:49:53.998Z</time></trkpt><trkpt lat="44.44548437582851" lon="7.875665106830857"><ele>344.0</ele><time>2026-04-02T16:49:54.998Z</time></trkpt><trkpt lat="44.44546214369431" lon="7.875447586158367"><ele>338.6666666666667</ele><time>2026-04-02T16:49:55.998Z</time></trkpt><trkpt lat="44.44541418902956" lon="7.875246488898748"><ele>333.3333333333333</ele><time>2026-04-02T16:49:56.998Z</time></trkpt><trkpt lat="44.44535784473074" lon="7.875051213048977"><ele>328.0</ele><time>2026-04-02T16:49:57.998Z</time></trkpt><trkpt lat="44.44528398657526" lon="7.874863522211829"><ele>328.0</ele><time>2026-04-02T16:49:58.998Z</time></trkpt><trkpt lat="44.44520870157986" lon="7.874679385020397"><ele>328.0</ele><time>2026-04-02T16:50:00Z</time></trkpt><trkpt lat="44.44512229087131" lon="7.874499516658959"><ele>328.0</ele><time>2026-04-02T16:50:01Z</time></trkpt><trkpt lat="44.44502309710392" lon="7.8743375164139024"><ele>331.66666666666663</ele><time>2026-04-02T16:50:02Z</time></trkpt><trkpt lat="44.44491889457413" lon="7.874183055062134"><ele>335.3333333333333</ele><time>2026-04-02T16:50:03Z</time></trkpt><trkpt lat="44.444792720108985" lon="7.874064814953379"><ele>339.0</ele><time>2026-04-02T16:50:04Z</time></trkpt><trkpt lat="44.44468528068157" lon="7.873900619270944"><ele>335.3333333333333</ele><time>2026-04-02T16:50:05Z</time></trkpt><trkpt lat="44.44456636018218" lon="7.8737682565726725"><ele>331.66666666666663</ele><time>2026-04-02T16:50:06Z</time></trkpt><trkpt lat="44.444430147597316" lon="7.873666731901893"><ele>328.0</ele><time>2026-04-02T16:50:07Z</time></trkpt><trkpt lat="44.44429811176135" lon="7.8735526287616775"><ele>328.0</ele><time>2026-04-02T16:50:08Z</time></trkpt><trkpt lat="44.44417206098529" lon="7.873445242322929"><ele>328.0</ele><time>2026-04-02T16:50:09Z</time></trkpt><trkpt lat="44.44405562855504" lon="7.87331723768139"><ele>328.0</ele><time>2026-04-02T16:50:10Z</time></trkpt><trkpt lat="44.44393562205968" lon="7.873199417412237"><ele>328.0</ele><time>2026-04-02T16:50:11Z</time></trkpt><trkpt lat="44.443811353156974" lon="7.873093002294929"><ele>331.5</ele><time>2026-04-02T16:50:12Z</time></trkpt><trkpt lat="44.44368977119568" lon="7.872978051132695"><ele>335.0</ele><time>2026-04-02T16:50:13Z</time></trkpt><trkpt lat="44.443572615908664" lon="7.872869417172244"><ele>338.5</ele><time>2026-04-02T16:50:14Z</time></trkpt><trkpt lat="44.443448053716246" lon="7.872749210032776"><ele>342.0</ele><time>2026-04-02T16:50:15Z</time></trkpt><trkpt lat="44.44332204310514" lon="7.8726185797737465"><ele>346.0</ele><time>2026-04-02T16:50:16Z</time></trkpt><trkpt lat="44.44319544811629" lon="7.87250588776997"><ele>350.0</ele><time>2026-04-02T16:50:17Z</time></trkpt><trkpt lat="44.443063524844256" lon="7.872389099877628"><ele>354.0</ele><time>2026-04-02T16:50:18Z</time></trkpt><trkpt lat="44.44293577979931" lon="7.872269151307739"><ele>355.0</ele><time>2026-04-02T16:50:19Z</time></trkpt><trkpt lat="44.44280257282519" lon="7.872156237246197"><ele>356.0</ele><time>2026-04-02T16:50:20Z</time></trkpt><trkpt lat="44.44266598269587" lon="7.872039339280485"><ele>357.0</ele><time>2026-04-02T16:50:21Z</time></trkpt><trkpt lat="44.442529545660356" lon="7.871929469336129"><ele>357.0</ele><time>2026-04-02T16:50:22Z</time></trkpt><trkpt lat="44.442394666768514" lon="7.8718201245783295"><ele>357.0</ele><time>2026-04-02T16:50:23Z</time></trkpt><trkpt lat="44.44225736947458" lon="7.871704896513147"><ele>357.0</ele><time>2026-04-02T16:50:24Z</time></trkpt><trkpt lat="44.44211896902252" lon="7.871588337660076"><ele>359.0</ele><time>2026-04-02T16:50:25Z</time></trkpt><trkpt lat="44.441973764320075" lon="7.8714768381131055"><ele>361.0</ele><time>2026-04-02T16:50:26Z</time></trkpt><trkpt lat="44.441830473422314" lon="7.871361554759396"><ele>363.0</ele><time>2026-04-02T16:50:27Z</time></trkpt><trkpt lat="44.44168340696948" lon="7.871251872261318"><ele>363.0</ele><time>2026-04-02T16:50:28Z</time></trkpt><trkpt lat="44.44153899542566" lon="7.871140883985302"><ele>363.0</ele><time>2026-04-02T16:50:29Z</time></trkpt><trkpt lat="44.44139187413746" lon="7.871029794165214"><ele>363.0</ele><time>2026-04-02T16:50:30Z</time></trkpt><trkpt lat="44.44123684024921" lon="7.8709147524927445"><ele>365.3333333333333</ele><time>2026-04-02T16:50:31Z</time></trkpt><trkpt lat="44.441083978878744" lon="7.870799827233401"><ele>367.66666666666663</ele><time>2026-04-02T16:50:32Z</time></trkpt><trkpt lat="44.440932242879775" lon="7.870681932644232"><ele>370.0</ele><time>2026-04-02T16:50:33Z</time></trkpt><trkpt lat="44.44077096373209" lon="7.8705657512327685"><ele>370.0</ele><time>2026-04-02T16:50:34Z</time></trkpt><trkpt lat="44.440605432130745" lon="7.870432396159032"><ele>370.0</ele><time>2026-04-02T16:50:35Z</time></trkpt><trkpt lat="44.44044388864812" lon="7.870304700715172"><ele>370.0</ele><time>2026-04-02T16:50:36Z</time></trkpt><trkpt lat="44.44028049651579" lon="7.87018197634523"><ele>370.3333333333333</ele><time>2026-04-02T16:50:37Z</time></trkpt><trkpt lat="44.440112363724126" lon="7.870054687449031"><ele>370.6666666666667</ele><time>2026-04-02T16:50:38Z</time></trkpt><trkpt lat="44.43994520534865" lon="7.869938486049962"><ele>371.0</ele><time>2026-04-02T16:50:39Z</time></trkpt><trkpt lat="44.439779767479976" lon="7.869818918014626"><ele>371.0</ele><time>2026-04-02T16:50:40Z</time></trkpt><trkpt lat="44.43961177486015" lon="7.869695680609478"><ele>371.0</ele><time>2026-04-02T16:50:41Z</time></trkpt><trkpt lat="44.43944748966189" lon="7.869571000195521"><ele>371.0</ele><time>2026-04-02T16:50:42Z</time></trkpt><trkpt lat="44.4392790289542" lon="7.869442586008339"><ele>371.0</ele><time>2026-04-02T16:50:43Z</time></trkpt><trkpt lat="44.439114692797766" lon="7.869318612001406"><ele>371.0</ele><time>2026-04-02T16:50:43.999Z</time></trkpt><trkpt lat="44.43895269426742" lon="7.869188099240919"><ele>371.0</ele><time>2026-04-02T16:50:44.999Z</time></trkpt><trkpt lat="44.43878242961971" lon="7.869042155647675"><ele>371.0</ele><time>2026-04-02T16:50:45.999Z</time></trkpt><trkpt lat="44.43861607381377" lon="7.8689044913595385"><ele>371.0</ele><time>2026-04-02T16:50:46.999Z</time></trkpt><trkpt lat="44.43844988670728" lon="7.868755507986323"><ele>371.0</ele><time>2026-04-02T16:50:47.999Z</time></trkpt><trkpt lat="44.43828041927473" lon="7.868599258791734"><ele>371.0</ele><time>2026-04-02T16:50:48.999Z</time></trkpt><trkpt lat="44.43811204478492" lon="7.868435169932774"><ele>371.0</ele><time>2026-04-02T16:50:49.999Z</time></trkpt><trkpt lat="44.43794489189988" lon="7.868274080228941"><ele>371.0</ele><time>2026-04-02T16:50:50.999Z</time></trkpt><trkpt lat="44.43777624583007" lon="7.868098579512128"><ele>371.0</ele><time>2026-04-02T16:50:51.999Z</time></trkpt><trkpt lat="44.43760973849001" lon="7.867931152861485"><ele>371.0</ele><time>2026-04-02T16:50:52.999Z</time></trkpt><trkpt lat="44.437446896312586" lon="7.867760873458784"><ele>371.0</ele><time>2026-04-02T16:50:53.999Z</time></trkpt><trkpt lat="44.43728239730885" lon="7.86759159549561"><ele>371.6666666666667</ele><time>2026-04-02T16:50:54.999Z</time></trkpt><trkpt lat="44.43711672312382" lon="7.867409093181846"><ele>372.3333333333333</ele><time>2026-04-02T16:50:55.999Z</time></trkpt><trkpt lat="44.43694688039366" lon="7.867224448382481"><ele>373.0</ele><time>2026-04-02T16:50:56.999Z</time></trkpt><trkpt lat="44.4367780315583" lon="7.867040113845621"><ele>373.0</ele><time>2026-04-02T16:50:57.999Z</time></trkpt><trkpt lat="44.43660606650926" lon="7.866842668126383"><ele>373.0</ele><time>2026-04-02T16:50:58.999Z</time></trkpt><trkpt lat="44.43643522407126" lon="7.866652659134252"><ele>373.0</ele><time>2026-04-02T16:50:59.999Z</time></trkpt><trkpt lat="44.43626263414977" lon="7.8664528105886165"><ele>373.5</ele><time>2026-04-02T16:51:00.999Z</time></trkpt><trkpt lat="44.43608227328815" lon="7.866249591272015"><ele>374.0</ele><time>2026-04-02T16:51:01.999Z</time></trkpt><trkpt lat="44.43590128328125" lon="7.866048865836334"><ele>373.5</ele><time>2026-04-02T16:51:02.999Z</time></trkpt><trkpt lat="44.43571583034328" lon="7.865842257725714"><ele>373.0</ele><time>2026-04-02T16:51:03.999Z</time></trkpt><trkpt lat="44.435527733667655" lon="7.865637639828334"><ele>373.5</ele><time>2026-04-02T16:51:04.999Z</time></trkpt><trkpt lat="44.43533491748015" lon="7.865423439450567"><ele>374.0</ele><time>2026-04-02T16:51:05.999Z</time></trkpt><trkpt lat="44.43514247039483" lon="7.865204795500913"><ele>373.5</ele><time>2026-04-02T16:51:06.999Z</time></trkpt><trkpt lat="44.43494115129908" lon="7.864982943075146"><ele>373.0</ele><time>2026-04-02T16:51:07.999Z</time></trkpt><trkpt lat="44.43474773881809" lon="7.864773339081751"><ele>373.5</ele><time>2026-04-02T16:51:08.999Z</time></trkpt><trkpt lat="44.43455137041856" lon="7.864557594925013"><ele>374.0</ele><time>2026-04-02T16:51:09.999Z</time></trkpt><trkpt lat="44.43436170941939" lon="7.864339730718003"><ele>374.0</ele><time>2026-04-02T16:51:10.999Z</time></trkpt><trkpt lat="44.434163641065695" lon="7.864116244741078"><ele>374.0</ele><time>2026-04-02T16:51:11.999Z</time></trkpt><trkpt lat="44.43396407135977" lon="7.86389823247199"><ele>374.5</ele><time>2026-04-02T16:51:12.999Z</time></trkpt><trkpt lat="44.43376608194342" lon="7.863672366227209"><ele>375.0</ele><time>2026-04-02T16:51:13.999Z</time></trkpt><trkpt lat="44.43356886244188" lon="7.863448191803089"><ele>375.0</ele><time>2026-04-02T16:51:14.999Z</time></trkpt><trkpt lat="44.433365296878925" lon="7.863211982325516"><ele>375.0</ele><time>2026-04-02T16:51:15.999Z</time></trkpt><trkpt lat="44.43315781612711" lon="7.862984440504886"><ele>375.0</ele><time>2026-04-02T16:51:16.999Z</time></trkpt><trkpt lat="44.43295552717909" lon="7.862759515530282"><ele>375.0</ele><time>2026-04-02T16:51:17.999Z</time></trkpt><trkpt lat="44.432756865470715" lon="7.86253635593588"><ele>375.0</ele><time>2026-04-02T16:51:18.999Z</time></trkpt><trkpt lat="44.432564315083" lon="7.862314673354225"><ele>375.0</ele><time>2026-04-02T16:51:19.999Z</time></trkpt><trkpt lat="44.43237650773737" lon="7.8621066202578715"><ele>375.0</ele><time>2026-04-02T16:51:20.999Z</time></trkpt><trkpt lat="44.43218819412016" lon="7.861901623252334"><ele>375.0</ele><time>2026-04-02T16:51:21.999Z</time></trkpt><trkpt lat="44.432011339581116" lon="7.861691513076991"><ele>377.0</ele><time>2026-04-02T16:51:22.999Z</time></trkpt><trkpt lat="44.43182186530222" lon="7.861481546734236"><ele>379.0</ele><time>2026-04-02T16:51:23.999Z</time></trkpt><trkpt lat="44.43164508541324" lon="7.861281053970654"><ele>379.0</ele><time>2026-04-02T16:51:24.999Z</time></trkpt><trkpt lat="44.43146319990574" lon="7.861087430384785"><ele>379.0</ele><time>2026-04-02T16:51:25.999Z</time></trkpt><trkpt lat="44.4312917893018" lon="7.860899510597257"><ele>379.0</ele><time>2026-04-02T16:51:26.999Z</time></trkpt><trkpt lat="44.431118293671034" lon="7.860716488921687"><ele>378.5</ele><time>2026-04-02T16:51:27.999Z</time></trkpt><trkpt lat="44.43094180551054" lon="7.8605124531051445"><ele>378.0</ele><time>2026-04-02T16:51:28.999Z</time></trkpt><trkpt lat="44.430762542364505" lon="7.86030662043887"><ele>379.0</ele><time>2026-04-02T16:51:29.999Z</time></trkpt><trkpt lat="44.43057762822054" lon="7.8601018532270865"><ele>380.0</ele><time>2026-04-02T16:51:30.999Z</time></trkpt><trkpt lat="44.4303939024879" lon="7.859900083995113"><ele>380.0</ele><time>2026-04-02T16:51:31.999Z</time></trkpt><trkpt lat="44.43021173759137" lon="7.85970186800438"><ele>380.0</ele><time>2026-04-02T16:51:32.999Z</time></trkpt><trkpt lat="44.43004541419716" lon="7.859511964769228"><ele>380.0</ele><time>2026-04-02T16:51:33.999Z</time></trkpt><trkpt lat="44.42988336025094" lon="7.859321759668597"><ele>379.6666666666667</ele><time>2026-04-02T16:51:34.999Z</time></trkpt><trkpt lat="44.42971370113113" lon="7.85912357990065"><ele>379.3333333333333</ele><time>2026-04-02T16:51:35.999Z</time></trkpt><trkpt lat="44.429541116931176" lon="7.858936783754511"><ele>379.0</ele><time>2026-04-02T16:51:36.999Z</time></trkpt><trkpt lat="44.42937103897418" lon="7.858752758269993"><ele>379.0</ele><time>2026-04-02T16:51:37.999Z</time></trkpt><trkpt lat="44.42921147660448" lon="7.8585792164481445"><ele>379.0</ele><time>2026-04-02T16:51:38.999Z</time></trkpt><trkpt lat="44.429052432007936" lon="7.858386754064764"><ele>379.0</ele><time>2026-04-02T16:51:39.998Z</time></trkpt><trkpt lat="44.428893794398675" lon="7.8581994605292556"><ele>379.0</ele><time>2026-04-02T16:51:40.998Z</time></trkpt><trkpt lat="44.42873342537455" lon="7.858008247177803"><ele>379.0</ele><time>2026-04-02T16:51:41.998Z</time></trkpt><trkpt lat="44.42858395438719" lon="7.857830717199367"><ele>379.0</ele><time>2026-04-02T16:51:42.998Z</time></trkpt><trkpt lat="44.428441640348204" lon="7.857651261873113"><ele>379.0</ele><time>2026-04-02T16:51:43.998Z</time></trkpt><trkpt lat="44.42829416679176" lon="7.857488739601431"><ele>379.0</ele><time>2026-04-02T16:51:44.998Z</time></trkpt><trkpt lat="44.42814146182797" lon="7.857316347351607"><ele>379.0</ele><time>2026-04-02T16:51:45.998Z</time></trkpt><trkpt lat="44.42799127563966" lon="7.857138236459686"><ele>379.66666666666663</ele><time>2026-04-02T16:51:46.998Z</time></trkpt><trkpt lat="44.42784385482846" lon="7.8569702953300835"><ele>380.3333333333333</ele><time>2026-04-02T16:51:47.998Z</time></trkpt><trkpt lat="44.427692305317244" lon="7.856780758192555"><ele>381.0</ele><time>2026-04-02T16:51:48.998Z</time></trkpt><trkpt lat="44.42754430967788" lon="7.85659704517687"><ele>381.3333333333333</ele><time>2026-04-02T16:51:49.998Z</time></trkpt><trkpt lat="44.4273968228497" lon="7.856400425445377"><ele>381.66666666666663</ele><time>2026-04-02T16:51:50.998Z</time></trkpt><trkpt lat="44.42724951522496" lon="7.8562150618426685"><ele>382.0</ele><time>2026-04-02T16:51:51.998Z</time></trkpt><trkpt lat="44.42709888396744" lon="7.856032769371202"><ele>382.0</ele><time>2026-04-02T16:51:52.998Z</time></trkpt><trkpt lat="44.426950258318946" lon="7.855839847097566"><ele>382.0</ele><time>2026-04-02T16:51:53.998Z</time></trkpt><trkpt lat="44.426797966524695" lon="7.855651502811027"><ele>382.0</ele><time>2026-04-02T16:51:54.998Z</time></trkpt><trkpt lat="44.42665092062741" lon="7.855455653604205"><ele>382.0</ele><time>2026-04-02T16:51:55.998Z</time></trkpt><trkpt lat="44.42650471539849" lon="7.855266187305787"><ele>382.0</ele><time>2026-04-02T16:51:56.998Z</time></trkpt><trkpt lat="44.426353097110955" lon="7.8550817283990435"><ele>382.0</ele><time>2026-04-02T16:51:57.998Z</time></trkpt><trkpt lat="44.42620429328206" lon="7.85488638929726"><ele>382.3333333333333</ele><time>2026-04-02T16:51:58.998Z</time></trkpt><trkpt lat="44.42606967809166" lon="7.854709372469597"><ele>382.6666666666667</ele><time>2026-04-02T16:51:59.998Z</time></trkpt><trkpt lat="44.42593559150282" lon="7.854532527270342"><ele>383.0</ele><time>2026-04-02T16:52:00.998Z</time></trkpt><trkpt lat="44.4257948212674" lon="7.854356718986484"><ele>383.0</ele><time>2026-04-02T16:52:01.998Z</time></trkpt><trkpt lat="44.4256512456198" lon="7.854173914150374"><ele>383.0</ele><time>2026-04-02T16:52:02.998Z</time></trkpt><trkpt lat="44.425507191884606" lon="7.853989203316748"><ele>383.0</ele><time>2026-04-02T16:52:03.998Z</time></trkpt><trkpt lat="44.42537493116136" lon="7.853813814752433"><ele>383.0</ele><time>2026-04-02T16:52:04.998Z</time></trkpt><trkpt lat="44.42524341759714" lon="7.853647225561189"><ele>383.0</ele><time>2026-04-02T16:52:06Z</time></trkpt><trkpt lat="44.42511021119114" lon="7.853474805038733"><ele>383.0</ele><time>2026-04-02T16:52:07Z</time></trkpt><trkpt lat="44.42498408513055" lon="7.853305198754968"><ele>383.0</ele><time>2026-04-02T16:52:08Z</time></trkpt><trkpt lat="44.424861089371724" lon="7.853144393518094"><ele>383.0</ele><time>2026-04-02T16:52:09Z</time></trkpt><trkpt lat="44.42474071848179" lon="7.852989251717983"><ele>383.0</ele><time>2026-04-02T16:52:10Z</time></trkpt><trkpt lat="44.424626229421655" lon="7.852831776517946"><ele>383.0</ele><time>2026-04-02T16:52:11Z</time></trkpt><trkpt lat="44.424510686484794" lon="7.8526408158566205"><ele>383.0</ele><time>2026-04-02T16:52:12Z</time></trkpt><trkpt lat="44.42441095708773" lon="7.852425429411645"><ele>383.0</ele><time>2026-04-02T16:52:13Z</time></trkpt><trkpt lat="44.42431566415695" lon="7.8522002343611765"><ele>383.0</ele><time>2026-04-02T16:52:14Z</time></trkpt><trkpt lat="44.424221685355356" lon="7.851983686201833"><ele>383.0</ele><time>2026-04-02T16:52:15Z</time></trkpt><trkpt lat="44.42413561334982" lon="7.851784267051954"><ele>383.0</ele><time>2026-04-02T16:52:16Z</time></trkpt><trkpt lat="44.42404902015038" lon="7.851584928965617"><ele>383.0</ele><time>2026-04-02T16:52:17Z</time></trkpt><trkpt lat="44.42397099483174" lon="7.851384314132038"><ele>383.0</ele><time>2026-04-02T16:52:18Z</time></trkpt><trkpt lat="44.42389133480875" lon="7.851206463274928"><ele>383.0</ele><time>2026-04-02T16:52:19Z</time></trkpt><trkpt lat="44.423809782704076" lon="7.8510319123889705"><ele>383.25</ele><time>2026-04-02T16:52:20Z</time></trkpt><trkpt lat="44.423739863502206" lon="7.850880534843887"><ele>383.5</ele><time>2026-04-02T16:52:21Z</time></trkpt><trkpt lat="44.423671733736064" lon="7.8507394805249895"><ele>383.75</ele><time>2026-04-02T16:52:22Z</time></trkpt><trkpt lat="44.42360754938909" lon="7.850615398191396"><ele>384.0</ele><time>2026-04-02T16:52:23Z</time></trkpt><trkpt lat="44.42353907625213" lon="7.850496434286511"><ele>384.0</ele><time>2026-04-02T16:52:24Z</time></trkpt><trkpt lat="44.42347822469605" lon="7.850399867296729"><ele>384.0</ele><time>2026-04-02T16:52:25Z</time></trkpt><trkpt lat="44.42342683177979" lon="7.850301264202311"><ele>384.0</ele><time>2026-04-02T16:52:26Z</time></trkpt><trkpt lat="44.423381355574875" lon="7.850206496612416"><ele>384.0</ele><time>2026-04-02T16:52:27Z</time></trkpt><trkpt lat="44.42333612016346" lon="7.850097067583071"><ele>384.0</ele><time>2026-04-02T16:52:28Z</time></trkpt><trkpt lat="44.42329918186765" lon="7.8499998177325585"><ele>384.0</ele><time>2026-04-02T16:52:29Z</time></trkpt><trkpt lat="44.42325623570993" lon="7.8499057414745055"><ele>383.79999999999995</ele><time>2026-04-02T16:52:30Z</time></trkpt><trkpt lat="44.423182646726225" lon="7.849824910012972"><ele>383.59999999999997</ele><time>2026-04-02T16:52:31Z</time></trkpt><trkpt lat="44.42309002063362" lon="7.849761356460468"><ele>383.4</ele><time>2026-04-02T16:52:32Z</time></trkpt><trkpt lat="44.42299684642927" lon="7.849693948504533"><ele>383.2</ele><time>2026-04-02T16:52:33Z</time></trkpt><trkpt lat="44.42290482873427" lon="7.849602901494257"><ele>383.0</ele><time>2026-04-02T16:52:34Z</time></trkpt><trkpt lat="44.42280884268704" lon="7.849477958804826"><ele>383.2</ele><time>2026-04-02T16:52:35Z</time></trkpt><trkpt lat="44.42271309280899" lon="7.849375062322974"><ele>383.4</ele><time>2026-04-02T16:52:36Z</time></trkpt><trkpt lat="44.422620723442726" lon="7.849285858860106"><ele>383.59999999999997</ele><time>2026-04-02T16:52:37Z</time></trkpt><trkpt lat="44.42252834034328" lon="7.849231315572485"><ele>383.79999999999995</ele><time>2026-04-02T16:52:38Z</time></trkpt><trkpt lat="44.422434173038205" lon="7.84919076221432"><ele>384.0</ele><time>2026-04-02T16:52:39Z</time></trkpt><trkpt lat="44.42235416877829" lon="7.849186416864218"><ele>384.0</ele><time>2026-04-02T16:52:40Z</time></trkpt><trkpt lat="44.42227832165326" lon="7.849168870276519"><ele>384.0</ele><time>2026-04-02T16:52:41Z</time></trkpt><trkpt lat="44.422206374550576" lon="7.849144969707131"><ele>384.0</ele><time>2026-04-02T16:52:42Z</time></trkpt><trkpt lat="44.422137893896405" lon="7.849108027926421"><ele>384.0</ele><time>2026-04-02T16:52:43Z</time></trkpt><trkpt lat="44.4220722392846" lon="7.8490388178095145"><ele>384.0</ele><time>2026-04-02T16:52:44Z</time></trkpt><trkpt lat="44.4219948611041" lon="7.84895851574409"><ele>384.0</ele><time>2026-04-02T16:52:45Z</time></trkpt><trkpt lat="44.4218979695693" lon="7.848889707910132"><ele>384.2</ele><time>2026-04-02T16:52:46Z</time></trkpt><trkpt lat="44.421802832579935" lon="7.848861950689158"><ele>384.4</ele><time>2026-04-02T16:52:47Z</time></trkpt><trkpt lat="44.421692899169294" lon="7.848854500001179"><ele>384.6</ele><time>2026-04-02T16:52:47.999Z</time></trkpt><trkpt lat="44.421590494604075" lon="7.848864094519879"><ele>384.8</ele><time>2026-04-02T16:52:48.999Z</time></trkpt><trkpt lat="44.421503413361485" lon="7.848843010563853"><ele>385.0</ele><time>2026-04-02T16:52:49.999Z</time></trkpt><trkpt lat="44.421408396865935" lon="7.848797478854279"><ele>385.25</ele><time>2026-04-02T16:52:50.999Z</time></trkpt><trkpt lat="44.42129857960218" lon="7.848721078315714"><ele>385.5</ele><time>2026-04-02T16:52:51.999Z</time></trkpt><trkpt lat="44.4211644427492" lon="7.8486231567165525"><ele>385.75</ele><time>2026-04-02T16:52:52.999Z</time></trkpt><trkpt lat="44.421058741598976" lon="7.8484918750459975"><ele>386.0</ele><time>2026-04-02T16:52:53.999Z</time></trkpt><trkpt lat="44.420913648205136" lon="7.8483768961994835"><ele>386.66666666666663</ele><time>2026-04-02T16:52:54.999Z</time></trkpt><trkpt lat="44.42078000037961" lon="7.848253748234866"><ele>387.33333333333337</ele><time>2026-04-02T16:52:55.999Z</time></trkpt><trkpt lat="44.420631076620246" lon="7.84813834084295"><ele>388.0</ele><time>2026-04-02T16:52:56.999Z</time></trkpt><trkpt lat="44.420475898339944" lon="7.848010448161708"><ele>388.0</ele><time>2026-04-02T16:52:57.999Z</time></trkpt><trkpt lat="44.42033047467866" lon="7.847859723584314"><ele>388.0</ele><time>2026-04-02T16:52:58.999Z</time></trkpt><trkpt lat="44.42019644391483" lon="7.847729779689236"><ele>388.0</ele><time>2026-04-02T16:52:59.999Z</time></trkpt><trkpt lat="44.42007491444769" lon="7.847605141948835"><ele>388.0</ele><time>2026-04-02T16:53:00.999Z</time></trkpt><trkpt lat="44.419978806394376" lon="7.84749521473454"><ele>388.0</ele><time>2026-04-02T16:53:01.999Z</time></trkpt><trkpt lat="44.419880398854936" lon="7.847409620248811"><ele>388.0</ele><time>2026-04-02T16:53:02.999Z</time></trkpt><trkpt lat="44.419775744264555" lon="7.847327147471513"><ele>388.0</ele><time>2026-04-02T16:53:03.999Z</time></trkpt><trkpt lat="44.41969439829642" lon="7.847287882509483"><ele>388.0</ele><time>2026-04-02T16:53:04.999Z</time></trkpt><trkpt lat="44.41961801185654" lon="7.847240559208869"><ele>388.0</ele><time>2026-04-02T16:53:05.999Z</time></trkpt><trkpt lat="44.4195471632004" lon="7.847205806917416"><ele>388.0</ele><time>2026-04-02T16:53:06.999Z</time></trkpt><trkpt lat="44.41946258731201" lon="7.847126867439722"><ele>388.0</ele><time>2026-04-02T16:53:08.999Z</time></trkpt><trkpt lat="44.41936205286999" lon="7.847039909385428"><ele>388.0</ele><time>2026-04-02T16:53:12.999Z</time></trkpt><trkpt lat="44.41929087470267" lon="7.846984061381528"><ele>388.0</ele><time>2026-04-02T16:53:13.999Z</time></trkpt><trkpt lat="44.419214637171244" lon="7.846952800292457"><ele>388.0</ele><time>2026-04-02T16:53:14.999Z</time></trkpt><trkpt lat="44.41912559982058" lon="7.8468539820434104"><ele>388.0</ele><time>2026-04-02T16:53:15.999Z</time></trkpt><trkpt lat="44.419047207476616" lon="7.846783906213627"><ele>388.0</ele><time>2026-04-02T16:53:16.999Z</time></trkpt><trkpt lat="44.41895566021537" lon="7.846685202206887"><ele>388.0</ele><time>2026-04-02T16:53:17.999Z</time></trkpt><trkpt lat="44.41884610523166" lon="7.846579851640391"><ele>388.5</ele><time>2026-04-02T16:53:18.999Z</time></trkpt><trkpt lat="44.41873235304206" lon="7.846502030563993"><ele>389.0</ele><time>2026-04-02T16:53:19.999Z</time></trkpt><trkpt lat="44.41859706745204" lon="7.84637528864401"><ele>389.5</ele><time>2026-04-02T16:53:20.999Z</time></trkpt><trkpt lat="44.418468048059765" lon="7.846273050205754"><ele>390.0</ele><time>2026-04-02T16:53:21.999Z</time></trkpt><trkpt lat="44.418335699941856" lon="7.846160799298009"><ele>390.0</ele><time>2026-04-02T16:53:22.999Z</time></trkpt><trkpt lat="44.418205789630385" lon="7.846045127040429"><ele>390.0</ele><time>2026-04-02T16:53:23.999Z</time></trkpt><trkpt lat="44.41803981190872" lon="7.84593379287634"><ele>390.0</ele><time>2026-04-02T16:53:24.999Z</time></trkpt><trkpt lat="44.417889050959914" lon="7.845801879670156"><ele>390.33333333333337</ele><time>2026-04-02T16:53:25.999Z</time></trkpt><trkpt lat="44.41773566513086" lon="7.84565811370261"><ele>390.6666666666667</ele><time>2026-04-02T16:53:26.999Z</time></trkpt><trkpt lat="44.41758634290508" lon="7.845516992137999"><ele>391.0</ele><time>2026-04-02T16:53:27.999Z</time></trkpt><trkpt lat="44.41742450703827" lon="7.845365285266419"><ele>391.0</ele><time>2026-04-02T16:53:28.999Z</time></trkpt><trkpt lat="44.41726948460537" lon="7.845226949065666"><ele>391.0</ele><time>2026-04-02T16:53:29.999Z</time></trkpt><trkpt lat="44.41710563506522" lon="7.845104158897037"><ele>391.0</ele><time>2026-04-02T16:53:30.999Z</time></trkpt><trkpt lat="44.41695855832668" lon="7.844984764713676"><ele>390.33333333333337</ele><time>2026-04-02T16:53:31.999Z</time></trkpt><trkpt lat="44.41679478190771" lon="7.844837630965977"><ele>389.66666666666663</ele><time>2026-04-02T16:53:32.999Z</time></trkpt><trkpt lat="44.416645591202474" lon="7.844711213190067"><ele>389.0</ele><time>2026-04-02T16:53:33.999Z</time></trkpt><trkpt lat="44.41650127388286" lon="7.844582807672263"><ele>389.0</ele><time>2026-04-02T16:53:34.999Z</time></trkpt><trkpt lat="44.41635432189683" lon="7.844446999647681"><ele>389.0</ele><time>2026-04-02T16:53:35.999Z</time></trkpt><trkpt lat="44.41621173139" lon="7.844306809409334"><ele>389.0</ele><time>2026-04-02T16:53:36.999Z</time></trkpt><trkpt lat="44.41606755875038" lon="7.84418272047895"><ele>389.66666666666663</ele><time>2026-04-02T16:53:37.999Z</time></trkpt><trkpt lat="44.41592912470543" lon="7.844061248182932"><ele>390.33333333333337</ele><time>2026-04-02T16:53:38.999Z</time></trkpt><trkpt lat="44.41578487710526" lon="7.843933490486984"><ele>391.0</ele><time>2026-04-02T16:53:39.999Z</time></trkpt><trkpt lat="44.41564340797479" lon="7.843806998999431"><ele>391.0</ele><time>2026-04-02T16:53:40.999Z</time></trkpt><trkpt lat="44.41549971066924" lon="7.843713356103972"><ele>391.0</ele><time>2026-04-02T16:53:41.999Z</time></trkpt><trkpt lat="44.415362118438914" lon="7.843600547092742"><ele>391.0</ele><time>2026-04-02T16:53:42.999Z</time></trkpt><trkpt lat="44.415216972199474" lon="7.843499506175216"><ele>391.0</ele><time>2026-04-02T16:53:43.999Z</time></trkpt><trkpt lat="44.41505809450917" lon="7.8434164352204805"><ele>391.0</ele><time>2026-04-02T16:53:44.998Z</time></trkpt><trkpt lat="44.414900232806865" lon="7.843333786064079"><ele>391.0</ele><time>2026-04-02T16:53:45.998Z</time></trkpt><trkpt lat="44.41474533467374" lon="7.843235903782457"><ele>391.0</ele><time>2026-04-02T16:53:46.998Z</time></trkpt><trkpt lat="44.41459063057719" lon="7.843142994884828"><ele>391.0</ele><time>2026-04-02T16:53:47.998Z</time></trkpt><trkpt lat="44.414428682423555" lon="7.843058887062897"><ele>391.0</ele><time>2026-04-02T16:53:48.998Z</time></trkpt><trkpt lat="44.41425918628004" lon="7.8429390101438745"><ele>391.0</ele><time>2026-04-02T16:53:49.998Z</time></trkpt><trkpt lat="44.41408933713362" lon="7.842838705740539"><ele>391.0</ele><time>2026-04-02T16:53:50.998Z</time></trkpt><trkpt lat="44.41391710698726" lon="7.842753843721477"><ele>391.0</ele><time>2026-04-02T16:53:51.998Z</time></trkpt><trkpt lat="44.413753828612975" lon="7.842642380911983"><ele>391.0</ele><time>2026-04-02T16:53:52.998Z</time></trkpt><trkpt lat="44.41360193613089" lon="7.842543245380912"><ele>391.0</ele><time>2026-04-02T16:53:53.998Z</time></trkpt><trkpt lat="44.413450046139445" lon="7.842462298436613"><ele>391.0</ele><time>2026-04-02T16:53:54.998Z</time></trkpt><trkpt lat="44.41331881791974" lon="7.8423864227742595"><ele>391.0</ele><time>2026-04-02T16:53:55.998Z</time></trkpt><trkpt lat="44.41319953559611" lon="7.842314214349147"><ele>391.0</ele><time>2026-04-02T16:53:56.998Z</time></trkpt><trkpt lat="44.41308599764333" lon="7.842247443207522"><ele>391.0</ele><time>2026-04-02T16:53:57.998Z</time></trkpt><trkpt lat="44.41298113139626" lon="7.842190382707179"><ele>391.0</ele><time>2026-04-02T16:53:58.998Z</time></trkpt><trkpt lat="44.4128775516373" lon="7.842158272873765"><ele>391.00000000000006</ele><time>2026-04-02T16:53:59.998Z</time></trkpt><trkpt lat="44.41280712315096" lon="7.842151647310503"><ele>391.0</ele><time>2026-04-02T16:54:00.998Z</time></trkpt><trkpt lat="44.41272994638322" lon="7.842122707655255"><ele>391.0</ele><time>2026-04-02T16:54:01.998Z</time></trkpt><trkpt lat="44.41266482646761" lon="7.842102126436028"><ele>391.0</ele><time>2026-04-02T16:54:02.998Z</time></trkpt><trkpt lat="44.412596187299016" lon="7.84206665948753"><ele>391.00000000000006</ele><time>2026-04-02T16:54:03.998Z</time></trkpt><trkpt lat="44.412513348764044" lon="7.842025309401658"><ele>391.0</ele><time>2026-04-02T16:54:04.998Z</time></trkpt><trkpt lat="44.41242913395727" lon="7.841992873261127"><ele>391.0</ele><time>2026-04-02T16:54:05.998Z</time></trkpt><trkpt lat="44.41235836389303" lon="7.841906376573586"><ele>391.0</ele><time>2026-04-02T16:54:06.998Z</time></trkpt><trkpt lat="44.412308246739926" lon="7.841825261582983"><ele>391.0</ele><time>2026-04-02T16:54:07.998Z</time></trkpt><trkpt lat="44.41224508207663" lon="7.8417169289848125"><ele>391.0</ele><time>2026-04-02T16:54:08.998Z</time></trkpt><trkpt lat="44.41217960279897" lon="7.841576151138786"><ele>391.0</ele><time>2026-04-02T16:54:09.998Z</time></trkpt><trkpt lat="44.412069493871684" lon="7.841426912505284"><ele>391.33333333333337</ele><time>2026-04-02T16:54:10.998Z</time></trkpt><trkpt lat="44.411954266944235" lon="7.841289340369574"><ele>391.66666666666663</ele><time>2026-04-02T16:54:12Z</time></trkpt><trkpt lat="44.41184540156815" lon="7.841148729557328"><ele>392.0</ele><time>2026-04-02T16:54:13Z</time></trkpt><trkpt lat="44.4117308189279" lon="7.841007682406451"><ele>392.0</ele><time>2026-04-02T16:54:14Z</time></trkpt><trkpt lat="44.41160322152592" lon="7.840858957003972"><ele>392.0</ele><time>2026-04-02T16:54:15Z</time></trkpt><trkpt lat="44.411483512574364" lon="7.8407006255323175"><ele>392.0</ele><time>2026-04-02T16:54:16Z</time></trkpt><trkpt lat="44.411368732418765" lon="7.84055439620037"><ele>392.0</ele><time>2026-04-02T16:54:17Z</time></trkpt><trkpt lat="44.41125766929341" lon="7.840426357767108"><ele>392.0</ele><time>2026-04-02T16:54:18Z</time></trkpt><trkpt lat="44.41114757088229" lon="7.840294376542878"><ele>392.0</ele><time>2026-04-02T16:54:19Z</time></trkpt><trkpt lat="44.411036970875145" lon="7.840155302364896"><ele>392.0</ele><time>2026-04-02T16:54:20Z</time></trkpt><trkpt lat="44.41092640747487" lon="7.840025550256261"><ele>392.0</ele><time>2026-04-02T16:54:21Z</time></trkpt><trkpt lat="44.41081561808007" lon="7.839890986665919"><ele>392.0</ele><time>2026-04-02T16:54:22Z</time></trkpt><trkpt lat="44.41070535554864" lon="7.839758810335202"><ele>392.0</ele><time>2026-04-02T16:54:23Z</time></trkpt><trkpt lat="44.41059583816493" lon="7.839619365643978"><ele>392.0</ele><time>2026-04-02T16:54:24Z</time></trkpt><trkpt lat="44.41048795980572" lon="7.839463230358435"><ele>392.25</ele><time>2026-04-02T16:54:25Z</time></trkpt><trkpt lat="44.41038261785815" lon="7.839326828550929"><ele>392.5</ele><time>2026-04-02T16:54:26Z</time></trkpt><trkpt lat="44.41027127618691" lon="7.8391940287159505"><ele>392.75</ele><time>2026-04-02T16:54:27Z</time></trkpt><trkpt lat="44.41015797192479" lon="7.8390689429221165"><ele>393.0</ele><time>2026-04-02T16:54:28Z</time></trkpt><trkpt lat="44.410042837567964" lon="7.838933871429714"><ele>393.5</ele><time>2026-04-02T16:54:29Z</time></trkpt><trkpt lat="44.409933451728946" lon="7.83880655862249"><ele>394.0</ele><time>2026-04-02T16:54:30Z</time></trkpt><trkpt lat="44.40982250789946" lon="7.838687725260912"><ele>394.5</ele><time>2026-04-02T16:54:31Z</time></trkpt><trkpt lat="44.409719674884506" lon="7.838557365096814"><ele>395.0</ele><time>2026-04-02T16:54:32Z</time></trkpt><trkpt lat="44.40961124767653" lon="7.838421684608216"><ele>395.5</ele><time>2026-04-02T16:54:33Z</time></trkpt><trkpt lat="44.40949865879736" lon="7.838286127180782"><ele>396.0</ele><time>2026-04-02T16:54:34Z</time></trkpt><trkpt lat="44.409393135531474" lon="7.838159119203233"><ele>396.5</ele><time>2026-04-02T16:54:35Z</time></trkpt><trkpt lat="44.40927666093302" lon="7.838017416488752"><ele>397.0</ele><time>2026-04-02T16:54:36Z</time></trkpt><trkpt lat="44.40916084407156" lon="7.837886014126184"><ele>397.0</ele><time>2026-04-02T16:54:37Z</time></trkpt><trkpt lat="44.409050020087975" lon="7.837743806109869"><ele>397.0</ele><time>2026-04-02T16:54:38Z</time></trkpt><trkpt lat="44.40894585663179" lon="7.837614819340665"><ele>397.0</ele><time>2026-04-02T16:54:39Z</time></trkpt><trkpt lat="44.408840762932634" lon="7.837488091806698"><ele>397.0</ele><time>2026-04-02T16:54:40Z</time></trkpt><trkpt lat="44.40873084676647" lon="7.8373456748660715"><ele>397.0</ele><time>2026-04-02T16:54:41Z</time></trkpt><trkpt lat="44.408624559912745" lon="7.83721258384596"><ele>397.0</ele><time>2026-04-02T16:54:42Z</time></trkpt><trkpt lat="44.408512367024684" lon="7.837081572402442"><ele>397.0</ele><time>2026-04-02T16:54:43Z</time></trkpt><trkpt lat="44.40839865195437" lon="7.836945010436137"><ele>397.0</ele><time>2026-04-02T16:54:44Z</time></trkpt><trkpt lat="44.40829229308894" lon="7.836813472846224"><ele>397.0</ele><time>2026-04-02T16:54:45Z</time></trkpt><trkpt lat="44.40818318889922" lon="7.836674977259532"><ele>397.0</ele><time>2026-04-02T16:54:46Z</time></trkpt><trkpt lat="44.40807437002994" lon="7.836542034939724"><ele>397.0</ele><time>2026-04-02T16:54:47Z</time></trkpt><trkpt lat="44.40796779695661" lon="7.836414423186388"><ele>397.0</ele><time>2026-04-02T16:54:48Z</time></trkpt><trkpt lat="44.4078615249043" lon="7.8362832032266505"><ele>397.0</ele><time>2026-04-02T16:54:49Z</time></trkpt><trkpt lat="44.40774872991389" lon="7.8361500607522485"><ele>397.0</ele><time>2026-04-02T16:54:50Z</time></trkpt><trkpt lat="44.4076388954552" lon="7.836018927558561"><ele>397.0</ele><time>2026-04-02T16:54:51Z</time></trkpt><trkpt lat="44.40752981962562" lon="7.835886860809626"><ele>397.0</ele><time>2026-04-02T16:54:52Z</time></trkpt><trkpt lat="44.40741947434107" lon="7.835761227958728"><ele>397.0</ele><time>2026-04-02T16:54:53Z</time></trkpt><trkpt lat="44.40731130766372" lon="7.835628668794488"><ele>397.0</ele><time>2026-04-02T16:54:54Z</time></trkpt><trkpt lat="44.40720302798476" lon="7.835491559930118"><ele>397.0</ele><time>2026-04-02T16:54:54.999Z</time></trkpt><trkpt lat="44.407095689447154" lon="7.835351031135827"><ele>397.0</ele><time>2026-04-02T16:54:55.999Z</time></trkpt><trkpt lat="44.40699924173388" lon="7.835217271933108"><ele>397.25</ele><time>2026-04-02T16:54:56.999Z</time></trkpt><trkpt lat="44.4068917236727" lon="7.835096754575937"><ele>397.5</ele><time>2026-04-02T16:54:57.999Z</time></trkpt><trkpt lat="44.40679057754142" lon="7.834975757839694"><ele>397.75</ele><time>2026-04-02T16:54:58.999Z</time></trkpt><trkpt lat="44.40669437123169" lon="7.8348599427144805"><ele>398.0</ele><time>2026-04-02T16:54:59.999Z</time></trkpt><trkpt lat="44.40659878232517" lon="7.834737220290164"><ele>398.0</ele><time>2026-04-02T16:55:00.999Z</time></trkpt><trkpt lat="44.406508298075444" lon="7.834631591880681"><ele>398.0</ele><time>2026-04-02T16:55:01.999Z</time></trkpt><trkpt lat="44.40642684160213" lon="7.8345216260412265"><ele>398.0</ele><time>2026-04-02T16:55:02.999Z</time></trkpt><trkpt lat="44.40634991517383" lon="7.834410344959223"><ele>398.0</ele><time>2026-04-02T16:55:03.999Z</time></trkpt><trkpt lat="44.4062803587398" lon="7.834282811151767"><ele>396.79999999999995</ele><time>2026-04-02T16:55:04.999Z</time></trkpt><trkpt lat="44.406214204719994" lon="7.834155529951781"><ele>395.6</ele><time>2026-04-02T16:55:05.999Z</time></trkpt><trkpt lat="44.40616050231118" lon="7.8340260764488"><ele>394.4</ele><time>2026-04-02T16:55:06.999Z</time></trkpt><trkpt lat="44.406112042313964" lon="7.833881815042679"><ele>393.20000000000005</ele><time>2026-04-02T16:55:07.999Z</time></trkpt><trkpt lat="44.40606922805409" lon="7.833735347713704"><ele>392.0</ele><time>2026-04-02T16:55:08.999Z</time></trkpt><trkpt lat="44.406036675121825" lon="7.833595639440882"><ele>392.0</ele><time>2026-04-02T16:55:09.999Z</time></trkpt><trkpt lat="44.40601017956507" lon="7.833447856121702"><ele>392.0</ele><time>2026-04-02T16:55:10.999Z</time></trkpt><trkpt lat="44.40598673998685" lon="7.833309513686718"><ele>392.0</ele><time>2026-04-02T16:55:11.999Z</time></trkpt><trkpt lat="44.4059594370645" lon="7.833175182055697"><ele>392.0</ele><time>2026-04-02T16:55:12.999Z</time></trkpt><trkpt lat="44.40593112002843" lon="7.833036168825154"><ele>392.0</ele><time>2026-04-02T16:55:13.999Z</time></trkpt><trkpt lat="44.40590444364442" lon="7.832905480310012"><ele>391.99999999999994</ele><time>2026-04-02T16:55:14.999Z</time></trkpt><trkpt lat="44.40587368382937" lon="7.83278921192919"><ele>392.0</ele><time>2026-04-02T16:55:15.999Z</time></trkpt><trkpt lat="44.405850682784774" lon="7.8326948117871025"><ele>392.0</ele><time>2026-04-02T16:55:16.999Z</time></trkpt><trkpt lat="44.4058163871054" lon="7.832568144152314"><ele>392.0</ele><time>2026-04-02T16:55:18.999Z</time></trkpt><trkpt lat="44.40579514559319" lon="7.832481086424745"><ele>391.99999999999994</ele><time>2026-04-02T16:55:20.999Z</time></trkpt><trkpt lat="44.40575718725605" lon="7.832375686906266"><ele>392.0</ele><time>2026-04-02T16:55:23.999Z</time></trkpt><trkpt lat="44.40571564919928" lon="7.832278543821083"><ele>392.99999999999994</ele><time>2026-04-02T16:55:27.999Z</time></trkpt><trkpt lat="44.40569572980321" lon="7.832192541470481"><ele>394.0</ele><time>2026-04-02T16:55:30.999Z</time></trkpt><trkpt lat="44.405666709324905" lon="7.832093750804385"><ele>395.0</ele><time>2026-04-02T16:55:32.999Z</time></trkpt><trkpt lat="44.40563336083466" lon="7.831991170493112"><ele>396.0</ele><time>2026-04-02T16:55:34.999Z</time></trkpt><trkpt lat="44.40561741835928" lon="7.831892911420449"><ele>396.99999999999994</ele><time>2026-04-02T16:55:36.999Z</time></trkpt><trkpt lat="44.405587283713245" lon="7.831781422620152"><ele>398.0</ele><time>2026-04-02T16:55:38.999Z</time></trkpt><trkpt lat="44.40562827495966" lon="7.831639139430082"><ele>398.4</ele><time>2026-04-02T16:55:40.999Z</time></trkpt><trkpt lat="44.40561672224954" lon="7.831501861418023"><ele>398.79999999999995</ele><time>2026-04-02T16:55:42.999Z</time></trkpt><trkpt lat="44.40549684871065" lon="7.831438184520074"><ele>399.2</ele><time>2026-04-02T16:55:45.999Z</time></trkpt><trkpt lat="44.40543380388244" lon="7.831452513074441"><ele>399.6</ele><time>2026-04-02T16:55:46.999Z</time></trkpt><trkpt lat="44.40536968026406" lon="7.831492322241816"><ele>400.0</ele><time>2026-04-02T16:55:47.999Z</time></trkpt><trkpt lat="44.40528129511227" lon="7.831437965528885"><ele>399.33333333333337</ele><time>2026-04-02T16:55:48.999Z</time></trkpt><trkpt lat="44.40521452384699" lon="7.831425915770102"><ele>398.6666666666667</ele><time>2026-04-02T16:55:49.999Z</time></trkpt><trkpt lat="44.40516043722827" lon="7.831317609677428"><ele>398.0</ele><time>2026-04-02T16:55:50.998Z</time></trkpt><trkpt lat="44.40510370201811" lon="7.83127000928804"><ele>397.33333333333337</ele><time>2026-04-02T16:55:51.998Z</time></trkpt><trkpt lat="44.40501167911499" lon="7.8311689214426705"><ele>396.6666666666667</ele><time>2026-04-02T16:55:53.998Z</time></trkpt><trkpt lat="44.40495735939375" lon="7.8311188426071405"><ele>396.0</ele><time>2026-04-02T16:55:54.998Z</time></trkpt><trkpt lat="44.40488494021447" lon="7.831058467733204"><ele>396.0</ele><time>2026-04-02T16:55:55.998Z</time></trkpt><trkpt lat="44.40481216709589" lon="7.83099887287282"><ele>396.0</ele><time>2026-04-02T16:55:56.998Z</time></trkpt><trkpt lat="44.4047372919128" lon="7.830899416677462"><ele>396.0</ele><time>2026-04-02T16:55:57.998Z</time></trkpt><trkpt lat="44.40467433135408" lon="7.830826210836755"><ele>396.0</ele><time>2026-04-02T16:55:58.998Z</time></trkpt><trkpt lat="44.404615549274375" lon="7.830764150537271"><ele>396.0</ele><time>2026-04-02T16:55:59.998Z</time></trkpt><trkpt lat="44.404548220022086" lon="7.830686957505072"><ele>396.0</ele><time>2026-04-02T16:56:00.998Z</time></trkpt><trkpt lat="44.40448594966752" lon="7.830620783028908"><ele>396.0</ele><time>2026-04-02T16:56:01.998Z</time></trkpt><trkpt lat="44.404398158270915" lon="7.830539220002655"><ele>396.0</ele><time>2026-04-02T16:56:02.998Z</time></trkpt><trkpt lat="44.40429865909108" lon="7.8304626125963885"><ele>396.0</ele><time>2026-04-02T16:56:03.998Z</time></trkpt><trkpt lat="44.404240163272135" lon="7.83036545655117"><ele>396.0</ele><time>2026-04-02T16:56:04.998Z</time></trkpt><trkpt lat="44.40415995057346" lon="7.8302718555840665"><ele>396.0</ele><time>2026-04-02T16:56:05.998Z</time></trkpt><trkpt lat="44.40407615967788" lon="7.830177062270768"><ele>396.1666666666667</ele><time>2026-04-02T16:56:06.998Z</time></trkpt><trkpt lat="44.403997743148665" lon="7.830084012387748"><ele>396.33333333333337</ele><time>2026-04-02T16:56:07.998Z</time></trkpt><trkpt lat="44.40392758374527" lon="7.830015333740786"><ele>396.5</ele><time>2026-04-02T16:56:08.998Z</time></trkpt><trkpt lat="44.40384501461051" lon="7.829940384217539"><ele>396.6666666666667</ele><time>2026-04-02T16:56:09.998Z</time></trkpt><trkpt lat="44.40377157759066" lon="7.829873047936527"><ele>396.83333333333337</ele><time>2026-04-02T16:56:10.998Z</time></trkpt><trkpt lat="44.40370555782339" lon="7.829824983116585"><ele>397.0</ele><time>2026-04-02T16:56:11.998Z</time></trkpt><trkpt lat="44.4036430706092" lon="7.829749569440306"><ele>397.1666666666667</ele><time>2026-04-02T16:56:12.998Z</time></trkpt><trkpt lat="44.403582407930074" lon="7.829706195684286"><ele>397.33333333333337</ele><time>2026-04-02T16:56:13.998Z</time></trkpt><trkpt lat="44.403517997993106" lon="7.829640382462644"><ele>397.5</ele><time>2026-04-02T16:56:14.998Z</time></trkpt><trkpt lat="44.403469357977265" lon="7.829581501196632"><ele>397.66666666666663</ele><time>2026-04-02T16:56:15.998Z</time></trkpt><trkpt lat="44.40338732655458" lon="7.82947707780147"><ele>397.8333333333333</ele><time>2026-04-02T16:56:18Z</time></trkpt><trkpt lat="44.40336097127229" lon="7.829342181516584"><ele>398.0</ele><time>2026-04-02T16:56:20Z</time></trkpt><trkpt lat="44.40331967734836" lon="7.829226509501399"><ele>398.2</ele><time>2026-04-02T16:56:22Z</time></trkpt><trkpt lat="44.40321032481024" lon="7.82916484137538"><ele>398.4</ele><time>2026-04-02T16:56:24Z</time></trkpt><trkpt lat="44.403139556111945" lon="7.829171512931699"><ele>398.59999999999997</ele><time>2026-04-02T16:56:25Z</time></trkpt><trkpt lat="44.40302561545574" lon="7.829139525525544"><ele>398.79999999999995</ele><time>2026-04-02T16:56:27Z</time></trkpt><trkpt lat="44.40295041157614" lon="7.8290586980357455"><ele>399.0</ele><time>2026-04-02T16:56:28Z</time></trkpt><trkpt lat="44.402864815415235" lon="7.828994399828411"><ele>398.4</ele><time>2026-04-02T16:56:29Z</time></trkpt><trkpt lat="44.40278200448201" lon="7.828898706061447"><ele>397.79999999999995</ele><time>2026-04-02T16:56:30Z</time></trkpt><trkpt lat="44.40270569323111" lon="7.828818828424679"><ele>397.20000000000005</ele><time>2026-04-02T16:56:31Z</time></trkpt><trkpt lat="44.40263508645984" lon="7.82875068178257"><ele>396.6</ele><time>2026-04-02T16:56:32Z</time></trkpt><trkpt lat="44.40255589282436" lon="7.82866758909336"><ele>396.0</ele><time>2026-04-02T16:56:33Z</time></trkpt><trkpt lat="44.40247818726129" lon="7.828586815962754"><ele>396.0</ele><time>2026-04-02T16:56:34Z</time></trkpt><trkpt lat="44.402389473122035" lon="7.82848715789021"><ele>396.0</ele><time>2026-04-02T16:56:35Z</time></trkpt><trkpt lat="44.402313404434544" lon="7.828400051997949"><ele>396.0</ele><time>2026-04-02T16:56:36Z</time></trkpt><trkpt lat="44.40224528291465" lon="7.82831224057901"><ele>396.0</ele><time>2026-04-02T16:56:37Z</time></trkpt><trkpt lat="44.40215866130034" lon="7.828231016199944"><ele>396.0</ele><time>2026-04-02T16:56:38Z</time></trkpt><trkpt lat="44.40207507678925" lon="7.828146871464941"><ele>395.5</ele><time>2026-04-02T16:56:39Z</time></trkpt><trkpt lat="44.40198239577459" lon="7.828043018306945"><ele>395.0</ele><time>2026-04-02T16:56:40Z</time></trkpt><trkpt lat="44.40189518125711" lon="7.8279489417467625"><ele>394.5</ele><time>2026-04-02T16:56:41Z</time></trkpt><trkpt lat="44.40179947247685" lon="7.827853152643856"><ele>394.0</ele><time>2026-04-02T16:56:42Z</time></trkpt><trkpt lat="44.40170333601113" lon="7.827763157702321"><ele>394.0</ele><time>2026-04-02T16:56:43Z</time></trkpt><trkpt lat="44.40161190595984" lon="7.827669340271267"><ele>394.0</ele><time>2026-04-02T16:56:44Z</time></trkpt><trkpt lat="44.40152542059523" lon="7.827584314420919"><ele>394.0</ele><time>2026-04-02T16:56:45Z</time></trkpt><trkpt lat="44.40143559422452" lon="7.827499859892291"><ele>394.0</ele><time>2026-04-02T16:56:46Z</time></trkpt><trkpt lat="44.401348721282986" lon="7.8274047011242"><ele>394.0</ele><time>2026-04-02T16:56:47Z</time></trkpt><trkpt lat="44.4012573716476" lon="7.827313497183987"><ele>393.0</ele><time>2026-04-02T16:56:48Z</time></trkpt><trkpt lat="44.40116586339933" lon="7.827210968016306"><ele>392.0</ele><time>2026-04-02T16:56:49Z</time></trkpt><trkpt lat="44.40106981889259" lon="7.827109072440582"><ele>391.0</ele><time>2026-04-02T16:56:50Z</time></trkpt><trkpt lat="44.40098114009574" lon="7.827028357340548"><ele>390.0</ele><time>2026-04-02T16:56:51Z</time></trkpt><trkpt lat="44.40088990711147" lon="7.8269396142921845"><ele>390.0</ele><time>2026-04-02T16:56:52Z</time></trkpt><trkpt lat="44.400805714894744" lon="7.826845291144384"><ele>390.0</ele><time>2026-04-02T16:56:53Z</time></trkpt><trkpt lat="44.40071841447728" lon="7.8267507854032345"><ele>390.0</ele><time>2026-04-02T16:56:54Z</time></trkpt><trkpt lat="44.40061134881966" lon="7.8266697242987355"><ele>390.0</ele><time>2026-04-02T16:56:55Z</time></trkpt><trkpt lat="44.40049099480056" lon="7.826614210861125"><ele>391.25</ele><time>2026-04-02T16:56:56Z</time></trkpt><trkpt lat="44.40038829065211" lon="7.8265650684314965"><ele>392.5</ele><time>2026-04-02T16:56:57Z</time></trkpt><trkpt lat="44.400272980903544" lon="7.826513895414476"><ele>393.75</ele><time>2026-04-02T16:56:58Z</time></trkpt><trkpt lat="44.400162262089935" lon="7.826471816406612"><ele>395.0</ele><time>2026-04-02T16:56:59Z</time></trkpt><trkpt lat="44.40005035107518" lon="7.826417401060045"><ele>395.0</ele><time>2026-04-02T16:57:00Z</time></trkpt><trkpt lat="44.39994393236616" lon="7.826363118663872"><ele>395.0</ele><time>2026-04-02T16:57:00.999Z</time></trkpt><trkpt lat="44.39982520627055" lon="7.826298190792674"><ele>395.0</ele><time>2026-04-02T16:57:01.999Z</time></trkpt><trkpt lat="44.39971264749625" lon="7.826216238920303"><ele>395.0</ele><time>2026-04-02T16:57:02.999Z</time></trkpt><trkpt lat="44.39961258103114" lon="7.826132982686747"><ele>395.8</ele><time>2026-04-02T16:57:03.999Z</time></trkpt><trkpt lat="44.39952382552995" lon="7.8260532371817995"><ele>396.6</ele><time>2026-04-02T16:57:04.999Z</time></trkpt><trkpt lat="44.39942949531936" lon="7.82597672685849"><ele>397.4</ele><time>2026-04-02T16:57:05.999Z</time></trkpt><trkpt lat="44.39934696499702" lon="7.825890023964468"><ele>398.2</ele><time>2026-04-02T16:57:06.999Z</time></trkpt><trkpt lat="44.399264225366075" lon="7.825811802387308"><ele>399.0</ele><time>2026-04-02T16:57:07.999Z</time></trkpt><trkpt lat="44.399189031425806" lon="7.825735018498214"><ele>399.0</ele><time>2026-04-02T16:57:08.999Z</time></trkpt><trkpt lat="44.39911836360328" lon="7.825674201431507"><ele>399.0</ele><time>2026-04-02T16:57:09.999Z</time></trkpt><trkpt lat="44.39904650642822" lon="7.825612893619035"><ele>399.0</ele><time>2026-04-02T16:57:10.999Z</time></trkpt><trkpt lat="44.398984933210365" lon="7.825544424050707"><ele>399.0</ele><time>2026-04-02T16:57:11.999Z</time></trkpt><trkpt lat="44.39892388159067" lon="7.825488440120479"><ele>399.0</ele><time>2026-04-02T16:57:12.999Z</time></trkpt><trkpt lat="44.39882860044471" lon="7.825371995556165"><ele>399.0</ele><time>2026-04-02T16:57:14.999Z</time></trkpt><trkpt lat="44.398747196950325" lon="7.825288573971438"><ele>399.6666666666667</ele><time>2026-04-02T16:57:16.999Z</time></trkpt><trkpt lat="44.39866779024608" lon="7.825215864501676"><ele>400.33333333333337</ele><time>2026-04-02T16:57:18.999Z</time></trkpt><trkpt lat="44.398606830071145" lon="7.825178501469087"><ele>401.0</ele><time>2026-04-02T16:57:20.999Z</time></trkpt><trkpt lat="44.39854449244645" lon="7.825110037060242"><ele>401.6666666666667</ele><time>2026-04-02T16:57:22.999Z</time></trkpt><trkpt lat="44.39848137608845" lon="7.825018627033163"><ele>402.33333333333337</ele><time>2026-04-02T16:57:24.999Z</time></trkpt><trkpt lat="44.39842350196674" lon="7.824944088721054"><ele>403.0</ele><time>2026-04-02T16:57:26.999Z</time></trkpt><trkpt lat="44.398384128589335" lon="7.824841327640152"><ele>403.00000000000006</ele><time>2026-04-02T16:57:29.999Z</time></trkpt><trkpt lat="44.39832093859385" lon="7.824733129718826"><ele>403.0</ele><time>2026-04-02T16:57:31.999Z</time></trkpt><trkpt lat="44.39824386654144" lon="7.824696697560791"><ele>403.0</ele><time>2026-04-02T16:57:33.999Z</time></trkpt><trkpt lat="44.39817235001714" lon="7.824682224705753"><ele>403.0</ele><time>2026-04-02T16:57:34.999Z</time></trkpt><trkpt lat="44.398097786186455" lon="7.824785413611126"><ele>403.00000000000006</ele><time>2026-04-02T16:57:35.999Z</time></trkpt><trkpt lat="44.398021428847834" lon="7.824788960324177"><ele>403.0</ele><time>2026-04-02T16:57:36.999Z</time></trkpt><trkpt lat="44.39794505764059" lon="7.824782143689019"><ele>401.79999999999995</ele><time>2026-04-02T16:57:37.999Z</time></trkpt><trkpt lat="44.39785642254637" lon="7.82478768935634"><ele>400.6</ele><time>2026-04-02T16:57:38.999Z</time></trkpt><trkpt lat="44.397757222175" lon="7.82467188101972"><ele>399.4</ele><time>2026-04-02T16:57:39.999Z</time></trkpt><trkpt lat="44.39766067938778" lon="7.824608435999781"><ele>398.20000000000005</ele><time>2026-04-02T16:57:40.999Z</time></trkpt><trkpt lat="44.39754573637267" lon="7.824552097461741"><ele>397.0</ele><time>2026-04-02T16:57:41.999Z</time></trkpt><trkpt lat="44.39742851882435" lon="7.824526965159964"><ele>397.0</ele><time>2026-04-02T16:57:42.999Z</time></trkpt><trkpt lat="44.397318145825" lon="7.824515530053553"><ele>397.0</ele><time>2026-04-02T16:57:43.999Z</time></trkpt><trkpt lat="44.39721162319229" lon="7.824518371241318"><ele>397.0</ele><time>2026-04-02T16:57:44.999Z</time></trkpt><trkpt lat="44.39710395057094" lon="7.824534867225363"><ele>397.0</ele><time>2026-04-02T16:57:45.999Z</time></trkpt><trkpt lat="44.39699158536422" lon="7.824550825242528"><ele>397.0</ele><time>2026-04-02T16:57:46.999Z</time></trkpt><trkpt lat="44.396877725188276" lon="7.824562701454852"><ele>395.8</ele><time>2026-04-02T16:57:47.999Z</time></trkpt><trkpt lat="44.39676826878208" lon="7.82456597097557"><ele>394.6</ele><time>2026-04-02T16:57:48.999Z</time></trkpt><trkpt lat="44.39665639870412" lon="7.824557168949356"><ele>393.40000000000003</ele><time>2026-04-02T16:57:49.999Z</time></trkpt><trkpt lat="44.396546672180655" lon="7.824579838787189"><ele>392.20000000000005</ele><time>2026-04-02T16:57:50.999Z</time></trkpt><trkpt lat="44.39644196360938" lon="7.824575245840442"><ele>391.0</ele><time>2026-04-02T16:57:51.999Z</time></trkpt><trkpt lat="44.39633567822706" lon="7.8245594263278555"><ele>388.8</ele><time>2026-04-02T16:57:52.999Z</time></trkpt><trkpt lat="44.3962345798575" lon="7.824534577751077"><ele>386.6</ele><time>2026-04-02T16:57:53.999Z</time></trkpt><trkpt lat="44.396139702447705" lon="7.824513473832302"><ele>384.4</ele><time>2026-04-02T16:57:54.999Z</time></trkpt><trkpt lat="44.39604542627631" lon="7.824485912394093"><ele>382.2</ele><time>2026-04-02T16:57:55.999Z</time></trkpt><trkpt lat="44.395949778533165" lon="7.824455217072085"><ele>380.0</ele><time>2026-04-02T16:57:56.999Z</time></trkpt><trkpt lat="44.39585897813176" lon="7.824403041613571"><ele>380.0</ele><time>2026-04-02T16:57:57.998Z</time></trkpt><trkpt lat="44.39575917408783" lon="7.824359386870425"><ele>380.0</ele><time>2026-04-02T16:57:58.998Z</time></trkpt><trkpt lat="44.39566564605635" lon="7.824316032991641"><ele>380.0</ele><time>2026-04-02T16:57:59.998Z</time></trkpt><trkpt lat="44.39558919530251" lon="7.824261634013676"><ele>380.0</ele><time>2026-04-02T16:58:00.998Z</time></trkpt><trkpt lat="44.395524961606434" lon="7.824211814754901"><ele>380.0</ele><time>2026-04-02T16:58:01.998Z</time></trkpt><trkpt lat="44.39544267416935" lon="7.824159032495131"><ele>380.2</ele><time>2026-04-02T16:58:02.998Z</time></trkpt><trkpt lat="44.39536690590589" lon="7.82411373344701"><ele>380.4</ele><time>2026-04-02T16:58:03.998Z</time></trkpt><trkpt lat="44.39531312700332" lon="7.82406728618865"><ele>380.6</ele><time>2026-04-02T16:58:04.998Z</time></trkpt><trkpt lat="44.39519774027926" lon="7.823984062615797"><ele>380.8</ele><time>2026-04-02T16:58:06.998Z</time></trkpt><trkpt lat="44.39511641909978" lon="7.823933792242882"><ele>381.0</ele><time>2026-04-02T16:58:07.998Z</time></trkpt><trkpt lat="44.39503407599001" lon="7.823858292410278"><ele>381.0</ele><time>2026-04-02T16:58:08.998Z</time></trkpt><trkpt lat="44.3949543391473" lon="7.823770375809117"><ele>381.0</ele><time>2026-04-02T16:58:09.998Z</time></trkpt><trkpt lat="44.394871446869665" lon="7.823671760419485"><ele>381.0</ele><time>2026-04-02T16:58:10.998Z</time></trkpt><trkpt lat="44.394769914222564" lon="7.82356955625741"><ele>381.0</ele><time>2026-04-02T16:58:11.998Z</time></trkpt><trkpt lat="44.39466195220694" lon="7.823474324781048"><ele>380.5</ele><time>2026-04-02T16:58:12.998Z</time></trkpt><trkpt lat="44.394555064070495" lon="7.823387650789326"><ele>380.0</ele><time>2026-04-02T16:58:13.998Z</time></trkpt><trkpt lat="44.39445133017575" lon="7.8233011398008525"><ele>379.5</ele><time>2026-04-02T16:58:14.998Z</time></trkpt><trkpt lat="44.3943594260571" lon="7.823226475278442"><ele>379.0</ele><time>2026-04-02T16:58:15.998Z</time></trkpt><trkpt lat="44.394255597926204" lon="7.823148553159121"><ele>379.0</ele><time>2026-04-02T16:58:16.998Z</time></trkpt><trkpt lat="44.39416147521987" lon="7.823054149717269"><ele>379.0</ele><time>2026-04-02T16:58:17.998Z</time></trkpt><trkpt lat="44.39406615540039" lon="7.822967182435744"><ele>379.0</ele><time>2026-04-02T16:58:18.998Z</time></trkpt><trkpt lat="44.39396483098862" lon="7.822872761974793"><ele>379.0</ele><time>2026-04-02T16:58:19.998Z</time></trkpt><trkpt lat="44.39389272759293" lon="7.822796174907242"><ele>379.0</ele><time>2026-04-02T16:58:20.998Z</time></trkpt><trkpt lat="44.393810320581224" lon="7.822703162606833"><ele>379.6</ele><time>2026-04-02T16:58:21.998Z</time></trkpt><trkpt lat="44.39373336012162" lon="7.822604991363748"><ele>380.2</ele><time>2026-04-02T16:58:22.998Z</time></trkpt><trkpt lat="44.39363614800643" lon="7.822507636782738"><ele>380.8</ele><time>2026-04-02T16:58:24Z</time></trkpt><trkpt lat="44.39354959800336" lon="7.822413645676522"><ele>381.40000000000003</ele><time>2026-04-02T16:58:25Z</time></trkpt><trkpt lat="44.39347966514343" lon="7.822344682518989"><ele>382.0</ele><time>2026-04-02T16:58:26Z</time></trkpt><trkpt lat="44.39341724757611" lon="7.822280161394339"><ele>382.0</ele><time>2026-04-02T16:58:27Z</time></trkpt><trkpt lat="44.39336388320129" lon="7.822218617291747"><ele>382.0</ele><time>2026-04-02T16:58:28Z</time></trkpt><trkpt lat="44.393273028863476" lon="7.822131558760985"><ele>382.0</ele><time>2026-04-02T16:58:30Z</time></trkpt><trkpt lat="44.39321076219943" lon="7.822076878355002"><ele>382.0</ele><time>2026-04-02T16:58:31Z</time></trkpt><trkpt lat="44.393155414022885" lon="7.8220267920414"><ele>382.0</ele><time>2026-04-02T16:58:32Z</time></trkpt><trkpt lat="44.39309001777459" lon="7.821920551324485"><ele>382.0</ele><time>2026-04-02T16:58:34Z</time></trkpt><trkpt lat="44.39305750105874" lon="7.8217893969462935"><ele>382.5</ele><time>2026-04-02T16:58:36Z</time></trkpt><trkpt lat="44.393067717574944" lon="7.821682552621626"><ele>383.0</ele><time>2026-04-02T16:58:37Z</time></trkpt><trkpt lat="44.39307594184952" lon="7.821562277897299"><ele>383.5</ele><time>2026-04-02T16:58:38Z</time></trkpt><trkpt lat="44.39308604782637" lon="7.821452050434221"><ele>384.0</ele><time>2026-04-02T16:58:39Z</time></trkpt><trkpt lat="44.3930879919733" lon="7.821346048332062"><ele>384.50000000000006</ele><time>2026-04-02T16:58:40Z</time></trkpt><trkpt lat="44.393099947592134" lon="7.821244060018129"><ele>385.0</ele><time>2026-04-02T16:58:41Z</time></trkpt><trkpt lat="44.39309198050859" lon="7.82107591294441"><ele>385.50000000000006</ele><time>2026-04-02T16:58:43Z</time></trkpt><trkpt lat="44.39307065949124" lon="7.8209275412578325"><ele>386.0</ele><time>2026-04-02T16:58:45Z</time></trkpt><trkpt lat="44.39304109494711" lon="7.82084290242026"><ele>386.5</ele><time>2026-04-02T16:58:46Z</time></trkpt><trkpt lat="44.392992016736116" lon="7.820758042044776"><ele>387.0</ele><time>2026-04-02T16:58:47Z</time></trkpt><trkpt lat="44.39293547927885" lon="7.820695755782753"><ele>387.50000000000006</ele><time>2026-04-02T16:58:48Z</time></trkpt><trkpt lat="44.39290226537567" lon="7.820610956687531"><ele>388.0</ele><time>2026-04-02T16:58:49Z</time></trkpt><trkpt lat="44.39280950220257" lon="7.820519196424808"><ele>388.00000000000006</ele><time>2026-04-02T16:58:51Z</time></trkpt><trkpt lat="44.392704879584365" lon="7.820500354634236"><ele>388.0</ele><time>2026-04-02T16:58:53Z</time></trkpt><trkpt lat="44.39259858747959" lon="7.82051201654374"><ele>388.0</ele><time>2026-04-02T16:58:55Z</time></trkpt><trkpt lat="44.39253640567935" lon="7.820526723103121"><ele>388.0</ele><time>2026-04-02T16:58:57Z</time></trkpt><trkpt lat="44.39243637620833" lon="7.820527383330608"><ele>388.00000000000006</ele><time>2026-04-02T16:59:00Z</time></trkpt><trkpt lat="44.39236959637406" lon="7.820528320179425"><ele>388.0</ele><time>2026-04-02T16:59:01Z</time></trkpt><trkpt lat="44.39229401377226" lon="7.820532998834478"><ele>388.00000000000006</ele><time>2026-04-02T16:59:02Z</time></trkpt><trkpt lat="44.39222611895144" lon="7.820531466875602"><ele>388.0</ele><time>2026-04-02T16:59:03Z</time></trkpt><trkpt lat="44.392141528173866" lon="7.820531159680117"><ele>388.0</ele><time>2026-04-02T16:59:05Z</time></trkpt><trkpt lat="44.39204867166944" lon="7.820517773598596"><ele>388.0</ele><time>2026-04-02T16:59:07.999Z</time></trkpt><trkpt lat="44.391962559327176" lon="7.820546750723655"><ele>388.00000000000006</ele><time>2026-04-02T16:59:09.999Z</time></trkpt><trkpt lat="44.391877722322626" lon="7.820554325907818"><ele>388.0</ele><time>2026-04-02T16:59:12.999Z</time></trkpt><trkpt lat="44.39180674702628" lon="7.820575905633417"><ele>388.2</ele><time>2026-04-02T16:59:14.999Z</time></trkpt><trkpt lat="44.39171329569014" lon="7.820602720336831"><ele>388.4</ele><time>2026-04-02T16:59:16.999Z</time></trkpt><trkpt lat="44.39164524854375" lon="7.820605430667605"><ele>388.59999999999997</ele><time>2026-04-02T16:59:19.999Z</time></trkpt><trkpt lat="44.39154336235159" lon="7.8206140673521585"><ele>388.79999999999995</ele><time>2026-04-02T16:59:21.999Z</time></trkpt><trkpt lat="44.39144506246765" lon="7.820605649977015"><ele>389.0</ele><time>2026-04-02T16:59:23.999Z</time></trkpt><trkpt lat="44.39135396740736" lon="7.8206125856226345"><ele>389.6</ele><time>2026-04-02T16:59:26.999Z</time></trkpt><trkpt lat="44.391285252223724" lon="7.820617817348259"><ele>390.2</ele><time>2026-04-02T16:59:28.999Z</time></trkpt><trkpt lat="44.39120186425677" lon="7.820618132719342"><ele>390.8</ele><time>2026-04-02T16:59:31.999Z</time></trkpt><trkpt lat="44.39108425087618" lon="7.820623324171287"><ele>391.40000000000003</ele><time>2026-04-02T16:59:34.999Z</time></trkpt><trkpt lat="44.390990027195414" lon="7.820624016726566"><ele>392.0</ele><time>2026-04-02T16:59:35.999Z</time></trkpt><trkpt lat="44.39090110817124" lon="7.82062817409444"><ele>391.99999999999994</ele><time>2026-04-02T16:59:36.999Z</time></trkpt><trkpt lat="44.39080625859083" lon="7.820638535434017"><ele>392.0</ele><time>2026-04-02T16:59:37.999Z</time></trkpt><trkpt lat="44.39072639368644" lon="7.820648128620499"><ele>392.0</ele><time>2026-04-02T16:59:38.999Z</time></trkpt><trkpt lat="44.39062092999383" lon="7.8206502709784615"><ele>392.0</ele><time>2026-04-02T16:59:39.999Z</time></trkpt><trkpt lat="44.39053094899843" lon="7.82065365968955"><ele>391.99999999999994</ele><time>2026-04-02T16:59:40.999Z</time></trkpt><trkpt lat="44.39045492724483" lon="7.82066023895233"><ele>392.0</ele><time>2026-04-02T16:59:41.999Z</time></trkpt><trkpt lat="44.39039100563988" lon="7.820663149969482"><ele>392.3333333333333</ele><time>2026-04-02T16:59:42.999Z</time></trkpt><trkpt lat="44.39032079100668" lon="7.820672470432376"><ele>392.66666666666663</ele><time>2026-04-02T16:59:44.999Z</time></trkpt><trkpt lat="44.390218090673805" lon="7.82066220101111"><ele>393.0</ele><time>2026-04-02T16:59:49.999Z</time></trkpt><trkpt lat="44.39015034103526" lon="7.820597297757385"><ele>393.33333333333337</ele><time>2026-04-02T16:59:53.999Z</time></trkpt><trkpt lat="44.390128708033124" lon="7.820460832311896"><ele>393.6666666666667</ele><time>2026-04-02T16:59:55.999Z</time></trkpt><trkpt lat="44.39007664356496" lon="7.820366091578734"><ele>394.0</ele><time>2026-04-02T16:59:57.999Z</time></trkpt><trkpt lat="44.389970493663974" lon="7.820329503847513"><ele>394.0</ele><time>2026-04-02T16:59:59.999Z</time></trkpt><trkpt lat="44.38989655231421" lon="7.820347888888819"><ele>394.0</ele><time>2026-04-02T17:00:00.999Z</time></trkpt><trkpt lat="44.38979756426601" lon="7.820355543854515"><ele>394.0</ele><time>2026-04-02T17:00:01.998Z</time></trkpt><trkpt lat="44.38969125539318" lon="7.820338591163069"><ele>394.0</ele><time>2026-04-02T17:00:02.998Z</time></trkpt><trkpt lat="44.38958263439391" lon="7.820320263761383"><ele>394.0</ele><time>2026-04-02T17:00:03.998Z</time></trkpt><trkpt lat="44.38948308592294" lon="7.820296302254785"><ele>395.0</ele><time>2026-04-02T17:00:04.998Z</time></trkpt><trkpt lat="44.38940077575568" lon="7.820257321984672"><ele>396.0</ele><time>2026-04-02T17:00:05.998Z</time></trkpt><trkpt lat="44.3893186770677" lon="7.820250342486123"><ele>397.0</ele><time>2026-04-02T17:00:06.998Z</time></trkpt><trkpt lat="44.38921906532113" lon="7.820252098166336"><ele>398.0</ele><time>2026-04-02T17:00:07.998Z</time></trkpt><trkpt lat="44.38911879746979" lon="7.820270125091779"><ele>399.0</ele><time>2026-04-02T17:00:08.998Z</time></trkpt><trkpt lat="44.389037010995395" lon="7.820289550221518"><ele>399.0</ele><time>2026-04-02T17:00:09.998Z</time></trkpt><trkpt lat="44.388964341614006" lon="7.820313017697437"><ele>399.0</ele><time>2026-04-02T17:00:10.998Z</time></trkpt><trkpt lat="44.38887851502072" lon="7.82033158345168"><ele>399.0</ele><time>2026-04-02T17:00:11.998Z</time></trkpt><trkpt lat="44.38880143285776" lon="7.820357528846305"><ele>399.0</ele><time>2026-04-02T17:00:12.998Z</time></trkpt><trkpt lat="44.388732894883304" lon="7.820395848709108"><ele>399.0</ele><time>2026-04-02T17:00:13.998Z</time></trkpt><trkpt lat="44.388667486803186" lon="7.8204303641455954"><ele>399.0</ele><time>2026-04-02T17:00:14.998Z</time></trkpt><trkpt lat="44.38859195361613" lon="7.820453406270923"><ele>399.5</ele><time>2026-04-02T17:00:15.998Z</time></trkpt><trkpt lat="44.3885038616494" lon="7.820459555907171"><ele>400.0</ele><time>2026-04-02T17:00:16.998Z</time></trkpt><trkpt lat="44.388423770790745" lon="7.820473175857058"><ele>400.5</ele><time>2026-04-02T17:00:17.998Z</time></trkpt><trkpt lat="44.3883408598461" lon="7.820479916942605"><ele>401.0</ele><time>2026-04-02T17:00:18.998Z</time></trkpt><trkpt lat="44.388251916395525" lon="7.820484954510578"><ele>401.5</ele><time>2026-04-02T17:00:19.998Z</time></trkpt><trkpt lat="44.38816439761114" lon="7.820454156991317"><ele>402.0</ele><time>2026-04-02T17:00:20.998Z</time></trkpt><trkpt lat="44.38806739276084" lon="7.820406482555891"><ele>402.1666666666667</ele><time>2026-04-02T17:00:21.998Z</time></trkpt><trkpt lat="44.387988225444985" lon="7.820326550653799"><ele>402.33333333333337</ele><time>2026-04-02T17:00:22.998Z</time></trkpt><trkpt lat="44.387924216827884" lon="7.8202949984629235"><ele>402.5</ele><time>2026-04-02T17:00:23.998Z</time></trkpt><trkpt lat="44.38783935811815" lon="7.820234580429386"><ele>402.6666666666667</ele><time>2026-04-02T17:00:24.998Z</time></trkpt><trkpt lat="44.38776677546387" lon="7.820185639608413"><ele>402.83333333333337</ele><time>2026-04-02T17:00:25.998Z</time></trkpt><trkpt lat="44.38768594394653" lon="7.8201380488627015"><ele>403.0</ele><time>2026-04-02T17:00:26.998Z</time></trkpt><trkpt lat="44.38758819884314" lon="7.820071710631582"><ele>402.33333333333337</ele><time>2026-04-02T17:00:27.998Z</time></trkpt><trkpt lat="44.38752377450492" lon="7.820027956982198"><ele>401.6666666666667</ele><time>2026-04-02T17:00:28.998Z</time></trkpt><trkpt lat="44.38743435931299" lon="7.819981592158363"><ele>401.0</ele><time>2026-04-02T17:00:30Z</time></trkpt><trkpt lat="44.38734796384745" lon="7.819945379587696"><ele>400.33333333333337</ele><time>2026-04-02T17:00:31Z</time></trkpt><trkpt lat="44.38727461853115" lon="7.819934656897901"><ele>399.6666666666667</ele><time>2026-04-02T17:00:32Z</time></trkpt><trkpt lat="44.38718481702666" lon="7.819928467910896"><ele>399.0</ele><time>2026-04-02T17:00:33Z</time></trkpt><trkpt lat="44.38705367231887" lon="7.8199283275206675"><ele>399.0</ele><time>2026-04-02T17:00:35Z</time></trkpt><trkpt lat="44.386977689843505" lon="7.819953239344173"><ele>399.0</ele><time>2026-04-02T17:00:36Z</time></trkpt><trkpt lat="44.38691040891931" lon="7.819963911354633"><ele>399.0</ele><time>2026-04-02T17:00:37Z</time></trkpt><trkpt lat="44.386807136147134" lon="7.819998542602483"><ele>399.0</ele><time>2026-04-02T17:00:38Z</time></trkpt><trkpt lat="44.38672587815759" lon="7.820015534769518"><ele>399.0</ele><time>2026-04-02T17:00:39Z</time></trkpt><trkpt lat="44.38663115974582" lon="7.820047653115481"><ele>399.0</ele><time>2026-04-02T17:00:40Z</time></trkpt><trkpt lat="44.38655335911991" lon="7.820049843916855"><ele>399.0</ele><time>2026-04-02T17:00:41Z</time></trkpt><trkpt lat="44.38648098773" lon="7.820048039597286"><ele>399.0</ele><time>2026-04-02T17:00:42Z</time></trkpt><trkpt lat="44.386370536177076" lon="7.820069148889782"><ele>399.0</ele><time>2026-04-02T17:00:44Z</time></trkpt><trkpt lat="44.38628310540803" lon="7.820116428718903"><ele>399.0</ele><time>2026-04-02T17:00:46Z</time></trkpt><trkpt lat="44.38618086286922" lon="7.820139142300519"><ele>399.0</ele><time>2026-04-02T17:00:48Z</time></trkpt><trkpt lat="44.38611312404104" lon="7.820044568456194"><ele>399.0</ele><time>2026-04-02T17:00:49Z</time></trkpt><trkpt lat="44.386044686367164" lon="7.819966591598934"><ele>399.0</ele><time>2026-04-02T17:00:50Z</time></trkpt><trkpt lat="44.38598155069334" lon="7.819904735058165"><ele>399.0</ele><time>2026-04-02T17:00:51Z</time></trkpt><trkpt lat="44.38593664761555" lon="7.819836065643069"><ele>399.0</ele><time>2026-04-02T17:00:52Z</time></trkpt><trkpt lat="44.385870832583564" lon="7.819780359590082"><ele>399.0</ele><time>2026-04-02T17:00:53Z</time></trkpt><trkpt lat="44.38577723936809" lon="7.819697170524728"><ele>399.0</ele><time>2026-04-02T17:00:55Z</time></trkpt><trkpt lat="44.38568484142431" lon="7.819652092348047"><ele>399.0</ele><time>2026-04-02T17:00:57Z</time></trkpt><trkpt lat="44.38562301395478" lon="7.819682455774401"><ele>399.0</ele><time>2026-04-02T17:00:58Z</time></trkpt><trkpt lat="44.38556750211825" lon="7.819740952072662"><ele>399.0</ele><time>2026-04-02T17:00:59Z</time></trkpt><trkpt lat="44.38550751873226" lon="7.819811340898184"><ele>399.0</ele><time>2026-04-02T17:01:00Z</time></trkpt><trkpt lat="44.38543638746242" lon="7.8198860259469045"><ele>399.0</ele><time>2026-04-02T17:01:01Z</time></trkpt><trkpt lat="44.38536270594241" lon="7.819962205772158"><ele>399.0</ele><time>2026-04-02T17:01:02Z</time></trkpt><trkpt lat="44.3852626519847" lon="7.820015160849189"><ele>399.6</ele><time>2026-04-02T17:01:03Z</time></trkpt><trkpt lat="44.3851575158361" lon="7.820068584265529"><ele>400.2</ele><time>2026-04-02T17:01:04Z</time></trkpt><trkpt lat="44.3850590221365" lon="7.820101712057368"><ele>400.8</ele><time>2026-04-02T17:01:05Z</time></trkpt><trkpt lat="44.38499961519146" lon="7.820143277139515"><ele>401.40000000000003</ele><time>2026-04-02T17:01:06Z</time></trkpt><trkpt lat="44.38488575428262" lon="7.8201335615205565"><ele>402.0</ele><time>2026-04-02T17:01:08Z</time></trkpt><trkpt lat="44.38481309429018" lon="7.820084355037966"><ele>402.0</ele><time>2026-04-02T17:01:10Z</time></trkpt><trkpt lat="44.38474102570748" lon="7.8200154720437585"><ele>402.0</ele><time>2026-04-02T17:01:12Z</time></trkpt><trkpt lat="44.3847820166554" lon="7.819806154160793"><ele>402.0</ele><time>2026-04-02T17:01:14.999Z</time></trkpt><trkpt lat="44.3847866230112" lon="7.8197147459643075"><ele>402.0</ele><time>2026-04-02T17:01:15.999Z</time></trkpt><trkpt lat="44.38480672731095" lon="7.81960838974976"><ele>402.0</ele><time>2026-04-02T17:01:16.999Z</time></trkpt><trkpt lat="44.38482852284047" lon="7.819493085031031"><ele>402.0</ele><time>2026-04-02T17:01:17.999Z</time></trkpt><trkpt lat="44.38484725893632" lon="7.819372407894563"><ele>402.0</ele><time>2026-04-02T17:01:18.999Z</time></trkpt><trkpt lat="44.384872596299154" lon="7.819222787643735"><ele>402.0</ele><time>2026-04-02T17:01:19.999Z</time></trkpt><trkpt lat="44.38489843672163" lon="7.819066491357878"><ele>402.0</ele><time>2026-04-02T17:01:20.999Z</time></trkpt><trkpt lat="44.38497511736438" lon="7.8189275466704595"><ele>402.0</ele><time>2026-04-02T17:01:21.999Z</time></trkpt><trkpt lat="44.38499101024805" lon="7.818803766710674"><ele>403.0</ele><time>2026-04-02T17:01:22.999Z</time></trkpt><trkpt lat="44.384999536214124" lon="7.818655314798004"><ele>404.0</ele><time>2026-04-02T17:01:23.999Z</time></trkpt><trkpt lat="44.38500301044839" lon="7.8184957407555205"><ele>405.0</ele><time>2026-04-02T17:01:24.999Z</time></trkpt><trkpt lat="44.38502278267793" lon="7.818339698146896"><ele>406.0</ele><time>2026-04-02T17:01:25.999Z</time></trkpt><trkpt lat="44.38503729181477" lon="7.818235870430646"><ele>407.0</ele><time>2026-04-02T17:01:26.999Z</time></trkpt><trkpt lat="44.38505061861154" lon="7.818147993125046"><ele>407.40000000000003</ele><time>2026-04-02T17:01:27.999Z</time></trkpt><trkpt lat="44.38507059453028" lon="7.8180489546845005"><ele>407.8</ele><time>2026-04-02T17:01:28.999Z</time></trkpt><trkpt lat="44.38509094304953" lon="7.817914390431438"><ele>408.2</ele><time>2026-04-02T17:01:30.999Z</time></trkpt><trkpt lat="44.38512326279198" lon="7.817760123872121"><ele>408.6</ele><time>2026-04-02T17:01:32.999Z</time></trkpt><trkpt lat="44.385151694441035" lon="7.817608869498338"><ele>409.0</ele><time>2026-04-02T17:01:34.999Z</time></trkpt><trkpt lat="44.385204416253536" lon="7.817494874620479"><ele>409.83333333333337</ele><time>2026-04-02T17:01:36.999Z</time></trkpt><trkpt lat="44.38527349867693" lon="7.817365417591812"><ele>410.6666666666667</ele><time>2026-04-02T17:01:38.999Z</time></trkpt><trkpt lat="44.38531607830879" lon="7.817293778813974"><ele>411.5</ele><time>2026-04-02T17:01:39.999Z</time></trkpt><trkpt lat="44.38536665903317" lon="7.817183482637958"><ele>412.33333333333337</ele><time>2026-04-02T17:01:41.999Z</time></trkpt><trkpt lat="44.385412771403196" lon="7.817083422428106"><ele>413.1666666666667</ele><time>2026-04-02T17:01:43.999Z</time></trkpt><trkpt lat="44.385432569782296" lon="7.816969592091425"><ele>414.0</ele><time>2026-04-02T17:01:45.999Z</time></trkpt><trkpt lat="44.3854920845243" lon="7.816836688866086"><ele>413.79999999999995</ele><time>2026-04-02T17:01:47.999Z</time></trkpt><trkpt lat="44.38555291395579" lon="7.816723044856957"><ele>413.59999999999997</ele><time>2026-04-02T17:01:49.999Z</time></trkpt><trkpt lat="44.385595998170714" lon="7.816648648666063"><ele>413.4</ele><time>2026-04-02T17:01:51.999Z</time></trkpt><trkpt lat="44.385591217542405" lon="7.81653056279004"><ele>413.2</ele><time>2026-04-02T17:01:53.999Z</time></trkpt><trkpt lat="44.38549000650394" lon="7.81643553872919"><ele>413.0</ele><time>2026-04-02T17:01:55.999Z</time></trkpt><trkpt lat="44.385414710357715" lon="7.816400877422811"><ele>414.2857142857143</ele><time>2026-04-02T17:01:56.999Z</time></trkpt><trkpt lat="44.38533917019376" lon="7.816349718865293"><ele>415.57142857142856</ele><time>2026-04-02T17:01:57.999Z</time></trkpt><trkpt lat="44.38527140798252" lon="7.8162918941931885"><ele>416.8571428571429</ele><time>2026-04-02T17:01:58.999Z</time></trkpt><trkpt lat="44.385214039250144" lon="7.816243743293889"><ele>418.1428571428571</ele><time>2026-04-02T17:01:59.999Z</time></trkpt><trkpt lat="44.385156251538454" lon="7.816208260620161"><ele>419.42857142857144</ele><time>2026-04-02T17:02:00.999Z</time></trkpt><trkpt lat="44.385084274217455" lon="7.816139841180585"><ele>420.7142857142857</ele><time>2026-04-02T17:02:02.999Z</time></trkpt><trkpt lat="44.385044407910954" lon="7.816069496587152"><ele>422.0</ele><time>2026-04-02T17:02:08.999Z</time></trkpt><trkpt lat="44.38491983274804" lon="7.815982829097053"><ele>423.25</ele><time>2026-04-02T17:02:29.998Z</time></trkpt><trkpt lat="44.38483706918404" lon="7.815901087363368"><ele>424.5</ele><time>2026-04-02T17:02:34.998Z</time></trkpt><trkpt lat="44.384731945332035" lon="7.815780133449795"><ele>425.75</ele><time>2026-04-02T17:02:37Z</time></trkpt><trkpt lat="44.38464161196912" lon="7.815718170941059"><ele>427.0</ele><time>2026-04-02T17:02:38Z</time></trkpt><trkpt lat="44.38454572160822" lon="7.815623748083"><ele>427.5</ele><time>2026-04-02T17:02:39Z</time></trkpt><trkpt lat="44.38444347923615" lon="7.815525047548404"><ele>428.0</ele><time>2026-04-02T17:02:40Z</time></trkpt><trkpt lat="44.38433971130297" lon="7.8154403796972565"><ele>428.5</ele><time>2026-04-02T17:02:41Z</time></trkpt><trkpt lat="44.384240230137245" lon="7.815349958256407"><ele>429.0</ele><time>2026-04-02T17:02:42Z</time></trkpt><trkpt lat="44.38413831067976" lon="7.815273309532886"><ele>429.0</ele><time>2026-04-02T17:02:43Z</time></trkpt><trkpt lat="44.38406531272698" lon="7.815192258537923"><ele>429.0</ele><time>2026-04-02T17:02:44Z</time></trkpt><trkpt lat="44.38395437068816" lon="7.815117493357861"><ele>429.0</ele><time>2026-04-02T17:02:45Z</time></trkpt><trkpt lat="44.3838658446583" lon="7.815026581426707"><ele>429.0</ele><time>2026-04-02T17:02:46Z</time></trkpt><trkpt lat="44.383783558165646" lon="7.8149475249224505"><ele>429.0</ele><time>2026-04-02T17:02:47Z</time></trkpt><trkpt lat="44.383688585005125" lon="7.814878229261573"><ele>429.4</ele><time>2026-04-02T17:02:48Z</time></trkpt><trkpt lat="44.38359802660072" lon="7.8147931477182375"><ele>429.79999999999995</ele><time>2026-04-02T17:02:49Z</time></trkpt><trkpt lat="44.38353032891076" lon="7.814712562861105"><ele>430.20000000000005</ele><time>2026-04-02T17:02:50Z</time></trkpt><trkpt lat="44.3834498805554" lon="7.81462606802542"><ele>430.6</ele><time>2026-04-02T17:02:51Z</time></trkpt><trkpt lat="44.38335468261194" lon="7.81454227705671"><ele>431.0</ele><time>2026-04-02T17:02:52Z</time></trkpt><trkpt lat="44.38327187447679" lon="7.814445725968882"><ele>431.0</ele><time>2026-04-02T17:02:53Z</time></trkpt><trkpt lat="44.3831691305736" lon="7.81436401363899"><ele>431.0</ele><time>2026-04-02T17:02:54Z</time></trkpt><trkpt lat="44.38305974156087" lon="7.814285460971338"><ele>431.0</ele><time>2026-04-02T17:02:55Z</time></trkpt><trkpt lat="44.382967049183115" lon="7.814194372668787"><ele>431.0</ele><time>2026-04-02T17:02:56Z</time></trkpt><trkpt lat="44.38287467795162" lon="7.814115603809027"><ele>431.25</ele><time>2026-04-02T17:02:57Z</time></trkpt><trkpt lat="44.382757211954335" lon="7.814038723187756"><ele>431.5</ele><time>2026-04-02T17:02:58Z</time></trkpt><trkpt lat="44.38266866557368" lon="7.813957047957353"><ele>431.75</ele><time>2026-04-02T17:02:59Z</time></trkpt><trkpt lat="44.382564425848024" lon="7.813866160998633"><ele>432.0</ele><time>2026-04-02T17:03:00Z</time></trkpt><trkpt lat="44.382474835702794" lon="7.813784326038242"><ele>432.0</ele><time>2026-04-02T17:03:01Z</time></trkpt><trkpt lat="44.38238859917146" lon="7.813684529812925"><ele>432.0</ele><time>2026-04-02T17:03:02Z</time></trkpt><trkpt lat="44.38228356649279" lon="7.813607153151384"><ele>432.0</ele><time>2026-04-02T17:03:03Z</time></trkpt><trkpt lat="44.382193472183445" lon="7.813526896157486"><ele>432.0</ele><time>2026-04-02T17:03:04Z</time></trkpt><trkpt lat="44.38208473693333" lon="7.813438458987458"><ele>432.40000000000003</ele><time>2026-04-02T17:03:05Z</time></trkpt><trkpt lat="44.3819906312477" lon="7.813360220483466"><ele>432.80000000000007</ele><time>2026-04-02T17:03:06Z</time></trkpt><trkpt lat="44.381905462068914" lon="7.813271380524664"><ele>433.2</ele><time>2026-04-02T17:03:07Z</time></trkpt><trkpt lat="44.381819918138916" lon="7.813197257909376"><ele>433.6</ele><time>2026-04-02T17:03:08Z</time></trkpt><trkpt lat="44.38171538501527" lon="7.813112301196199"><ele>434.0</ele><time>2026-04-02T17:03:09Z</time></trkpt><trkpt lat="44.38161927492664" lon="7.813031435762908"><ele>434.0</ele><time>2026-04-02T17:03:10Z</time></trkpt><trkpt lat="44.3815198289405" lon="7.812935953760062"><ele>434.0</ele><time>2026-04-02T17:03:11Z</time></trkpt><trkpt lat="44.381423350994275" lon="7.812844343956816"><ele>434.0</ele><time>2026-04-02T17:03:12Z</time></trkpt><trkpt lat="44.381339209199865" lon="7.812761336632018"><ele>434.0</ele><time>2026-04-02T17:03:13Z</time></trkpt><trkpt lat="44.38125523211324" lon="7.812679904166874"><ele>434.0</ele><time>2026-04-02T17:03:14Z</time></trkpt><trkpt lat="44.38116778445166" lon="7.812587951310306"><ele>433.25</ele><time>2026-04-02T17:03:15Z</time></trkpt><trkpt lat="44.38107381550666" lon="7.812498033879988"><ele>432.5</ele><time>2026-04-02T17:03:16Z</time></trkpt><trkpt lat="44.380976055917984" lon="7.812408804379838"><ele>431.75</ele><time>2026-04-02T17:03:16.999Z</time></trkpt><trkpt lat="44.38088114912378" lon="7.812318485045432"><ele>431.0</ele><time>2026-04-02T17:03:17.999Z</time></trkpt><trkpt lat="44.38078928953352" lon="7.812232174815459"><ele>431.0</ele><time>2026-04-02T17:03:18.999Z</time></trkpt><trkpt lat="44.38069430178346" lon="7.812151023170359"><ele>431.0</ele><time>2026-04-02T17:03:19.999Z</time></trkpt><trkpt lat="44.38060256836449" lon="7.812070650204959"><ele>431.0</ele><time>2026-04-02T17:03:20.999Z</time></trkpt><trkpt lat="44.380506533216376" lon="7.8119884887292095"><ele>431.0</ele><time>2026-04-02T17:03:21.999Z</time></trkpt><trkpt lat="44.38041457044413" lon="7.811901726683323"><ele>431.0</ele><time>2026-04-02T17:03:22.999Z</time></trkpt><trkpt lat="44.3803184623186" lon="7.811814989072527"><ele>431.25</ele><time>2026-04-02T17:03:23.999Z</time></trkpt><trkpt lat="44.38022275857864" lon="7.81172447787367"><ele>431.5</ele><time>2026-04-02T17:03:24.999Z</time></trkpt><trkpt lat="44.38011995864385" lon="7.811644680994891"><ele>431.75</ele><time>2026-04-02T17:03:25.999Z</time></trkpt><trkpt lat="44.38001936522323" lon="7.811559247302789"><ele>432.0</ele><time>2026-04-02T17:03:26.999Z</time></trkpt><trkpt lat="44.3799193821918" lon="7.811478005850215"><ele>432.0</ele><time>2026-04-02T17:03:27.999Z</time></trkpt><trkpt lat="44.37981494312016" lon="7.811390125400848"><ele>432.0</ele><time>2026-04-02T17:03:28.999Z</time></trkpt><trkpt lat="44.37970351961101" lon="7.811306902268492"><ele>432.0</ele><time>2026-04-02T17:03:29.999Z</time></trkpt><trkpt lat="44.379597661636524" lon="7.811217452971711"><ele>432.0</ele><time>2026-04-02T17:03:30.999Z</time></trkpt><trkpt lat="44.379494872467724" lon="7.811126227390021"><ele>432.0</ele><time>2026-04-02T17:03:31.999Z</time></trkpt><trkpt lat="44.37939749874044" lon="7.811035538043415"><ele>432.00000000000006</ele><time>2026-04-02T17:03:32.999Z</time></trkpt><trkpt lat="44.37930862709806" lon="7.810950406178496"><ele>432.00000000000006</ele><time>2026-04-02T17:03:33.999Z</time></trkpt><trkpt lat="44.37921625259924" lon="7.810869318829946"><ele>432.0</ele><time>2026-04-02T17:03:34.999Z</time></trkpt><trkpt lat="44.379128275663504" lon="7.810787338919628"><ele>432.0</ele><time>2026-04-02T17:03:35.999Z</time></trkpt><trkpt lat="44.37903610383748" lon="7.810703558048254"><ele>432.5</ele><time>2026-04-02T17:03:36.999Z</time></trkpt><trkpt lat="44.37894035858751" lon="7.810610647793931"><ele>433.0</ele><time>2026-04-02T17:03:37.999Z</time></trkpt><trkpt lat="44.37884678140032" lon="7.810520568888039"><ele>433.5</ele><time>2026-04-02T17:03:38.999Z</time></trkpt><trkpt lat="44.378750412865394" lon="7.810433035439561"><ele>434.0</ele><time>2026-04-02T17:03:39.999Z</time></trkpt><trkpt lat="44.37865569396608" lon="7.810347433683473"><ele>434.0</ele><time>2026-04-02T17:03:40.999Z</time></trkpt><trkpt lat="44.378558862019425" lon="7.810258130181009"><ele>434.0</ele><time>2026-04-02T17:03:41.999Z</time></trkpt><trkpt lat="44.378463375015464" lon="7.810169236291296"><ele>434.0</ele><time>2026-04-02T17:03:42.999Z</time></trkpt><trkpt lat="44.37836514807787" lon="7.810080408129439"><ele>434.0</ele><time>2026-04-02T17:03:43.999Z</time></trkpt><trkpt lat="44.37826764386932" lon="7.809987912500114"><ele>434.25</ele><time>2026-04-02T17:03:44.999Z</time></trkpt><trkpt lat="44.37816087568291" lon="7.80989875972547"><ele>434.5</ele><time>2026-04-02T17:03:45.999Z</time></trkpt><trkpt lat="44.37806454642259" lon="7.809814905494709"><ele>434.75</ele><time>2026-04-02T17:03:46.999Z</time></trkpt><trkpt lat="44.377972524382464" lon="7.80973221742049"><ele>435.0</ele><time>2026-04-02T17:03:47.999Z</time></trkpt><trkpt lat="44.37787957071681" lon="7.809645738520692"><ele>435.0</ele><time>2026-04-02T17:03:48.999Z</time></trkpt><trkpt lat="44.377782160442365" lon="7.809559909253407"><ele>435.0</ele><time>2026-04-02T17:03:49.999Z</time></trkpt><trkpt lat="44.3776799227513" lon="7.809474345431576"><ele>435.0</ele><time>2026-04-02T17:03:50.999Z</time></trkpt><trkpt lat="44.37757727351958" lon="7.809386125769303"><ele>435.0</ele><time>2026-04-02T17:03:51.999Z</time></trkpt><trkpt lat="44.377469022717705" lon="7.809296765033286"><ele>435.0</ele><time>2026-04-02T17:03:52.999Z</time></trkpt><trkpt lat="44.37737334123384" lon="7.809203032716734"><ele>435.0</ele><time>2026-04-02T17:03:53.999Z</time></trkpt><trkpt lat="44.37726610415471" lon="7.809109354304713"><ele>435.0</ele><time>2026-04-02T17:03:54.999Z</time></trkpt><trkpt lat="44.377151387557326" lon="7.809004011921158"><ele>435.0</ele><time>2026-04-02T17:03:55.999Z</time></trkpt><trkpt lat="44.37703298401427" lon="7.808899603983041"><ele>436.0</ele><time>2026-04-02T17:03:56.999Z</time></trkpt><trkpt lat="44.37689408607415" lon="7.808778445834164"><ele>437.0</ele><time>2026-04-02T17:03:57.999Z</time></trkpt><trkpt lat="44.37675751813201" lon="7.808667621293206"><ele>438.0</ele><time>2026-04-02T17:03:58.999Z</time></trkpt><trkpt lat="44.37660969717508" lon="7.808552315570824"><ele>438.33333333333337</ele><time>2026-04-02T17:03:59.999Z</time></trkpt><trkpt lat="44.3764587372706" lon="7.808442711876688"><ele>438.6666666666667</ele><time>2026-04-02T17:04:00.999Z</time></trkpt><trkpt lat="44.37629530834864" lon="7.808346477663709"><ele>439.0</ele><time>2026-04-02T17:04:01.999Z</time></trkpt><trkpt lat="44.37610191747067" lon="7.808245016368548"><ele>439.0</ele><time>2026-04-02T17:04:02.999Z</time></trkpt><trkpt lat="44.37592238269734" lon="7.808145372453372"><ele>439.0</ele><time>2026-04-02T17:04:03.999Z</time></trkpt><trkpt lat="44.37573534880052" lon="7.808045970035473"><ele>439.0</ele><time>2026-04-02T17:04:04.999Z</time></trkpt><trkpt lat="44.37555156591007" lon="7.807949637550221"><ele>439.33333333333337</ele><time>2026-04-02T17:04:05.999Z</time></trkpt><trkpt lat="44.37536667889273" lon="7.807836273738476"><ele>439.66666666666663</ele><time>2026-04-02T17:04:06.999Z</time></trkpt><trkpt lat="44.37517418723179" lon="7.8077226791182195"><ele>440.0</ele><time>2026-04-02T17:04:07.999Z</time></trkpt><trkpt lat="44.37497596730839" lon="7.807608584674521"><ele>440.3333333333333</ele><time>2026-04-02T17:04:08.999Z</time></trkpt><trkpt lat="44.37477275857241" lon="7.807493213416816"><ele>440.66666666666663</ele><time>2026-04-02T17:04:09.999Z</time></trkpt><trkpt lat="44.374559958930305" lon="7.807372934488452"><ele>441.0</ele><time>2026-04-02T17:04:10.999Z</time></trkpt><trkpt lat="44.37433958388399" lon="7.807250356184328"><ele>441.0</ele><time>2026-04-02T17:04:11.999Z</time></trkpt><trkpt lat="44.374129198074385" lon="7.807137708933623"><ele>441.0</ele><time>2026-04-02T17:04:12.998Z</time></trkpt><trkpt lat="44.37392007675289" lon="7.807021287735523"><ele>441.66666666666663</ele><time>2026-04-02T17:04:13.998Z</time></trkpt><trkpt lat="44.37373073692195" lon="7.806921085520047"><ele>442.3333333333333</ele><time>2026-04-02T17:04:14.998Z</time></trkpt><trkpt lat="44.373552279916275" lon="7.806817375808089"><ele>443.0</ele><time>2026-04-02T17:04:15.998Z</time></trkpt><trkpt lat="44.37337743770281" lon="7.806720655950529"><ele>444.3333333333333</ele><time>2026-04-02T17:04:16.998Z</time></trkpt><trkpt lat="44.37322105719865" lon="7.8066329630875115"><ele>445.66666666666663</ele><time>2026-04-02T17:04:17.998Z</time></trkpt><trkpt lat="44.373079344244346" lon="7.806549134946834"><ele>447.0</ele><time>2026-04-02T17:04:18.998Z</time></trkpt><trkpt lat="44.37293927745114" lon="7.806457606119305"><ele>447.33333333333337</ele><time>2026-04-02T17:04:19.998Z</time></trkpt><trkpt lat="44.372809313037976" lon="7.806348719218449"><ele>447.6666666666667</ele><time>2026-04-02T17:04:20.998Z</time></trkpt><trkpt lat="44.37268377382346" lon="7.80622189154179"><ele>448.0</ele><time>2026-04-02T17:04:21.998Z</time></trkpt><trkpt lat="44.37256735456565" lon="7.8060760215024185"><ele>450.0</ele><time>2026-04-02T17:04:22.998Z</time></trkpt><trkpt lat="44.37247120567712" lon="7.805908846302643"><ele>452.0</ele><time>2026-04-02T17:04:23.998Z</time></trkpt><trkpt lat="44.37238643083603" lon="7.805733946570321"><ele>454.0</ele><time>2026-04-02T17:04:24.998Z</time></trkpt><trkpt lat="44.372315989141164" lon="7.8055435367700605"><ele>454.0</ele><time>2026-04-02T17:04:25.998Z</time></trkpt><trkpt lat="44.372248707309296" lon="7.805342647531007"><ele>454.0</ele><time>2026-04-02T17:04:26.998Z</time></trkpt><trkpt lat="44.37219368885345" lon="7.805134921769493"><ele>454.0</ele><time>2026-04-02T17:04:27.998Z</time></trkpt><trkpt lat="44.372136648828395" lon="7.804931163430881"><ele>456.33333333333337</ele><time>2026-04-02T17:04:28.998Z</time></trkpt><trkpt lat="44.372076477116785" lon="7.8047073003171095"><ele>458.66666666666663</ele><time>2026-04-02T17:04:29.998Z</time></trkpt><trkpt lat="44.372014362932454" lon="7.804488199413733"><ele>461.0</ele><time>2026-04-02T17:04:30.998Z</time></trkpt><trkpt lat="44.37194530198126" lon="7.804259524669521"><ele>461.0</ele><time>2026-04-02T17:04:31.998Z</time></trkpt><trkpt lat="44.37188574478985" lon="7.804049538123422"><ele>461.0</ele><time>2026-04-02T17:04:32.998Z</time></trkpt><trkpt lat="44.37181698597426" lon="7.803834860258684"><ele>461.0</ele><time>2026-04-02T17:04:33.998Z</time></trkpt><trkpt lat="44.37175697975263" lon="7.803614276710164"><ele>462.3333333333333</ele><time>2026-04-02T17:04:34.998Z</time></trkpt><trkpt lat="44.371672801618956" lon="7.803395254553336"><ele>463.66666666666663</ele><time>2026-04-02T17:04:35.998Z</time></trkpt><trkpt lat="44.371602346169276" lon="7.803170513485195"><ele>465.0</ele><time>2026-04-02T17:04:36.998Z</time></trkpt><trkpt lat="44.371521103757445" lon="7.802946822573348"><ele>465.0</ele><time>2026-04-02T17:04:37.998Z</time></trkpt><trkpt lat="44.37144318468443" lon="7.802722757206063"><ele>465.0</ele><time>2026-04-02T17:04:38.998Z</time></trkpt><trkpt lat="44.37135466539192" lon="7.802487407538099"><ele>465.0</ele><time>2026-04-02T17:04:39.998Z</time></trkpt><trkpt lat="44.371257927955" lon="7.802264424338774"><ele>465.33333333333337</ele><time>2026-04-02T17:04:40.998Z</time></trkpt><trkpt lat="44.37116412542403" lon="7.802044866964477"><ele>465.6666666666667</ele><time>2026-04-02T17:04:42Z</time></trkpt><trkpt lat="44.371057612074324" lon="7.801819199083394"><ele>466.0</ele><time>2026-04-02T17:04:43Z</time></trkpt><trkpt lat="44.37093789766223" lon="7.801600432142769"><ele>466.0</ele><time>2026-04-02T17:04:44Z</time></trkpt><trkpt lat="44.370805426404814" lon="7.801388440955619"><ele>466.0</ele><time>2026-04-02T17:04:45Z</time></trkpt><trkpt lat="44.37066535489341" lon="7.801174508652615"><ele>466.0</ele><time>2026-04-02T17:04:46Z</time></trkpt><trkpt lat="44.37050881435493" lon="7.800971215113616"><ele>466.6666666666667</ele><time>2026-04-02T17:04:47Z</time></trkpt><trkpt lat="44.37034860724614" lon="7.800776475167582"><ele>467.33333333333337</ele><time>2026-04-02T17:04:48Z</time></trkpt><trkpt lat="44.37017651647552" lon="7.8005777607565525"><ele>468.0</ele><time>2026-04-02T17:04:49Z</time></trkpt><trkpt lat="44.36999681153931" lon="7.800399966580346"><ele>468.0</ele><time>2026-04-02T17:04:50Z</time></trkpt><trkpt lat="44.369809210888015" lon="7.80020716185095"><ele>468.0</ele><time>2026-04-02T17:04:51Z</time></trkpt><trkpt lat="44.3696270119916" lon="7.800014072722585"><ele>468.33333333333337</ele><time>2026-04-02T17:04:52Z</time></trkpt><trkpt lat="44.36946123073317" lon="7.799835525932891"><ele>468.6666666666667</ele><time>2026-04-02T17:04:53Z</time></trkpt><trkpt lat="44.36929466938215" lon="7.799678466394664"><ele>469.0</ele><time>2026-04-02T17:04:54Z</time></trkpt><trkpt lat="44.36914412215149" lon="7.7995335401728845"><ele>469.0</ele><time>2026-04-02T17:04:55Z</time></trkpt><trkpt lat="44.36900264122353" lon="7.7993886632668366"><ele>469.0</ele><time>2026-04-02T17:04:56Z</time></trkpt><trkpt lat="44.368868468212945" lon="7.799264644498447"><ele>469.0</ele><time>2026-04-02T17:04:57Z</time></trkpt><trkpt lat="44.36875707384636" lon="7.79913559913137"><ele>469.25</ele><time>2026-04-02T17:04:58Z</time></trkpt><trkpt lat="44.36865268165731" lon="7.799018577381737"><ele>469.5</ele><time>2026-04-02T17:04:59Z</time></trkpt><trkpt lat="44.368549135316215" lon="7.798919588327296"><ele>469.75</ele><time>2026-04-02T17:05:00Z</time></trkpt><trkpt lat="44.368453280303264" lon="7.798830906381439"><ele>470.0</ele><time>2026-04-02T17:05:01Z</time></trkpt><trkpt lat="44.368371739512" lon="7.798734955393006"><ele>470.0</ele><time>2026-04-02T17:05:02Z</time></trkpt><trkpt lat="44.368293107247716" lon="7.798651301434291"><ele>470.0</ele><time>2026-04-02T17:05:03Z</time></trkpt><trkpt lat="44.36822712262509" lon="7.798562918834266"><ele>470.0</ele><time>2026-04-02T17:05:04Z</time></trkpt><trkpt lat="44.368164703795514" lon="7.798469115907035"><ele>470.0</ele><time>2026-04-02T17:05:05Z</time></trkpt><trkpt lat="44.36810939194817" lon="7.7983511405909764"><ele>470.0</ele><time>2026-04-02T17:05:06Z</time></trkpt><trkpt lat="44.368057422705036" lon="7.798228595124792"><ele>470.4</ele><time>2026-04-02T17:05:07Z</time></trkpt><trkpt lat="44.368004457516165" lon="7.798101798663779"><ele>470.8</ele><time>2026-04-02T17:05:08Z</time></trkpt><trkpt lat="44.36795477590802" lon="7.79798003889401"><ele>471.20000000000005</ele><time>2026-04-02T17:05:09Z</time></trkpt><trkpt lat="44.367881352751354" lon="7.797877776017321"><ele>471.6</ele><time>2026-04-02T17:05:10Z</time></trkpt><trkpt lat="44.36779875389403" lon="7.797811270142787"><ele>472.0</ele><time>2026-04-02T17:05:11Z</time></trkpt><trkpt lat="44.36771794941213" lon="7.79778134781663"><ele>472.0</ele><time>2026-04-02T17:05:12Z</time></trkpt><trkpt lat="44.36761568346969" lon="7.797762230044046"><ele>472.0</ele><time>2026-04-02T17:05:13Z</time></trkpt><trkpt lat="44.36750483581467" lon="7.797749572145243"><ele>472.0</ele><time>2026-04-02T17:05:14Z</time></trkpt><trkpt lat="44.36739596078387" lon="7.797710935516462"><ele>472.0</ele><time>2026-04-02T17:05:15Z</time></trkpt><trkpt lat="44.36726829919408" lon="7.79768181546843"><ele>472.5</ele><time>2026-04-02T17:05:16Z</time></trkpt><trkpt lat="44.367156749762934" lon="7.79757190040802"><ele>473.0</ele><time>2026-04-02T17:05:17Z</time></trkpt><trkpt lat="44.36702712247211" lon="7.797472973252461"><ele>473.5</ele><time>2026-04-02T17:05:18Z</time></trkpt><trkpt lat="44.36690684976677" lon="7.797347242369134"><ele>474.0</ele><time>2026-04-02T17:05:19Z</time></trkpt><trkpt lat="44.366778632414444" lon="7.797227594396707"><ele>474.0</ele><time>2026-04-02T17:05:20Z</time></trkpt><trkpt lat="44.36664389212493" lon="7.797101379222878"><ele>474.0</ele><time>2026-04-02T17:05:21Z</time></trkpt><trkpt lat="44.366498357482364" lon="7.796980007382402"><ele>474.0</ele><time>2026-04-02T17:05:22Z</time></trkpt><trkpt lat="44.366350676204945" lon="7.796833535951228"><ele>474.66666666666663</ele><time>2026-04-02T17:05:23Z</time></trkpt><trkpt lat="44.36620546376592" lon="7.796689827256888"><ele>475.3333333333333</ele><time>2026-04-02T17:05:23.999Z</time></trkpt><trkpt lat="44.366059659836964" lon="7.796536500188588"><ele>476.0</ele><time>2026-04-02T17:05:24.999Z</time></trkpt><trkpt lat="44.365911718219394" lon="7.796399505850982"><ele>476.0</ele><time>2026-04-02T17:05:25.999Z</time></trkpt><trkpt lat="44.36575702191017" lon="7.796256314754372"><ele>476.0</ele><time>2026-04-02T17:05:26.999Z</time></trkpt><trkpt lat="44.365590659890174" lon="7.796102283881374"><ele>476.0</ele><time>2026-04-02T17:05:27.999Z</time></trkpt><trkpt lat="44.36542268980377" lon="7.795946143769104"><ele>476.3333333333333</ele><time>2026-04-02T17:05:28.999Z</time></trkpt><trkpt lat="44.36525278775146" lon="7.795780821726502"><ele>476.66666666666663</ele><time>2026-04-02T17:05:29.999Z</time></trkpt><trkpt lat="44.365083562824076" lon="7.795615830917681"><ele>477.0</ele><time>2026-04-02T17:05:30.999Z</time></trkpt><trkpt lat="44.36490414991451" lon="7.795438918642212"><ele>477.0</ele><time>2026-04-02T17:05:31.999Z</time></trkpt><trkpt lat="44.36472472726089" lon="7.795271579392374"><ele>477.0</ele><time>2026-04-02T17:05:32.999Z</time></trkpt><trkpt lat="44.36452124934147" lon="7.795081745442771"><ele>476.5</ele><time>2026-04-02T17:05:33.999Z</time></trkpt><trkpt lat="44.36432099997437" lon="7.7948955044682595"><ele>476.0</ele><time>2026-04-02T17:05:34.999Z</time></trkpt><trkpt lat="44.36412270477254" lon="7.794723248566478"><ele>476.0</ele><time>2026-04-02T17:05:35.999Z</time></trkpt><trkpt lat="44.363935508663594" lon="7.794527002883292"><ele>476.0</ele><time>2026-04-02T17:05:36.999Z</time></trkpt><trkpt lat="44.363735394710645" lon="7.794353754845056"><ele>477.5</ele><time>2026-04-02T17:05:37.999Z</time></trkpt><trkpt lat="44.36353023362237" lon="7.79416360593249"><ele>479.0</ele><time>2026-04-02T17:05:38.999Z</time></trkpt><trkpt lat="44.363336849813415" lon="7.79398413194586"><ele>479.0</ele><time>2026-04-02T17:05:39.999Z</time></trkpt><trkpt lat="44.363129349806655" lon="7.793784720013428"><ele>479.0</ele><time>2026-04-02T17:05:40.999Z</time></trkpt><trkpt lat="44.36293212880054" lon="7.793589267250404"><ele>480.0</ele><time>2026-04-02T17:05:41.999Z</time></trkpt><trkpt lat="44.36272802799055" lon="7.7933886735436335"><ele>481.0</ele><time>2026-04-02T17:05:42.999Z</time></trkpt><trkpt lat="44.362543192169205" lon="7.793218093657198"><ele>481.0</ele><time>2026-04-02T17:05:43.999Z</time></trkpt><trkpt lat="44.36239327297064" lon="7.793074751366985"><ele>481.0</ele><time>2026-04-02T17:05:44.999Z</time></trkpt><trkpt lat="44.36220599590701" lon="7.7929312781264555"><ele>481.0</ele><time>2026-04-02T17:05:45.999Z</time></trkpt><trkpt lat="44.36202448646147" lon="7.79274422201895"><ele>481.33333333333337</ele><time>2026-04-02T17:05:46.999Z</time></trkpt><trkpt lat="44.36184346472376" lon="7.7925839384540945"><ele>481.66666666666663</ele><time>2026-04-02T17:05:47.999Z</time></trkpt><trkpt lat="44.36167169675817" lon="7.792428707978582"><ele>482.0</ele><time>2026-04-02T17:05:48.999Z</time></trkpt><trkpt lat="44.36149001235779" lon="7.792265121139189"><ele>482.0</ele><time>2026-04-02T17:05:49.999Z</time></trkpt><trkpt lat="44.3613091731299" lon="7.792100347845478"><ele>482.0</ele><time>2026-04-02T17:05:50.999Z</time></trkpt><trkpt lat="44.36112417362725" lon="7.791910774311039"><ele>482.0</ele><time>2026-04-02T17:05:51.999Z</time></trkpt><trkpt lat="44.36093252445414" lon="7.791733399305117"><ele>481.5</ele><time>2026-04-02T17:05:52.999Z</time></trkpt><trkpt lat="44.36073835786825" lon="7.79156088780571"><ele>481.0</ele><time>2026-04-02T17:05:53.999Z</time></trkpt><trkpt lat="44.36054515028765" lon="7.791377194477958"><ele>481.33333333333337</ele><time>2026-04-02T17:05:54.999Z</time></trkpt><trkpt lat="44.36035762087875" lon="7.7911895296287765"><ele>481.66666666666663</ele><time>2026-04-02T17:05:55.999Z</time></trkpt><trkpt lat="44.36018259838486" lon="7.791020569709522"><ele>482.0</ele><time>2026-04-02T17:05:56.999Z</time></trkpt><trkpt lat="44.36001990137117" lon="7.790869719524739"><ele>482.0</ele><time>2026-04-02T17:05:57.999Z</time></trkpt><trkpt lat="44.35986196000691" lon="7.790718083201611"><ele>482.0</ele><time>2026-04-02T17:05:58.999Z</time></trkpt><trkpt lat="44.359708490385756" lon="7.790581355964805"><ele>482.0</ele><time>2026-04-02T17:05:59.999Z</time></trkpt><trkpt lat="44.35955117260018" lon="7.790440056121029"><ele>483.0</ele><time>2026-04-02T17:06:00.999Z</time></trkpt><trkpt lat="44.35940015248394" lon="7.790293362272802"><ele>484.0</ele><time>2026-04-02T17:06:01.999Z</time></trkpt><trkpt lat="44.35924994714019" lon="7.790147828476436"><ele>485.0</ele><time>2026-04-02T17:06:02.999Z</time></trkpt><trkpt lat="44.35909571845026" lon="7.789997531567188"><ele>485.3333333333333</ele><time>2026-04-02T17:06:03.999Z</time></trkpt><trkpt lat="44.35894613437107" lon="7.7898588716600194"><ele>485.66666666666663</ele><time>2026-04-02T17:06:04.999Z</time></trkpt><trkpt lat="44.358787215884576" lon="7.789710259958816"><ele>486.0</ele><time>2026-04-02T17:06:05.999Z</time></trkpt><trkpt lat="44.358635449842765" lon="7.789578301280953"><ele>485.33333333333337</ele><time>2026-04-02T17:06:06.999Z</time></trkpt><trkpt lat="44.3584984793388" lon="7.789447381859389"><ele>484.6666666666667</ele><time>2026-04-02T17:06:07.999Z</time></trkpt><trkpt lat="44.358363099702565" lon="7.78931918358666"><ele>484.0</ele><time>2026-04-02T17:06:08.999Z</time></trkpt><trkpt lat="44.358236079729494" lon="7.789200779143655"><ele>484.0</ele><time>2026-04-02T17:06:09.999Z</time></trkpt><trkpt lat="44.35811148018243" lon="7.789076915065179"><ele>484.0</ele><time>2026-04-02T17:06:10.999Z</time></trkpt><trkpt lat="44.35798732416104" lon="7.788969123019737"><ele>484.0</ele><time>2026-04-02T17:06:11.999Z</time></trkpt><trkpt lat="44.35787042363051" lon="7.788862848159035"><ele>484.0</ele><time>2026-04-02T17:06:12.999Z</time></trkpt><trkpt lat="44.357758861232355" lon="7.788753169324842"><ele>484.0</ele><time>2026-04-02T17:06:13.999Z</time></trkpt><trkpt lat="44.35765676920818" lon="7.788652760888288"><ele>484.0</ele><time>2026-04-02T17:06:14.999Z</time></trkpt><trkpt lat="44.35755862601185" lon="7.788556898668149"><ele>484.0</ele><time>2026-04-02T17:06:15.999Z</time></trkpt><trkpt lat="44.357468693872804" lon="7.788466637626913"><ele>484.0</ele><time>2026-04-02T17:06:16.999Z</time></trkpt><trkpt lat="44.35739458503424" lon="7.788388110473889"><ele>484.0</ele><time>2026-04-02T17:06:17.999Z</time></trkpt><trkpt lat="44.35732363495823" lon="7.78831856827235"><ele>484.1666666666667</ele><time>2026-04-02T17:06:18.999Z</time></trkpt><trkpt lat="44.357262046000464" lon="7.788235851200749"><ele>484.33333333333337</ele><time>2026-04-02T17:06:19.998Z</time></trkpt><trkpt lat="44.35721818119572" lon="7.788148087351871"><ele>484.5</ele><time>2026-04-02T17:06:20.998Z</time></trkpt><trkpt lat="44.35718206031838" lon="7.788064396696687"><ele>484.66666666666663</ele><time>2026-04-02T17:06:21.998Z</time></trkpt><trkpt lat="44.357141453611895" lon="7.787985692699677"><ele>484.8333333333333</ele><time>2026-04-02T17:06:22.998Z</time></trkpt><trkpt lat="44.35708428641315" lon="7.787924327832403"><ele>485.0</ele><time>2026-04-02T17:06:23.998Z</time></trkpt><trkpt lat="44.35701653522993" lon="7.787874963580221"><ele>485.2</ele><time>2026-04-02T17:06:24.998Z</time></trkpt><trkpt lat="44.35691935456683" lon="7.787869510391581"><ele>485.4</ele><time>2026-04-02T17:06:25.998Z</time></trkpt><trkpt lat="44.356826847101615" lon="7.787835559511797"><ele>485.6</ele><time>2026-04-02T17:06:26.998Z</time></trkpt><trkpt lat="44.35672779609836" lon="7.787769121265526"><ele>485.8</ele><time>2026-04-02T17:06:27.998Z</time></trkpt><trkpt lat="44.35662741884734" lon="7.787690660979512"><ele>486.0</ele><time>2026-04-02T17:06:28.998Z</time></trkpt><trkpt lat="44.35653001007394" lon="7.787602303871092"><ele>486.0</ele><time>2026-04-02T17:06:29.998Z</time></trkpt><trkpt lat="44.35642002788154" lon="7.787500226913896"><ele>486.0</ele><time>2026-04-02T17:06:30.998Z</time></trkpt><trkpt lat="44.356314804207805" lon="7.787397339507958"><ele>486.0</ele><time>2026-04-02T17:06:31.998Z</time></trkpt><trkpt lat="44.3562155648706" lon="7.78730273304396"><ele>486.0</ele><time>2026-04-02T17:06:32.998Z</time></trkpt><trkpt lat="44.35611631550815" lon="7.78720235617771"><ele>486.25</ele><time>2026-04-02T17:06:33.998Z</time></trkpt><trkpt lat="44.35602144584206" lon="7.787105928158133"><ele>486.5</ele><time>2026-04-02T17:06:34.998Z</time></trkpt><trkpt lat="44.35592854599731" lon="7.787017801294136"><ele>486.75</ele><time>2026-04-02T17:06:35.998Z</time></trkpt><trkpt lat="44.35582863855023" lon="7.786932033929685"><ele>487.0</ele><time>2026-04-02T17:06:36.998Z</time></trkpt><trkpt lat="44.35573725822588" lon="7.786840858172405"><ele>487.8</ele><time>2026-04-02T17:06:37.998Z</time></trkpt><trkpt lat="44.355655991136196" lon="7.786760225394735"><ele>488.6</ele><time>2026-04-02T17:06:38.998Z</time></trkpt><trkpt lat="44.355570748755326" lon="7.786685170272315"><ele>489.40000000000003</ele><time>2026-04-02T17:06:39.998Z</time></trkpt><trkpt lat="44.3554633332694" lon="7.786588024268669"><ele>490.20000000000005</ele><time>2026-04-02T17:06:40.998Z</time></trkpt><trkpt lat="44.35536234290579" lon="7.786499646271082"><ele>491.0</ele><time>2026-04-02T17:06:41.998Z</time></trkpt><trkpt lat="44.35526406338268" lon="7.786411442643201"><ele>491.0</ele><time>2026-04-02T17:06:42.998Z</time></trkpt><trkpt lat="44.355182084040784" lon="7.786322159798909"><ele>491.0</ele><time>2026-04-02T17:06:43.998Z</time></trkpt><trkpt lat="44.35510768867259" lon="7.7862411540616865"><ele>491.0</ele><time>2026-04-02T17:06:44.998Z</time></trkpt><trkpt lat="44.35503187187783" lon="7.786164267948689"><ele>491.0</ele><time>2026-04-02T17:06:45.998Z</time></trkpt><trkpt lat="44.35496027548961" lon="7.786086652962711"><ele>491.0</ele><time>2026-04-02T17:06:46.998Z</time></trkpt><trkpt lat="44.35488837373067" lon="7.78599947917635"><ele>491.16666666666663</ele><time>2026-04-02T17:06:48Z</time></trkpt><trkpt lat="44.354833535945154" lon="7.785916383789259"><ele>491.3333333333333</ele><time>2026-04-02T17:06:49Z</time></trkpt><trkpt lat="44.35478438139354" lon="7.7858349899961325"><ele>491.5</ele><time>2026-04-02T17:06:50Z</time></trkpt><trkpt lat="44.35474458932368" lon="7.78574664475945"><ele>491.66666666666663</ele><time>2026-04-02T17:06:51Z</time></trkpt><trkpt lat="44.35470381816735" lon="7.785596356379731"><ele>491.8333333333333</ele><time>2026-04-02T17:06:53Z</time></trkpt><trkpt lat="44.35470509397409" lon="7.785496280199194"><ele>492.0</ele><time>2026-04-02T17:06:54Z</time></trkpt><trkpt lat="44.35474450964909" lon="7.785407625565444"><ele>492.20000000000005</ele><time>2026-04-02T17:06:55Z</time></trkpt><trkpt lat="44.35481127048534" lon="7.785325217757912"><ele>492.40000000000003</ele><time>2026-04-02T17:06:56Z</time></trkpt><trkpt lat="44.35490597280631" lon="7.7852528071842615"><ele>492.59999999999997</ele><time>2026-04-02T17:06:57Z</time></trkpt><trkpt lat="44.35497759644939" lon="7.785146438523451"><ele>492.79999999999995</ele><time>2026-04-02T17:06:58Z</time></trkpt><trkpt lat="44.3550435522528" lon="7.785048226829065"><ele>493.0</ele><time>2026-04-02T17:06:59Z</time></trkpt><trkpt lat="44.35510696623778" lon="7.784953031842903"><ele>493.00000000000006</ele><time>2026-04-02T17:07:00Z</time></trkpt><trkpt lat="44.35515958102197" lon="7.784851960765394"><ele>493.0</ele><time>2026-04-02T17:07:01Z</time></trkpt><trkpt lat="44.355214514295504" lon="7.7847756038159845"><ele>493.0</ele><time>2026-04-02T17:07:02Z</time></trkpt><trkpt lat="44.35525854677994" lon="7.784688796956155"><ele>493.0</ele><time>2026-04-02T17:07:03Z</time></trkpt><trkpt lat="44.35532460905233" lon="7.784612712616875"><ele>493.00000000000006</ele><time>2026-04-02T17:07:04Z</time></trkpt><trkpt lat="44.35538179104722" lon="7.78452419380715"><ele>493.0</ele><time>2026-04-02T17:07:05Z</time></trkpt><trkpt lat="44.35544348774753" lon="7.7844272512604356"><ele>493.2</ele><time>2026-04-02T17:07:06Z</time></trkpt><trkpt lat="44.3555079013556" lon="7.784328063279059"><ele>493.4</ele><time>2026-04-02T17:07:07Z</time></trkpt><trkpt lat="44.35559311617403" lon="7.784240897936592"><ele>493.59999999999997</ele><time>2026-04-02T17:07:08Z</time></trkpt><trkpt lat="44.35566021606028" lon="7.784140743439496"><ele>493.79999999999995</ele><time>2026-04-02T17:07:09Z</time></trkpt><trkpt lat="44.35573768009936" lon="7.784033897788509"><ele>494.0</ele><time>2026-04-02T17:07:10Z</time></trkpt><trkpt lat="44.35581087840033" lon="7.783932178750279"><ele>493.79999999999995</ele><time>2026-04-02T17:07:11Z</time></trkpt><trkpt lat="44.35589408499842" lon="7.783821240369043"><ele>493.59999999999997</ele><time>2026-04-02T17:07:12Z</time></trkpt><trkpt lat="44.35596929910712" lon="7.783710052173531"><ele>493.4</ele><time>2026-04-02T17:07:13Z</time></trkpt><trkpt lat="44.35603255182979" lon="7.783612774842349"><ele>493.2</ele><time>2026-04-02T17:07:14Z</time></trkpt><trkpt lat="44.356093612539034" lon="7.783470289434096"><ele>493.0</ele><time>2026-04-02T17:07:15Z</time></trkpt><trkpt lat="44.356165834029426" lon="7.783347098142415"><ele>493.0</ele><time>2026-04-02T17:07:16Z</time></trkpt><trkpt lat="44.35624121971762" lon="7.783232571616632"><ele>492.99999999999994</ele><time>2026-04-02T17:07:17Z</time></trkpt><trkpt lat="44.35632192469534" lon="7.78315126365734"><ele>492.99999999999994</ele><time>2026-04-02T17:07:18Z</time></trkpt><trkpt lat="44.356392846891424" lon="7.783025600124067"><ele>493.0</ele><time>2026-04-02T17:07:19Z</time></trkpt><trkpt lat="44.35646808769027" lon="7.782913314734561"><ele>493.0</ele><time>2026-04-02T17:07:20Z</time></trkpt><trkpt lat="44.356540262661106" lon="7.782809251356948"><ele>493.0</ele><time>2026-04-02T17:07:21Z</time></trkpt><trkpt lat="44.35662537762998" lon="7.782706279763035"><ele>492.99999999999994</ele><time>2026-04-02T17:07:22Z</time></trkpt><trkpt lat="44.35668235646136" lon="7.782609935309622"><ele>492.99999999999994</ele><time>2026-04-02T17:07:23Z</time></trkpt><trkpt lat="44.35675209530029" lon="7.7825133092297785"><ele>493.0</ele><time>2026-04-02T17:07:24Z</time></trkpt><trkpt lat="44.35681522798773" lon="7.782423183510814"><ele>493.0</ele><time>2026-04-02T17:07:25Z</time></trkpt><trkpt lat="44.35687505530852" lon="7.7823482737593785"><ele>493.00000000000006</ele><time>2026-04-02T17:07:26Z</time></trkpt><trkpt lat="44.356938145516864" lon="7.782293253061439"><ele>493.0</ele><time>2026-04-02T17:07:27Z</time></trkpt><trkpt lat="44.35702107783359" lon="7.782204614597239"><ele>493.0</ele><time>2026-04-02T17:07:29Z</time></trkpt><trkpt lat="44.35705947405848" lon="7.782128628578395"><ele>493.0</ele><time>2026-04-02T17:07:31.999Z</time></trkpt><trkpt lat="44.357076487149065" lon="7.782018837353826"><ele>493.00000000000006</ele><time>2026-04-02T17:07:34.999Z</time></trkpt><trkpt lat="44.357017666231904" lon="7.781923926800851"><ele>493.0</ele><time>2026-04-02T17:07:35.999Z</time></trkpt><trkpt lat="44.35697213089692" lon="7.781844811078206"><ele>492.79999999999995</ele><time>2026-04-02T17:07:36.999Z</time></trkpt><trkpt lat="44.356898564115674" lon="7.781754659982209"><ele>492.59999999999997</ele><time>2026-04-02T17:07:37.999Z</time></trkpt><trkpt lat="44.35683175345018" lon="7.781676357464999"><ele>492.40000000000003</ele><time>2026-04-02T17:07:38.999Z</time></trkpt><trkpt lat="44.35675840289812" lon="7.781574851014617"><ele>492.20000000000005</ele><time>2026-04-02T17:07:39.999Z</time></trkpt><trkpt lat="44.35666919543122" lon="7.78145164974709"><ele>492.0</ele><time>2026-04-02T17:07:40.999Z</time></trkpt><trkpt lat="44.35659452208243" lon="7.78135320370363"><ele>492.0</ele><time>2026-04-02T17:07:41.999Z</time></trkpt><trkpt lat="44.35651836278435" lon="7.7812759267950495"><ele>492.00000000000006</ele><time>2026-04-02T17:07:42.999Z</time></trkpt><trkpt lat="44.356448594770924" lon="7.78119420421489"><ele>492.00000000000006</ele><time>2026-04-02T17:07:43.999Z</time></trkpt><trkpt lat="44.356383299208815" lon="7.781104396532364"><ele>492.0</ele><time>2026-04-02T17:07:44.999Z</time></trkpt><trkpt lat="44.356311843879155" lon="7.781026714443259"><ele>492.0</ele><time>2026-04-02T17:07:45.999Z</time></trkpt><trkpt lat="44.35624224776551" lon="7.780926619444801"><ele>492.6</ele><time>2026-04-02T17:07:46.999Z</time></trkpt><trkpt lat="44.356172835758755" lon="7.780840409106069"><ele>493.20000000000005</ele><time>2026-04-02T17:07:47.999Z</time></trkpt><trkpt lat="44.35610886463464" lon="7.780743215094033"><ele>493.8</ele><time>2026-04-02T17:07:48.999Z</time></trkpt><trkpt lat="44.35604507699534" lon="7.780650449398763"><ele>494.4</ele><time>2026-04-02T17:07:49.999Z</time></trkpt><trkpt lat="44.35598125703194" lon="7.780566128096299"><ele>495.0</ele><time>2026-04-02T17:07:50.999Z</time></trkpt><trkpt lat="44.3559238734077" lon="7.780478764304745"><ele>495.0</ele><time>2026-04-02T17:07:51.999Z</time></trkpt><trkpt lat="44.355858263226" lon="7.7803948941812"><ele>495.0</ele><time>2026-04-02T17:07:52.999Z</time></trkpt><trkpt lat="44.35579217505025" lon="7.780311907214498"><ele>495.0</ele><time>2026-04-02T17:07:53.999Z</time></trkpt><trkpt lat="44.35573045205247" lon="7.780235194234014"><ele>495.0</ele><time>2026-04-02T17:07:54.999Z</time></trkpt><trkpt lat="44.35567032224594" lon="7.780158434347871"><ele>495.0</ele><time>2026-04-02T17:07:55.999Z</time></trkpt><trkpt lat="44.355609882217834" lon="7.7800759365450345"><ele>495.0</ele><time>2026-04-02T17:07:56.999Z</time></trkpt><trkpt lat="44.355550297947424" lon="7.7799882625360635"><ele>495.3333333333333</ele><time>2026-04-02T17:07:57.999Z</time></trkpt><trkpt lat="44.35549671378236" lon="7.779917840970171"><ele>495.66666666666663</ele><time>2026-04-02T17:07:58.999Z</time></trkpt><trkpt lat="44.355434845581804" lon="7.779835428603145"><ele>496.0</ele><time>2026-04-02T17:07:59.999Z</time></trkpt><trkpt lat="44.355375447141014" lon="7.779750018212538"><ele>496.3333333333333</ele><time>2026-04-02T17:08:00.999Z</time></trkpt><trkpt lat="44.355319218509536" lon="7.7796785593011295"><ele>496.66666666666663</ele><time>2026-04-02T17:08:01.999Z</time></trkpt><trkpt lat="44.35526503495572" lon="7.779608945206104"><ele>497.0</ele><time>2026-04-02T17:08:02.999Z</time></trkpt><trkpt lat="44.35521209913147" lon="7.779556688587984"><ele>497.0</ele><time>2026-04-02T17:08:03.999Z</time></trkpt><trkpt lat="44.35512564034257" lon="7.779461449565809"><ele>497.00000000000006</ele><time>2026-04-02T17:08:05.999Z</time></trkpt><trkpt lat="44.355029814175154" lon="7.779319810056344"><ele>497.00000000000006</ele><time>2026-04-02T17:08:07.999Z</time></trkpt><trkpt lat="44.354980168476516" lon="7.779239473192861"><ele>497.0</ele><time>2026-04-02T17:08:08.999Z</time></trkpt><trkpt lat="44.35493067639968" lon="7.779182282966005"><ele>497.0</ele><time>2026-04-02T17:08:09.999Z</time></trkpt><trkpt lat="44.35487218959871" lon="7.779100419728846"><ele>497.20000000000005</ele><time>2026-04-02T17:08:10.999Z</time></trkpt><trkpt lat="44.354806166233885" lon="7.779007597473308"><ele>497.40000000000003</ele><time>2026-04-02T17:08:11.999Z</time></trkpt><trkpt lat="44.354750973106334" lon="7.778908921857059"><ele>497.59999999999997</ele><time>2026-04-02T17:08:12.999Z</time></trkpt><trkpt lat="44.35467987250548" lon="7.7788133102234"><ele>497.79999999999995</ele><time>2026-04-02T17:08:13.999Z</time></trkpt><trkpt lat="44.354611217825315" lon="7.7787344641617375"><ele>498.0</ele><time>2026-04-02T17:08:14.999Z</time></trkpt><trkpt lat="44.35454492990455" lon="7.778646765721788"><ele>498.0</ele><time>2026-04-02T17:08:15.999Z</time></trkpt><trkpt lat="44.35447571947294" lon="7.778568638824924"><ele>497.99999999999994</ele><time>2026-04-02T17:08:16.999Z</time></trkpt><trkpt lat="44.354404744507136" lon="7.77847036588735"><ele>497.99999999999994</ele><time>2026-04-02T17:08:17.999Z</time></trkpt><trkpt lat="44.35432884003799" lon="7.778366817516231"><ele>498.0</ele><time>2026-04-02T17:08:18.999Z</time></trkpt><trkpt lat="44.35427537267729" lon="7.778291943535112"><ele>498.0</ele><time>2026-04-02T17:08:19.999Z</time></trkpt><trkpt lat="44.35421049146198" lon="7.77820299805025"><ele>498.0</ele><time>2026-04-02T17:08:20.999Z</time></trkpt><trkpt lat="44.354138991427334" lon="7.778102751653277"><ele>497.99999999999994</ele><time>2026-04-02T17:08:21.999Z</time></trkpt><trkpt lat="44.354068690357735" lon="7.778009404040906"><ele>497.99999999999994</ele><time>2026-04-02T17:08:22.999Z</time></trkpt><trkpt lat="44.35400373469417" lon="7.77792481573759"><ele>498.0</ele><time>2026-04-02T17:08:23.999Z</time></trkpt><trkpt lat="44.353935584030665" lon="7.7778298607528"><ele>498.0</ele><time>2026-04-02T17:08:24.999Z</time></trkpt><trkpt lat="44.35385729421971" lon="7.777735177662285"><ele>498.2</ele><time>2026-04-02T17:08:25.998Z</time></trkpt><trkpt lat="44.353786124522316" lon="7.7776445425906156"><ele>498.4</ele><time>2026-04-02T17:08:26.998Z</time></trkpt><trkpt lat="44.35371679908263" lon="7.777544792189492"><ele>498.59999999999997</ele><time>2026-04-02T17:08:27.998Z</time></trkpt><trkpt lat="44.35363669426624" lon="7.777461504871309"><ele>498.79999999999995</ele><time>2026-04-02T17:08:28.998Z</time></trkpt><trkpt lat="44.35357043618257" lon="7.7773767457091125"><ele>499.0</ele><time>2026-04-02T17:08:29.998Z</time></trkpt><trkpt lat="44.35352429235167" lon="7.77728894522629"><ele>499.0</ele><time>2026-04-02T17:08:30.998Z</time></trkpt><trkpt lat="44.35346657555194" lon="7.777187834942213"><ele>499.0</ele><time>2026-04-02T17:08:31.998Z</time></trkpt><trkpt lat="44.35338901559904" lon="7.777102996374284"><ele>499.0</ele><time>2026-04-02T17:08:32.998Z</time></trkpt><trkpt lat="44.35331180336354" lon="7.77700965739178"><ele>499.0</ele><time>2026-04-02T17:08:33.998Z</time></trkpt><trkpt lat="44.35323934995112" lon="7.776919726760112"><ele>499.0</ele><time>2026-04-02T17:08:34.998Z</time></trkpt><trkpt lat="44.35315752119558" lon="7.776832027025382"><ele>499.0</ele><time>2026-04-02T17:08:35.998Z</time></trkpt><trkpt lat="44.35309189081219" lon="7.776740638661727"><ele>499.0</ele><time>2026-04-02T17:08:36.998Z</time></trkpt><trkpt lat="44.35302973871108" lon="7.776657033419516"><ele>499.0</ele><time>2026-04-02T17:08:37.998Z</time></trkpt><trkpt lat="44.352949438456555" lon="7.776557865634286"><ele>499.0</ele><time>2026-04-02T17:08:38.998Z</time></trkpt><trkpt lat="44.3528745261078" lon="7.776446880491025"><ele>499.0</ele><time>2026-04-02T17:08:39.998Z</time></trkpt><trkpt lat="44.35280584949632" lon="7.776349962867257"><ele>499.0</ele><time>2026-04-02T17:08:40.998Z</time></trkpt><trkpt lat="44.3527283792471" lon="7.776239730822506"><ele>499.0</ele><time>2026-04-02T17:08:41.998Z</time></trkpt><trkpt lat="44.35265002081319" lon="7.776131282937522"><ele>499.0</ele><time>2026-04-02T17:08:42.998Z</time></trkpt><trkpt lat="44.35257261992015" lon="7.776027436640018"><ele>499.0</ele><time>2026-04-02T17:08:43.998Z</time></trkpt><trkpt lat="44.352492401305526" lon="7.775916689567041"><ele>499.0</ele><time>2026-04-02T17:08:44.998Z</time></trkpt><trkpt lat="44.35240649586692" lon="7.7757913590152885"><ele>499.5</ele><time>2026-04-02T17:08:45.998Z</time></trkpt><trkpt lat="44.35231590218619" lon="7.775649936640792"><ele>500.0</ele><time>2026-04-02T17:08:46.998Z</time></trkpt><trkpt lat="44.352217006853174" lon="7.775494068084865"><ele>500.5</ele><time>2026-04-02T17:08:47.998Z</time></trkpt><trkpt lat="44.35212916532243" lon="7.775341401269696"><ele>501.0</ele><time>2026-04-02T17:08:48.998Z</time></trkpt><trkpt lat="44.35205112465918" lon="7.775196917130423"><ele>501.75</ele><time>2026-04-02T17:08:49.998Z</time></trkpt><trkpt lat="44.35198150248666" lon="7.775034934845466"><ele>502.5</ele><time>2026-04-02T17:08:50.998Z</time></trkpt><trkpt lat="44.35191475256299" lon="7.774884974511608"><ele>503.25</ele><time>2026-04-02T17:08:51.998Z</time></trkpt><trkpt lat="44.35184877934043" lon="7.774732779268465"><ele>504.0</ele><time>2026-04-02T17:08:52.998Z</time></trkpt><trkpt lat="44.351793506768956" lon="7.7745938023345404"><ele>504.0</ele><time>2026-04-02T17:08:54Z</time></trkpt><trkpt lat="44.35173121574487" lon="7.774448343789251"><ele>504.0</ele><time>2026-04-02T17:08:55Z</time></trkpt><trkpt lat="44.351672446268154" lon="7.774306772828519"><ele>504.0</ele><time>2026-04-02T17:08:56Z</time></trkpt><trkpt lat="44.3516138648054" lon="7.774160830410216"><ele>504.0</ele><time>2026-04-02T17:08:57Z</time></trkpt><trkpt lat="44.35155776388534" lon="7.774027585951844"><ele>504.6</ele><time>2026-04-02T17:08:58Z</time></trkpt><trkpt lat="44.35150552769833" lon="7.773894678484402"><ele>505.2</ele><time>2026-04-02T17:08:59Z</time></trkpt><trkpt lat="44.35144986783799" lon="7.773759433955462"><ele>505.80000000000007</ele><time>2026-04-02T17:09:00Z</time></trkpt><trkpt lat="44.351395728229875" lon="7.773638516119224"><ele>506.40000000000003</ele><time>2026-04-02T17:09:01Z</time></trkpt><trkpt lat="44.35134439470116" lon="7.773508818192694"><ele>507.0</ele><time>2026-04-02T17:09:02Z</time></trkpt><trkpt lat="44.35129661612142" lon="7.773387788480889"><ele>507.40000000000003</ele><time>2026-04-02T17:09:03Z</time></trkpt><trkpt lat="44.351247273070335" lon="7.773271026488992"><ele>507.80000000000007</ele><time>2026-04-02T17:09:04Z</time></trkpt><trkpt lat="44.351195751794144" lon="7.773144186096155"><ele>508.2</ele><time>2026-04-02T17:09:05Z</time></trkpt><trkpt lat="44.35113939678445" lon="7.773032875607826"><ele>508.6</ele><time>2026-04-02T17:09:06Z</time></trkpt><trkpt lat="44.351083882357024" lon="7.772917713134734"><ele>509.0</ele><time>2026-04-02T17:09:07Z</time></trkpt><trkpt lat="44.35102981472063" lon="7.772787407106754"><ele>509.0</ele><time>2026-04-02T17:09:08Z</time></trkpt><trkpt lat="44.35098193641578" lon="7.772671569584124"><ele>509.0</ele><time>2026-04-02T17:09:09Z</time></trkpt><trkpt lat="44.35092419604941" lon="7.7725391530660435"><ele>509.0</ele><time>2026-04-02T17:09:10Z</time></trkpt><trkpt lat="44.35087367052881" lon="7.772403290646917"><ele>509.0</ele><time>2026-04-02T17:09:11Z</time></trkpt><trkpt lat="44.35082560723088" lon="7.772290198035642"><ele>509.0</ele><time>2026-04-02T17:09:12Z</time></trkpt><trkpt lat="44.35079147966682" lon="7.772199451839529"><ele>508.99999999999994</ele><time>2026-04-02T17:09:13Z</time></trkpt><trkpt lat="44.350760241373294" lon="7.772108694742722"><ele>509.0</ele><time>2026-04-02T17:09:14Z</time></trkpt><trkpt lat="44.350724901438134" lon="7.772016686831833"><ele>509.0</ele><time>2026-04-02T17:09:15Z</time></trkpt><trkpt lat="44.35069072088461" lon="7.77191907663207"><ele>509.0</ele><time>2026-04-02T17:09:16Z</time></trkpt><trkpt lat="44.35065310758679" lon="7.771795518315616"><ele>508.99999999999994</ele><time>2026-04-02T17:09:17Z</time></trkpt><trkpt lat="44.35061693462205" lon="7.771672743733576"><ele>509.0</ele><time>2026-04-02T17:09:18Z</time></trkpt><trkpt lat="44.350584915589586" lon="7.771544145415749"><ele>509.4</ele><time>2026-04-02T17:09:19Z</time></trkpt><trkpt lat="44.35055159975001" lon="7.771410340786754"><ele>509.79999999999995</ele><time>2026-04-02T17:09:20Z</time></trkpt><trkpt lat="44.35051696007404" lon="7.771264669916324"><ele>510.20000000000005</ele><time>2026-04-02T17:09:21Z</time></trkpt><trkpt lat="44.35048177608607" lon="7.771135951523214"><ele>510.6</ele><time>2026-04-02T17:09:22Z</time></trkpt><trkpt lat="44.35044503716441" lon="7.771009728451786"><ele>511.0</ele><time>2026-04-02T17:09:23Z</time></trkpt><trkpt lat="44.35041400294223" lon="7.7708935335409075"><ele>511.4</ele><time>2026-04-02T17:09:24Z</time></trkpt><trkpt lat="44.35037988955588" lon="7.770778227771657"><ele>511.8</ele><time>2026-04-02T17:09:25Z</time></trkpt><trkpt lat="44.35034731345901" lon="7.770659756716933"><ele>512.1999999999999</ele><time>2026-04-02T17:09:26Z</time></trkpt><trkpt lat="44.350313241112936" lon="7.770529349982797"><ele>512.6</ele><time>2026-04-02T17:09:27Z</time></trkpt><trkpt lat="44.35027847045095" lon="7.770400192496294"><ele>513.0</ele><time>2026-04-02T17:09:28Z</time></trkpt><trkpt lat="44.35024761322898" lon="7.770277337215204"><ele>513.6666666666666</ele><time>2026-04-02T17:09:29Z</time></trkpt><trkpt lat="44.350214134230896" lon="7.7701576567681805"><ele>514.3333333333334</ele><time>2026-04-02T17:09:30Z</time></trkpt><trkpt lat="44.350188236778784" lon="7.770048742407068"><ele>515.0</ele><time>2026-04-02T17:09:31Z</time></trkpt><trkpt lat="44.35016397091159" lon="7.7699351150448575"><ele>515.6666666666667</ele><time>2026-04-02T17:09:32Z</time></trkpt><trkpt lat="44.350133162962585" lon="7.769823856939585"><ele>516.3333333333334</ele><time>2026-04-02T17:09:33Z</time></trkpt><trkpt lat="44.35011229792896" lon="7.769717539420492"><ele>517.0</ele><time>2026-04-02T17:09:34Z</time></trkpt><trkpt lat="44.35007942657155" lon="7.7696004134587096"><ele>517.0</ele><time>2026-04-02T17:09:35Z</time></trkpt><trkpt lat="44.350057446987236" lon="7.7694897400091625"><ele>517.0</ele><time>2026-04-02T17:09:35.999Z</time></trkpt><trkpt lat="44.35003871265265" lon="7.76938735086486"><ele>517.0</ele><time>2026-04-02T17:09:36.999Z</time></trkpt><trkpt lat="44.350024749191924" lon="7.769283363012591"><ele>517.0</ele><time>2026-04-02T17:09:37.999Z</time></trkpt><trkpt lat="44.350010841296495" lon="7.769170501759739"><ele>517.0</ele><time>2026-04-02T17:09:38.999Z</time></trkpt><trkpt lat="44.35000036821119" lon="7.769031198190869"><ele>517.0</ele><time>2026-04-02T17:09:39.999Z</time></trkpt><trkpt lat="44.34998940120975" lon="7.7688817713816665"><ele>518.0</ele><time>2026-04-02T17:09:40.999Z</time></trkpt><trkpt lat="44.34997474501027" lon="7.768741751486562"><ele>519.0</ele><time>2026-04-02T17:09:41.999Z</time></trkpt><trkpt lat="44.34996353973641" lon="7.768618957670308"><ele>520.0</ele><time>2026-04-02T17:09:42.999Z</time></trkpt><trkpt lat="44.349951462026624" lon="7.768509802707759"><ele>521.0</ele><time>2026-04-02T17:09:43.999Z</time></trkpt><trkpt lat="44.34994524006841" lon="7.76842172549455"><ele>522.0</ele><time>2026-04-02T17:09:44.999Z</time></trkpt><trkpt lat="44.349959169801735" lon="7.768331560040393"><ele>523.0</ele><time>2026-04-02T17:09:46.999Z</time></trkpt><trkpt lat="44.34996644412102" lon="7.768223435844324"><ele>523.6</ele><time>2026-04-02T17:09:48.999Z</time></trkpt><trkpt lat="44.34989886109588" lon="7.768114088754242"><ele>524.1999999999999</ele><time>2026-04-02T17:09:50.999Z</time></trkpt><trkpt lat="44.34980940416417" lon="7.768006050318585"><ele>524.8</ele><time>2026-04-02T17:09:52.999Z</time></trkpt><trkpt lat="44.349738112479606" lon="7.767979519163616"><ele>525.4</ele><time>2026-04-02T17:09:53.999Z</time></trkpt><trkpt lat="44.3496559483194" lon="7.767964182112565"><ele>526.0</ele><time>2026-04-02T17:09:54.999Z</time></trkpt><trkpt lat="44.34956318544038" lon="7.7679500713005964"><ele>526.0</ele><time>2026-04-02T17:09:55.999Z</time></trkpt><trkpt lat="44.34946476436343" lon="7.767939274909684"><ele>526.0</ele><time>2026-04-02T17:09:56.999Z</time></trkpt><trkpt lat="44.349356060779165" lon="7.767901870845178"><ele>526.0</ele><time>2026-04-02T17:09:57.999Z</time></trkpt><trkpt lat="44.34925697884221" lon="7.7678390071020305"><ele>526.0</ele><time>2026-04-02T17:09:58.999Z</time></trkpt><trkpt lat="44.349165382918954" lon="7.767777880011145"><ele>526.0</ele><time>2026-04-02T17:09:59.999Z</time></trkpt><trkpt lat="44.349073492415165" lon="7.7677074449674715"><ele>526.6</ele><time>2026-04-02T17:10:00.999Z</time></trkpt><trkpt lat="44.34898807812327" lon="7.767636807688869"><ele>527.2</ele><time>2026-04-02T17:10:01.999Z</time></trkpt><trkpt lat="44.348909746133295" lon="7.76755873330437"><ele>527.8</ele><time>2026-04-02T17:10:02.999Z</time></trkpt><trkpt lat="44.34883827418898" lon="7.767470470177516"><ele>528.4</ele><time>2026-04-02T17:10:03.999Z</time></trkpt><trkpt lat="44.348766262723494" lon="7.767377712902842"><ele>529.0</ele><time>2026-04-02T17:10:04.999Z</time></trkpt><trkpt lat="44.348697404771755" lon="7.7672934000871345"><ele>529.0</ele><time>2026-04-02T17:10:05.999Z</time></trkpt><trkpt lat="44.348635300121394" lon="7.767215690999121"><ele>529.0</ele><time>2026-04-02T17:10:06.999Z</time></trkpt><trkpt lat="44.34858261002589" lon="7.7671495875516054"><ele>529.0</ele><time>2026-04-02T17:10:07.999Z</time></trkpt><trkpt lat="44.3485106646609" lon="7.76706070303467"><ele>529.0</ele><time>2026-04-02T17:10:09.999Z</time></trkpt><trkpt lat="44.34849998983156" lon="7.766958486953282"><ele>529.0</ele><time>2026-04-02T17:10:10.999Z</time></trkpt><trkpt lat="44.34844185119269" lon="7.766847367586436"><ele>529.0</ele><time>2026-04-02T17:10:12.999Z</time></trkpt><trkpt lat="44.34834877234996" lon="7.766870966822053"><ele>529.0</ele><time>2026-04-02T17:10:14.999Z</time></trkpt><trkpt lat="44.34830145156427" lon="7.766939977008045"><ele>529.0</ele><time>2026-04-02T17:10:15.999Z</time></trkpt><trkpt lat="44.34827435646002" lon="7.767043797779623"><ele>529.0</ele><time>2026-04-02T17:10:16.999Z</time></trkpt><trkpt lat="44.348232078339535" lon="7.767155806312092"><ele>529.0</ele><time>2026-04-02T17:10:17.999Z</time></trkpt><trkpt lat="44.3481937211489" lon="7.76727173105551"><ele>529.0</ele><time>2026-04-02T17:10:18.999Z</time></trkpt><trkpt lat="44.348162304345244" lon="7.767379849630383"><ele>529.0</ele><time>2026-04-02T17:10:19.999Z</time></trkpt><trkpt lat="44.348139178659224" lon="7.767496516674921"><ele>529.0</ele><time>2026-04-02T17:10:20.999Z</time></trkpt><trkpt lat="44.34812455711317" lon="7.76762565424312"><ele>529.0</ele><time>2026-04-02T17:10:21.999Z</time></trkpt><trkpt lat="44.34811211617138" lon="7.767744302248967"><ele>529.0</ele><time>2026-04-02T17:10:22.999Z</time></trkpt><trkpt lat="44.348095483201526" lon="7.767857474625775"><ele>529.0</ele><time>2026-04-02T17:10:23.999Z</time></trkpt><trkpt lat="44.34807165413207" lon="7.767981372354153"><ele>529.0</ele><time>2026-04-02T17:10:24.999Z</time></trkpt><trkpt lat="44.34805592647149" lon="7.768104825919279"><ele>529.0</ele><time>2026-04-02T17:10:25.999Z</time></trkpt><trkpt lat="44.34803436289897" lon="7.768230376044237"><ele>527.8</ele><time>2026-04-02T17:10:26.999Z</time></trkpt><trkpt lat="44.34801962905801" lon="7.7683494934281825"><ele>526.5999999999999</ele><time>2026-04-02T17:10:27.999Z</time></trkpt><trkpt lat="44.34801202490274" lon="7.768438589948198"><ele>525.4</ele><time>2026-04-02T17:10:28.999Z</time></trkpt><trkpt lat="44.347993705920736" lon="7.7685920664885515"><ele>524.1999999999999</ele><time>2026-04-02T17:10:30.999Z</time></trkpt><trkpt lat="44.347958790582894" lon="7.768754094055214"><ele>523.0</ele><time>2026-04-02T17:10:32.998Z</time></trkpt><trkpt lat="44.34794343368988" lon="7.768853593465504"><ele>522.3333333333334</ele><time>2026-04-02T17:10:33.998Z</time></trkpt><trkpt lat="44.34792685321152" lon="7.768952985818592"><ele>521.6666666666667</ele><time>2026-04-02T17:10:34.998Z</time></trkpt><trkpt lat="44.34791608551339" lon="7.769039811484904"><ele>521.0</ele><time>2026-04-02T17:10:35.998Z</time></trkpt><trkpt lat="44.34788136896053" lon="7.769200372298552"><ele>520.3333333333334</ele><time>2026-04-02T17:10:37.998Z</time></trkpt><trkpt lat="44.34785267373998" lon="7.76930044258571"><ele>519.6666666666666</ele><time>2026-04-02T17:10:38.998Z</time></trkpt><trkpt lat="44.34782767230912" lon="7.769388300356422"><ele>519.0</ele><time>2026-04-02T17:10:39.998Z</time></trkpt><trkpt lat="44.3478052700917" lon="7.769486850147882"><ele>518.4</ele><time>2026-04-02T17:10:40.998Z</time></trkpt><trkpt lat="44.34778489140008" lon="7.769582772195534"><ele>517.8</ele><time>2026-04-02T17:10:41.998Z</time></trkpt><trkpt lat="44.34775736335879" lon="7.769742556275136"><ele>517.2</ele><time>2026-04-02T17:10:43.998Z</time></trkpt><trkpt lat="44.34773360226599" lon="7.769891807913203"><ele>516.6</ele><time>2026-04-02T17:10:45.998Z</time></trkpt><trkpt lat="44.34770317457922" lon="7.770006616072491"><ele>516.0</ele><time>2026-04-02T17:10:47.998Z</time></trkpt><trkpt lat="44.347640088118496" lon="7.770065301768094"><ele>516.0</ele><time>2026-04-02T17:10:49.998Z</time></trkpt><trkpt lat="44.3475207768922" lon="7.770086803309767"><ele>516.0</ele><time>2026-04-02T17:10:51.998Z</time></trkpt><trkpt lat="44.34746456108256" lon="7.769980132708748"><ele>516.0</ele><time>2026-04-02T17:10:52.998Z</time></trkpt><trkpt lat="44.34740798539139" lon="7.769882915576978"><ele>516.0</ele><time>2026-04-02T17:10:53.998Z</time></trkpt><trkpt lat="44.34735884359731" lon="7.769778795140466"><ele>516.0</ele><time>2026-04-02T17:10:54.998Z</time></trkpt><trkpt lat="44.34729829151004" lon="7.769665368940948"><ele>516.0</ele><time>2026-04-02T17:10:55.998Z</time></trkpt><trkpt lat="44.34722828691915" lon="7.769542164624692"><ele>516.0</ele><time>2026-04-02T17:10:56.998Z</time></trkpt><trkpt lat="44.347164119257144" lon="7.769403290356289"><ele>516.0</ele><time>2026-04-02T17:10:57.998Z</time></trkpt><trkpt lat="44.34711511326407" lon="7.7692702357848695"><ele>516.0</ele><time>2026-04-02T17:10:58.998Z</time></trkpt><trkpt lat="44.34705959668437" lon="7.769132480815319"><ele>516.4</ele><time>2026-04-02T17:11:00Z</time></trkpt><trkpt lat="44.34700110441023" lon="7.769013751951817"><ele>516.8</ele><time>2026-04-02T17:11:01Z</time></trkpt><trkpt lat="44.346955944189276" lon="7.7688875782377025"><ele>517.1999999999999</ele><time>2026-04-02T17:11:02Z</time></trkpt><trkpt lat="44.34689789752833" lon="7.768760473933535"><ele>517.6</ele><time>2026-04-02T17:11:03Z</time></trkpt><trkpt lat="44.34684454677068" lon="7.7686281806421364"><ele>518.0</ele><time>2026-04-02T17:11:04Z</time></trkpt><trkpt lat="44.34679445820801" lon="7.768510121678611"><ele>518.6</ele><time>2026-04-02T17:11:05Z</time></trkpt><trkpt lat="44.34674204003007" lon="7.76839548316467"><ele>519.1999999999999</ele><time>2026-04-02T17:11:06Z</time></trkpt><trkpt lat="44.34668689647434" lon="7.7682749424981035"><ele>519.8</ele><time>2026-04-02T17:11:07Z</time></trkpt><trkpt lat="44.34663000643442" lon="7.7681506441713974"><ele>520.4</ele><time>2026-04-02T17:11:08Z</time></trkpt><trkpt lat="44.34657807165472" lon="7.7680465832217545"><ele>521.0</ele><time>2026-04-02T17:11:09Z</time></trkpt><trkpt lat="44.34652594085939" lon="7.767936845954537"><ele>521.0</ele><time>2026-04-02T17:11:10Z</time></trkpt><trkpt lat="44.34647448130747" lon="7.767829995209998"><ele>521.0</ele><time>2026-04-02T17:11:11Z</time></trkpt><trkpt lat="44.34642227976533" lon="7.767716850920175"><ele>521.0</ele><time>2026-04-02T17:11:12Z</time></trkpt><trkpt lat="44.34636985061397" lon="7.767607453938559"><ele>521.0</ele><time>2026-04-02T17:11:13Z</time></trkpt><trkpt lat="44.34632157263058" lon="7.767494733486905"><ele>521.0</ele><time>2026-04-02T17:11:14Z</time></trkpt><trkpt lat="44.34625248578849" lon="7.7673732320988496"><ele>521.2</ele><time>2026-04-02T17:11:15Z</time></trkpt><trkpt lat="44.34618315711033" lon="7.767251999748596"><ele>521.4000000000001</ele><time>2026-04-02T17:11:16Z</time></trkpt><trkpt lat="44.346110757184576" lon="7.767152421861521"><ele>521.6</ele><time>2026-04-02T17:11:17Z</time></trkpt><trkpt lat="44.346042735261896" lon="7.767069543417396"><ele>521.8000000000001</ele><time>2026-04-02T17:11:18Z</time></trkpt><trkpt lat="44.345968251714005" lon="7.766985529092446"><ele>522.0</ele><time>2026-04-02T17:11:19Z</time></trkpt><trkpt lat="44.34587824202487" lon="7.766925620011303"><ele>522.0</ele><time>2026-04-02T17:11:20Z</time></trkpt><trkpt lat="44.34578562446359" lon="7.7668758491129655"><ele>522.0</ele><time>2026-04-02T17:11:21Z</time></trkpt><trkpt lat="44.34569073326581" lon="7.7668274709842215"><ele>522.0</ele><time>2026-04-02T17:11:22Z</time></trkpt><trkpt lat="44.34558855076809" lon="7.76678054484481"><ele>522.0</ele><time>2026-04-02T17:11:23Z</time></trkpt><trkpt lat="44.34548640666318" lon="7.766742597783195"><ele>522.0</ele><time>2026-04-02T17:11:24Z</time></trkpt><trkpt lat="44.345384202775755" lon="7.766717583835505"><ele>522.2</ele><time>2026-04-02T17:11:25Z</time></trkpt><trkpt lat="44.34527657563711" lon="7.766709331387466"><ele>522.4000000000001</ele><time>2026-04-02T17:11:26Z</time></trkpt><trkpt lat="44.345169830800145" lon="7.76670973096404"><ele>522.5999999999999</ele><time>2026-04-02T17:11:27Z</time></trkpt><trkpt lat="44.3450695192516" lon="7.7667177472933355"><ele>522.8</ele><time>2026-04-02T17:11:28Z</time></trkpt><trkpt lat="44.34497384452743" lon="7.766713508277137"><ele>523.0</ele><time>2026-04-02T17:11:29Z</time></trkpt><trkpt lat="44.344886956938325" lon="7.766719391987841"><ele>523.0</ele><time>2026-04-02T17:11:30Z</time></trkpt><trkpt lat="44.344778028995215" lon="7.766726529665002"><ele>523.0</ele><time>2026-04-02T17:11:31Z</time></trkpt><trkpt lat="44.344664135980906" lon="7.766741263416321"><ele>523.0</ele><time>2026-04-02T17:11:32Z</time></trkpt><trkpt lat="44.34455851265676" lon="7.766750842747047"><ele>523.0</ele><time>2026-04-02T17:11:33Z</time></trkpt><trkpt lat="44.34446250560603" lon="7.766753656481347"><ele>523.0</ele><time>2026-04-02T17:11:34Z</time></trkpt><trkpt lat="44.344360070049945" lon="7.766761015481202"><ele>522.8</ele><time>2026-04-02T17:11:35Z</time></trkpt><trkpt lat="44.344255929200294" lon="7.766766248359797"><ele>522.5999999999999</ele><time>2026-04-02T17:11:36Z</time></trkpt><trkpt lat="44.34415122737357" lon="7.766776432054006"><ele>522.4000000000001</ele><time>2026-04-02T17:11:37Z</time></trkpt><trkpt lat="44.344046279726534" lon="7.766785838660284"><ele>522.2</ele><time>2026-04-02T17:11:38Z</time></trkpt><trkpt lat="44.34394528247005" lon="7.7667952220872865"><ele>522.0</ele><time>2026-04-02T17:11:39Z</time></trkpt><trkpt lat="44.34385474044245" lon="7.766797070611694"><ele>521.6666666666666</ele><time>2026-04-02T17:11:40Z</time></trkpt><trkpt lat="44.34376842998538" lon="7.766800466364087"><ele>521.3333333333334</ele><time>2026-04-02T17:11:41Z</time></trkpt><trkpt lat="44.34368999638104" lon="7.766797517206018"><ele>521.0</ele><time>2026-04-02T17:11:41.999Z</time></trkpt><trkpt lat="44.34360746237588" lon="7.766795505596643"><ele>520.6666666666667</ele><time>2026-04-02T17:11:42.999Z</time></trkpt><trkpt lat="44.343517842552906" lon="7.76678139028965"><ele>520.3333333333334</ele><time>2026-04-02T17:11:43.999Z</time></trkpt><trkpt lat="44.34341679237415" lon="7.766754204766045"><ele>520.0</ele><time>2026-04-02T17:11:44.999Z</time></trkpt><trkpt lat="44.34333400532533" lon="7.766710799790478"><ele>520.0</ele><time>2026-04-02T17:11:45.999Z</time></trkpt><trkpt lat="44.343244321734275" lon="7.766652874381939"><ele>520.0</ele><time>2026-04-02T17:11:46.999Z</time></trkpt><trkpt lat="44.343148747452304" lon="7.7665780216595115"><ele>520.0</ele><time>2026-04-02T17:11:47.999Z</time></trkpt><trkpt lat="44.34306533706851" lon="7.766488252302079"><ele>520.0</ele><time>2026-04-02T17:11:48.999Z</time></trkpt><trkpt lat="44.34298015011807" lon="7.766380944015598"><ele>520.0</ele><time>2026-04-02T17:11:49.999Z</time></trkpt><trkpt lat="44.34289097842796" lon="7.7662550024449635"><ele>519.5</ele><time>2026-04-02T17:11:50.999Z</time></trkpt><trkpt lat="44.342806860992475" lon="7.7661212428571105"><ele>519.0</ele><time>2026-04-02T17:11:51.999Z</time></trkpt><trkpt lat="44.34273102608" lon="7.765986230706832"><ele>518.5</ele><time>2026-04-02T17:11:52.999Z</time></trkpt><trkpt lat="44.34266374296319" lon="7.765847113565611"><ele>518.0</ele><time>2026-04-02T17:11:53.999Z</time></trkpt><trkpt lat="44.342591602599235" lon="7.7657128497864765"><ele>518.0</ele><time>2026-04-02T17:11:54.999Z</time></trkpt><trkpt lat="44.34252568014593" lon="7.765594806806564"><ele>518.0</ele><time>2026-04-02T17:11:55.999Z</time></trkpt><trkpt lat="44.34245178978042" lon="7.765452872720198"><ele>518.0</ele><time>2026-04-02T17:11:56.999Z</time></trkpt><trkpt lat="44.342375673236305" lon="7.765339083722766"><ele>518.0</ele><time>2026-04-02T17:11:57.999Z</time></trkpt><trkpt lat="44.3423021332271" lon="7.765215863538843"><ele>517.6</ele><time>2026-04-02T17:11:58.999Z</time></trkpt><trkpt lat="44.34223533679341" lon="7.765100843869982"><ele>517.1999999999999</ele><time>2026-04-02T17:11:59.999Z</time></trkpt><trkpt lat="44.34217491241532" lon="7.764996325740008"><ele>516.8</ele><time>2026-04-02T17:12:00.999Z</time></trkpt><trkpt lat="44.3421089524202" lon="7.764886113209622"><ele>516.4</ele><time>2026-04-02T17:12:01.999Z</time></trkpt><trkpt lat="44.34203532165377" lon="7.7647894681272795"><ele>516.0</ele><time>2026-04-02T17:12:02.999Z</time></trkpt><trkpt lat="44.341957903492215" lon="7.764692806810295"><ele>516.0</ele><time>2026-04-02T17:12:03.999Z</time></trkpt><trkpt lat="44.34187581384376" lon="7.764574024254151"><ele>516.0</ele><time>2026-04-02T17:12:04.999Z</time></trkpt><trkpt lat="44.34180417229119" lon="7.764473524283284"><ele>516.0</ele><time>2026-04-02T17:12:05.999Z</time></trkpt><trkpt lat="44.34172297237152" lon="7.764381942898495"><ele>516.0</ele><time>2026-04-02T17:12:06.999Z</time></trkpt><trkpt lat="44.34163902218491" lon="7.7642782247836575"><ele>516.0</ele><time>2026-04-02T17:12:07.999Z</time></trkpt><trkpt lat="44.34155244555322" lon="7.764178716351017"><ele>515.75</ele><time>2026-04-02T17:12:08.999Z</time></trkpt><trkpt lat="44.34146476911419" lon="7.764080205221334"><ele>515.5</ele><time>2026-04-02T17:12:09.999Z</time></trkpt><trkpt lat="44.3413766606237" lon="7.76399545141006"><ele>515.25</ele><time>2026-04-02T17:12:10.999Z</time></trkpt><trkpt lat="44.34128391321041" lon="7.763890328473737"><ele>515.0</ele><time>2026-04-02T17:12:11.999Z</time></trkpt><trkpt lat="44.34119046632034" lon="7.7638031407559"><ele>515.0</ele><time>2026-04-02T17:12:12.999Z</time></trkpt><trkpt lat="44.341102847788214" lon="7.763719768768212"><ele>515.0</ele><time>2026-04-02T17:12:13.999Z</time></trkpt><trkpt lat="44.3410195012427" lon="7.763637494256221"><ele>515.0</ele><time>2026-04-02T17:12:14.999Z</time></trkpt><trkpt lat="44.34093267787751" lon="7.7635572844787575"><ele>515.0</ele><time>2026-04-02T17:12:15.999Z</time></trkpt><trkpt lat="44.34083757109838" lon="7.763466610436052"><ele>515.0</ele><time>2026-04-02T17:12:16.999Z</time></trkpt><trkpt lat="44.340750100046066" lon="7.763393735641498"><ele>515.0</ele><time>2026-04-02T17:12:17.999Z</time></trkpt><trkpt lat="44.3406582755332" lon="7.7633253254553"><ele>515.0</ele><time>2026-04-02T17:12:18.999Z</time></trkpt><trkpt lat="44.340567447241774" lon="7.763243564310641"><ele>515.0</ele><time>2026-04-02T17:12:19.999Z</time></trkpt><trkpt lat="44.340475759181025" lon="7.763158126444452"><ele>515.0</ele><time>2026-04-02T17:12:20.999Z</time></trkpt><trkpt lat="44.3403829023713" lon="7.763077659943745"><ele>515.0</ele><time>2026-04-02T17:12:21.999Z</time></trkpt><trkpt lat="44.34029496454964" lon="7.763011020722467"><ele>515.0</ele><time>2026-04-02T17:12:22.999Z</time></trkpt><trkpt lat="44.340205572737275" lon="7.762948105615182"><ele>515.0</ele><time>2026-04-02T17:12:23.999Z</time></trkpt><trkpt lat="44.34010511128788" lon="7.762875629898662"><ele>515.0</ele><time>2026-04-02T17:12:24.999Z</time></trkpt><trkpt lat="44.340001158992095" lon="7.762809256037318"><ele>515.0</ele><time>2026-04-02T17:12:25.999Z</time></trkpt><trkpt lat="44.33989392489522" lon="7.7627304275199"><ele>515.0</ele><time>2026-04-02T17:12:26.999Z</time></trkpt><trkpt lat="44.3397818334971" lon="7.762656653311289"><ele>516.75</ele><time>2026-04-02T17:12:27.999Z</time></trkpt><trkpt lat="44.33966188131483" lon="7.762571182112537"><ele>518.5</ele><time>2026-04-02T17:12:28.999Z</time></trkpt><trkpt lat="44.339535731862135" lon="7.762489864644301"><ele>520.25</ele><time>2026-04-02T17:12:29.999Z</time></trkpt><trkpt lat="44.339396233489786" lon="7.762387842393247"><ele>522.0</ele><time>2026-04-02T17:12:30.999Z</time></trkpt><trkpt lat="44.339273389224886" lon="7.762297277329454"><ele>522.0</ele><time>2026-04-02T17:12:31.999Z</time></trkpt><trkpt lat="44.33913579308372" lon="7.762198441806232"><ele>522.0</ele><time>2026-04-02T17:12:32.999Z</time></trkpt><trkpt lat="44.33899093035693" lon="7.762098474110285"><ele>522.0</ele><time>2026-04-02T17:12:33.999Z</time></trkpt><trkpt lat="44.33884892156577" lon="7.762000702783631"><ele>521.6666666666666</ele><time>2026-04-02T17:12:34.999Z</time></trkpt><trkpt lat="44.33869863018931" lon="7.761900522028981"><ele>521.3333333333333</ele><time>2026-04-02T17:12:35.999Z</time></trkpt><trkpt lat="44.338571611577144" lon="7.761788452395794"><ele>521.0</ele><time>2026-04-02T17:12:36.999Z</time></trkpt><trkpt lat="44.33843926764283" lon="7.761681228978573"><ele>521.0</ele><time>2026-04-02T17:12:37.998Z</time></trkpt><trkpt lat="44.33830856181504" lon="7.76158134284208"><ele>521.0</ele><time>2026-04-02T17:12:38.998Z</time></trkpt><trkpt lat="44.338183786200666" lon="7.761489956685204"><ele>521.0</ele><time>2026-04-02T17:12:39.998Z</time></trkpt><trkpt lat="44.33804759084218" lon="7.761403727515105"><ele>521.0</ele><time>2026-04-02T17:12:40.998Z</time></trkpt><trkpt lat="44.337911067946415" lon="7.761293619583525"><ele>521.0</ele><time>2026-04-02T17:12:41.998Z</time></trkpt><trkpt lat="44.337769387577815" lon="7.761196478936968"><ele>521.0</ele><time>2026-04-02T17:12:42.998Z</time></trkpt><trkpt lat="44.337628293059986" lon="7.761094663827779"><ele>521.0</ele><time>2026-04-02T17:12:43.998Z</time></trkpt><trkpt lat="44.337498917376216" lon="7.760993952370465"><ele>520.5</ele><time>2026-04-02T17:12:44.998Z</time></trkpt><trkpt lat="44.33737461598131" lon="7.760911759032956"><ele>520.0</ele><time>2026-04-02T17:12:45.998Z</time></trkpt><trkpt lat="44.33724988489526" lon="7.760817400876"><ele>519.5</ele><time>2026-04-02T17:12:46.998Z</time></trkpt><trkpt lat="44.33712775872514" lon="7.7607276084311305"><ele>519.0</ele><time>2026-04-02T17:12:47.998Z</time></trkpt><trkpt lat="44.3370118939902" lon="7.760632420816574"><ele>519.0</ele><time>2026-04-02T17:12:48.998Z</time></trkpt><trkpt lat="44.33690653832387" lon="7.760542861862829"><ele>519.0</ele><time>2026-04-02T17:12:49.998Z</time></trkpt><trkpt lat="44.33681252445068" lon="7.760447643703747"><ele>519.0</ele><time>2026-04-02T17:12:50.998Z</time></trkpt><trkpt lat="44.33672546736391" lon="7.760350338514158"><ele>519.0</ele><time>2026-04-02T17:12:51.998Z</time></trkpt><trkpt lat="44.33663831854998" lon="7.760239240763901"><ele>519.0</ele><time>2026-04-02T17:12:52.998Z</time></trkpt><trkpt lat="44.336555463232294" lon="7.760099211169443"><ele>519.0</ele><time>2026-04-02T17:12:53.998Z</time></trkpt><trkpt lat="44.33647642959601" lon="7.7599567073361"><ele>519.0</ele><time>2026-04-02T17:12:54.998Z</time></trkpt><trkpt lat="44.33640124638002" lon="7.7597939848592326"><ele>519.0</ele><time>2026-04-02T17:12:55.998Z</time></trkpt><trkpt lat="44.33631699864109" lon="7.759631528247229"><ele>519.0</ele><time>2026-04-02T17:12:56.998Z</time></trkpt><trkpt lat="44.33623967937801" lon="7.759456508228067"><ele>519.0</ele><time>2026-04-02T17:12:57.998Z</time></trkpt><trkpt lat="44.33614777796681" lon="7.759272235655888"><ele>519.0</ele><time>2026-04-02T17:12:58.998Z</time></trkpt><trkpt lat="44.33604473045003" lon="7.75909382584015"><ele>519.6666666666666</ele><time>2026-04-02T17:12:59.998Z</time></trkpt><trkpt lat="44.335927177909724" lon="7.7589293424792105"><ele>520.3333333333333</ele><time>2026-04-02T17:13:00.998Z</time></trkpt><trkpt lat="44.33579870021326" lon="7.75878250278164"><ele>521.0</ele><time>2026-04-02T17:13:01.998Z</time></trkpt><trkpt lat="44.335657171147886" lon="7.75863857638763"><ele>521.3333333333333</ele><time>2026-04-02T17:13:02.998Z</time></trkpt><trkpt lat="44.33550855483036" lon="7.758504356545143"><ele>521.6666666666666</ele><time>2026-04-02T17:13:03.998Z</time></trkpt><trkpt lat="44.33535541978089" lon="7.758352198256354"><ele>522.0</ele><time>2026-04-02T17:13:04.998Z</time></trkpt><trkpt lat="44.335215306016174" lon="7.758224036425942"><ele>522.0</ele><time>2026-04-02T17:13:06Z</time></trkpt><trkpt lat="44.33508603679548" lon="7.758100085148282"><ele>522.0</ele><time>2026-04-02T17:13:07Z</time></trkpt><trkpt lat="44.3349536329674" lon="7.757976780596739"><ele>522.0</ele><time>2026-04-02T17:13:08Z</time></trkpt><trkpt lat="44.33482544834214" lon="7.757840120583034"><ele>521.6666666666666</ele><time>2026-04-02T17:13:09Z</time></trkpt><trkpt lat="44.33469518583182" lon="7.757713658183671"><ele>521.3333333333333</ele><time>2026-04-02T17:13:10Z</time></trkpt><trkpt lat="44.33456006255531" lon="7.757580801120858"><ele>521.0</ele><time>2026-04-02T17:13:11Z</time></trkpt><trkpt lat="44.33442764110551" lon="7.757464688792047"><ele>523.0</ele><time>2026-04-02T17:13:12Z</time></trkpt><trkpt lat="44.33429440642635" lon="7.757339873273562"><ele>525.0</ele><time>2026-04-02T17:13:13Z</time></trkpt><trkpt lat="44.33417540144779" lon="7.757236413771725"><ele>527.0</ele><time>2026-04-02T17:13:14Z</time></trkpt><trkpt lat="44.3340449846867" lon="7.757111719664544"><ele>527.0</ele><time>2026-04-02T17:13:15Z</time></trkpt><trkpt lat="44.33391630094664" lon="7.756980943243584"><ele>527.0</ele><time>2026-04-02T17:13:16Z</time></trkpt><trkpt lat="44.33378704638375" lon="7.7568297881226025"><ele>527.0</ele><time>2026-04-02T17:13:17Z</time></trkpt><trkpt lat="44.33366049062805" lon="7.7566744475418234"><ele>527.6666666666666</ele><time>2026-04-02T17:13:18Z</time></trkpt><trkpt lat="44.33354062226691" lon="7.756532300316101"><ele>528.3333333333334</ele><time>2026-04-02T17:13:19Z</time></trkpt><trkpt lat="44.333413824627414" lon="7.756382924420457"><ele>529.0</ele><time>2026-04-02T17:13:20Z</time></trkpt><trkpt lat="44.3332915722273" lon="7.756220095046756"><ele>529.0</ele><time>2026-04-02T17:13:21Z</time></trkpt><trkpt lat="44.33316955180783" lon="7.756077014229585"><ele>529.0</ele><time>2026-04-02T17:13:22Z</time></trkpt><trkpt lat="44.33305816499171" lon="7.755932221970323"><ele>529.0</ele><time>2026-04-02T17:13:23Z</time></trkpt><trkpt lat="44.332938059555524" lon="7.755789589510905"><ele>529.3333333333334</ele><time>2026-04-02T17:13:24Z</time></trkpt><trkpt lat="44.33281991786505" lon="7.755651361883369"><ele>529.6666666666666</ele><time>2026-04-02T17:13:25Z</time></trkpt><trkpt lat="44.33269502530348" lon="7.755524734568023"><ele>530.0</ele><time>2026-04-02T17:13:26Z</time></trkpt><trkpt lat="44.33258232835895" lon="7.755390424078305"><ele>530.0</ele><time>2026-04-02T17:13:27Z</time></trkpt><trkpt lat="44.33248554680395" lon="7.755268875138612"><ele>530.0</ele><time>2026-04-02T17:13:28Z</time></trkpt><trkpt lat="44.3323802520119" lon="7.75514640903322"><ele>530.0</ele><time>2026-04-02T17:13:29Z</time></trkpt><trkpt lat="44.33229017078486" lon="7.755017504334745"><ele>530.0</ele><time>2026-04-02T17:13:30Z</time></trkpt><trkpt lat="44.33218367467551" lon="7.754900651532096"><ele>529.75</ele><time>2026-04-02T17:13:31Z</time></trkpt><trkpt lat="44.33208158254217" lon="7.754781039473476"><ele>529.5</ele><time>2026-04-02T17:13:32Z</time></trkpt><trkpt lat="44.33198184758819" lon="7.754659149633018"><ele>529.25</ele><time>2026-04-02T17:13:33Z</time></trkpt><trkpt lat="44.331880505752515" lon="7.754534114421859"><ele>529.0</ele><time>2026-04-02T17:13:34Z</time></trkpt><trkpt lat="44.33175770222257" lon="7.7544141257900225"><ele>529.5</ele><time>2026-04-02T17:13:35Z</time></trkpt><trkpt lat="44.331632926169725" lon="7.7543043218360905"><ele>530.0</ele><time>2026-04-02T17:13:36Z</time></trkpt><trkpt lat="44.33151627891428" lon="7.754180110649893"><ele>530.5</ele><time>2026-04-02T17:13:37Z</time></trkpt><trkpt lat="44.33139683146572" lon="7.754043490557634"><ele>531.0</ele><time>2026-04-02T17:13:38Z</time></trkpt><trkpt lat="44.33127665409596" lon="7.753889312800257"><ele>531.0</ele><time>2026-04-02T17:13:39Z</time></trkpt><trkpt lat="44.33115919264668" lon="7.753757916575524"><ele>531.0</ele><time>2026-04-02T17:13:40Z</time></trkpt><trkpt lat="44.33103254124007" lon="7.7536316207287985"><ele>531.0</ele><time>2026-04-02T17:13:41Z</time></trkpt><trkpt lat="44.33090152865618" lon="7.753489244916114"><ele>531.0</ele><time>2026-04-02T17:13:42Z</time></trkpt><trkpt lat="44.33076123622089" lon="7.753343162400518"><ele>531.0</ele><time>2026-04-02T17:13:43Z</time></trkpt><trkpt lat="44.3306243121419" lon="7.7531964168450935"><ele>531.0</ele><time>2026-04-02T17:13:44Z</time></trkpt><trkpt lat="44.33048291911525" lon="7.753044989113454"><ele>531.0</ele><time>2026-04-02T17:13:45Z</time></trkpt><trkpt lat="44.33033264581548" lon="7.7528864054900986"><ele>531.0</ele><time>2026-04-02T17:13:46Z</time></trkpt><trkpt lat="44.33018073405703" lon="7.752722716599633"><ele>531.0</ele><time>2026-04-02T17:13:47Z</time></trkpt><trkpt lat="44.33002151282128" lon="7.752562509160386"><ele>533.0</ele><time>2026-04-02T17:13:47.999Z</time></trkpt><trkpt lat="44.329859532181956" lon="7.752397008861562"><ele>535.0</ele><time>2026-04-02T17:13:48.999Z</time></trkpt><trkpt lat="44.329697749527824" lon="7.752230853906802"><ele>537.0</ele><time>2026-04-02T17:13:49.999Z</time></trkpt><trkpt lat="44.329533301630114" lon="7.75206514657142"><ele>538.3333333333334</ele><time>2026-04-02T17:13:50.999Z</time></trkpt><trkpt lat="44.32937556477352" lon="7.751869573620772"><ele>539.6666666666667</ele><time>2026-04-02T17:13:51.999Z</time></trkpt><trkpt lat="44.32920547885704" lon="7.751684004108313"><ele>541.0</ele><time>2026-04-02T17:13:52.999Z</time></trkpt><trkpt lat="44.32902716671725" lon="7.7514894593838015"><ele>541.0</ele><time>2026-04-02T17:13:53.999Z</time></trkpt><trkpt lat="44.32886020303212" lon="7.751307296419597"><ele>541.0</ele><time>2026-04-02T17:13:54.999Z</time></trkpt><trkpt lat="44.32867231704352" lon="7.751102406516796"><ele>541.6666666666667</ele><time>2026-04-02T17:13:55.999Z</time></trkpt><trkpt lat="44.3284888000479" lon="7.750933796372304"><ele>542.3333333333334</ele><time>2026-04-02T17:13:56.999Z</time></trkpt><trkpt lat="44.328366871736414" lon="7.750773222731191"><ele>543.0</ele><time>2026-04-02T17:13:57.999Z</time></trkpt><trkpt lat="44.328189503186934" lon="7.750600935639142"><ele>544.0</ele><time>2026-04-02T17:13:58.999Z</time></trkpt><trkpt lat="44.32802788068002" lon="7.750405084380661"><ele>545.0</ele><time>2026-04-02T17:13:59.999Z</time></trkpt><trkpt lat="44.327879081163594" lon="7.750263445653855"><ele>546.0</ele><time>2026-04-02T17:14:00.999Z</time></trkpt><trkpt lat="44.32773618219529" lon="7.750108419801768"><ele>546.6666666666666</ele><time>2026-04-02T17:14:01.999Z</time></trkpt><trkpt lat="44.32758484984681" lon="7.749969929130068"><ele>547.3333333333333</ele><time>2026-04-02T17:14:02.999Z</time></trkpt><trkpt lat="44.3274235118033" lon="7.749813142607515"><ele>548.0</ele><time>2026-04-02T17:14:03.999Z</time></trkpt><trkpt lat="44.327254418241466" lon="7.749648736751832"><ele>548.3333333333333</ele><time>2026-04-02T17:14:04.999Z</time></trkpt><trkpt lat="44.32707580230296" lon="7.749502668970797"><ele>548.6666666666666</ele><time>2026-04-02T17:14:05.999Z</time></trkpt><trkpt lat="44.326917872378786" lon="7.749354839819437"><ele>549.0</ele><time>2026-04-02T17:14:06.999Z</time></trkpt><trkpt lat="44.32676276226388" lon="7.749219144373349"><ele>549.0</ele><time>2026-04-02T17:14:07.999Z</time></trkpt><trkpt lat="44.32660660578939" lon="7.749085844900934"><ele>549.0</ele><time>2026-04-02T17:14:08.999Z</time></trkpt><trkpt lat="44.32644903024118" lon="7.748948233927413"><ele>549.0</ele><time>2026-04-02T17:14:09.999Z</time></trkpt><trkpt lat="44.32627875578004" lon="7.748813110311105"><ele>549.6666666666666</ele><time>2026-04-02T17:14:10.999Z</time></trkpt><trkpt lat="44.32610343905831" lon="7.748678699444158"><ele>550.3333333333333</ele><time>2026-04-02T17:14:11.999Z</time></trkpt><trkpt lat="44.325928686277855" lon="7.748549103846769"><ele>551.0</ele><time>2026-04-02T17:14:12.999Z</time></trkpt><trkpt lat="44.32574867923887" lon="7.748423479531599"><ele>551.0</ele><time>2026-04-02T17:14:13.999Z</time></trkpt><trkpt lat="44.32557774041208" lon="7.748297479438205"><ele>551.0</ele><time>2026-04-02T17:14:14.999Z</time></trkpt><trkpt lat="44.325416621505006" lon="7.748179657691961"><ele>551.0</ele><time>2026-04-02T17:14:15.999Z</time></trkpt><trkpt lat="44.32527481127416" lon="7.748069788091469"><ele>552.3333333333333</ele><time>2026-04-02T17:14:16.999Z</time></trkpt><trkpt lat="44.32514111587866" lon="7.747967149123974"><ele>553.6666666666666</ele><time>2026-04-02T17:14:17.999Z</time></trkpt><trkpt lat="44.32500089736017" lon="7.7478672404988975"><ele>555.0</ele><time>2026-04-02T17:14:18.999Z</time></trkpt><trkpt lat="44.32486539847941" lon="7.747761961005322"><ele>555.25</ele><time>2026-04-02T17:14:19.999Z</time></trkpt><trkpt lat="44.324737695296534" lon="7.74766483630364"><ele>555.5</ele><time>2026-04-02T17:14:20.999Z</time></trkpt><trkpt lat="44.32462007698793" lon="7.747577477068169"><ele>555.75</ele><time>2026-04-02T17:14:21.999Z</time></trkpt><trkpt lat="44.32451105355797" lon="7.747496517885222"><ele>556.0</ele><time>2026-04-02T17:14:22.999Z</time></trkpt><trkpt lat="44.32440149830194" lon="7.7474211432256626"><ele>556.0</ele><time>2026-04-02T17:14:23.999Z</time></trkpt><trkpt lat="44.32431633196752" lon="7.747340773780189"><ele>556.0</ele><time>2026-04-02T17:14:24.999Z</time></trkpt><trkpt lat="44.3242176108449" lon="7.747273681376483"><ele>556.0</ele><time>2026-04-02T17:14:25.999Z</time></trkpt><trkpt lat="44.324139168191316" lon="7.747209747910364"><ele>556.0</ele><time>2026-04-02T17:14:26.999Z</time></trkpt><trkpt lat="44.32406444202549" lon="7.747148954422498"><ele>556.0</ele><time>2026-04-02T17:14:27.999Z</time></trkpt><trkpt lat="44.323999186494625" lon="7.74710020000922"><ele>556.0</ele><time>2026-04-02T17:14:28.999Z</time></trkpt><trkpt lat="44.323933731210296" lon="7.74708065730939"><ele>556.0</ele><time>2026-04-02T17:14:29.999Z</time></trkpt><trkpt lat="44.323844850596466" lon="7.747003844546705"><ele>556.0</ele><time>2026-04-02T17:14:31.999Z</time></trkpt><trkpt lat="44.323737033176094" lon="7.747145664427542"><ele>556.0</ele><time>2026-04-02T17:14:32.999Z</time></trkpt><trkpt lat="44.32366580849985" lon="7.747220286795273"><ele>556.0</ele><time>2026-04-02T17:14:33.999Z</time></trkpt><trkpt lat="44.32358071694635" lon="7.747300007196723"><ele>557.0</ele><time>2026-04-02T17:14:34.999Z</time></trkpt><trkpt lat="44.32347268889464" lon="7.747385678074976"><ele>558.0</ele><time>2026-04-02T17:14:35.999Z</time></trkpt><trkpt lat="44.32336089282042" lon="7.747480665193875"><ele>559.0</ele><time>2026-04-02T17:14:36.999Z</time></trkpt><trkpt lat="44.32326945105889" lon="7.747557830657956"><ele>560.0</ele><time>2026-04-02T17:14:37.999Z</time></trkpt><trkpt lat="44.32317797272238" lon="7.74762648124993"><ele>560.0</ele><time>2026-04-02T17:14:38.999Z</time></trkpt><trkpt lat="44.32308746775684" lon="7.7476947339669895"><ele>560.0</ele><time>2026-04-02T17:14:39.999Z</time></trkpt><trkpt lat="44.322999093119975" lon="7.74774674810831"><ele>560.0</ele><time>2026-04-02T17:14:40.999Z</time></trkpt><trkpt lat="44.322884966863654" lon="7.747774426876086"><ele>560.0</ele><time>2026-04-02T17:14:41.999Z</time></trkpt><trkpt lat="44.32278385832936" lon="7.747774515089495"><ele>560.0</ele><time>2026-04-02T17:14:42.999Z</time></trkpt><trkpt lat="44.3226533278619" lon="7.74776052288302"><ele>560.5</ele><time>2026-04-02T17:14:43.998Z</time></trkpt><trkpt lat="44.32251197261726" lon="7.747728930326076"><ele>561.0</ele><time>2026-04-02T17:14:44.998Z</time></trkpt><trkpt lat="44.32239250301609" lon="7.7476827232306364"><ele>561.5</ele><time>2026-04-02T17:14:45.998Z</time></trkpt><trkpt lat="44.322286839455565" lon="7.747629858755117"><ele>562.0</ele><time>2026-04-02T17:14:46.998Z</time></trkpt><trkpt lat="44.322184692638565" lon="7.74755249244395"><ele>562.6</ele><time>2026-04-02T17:14:47.998Z</time></trkpt><trkpt lat="44.32208407240869" lon="7.747479562607187"><ele>563.2</ele><time>2026-04-02T17:14:48.998Z</time></trkpt><trkpt lat="44.32199340224998" lon="7.747409728092278"><ele>563.8</ele><time>2026-04-02T17:14:49.998Z</time></trkpt><trkpt lat="44.321898553686516" lon="7.747348650326648"><ele>564.4</ele><time>2026-04-02T17:14:50.998Z</time></trkpt><trkpt lat="44.32180883283736" lon="7.747303767002477"><ele>565.0</ele><time>2026-04-02T17:14:51.998Z</time></trkpt><trkpt lat="44.321725132789076" lon="7.747256837035064"><ele>565.0</ele><time>2026-04-02T17:14:52.998Z</time></trkpt><trkpt lat="44.32162732873943" lon="7.747212589334375"><ele>565.0</ele><time>2026-04-02T17:14:53.998Z</time></trkpt><trkpt lat="44.321546878759406" lon="7.7471805263529765"><ele>565.0</ele><time>2026-04-02T17:14:54.998Z</time></trkpt><trkpt lat="44.32146150450628" lon="7.747145786298722"><ele>565.0</ele><time>2026-04-02T17:14:55.998Z</time></trkpt><trkpt lat="44.321365830381" lon="7.747117595228134"><ele>565.0</ele><time>2026-04-02T17:14:56.998Z</time></trkpt><trkpt lat="44.32128422174842" lon="7.74709131385849"><ele>565.1666666666667</ele><time>2026-04-02T17:14:57.998Z</time></trkpt><trkpt lat="44.3212095857187" lon="7.747083780886858"><ele>565.3333333333334</ele><time>2026-04-02T17:14:58.998Z</time></trkpt><trkpt lat="44.32113993551432" lon="7.747067557563024"><ele>565.5</ele><time>2026-04-02T17:14:59.998Z</time></trkpt><trkpt lat="44.321065603140596" lon="7.747052789325815"><ele>565.6666666666666</ele><time>2026-04-02T17:15:00.998Z</time></trkpt><trkpt lat="44.3210028711096" lon="7.747040754338793"><ele>565.8333333333333</ele><time>2026-04-02T17:15:01.998Z</time></trkpt><trkpt lat="44.32087407356438" lon="7.747011284760833"><ele>566.0</ele><time>2026-04-02T17:15:03.998Z</time></trkpt><trkpt lat="44.320804152943786" lon="7.747014760272606"><ele>566.0</ele><time>2026-04-02T17:15:04.998Z</time></trkpt><trkpt lat="44.32069610861231" lon="7.747005303126188"><ele>566.0</ele><time>2026-04-02T17:15:06.998Z</time></trkpt><trkpt lat="44.32054615418416" lon="7.747000959649922"><ele>566.0</ele><time>2026-04-02T17:15:08.998Z</time></trkpt><trkpt lat="44.32044426725713" lon="7.746998812519317"><ele>566.0</ele><time>2026-04-02T17:15:09.998Z</time></trkpt><trkpt lat="44.32036393868342" lon="7.74698279888926"><ele>566.0</ele><time>2026-04-02T17:15:10.998Z</time></trkpt><trkpt lat="44.32028958025069" lon="7.746970423067916"><ele>566.4</ele><time>2026-04-02T17:15:12Z</time></trkpt><trkpt lat="44.32017945952387" lon="7.746962977281181"><ele>566.8</ele><time>2026-04-02T17:15:13Z</time></trkpt><trkpt lat="44.32006785155842" lon="7.746924209980471"><ele>567.1999999999999</ele><time>2026-04-02T17:15:15Z</time></trkpt><trkpt lat="44.319975838164574" lon="7.746899469220137"><ele>567.6</ele><time>2026-04-02T17:15:16Z</time></trkpt><trkpt lat="44.3199220612306" lon="7.746845809488954"><ele>568.0</ele><time>2026-04-02T17:15:17Z</time></trkpt><trkpt lat="44.319855031018" lon="7.746807028076852"><ele>568.1666666666667</ele><time>2026-04-02T17:15:18Z</time></trkpt><trkpt lat="44.31978571611579" lon="7.746756633633352"><ele>568.3333333333334</ele><time>2026-04-02T17:15:19Z</time></trkpt><trkpt lat="44.319722388187486" lon="7.746697486510054"><ele>568.5</ele><time>2026-04-02T17:15:20Z</time></trkpt><trkpt lat="44.31967682121756" lon="7.746624609947924"><ele>568.6666666666666</ele><time>2026-04-02T17:15:21Z</time></trkpt><trkpt lat="44.31963568807142" lon="7.746540589522233"><ele>568.8333333333333</ele><time>2026-04-02T17:15:22Z</time></trkpt><trkpt lat="44.31958087310291" lon="7.746465177491186"><ele>569.0</ele><time>2026-04-02T17:15:23Z</time></trkpt><trkpt lat="44.31951448712531" lon="7.746402973599602"><ele>569.75</ele><time>2026-04-02T17:15:24Z</time></trkpt><trkpt lat="44.31942010722009" lon="7.7463478945658615"><ele>570.5</ele><time>2026-04-02T17:15:25Z</time></trkpt><trkpt lat="44.319318147829755" lon="7.746279888135427"><ele>571.25</ele><time>2026-04-02T17:15:26Z</time></trkpt><trkpt lat="44.31921028959986" lon="7.746213102983577"><ele>572.0</ele><time>2026-04-02T17:15:27Z</time></trkpt><trkpt lat="44.3191070660999" lon="7.746137894783579"><ele>572.0</ele><time>2026-04-02T17:15:28Z</time></trkpt><trkpt lat="44.31901897363691" lon="7.746079500629702"><ele>572.0</ele><time>2026-04-02T17:15:29Z</time></trkpt><trkpt lat="44.318941462699655" lon="7.746002246437088"><ele>572.0</ele><time>2026-04-02T17:15:30Z</time></trkpt><trkpt lat="44.3188676524246" lon="7.745940824283251"><ele>572.0</ele><time>2026-04-02T17:15:31Z</time></trkpt><trkpt lat="44.318772004642355" lon="7.745873172528673"><ele>572.0</ele><time>2026-04-02T17:15:32Z</time></trkpt><trkpt lat="44.31869423258592" lon="7.74582580760165"><ele>572.6</ele><time>2026-04-02T17:15:33Z</time></trkpt><trkpt lat="44.318628884997665" lon="7.745778792823668"><ele>573.2</ele><time>2026-04-02T17:15:34Z</time></trkpt><trkpt lat="44.31850587733565" lon="7.7457105570859195"><ele>573.8</ele><time>2026-04-02T17:15:36Z</time></trkpt><trkpt lat="44.31839886711861" lon="7.745707487759752"><ele>574.4</ele><time>2026-04-02T17:15:38Z</time></trkpt><trkpt lat="44.3183323952346" lon="7.745724248619334"><ele>575.0</ele><time>2026-04-02T17:15:41Z</time></trkpt><trkpt lat="44.31832514664011" lon="7.745929854637712"><ele>575.0</ele><time>2026-04-02T17:15:43Z</time></trkpt><trkpt lat="44.318291822376885" lon="7.746032035618458"><ele>575.0</ele><time>2026-04-02T17:15:44Z</time></trkpt><trkpt lat="44.318247352467345" lon="7.746145486449471"><ele>575.0</ele><time>2026-04-02T17:15:45Z</time></trkpt><trkpt lat="44.31820708848554" lon="7.74627939626432"><ele>575.0</ele><time>2026-04-02T17:15:46Z</time></trkpt><trkpt lat="44.318151464303554" lon="7.746407589673629"><ele>575.0</ele><time>2026-04-02T17:15:47Z</time></trkpt><trkpt lat="44.31811328955232" lon="7.7464997194591065"><ele>575.1428571428571</ele><time>2026-04-02T17:15:48Z</time></trkpt><trkpt lat="44.318076446085485" lon="7.746607996194211"><ele>575.2857142857142</ele><time>2026-04-02T17:15:49Z</time></trkpt><trkpt lat="44.31805807309274" lon="7.7467043239637094"><ele>575.4285714285714</ele><time>2026-04-02T17:15:50Z</time></trkpt><trkpt lat="44.31802675097587" lon="7.746792866504045"><ele>575.5714285714286</ele><time>2026-04-02T17:15:51Z</time></trkpt><trkpt lat="44.31800181551387" lon="7.746876474301232"><ele>575.7142857142858</ele><time>2026-04-02T17:15:52Z</time></trkpt><trkpt lat="44.31797318533876" lon="7.746967059713064"><ele>575.8571428571429</ele><time>2026-04-02T17:15:53Z</time></trkpt><trkpt lat="44.31795126323939" lon="7.7470624988765"><ele>576.0</ele><time>2026-04-02T17:15:53.999Z</time></trkpt><trkpt lat="44.31792515588111" lon="7.747167273114614"><ele>575.6666666666666</ele><time>2026-04-02T17:15:54.999Z</time></trkpt><trkpt lat="44.31787872287539" lon="7.74725952732304"><ele>575.3333333333334</ele><time>2026-04-02T17:15:55.999Z</time></trkpt><trkpt lat="44.317827873821784" lon="7.747351559568144"><ele>575.0</ele><time>2026-04-02T17:15:57.999Z</time></trkpt><trkpt lat="44.31779947926114" lon="7.747451606200155"><ele>574.6666666666667</ele><time>2026-04-02T17:15:58.999Z</time></trkpt><trkpt lat="44.31777809709164" lon="7.747549886312821"><ele>574.3333333333334</ele><time>2026-04-02T17:15:59.999Z</time></trkpt><trkpt lat="44.31776546726965" lon="7.747646174258207"><ele>574.0</ele><time>2026-04-02T17:16:00.999Z</time></trkpt><trkpt lat="44.31775269867806" lon="7.747761199355627"><ele>573.8</ele><time>2026-04-02T17:16:01.999Z</time></trkpt><trkpt lat="44.31773604069675" lon="7.747892857146179"><ele>573.5999999999999</ele><time>2026-04-02T17:16:02.999Z</time></trkpt><trkpt lat="44.31771360536659" lon="7.7480339360465305"><ele>573.4</ele><time>2026-04-02T17:16:03.999Z</time></trkpt><trkpt lat="44.31768943348572" lon="7.748206382459611"><ele>573.1999999999999</ele><time>2026-04-02T17:16:04.999Z</time></trkpt><trkpt lat="44.31766181798529" lon="7.748339568102494"><ele>573.0</ele><time>2026-04-02T17:16:05.999Z</time></trkpt><trkpt lat="44.31765351971334" lon="7.748469756579097"><ele>572.8333333333334</ele><time>2026-04-02T17:16:06.999Z</time></trkpt><trkpt lat="44.31764547078826" lon="7.7485730104306825"><ele>572.6666666666666</ele><time>2026-04-02T17:16:07.999Z</time></trkpt><trkpt lat="44.31763113898318" lon="7.748687155915137"><ele>572.5</ele><time>2026-04-02T17:16:08.999Z</time></trkpt><trkpt lat="44.31762795587592" lon="7.748832965791223"><ele>572.3333333333333</ele><time>2026-04-02T17:16:10.999Z</time></trkpt><trkpt lat="44.3176287636399" lon="7.748947667978611"><ele>572.1666666666666</ele><time>2026-04-02T17:16:13.999Z</time></trkpt><trkpt lat="44.31764271413077" lon="7.749040189108784"><ele>572.0</ele><time>2026-04-02T17:16:15.999Z</time></trkpt><trkpt lat="44.31765722573872" lon="7.7491361382712745"><ele>572.0</ele><time>2026-04-02T17:16:18.999Z</time></trkpt><trkpt lat="44.31764326346051" lon="7.74904382129384"><ele>572.0</ele><time>2026-04-02T17:16:25.999Z</time></trkpt><trkpt lat="44.31762880902003" lon="7.748948249826635"><ele>572.0</ele><time>2026-04-02T17:16:32.999Z</time></trkpt><trkpt lat="44.31745907595531" lon="7.748940719542075"><ele>572.0</ele><time>2026-04-02T17:16:37.999Z</time></trkpt><trkpt lat="44.31743049239786" lon="7.7488512505752185"><ele>572.0</ele><time>2026-04-02T17:17:07.998Z</time></trkpt><trkpt lat="44.317377353399685" lon="7.748914595897558"><ele>572.0</ele><time>2026-04-02T17:17:10.998Z</time></trkpt><trkpt lat="44.31729892984492" lon="7.748732657735884"><ele>572.0</ele><time>2026-04-02T17:17:58.999Z</time></trkpt><trkpt lat="44.31735186862667" lon="7.748805297853966"><ele>572.0</ele><time>2026-04-02T17:18:24.999Z</time></trkpt><trkpt lat="44.31761635905087" lon="7.748468107558764"><ele>572.0</ele><time>2026-04-02T17:18:59.408Z</time></trkpt><trkpt lat="44.31745007962535" lon="7.74864306867981"><ele>572.0</ele><time>2026-04-02T17:23:15.994Z</time></trkpt><trkpt lat="44.31738392811377" lon="7.748741819118077"><ele>572.0</ele><time>2026-04-02T17:23:16.994Z</time></trkpt><trkpt lat="44.31735129686596" lon="7.74885151348531"><ele>572.0</ele><time>2026-04-02T17:23:25Z</time></trkpt><trkpt lat="44.317295493146425" lon="7.748924257864326"><ele>572.0</ele><time>2026-04-02T17:23:32Z</time></trkpt><trkpt lat="44.31735900776302" lon="7.748844437015902"><ele>572.0</ele><time>2026-04-02T17:23:36Z</time></trkpt><trkpt lat="44.317387996979505" lon="7.748972020230147"><ele>572.0</ele><time>2026-04-02T17:33:17.999Z</time></trkpt><trkpt lat="44.31734020881877" lon="7.748892610770371"><ele>572.0</ele><time>2026-04-02T17:33:58Z</time></trkpt><trkpt lat="44.31737523852298" lon="7.7487725736930955"><ele>572.0</ele><time>2026-04-02T17:34:03Z</time></trkpt><trkpt lat="44.31738016276095" lon="7.748684103128504"><ele>572.0</ele><time>2026-04-02T17:34:05Z</time></trkpt><trkpt lat="44.317364578589114" lon="7.748581267133606"><ele>572.0</ele><time>2026-04-02T17:34:12Z</time></trkpt><trkpt lat="44.31742832965779" lon="7.7485072170309595"><ele>572.0</ele><time>2026-04-02T17:34:19Z</time></trkpt><trkpt lat="44.31744172994419" lon="7.748410347035988"><ele>572.0</ele><time>2026-04-02T17:35:25.999Z</time></trkpt><trkpt lat="44.31738708562909" lon="7.748492847367009"><ele>572.0</ele><time>2026-04-02T17:36:14Z</time></trkpt><trkpt lat="44.31734743167796" lon="7.7485831144105735"><ele>572.0</ele><time>2026-04-02T17:36:16Z</time></trkpt><trkpt lat="44.31733365162509" lon="7.748673142119959"><ele>572.0</ele><time>2026-04-02T17:36:19Z</time></trkpt><trkpt lat="44.31732365540818" lon="7.748782002923681"><ele>572.0</ele><time>2026-04-02T17:36:24Z</time></trkpt><trkpt lat="44.31733203122707" lon="7.74887206723635"><ele>572.0</ele><time>2026-04-02T17:36:28Z</time></trkpt><trkpt lat="44.31739561738391" lon="7.748929966586047"><ele>572.0</ele><time>2026-04-02T17:36:33Z</time></trkpt><trkpt lat="44.31745137925045" lon="7.749034888998773"><ele>572.0</ele><time>2026-04-02T17:37:04.999Z</time></trkpt><trkpt lat="44.317492214075905" lon="7.749102132248527"><ele>572.0</ele><time>2026-04-02T17:37:45.998Z</time></trkpt><trkpt lat="44.317568047067546" lon="7.749134712100492"><ele>572.0</ele><time>2026-04-02T17:37:49.998Z</time></trkpt><trkpt lat="44.31761594593152" lon="7.749062312435093"><ele>572.0</ele><time>2026-04-02T17:37:52.998Z</time></trkpt><trkpt lat="44.317623148375034" lon="7.74894179771361"><ele>572.0</ele><time>2026-04-02T17:37:54.998Z</time></trkpt><trkpt lat="44.31762977760875" lon="7.74880045181946"><ele>572.0</ele><time>2026-04-02T17:37:56.998Z</time></trkpt><trkpt lat="44.317659825465554" lon="7.748593392690653"><ele>572.2</ele><time>2026-04-02T17:37:58.998Z</time></trkpt><trkpt lat="44.317668516698085" lon="7.748474618776656"><ele>572.4000000000001</ele><time>2026-04-02T17:37:59.998Z</time></trkpt><trkpt lat="44.317694928406596" lon="7.748330212831268"><ele>572.5999999999999</ele><time>2026-04-02T17:38:00.998Z</time></trkpt><trkpt lat="44.31771695613197" lon="7.74820280472929"><ele>572.8</ele><time>2026-04-02T17:38:01.998Z</time></trkpt><trkpt lat="44.31773758004089" lon="7.748084166820133"><ele>573.0</ele><time>2026-04-02T17:38:02.998Z</time></trkpt><trkpt lat="44.31774861984292" lon="7.747964673445125"><ele>573.0</ele><time>2026-04-02T17:38:03.998Z</time></trkpt><trkpt lat="44.31776619052006" lon="7.747824372709132"><ele>573.0</ele><time>2026-04-02T17:38:04.998Z</time></trkpt><trkpt lat="44.31779892680755" lon="7.74767519885099"><ele>573.0</ele><time>2026-04-02T17:38:06Z</time></trkpt><trkpt lat="44.31781957259549" lon="7.74755917763458"><ele>573.0</ele><time>2026-04-02T17:38:07Z</time></trkpt><trkpt lat="44.31783269552143" lon="7.747451847659776"><ele>573.0</ele><time>2026-04-02T17:38:08Z</time></trkpt><trkpt lat="44.317854248662414" lon="7.7473514283466685"><ele>573.1999999999999</ele><time>2026-04-02T17:38:09Z</time></trkpt><trkpt lat="44.31787865462188" lon="7.74725556216918"><ele>573.4</ele><time>2026-04-02T17:38:10Z</time></trkpt><trkpt lat="44.317901742554945" lon="7.747169622124577"><ele>573.5999999999999</ele><time>2026-04-02T17:38:11Z</time></trkpt><trkpt lat="44.31795775606215" lon="7.747017012922526"><ele>573.8</ele><time>2026-04-02T17:38:13Z</time></trkpt><trkpt lat="44.31799830899237" lon="7.746897952774848"><ele>574.0</ele><time>2026-04-02T17:38:14Z</time></trkpt><trkpt lat="44.318049919309054" lon="7.746767360348505"><ele>574.3333333333334</ele><time>2026-04-02T17:38:15Z</time></trkpt><trkpt lat="44.318086191275036" lon="7.746670051419495"><ele>574.6666666666667</ele><time>2026-04-02T17:38:16Z</time></trkpt><trkpt lat="44.31813636091634" lon="7.746551059819878"><ele>575.0</ele><time>2026-04-02T17:38:17Z</time></trkpt><trkpt lat="44.31817700254488" lon="7.746437474183449"><ele>575.3333333333334</ele><time>2026-04-02T17:38:18Z</time></trkpt><trkpt lat="44.318203887523346" lon="7.746318155402789"><ele>575.6666666666666</ele><time>2026-04-02T17:38:19Z</time></trkpt><trkpt lat="44.31826000059679" lon="7.746240189032669"><ele>576.0</ele><time>2026-04-02T17:38:20Z</time></trkpt><trkpt lat="44.31828337755279" lon="7.746124230039719"><ele>575.8</ele><time>2026-04-02T17:38:21Z</time></trkpt><trkpt lat="44.31831673123962" lon="7.746044061026467"><ele>575.6</ele><time>2026-04-02T17:38:22Z</time></trkpt><trkpt lat="44.318347869698016" lon="7.745959101132873"><ele>575.4</ele><time>2026-04-02T17:38:23Z</time></trkpt><trkpt lat="44.318368624632946" lon="7.745817328669139"><ele>575.2</ele><time>2026-04-02T17:38:25Z</time></trkpt><trkpt lat="44.318361684215034" lon="7.7456781802281265"><ele>575.0</ele><time>2026-04-02T17:38:27Z</time></trkpt><trkpt lat="44.31845837842102" lon="7.745772585622128"><ele>575.0</ele><time>2026-04-02T17:38:32Z</time></trkpt><trkpt lat="44.31854007640143" lon="7.7458050111777"><ele>575.0</ele><time>2026-04-02T17:38:34Z</time></trkpt><trkpt lat="44.31866829133372" lon="7.745879221937925"><ele>575.0</ele><time>2026-04-02T17:38:36Z</time></trkpt><trkpt lat="44.31882005438066" lon="7.745979700520951"><ele>575.0</ele><time>2026-04-02T17:38:38Z</time></trkpt><trkpt lat="44.31894519661829" lon="7.746111652492301"><ele>574.4</ele><time>2026-04-02T17:38:39Z</time></trkpt><trkpt lat="44.31902979412596" lon="7.746182027468548"><ele>573.8</ele><time>2026-04-02T17:38:40Z</time></trkpt><trkpt lat="44.31910024152879" lon="7.746240996935516"><ele>573.2</ele><time>2026-04-02T17:38:41Z</time></trkpt><trkpt lat="44.319208039451" lon="7.7462957838883515"><ele>572.6</ele><time>2026-04-02T17:38:42Z</time></trkpt><trkpt lat="44.31931692505491" lon="7.746365020132177"><ele>572.0</ele><time>2026-04-02T17:38:43Z</time></trkpt><trkpt lat="44.31938498809728" lon="7.746410315368052"><ele>572.0</ele><time>2026-04-02T17:38:44Z</time></trkpt><trkpt lat="44.31946055168599" lon="7.746462084431193"><ele>572.0</ele><time>2026-04-02T17:38:45Z</time></trkpt><trkpt lat="44.31952052085767" lon="7.746509448345873"><ele>572.0</ele><time>2026-04-02T17:38:46Z</time></trkpt><trkpt lat="44.31958695641697" lon="7.746574943016465"><ele>572.0</ele><time>2026-04-02T17:38:47Z</time></trkpt><trkpt lat="44.3196742896936" lon="7.7466922461066385"><ele>572.0</ele><time>2026-04-02T17:38:49Z</time></trkpt><trkpt lat="44.319734751188264" lon="7.746789909206973"><ele>572.0</ele><time>2026-04-02T17:38:49.999Z</time></trkpt><trkpt lat="44.319817117503646" lon="7.746857489099698"><ele>571.2</ele><time>2026-04-02T17:38:50.999Z</time></trkpt><trkpt lat="44.31991898036125" lon="7.7469051565613505"><ele>570.4000000000001</ele><time>2026-04-02T17:38:51.999Z</time></trkpt><trkpt lat="44.320008190341305" lon="7.746918075682811"><ele>569.5999999999999</ele><time>2026-04-02T17:38:52.999Z</time></trkpt><trkpt lat="44.32008595804627" lon="7.746965070110635"><ele>568.8</ele><time>2026-04-02T17:38:53.999Z</time></trkpt><trkpt lat="44.3202186103206" lon="7.746991535608462"><ele>568.0</ele><time>2026-04-02T17:38:55.999Z</time></trkpt><trkpt lat="44.32033848632141" lon="7.747039495317708"><ele>568.0</ele><time>2026-04-02T17:38:56.999Z</time></trkpt><trkpt lat="44.32040940042891" lon="7.747024482599705"><ele>568.0</ele><time>2026-04-02T17:38:57.999Z</time></trkpt><trkpt lat="44.3204858073064" lon="7.7470530432532225"><ele>568.0</ele><time>2026-04-02T17:38:58.999Z</time></trkpt><trkpt lat="44.32056807952558" lon="7.747049727415933"><ele>568.0</ele><time>2026-04-02T17:38:59.999Z</time></trkpt><trkpt lat="44.32067515016871" lon="7.747049930776528"><ele>568.0</ele><time>2026-04-02T17:39:01.999Z</time></trkpt><trkpt lat="44.32080459609136" lon="7.747061638936895"><ele>567.6</ele><time>2026-04-02T17:39:03.999Z</time></trkpt><trkpt lat="44.32089115217604" lon="7.747075091442145"><ele>567.1999999999999</ele><time>2026-04-02T17:39:04.999Z</time></trkpt><trkpt lat="44.3209756529725" lon="7.747077961106725"><ele>566.8</ele><time>2026-04-02T17:39:05.999Z</time></trkpt><trkpt lat="44.32107566699655" lon="7.747082158181981"><ele>566.4</ele><time>2026-04-02T17:39:06.999Z</time></trkpt><trkpt lat="44.32118445906108" lon="7.747119943467552"><ele>566.0</ele><time>2026-04-02T17:39:07.999Z</time></trkpt><trkpt lat="44.321291995711775" lon="7.747124036412437"><ele>565.75</ele><time>2026-04-02T17:39:08.999Z</time></trkpt><trkpt lat="44.3214109419961" lon="7.7471820136412335"><ele>565.5</ele><time>2026-04-02T17:39:09.999Z</time></trkpt><trkpt lat="44.321512859998435" lon="7.747216628208113"><ele>565.25</ele><time>2026-04-02T17:39:10.999Z</time></trkpt><trkpt lat="44.321616494402534" lon="7.747257219013597"><ele>565.0</ele><time>2026-04-02T17:39:11.999Z</time></trkpt><trkpt lat="44.321729505713044" lon="7.747307459218407"><ele>565.0</ele><time>2026-04-02T17:39:12.999Z</time></trkpt><trkpt lat="44.32184460297374" lon="7.747366325961856"><ele>565.0</ele><time>2026-04-02T17:39:13.999Z</time></trkpt><trkpt lat="44.3219836737737" lon="7.747445519831281"><ele>565.0</ele><time>2026-04-02T17:39:14.999Z</time></trkpt><trkpt lat="44.3220625016841" lon="7.747482710502245"><ele>565.0</ele><time>2026-04-02T17:39:15.999Z</time></trkpt><trkpt lat="44.3221641638696" lon="7.747554147595868"><ele>564.4</ele><time>2026-04-02T17:39:16.999Z</time></trkpt><trkpt lat="44.32225238600506" lon="7.747616815357109"><ele>563.8</ele><time>2026-04-02T17:39:17.999Z</time></trkpt><trkpt lat="44.322351368746745" lon="7.74767322446092"><ele>563.2</ele><time>2026-04-02T17:39:18.999Z</time></trkpt><trkpt lat="44.32243300595743" lon="7.747728303035447"><ele>562.6</ele><time>2026-04-02T17:39:19.999Z</time></trkpt><trkpt lat="44.32252040505622" lon="7.747759023769303"><ele>562.0</ele><time>2026-04-02T17:39:20.999Z</time></trkpt><trkpt lat="44.3226182767389" lon="7.747759027196183"><ele>562.0</ele><time>2026-04-02T17:39:21.999Z</time></trkpt><trkpt lat="44.32271817358651" lon="7.747787419623423"><ele>562.0</ele><time>2026-04-02T17:39:22.999Z</time></trkpt><trkpt lat="44.32283125922049" lon="7.747795482891349"><ele>562.0</ele><time>2026-04-02T17:39:23.999Z</time></trkpt><trkpt lat="44.32292743458996" lon="7.747787804550413"><ele>562.0</ele><time>2026-04-02T17:39:24.999Z</time></trkpt><trkpt lat="44.32302211670743" lon="7.747770970846718"><ele>562.0</ele><time>2026-04-02T17:39:25.999Z</time></trkpt><trkpt lat="44.32311472016299" lon="7.7477321661644485"><ele>561.5</ele><time>2026-04-02T17:39:26.999Z</time></trkpt><trkpt lat="44.323223416478505" lon="7.747666692709649"><ele>561.0</ele><time>2026-04-02T17:39:27.999Z</time></trkpt><trkpt lat="44.323331411834744" lon="7.747589106862242"><ele>560.5</ele><time>2026-04-02T17:39:28.999Z</time></trkpt><trkpt lat="44.32342668120249" lon="7.747506423628618"><ele>560.0</ele><time>2026-04-02T17:39:29.999Z</time></trkpt><trkpt lat="44.32350933128969" lon="7.747388370360107"><ele>560.0</ele><time>2026-04-02T17:39:30.999Z</time></trkpt><trkpt lat="44.32359948534552" lon="7.747341624821991"><ele>560.0</ele><time>2026-04-02T17:39:31.999Z</time></trkpt><trkpt lat="44.323668777904025" lon="7.747285080445588"><ele>560.0</ele><time>2026-04-02T17:39:32.999Z</time></trkpt><trkpt lat="44.32373546208232" lon="7.747229517173534"><ele>560.0</ele><time>2026-04-02T17:39:33.999Z</time></trkpt><trkpt lat="44.32379420610974" lon="7.747179434612582"><ele>560.0</ele><time>2026-04-02T17:39:34.999Z</time></trkpt><trkpt lat="44.32389671405822" lon="7.747135941539651"><ele>560.0</ele><time>2026-04-02T17:39:36.999Z</time></trkpt><trkpt lat="44.324025800581936" lon="7.74707438515713"><ele>559.0</ele><time>2026-04-02T17:39:38.999Z</time></trkpt><trkpt lat="44.3241125480206" lon="7.7470822568111455"><ele>558.0</ele><time>2026-04-02T17:39:39.999Z</time></trkpt><trkpt lat="44.32418755428221" lon="7.747255363978611"><ele>557.0</ele><time>2026-04-02T17:39:40.999Z</time></trkpt><trkpt lat="44.32429287900969" lon="7.74733541956308"><ele>556.0</ele><time>2026-04-02T17:39:41.999Z</time></trkpt><trkpt lat="44.324395995287325" lon="7.747443708155343"><ele>556.0</ele><time>2026-04-02T17:39:42.999Z</time></trkpt><trkpt lat="44.32451820588586" lon="7.747535872092836"><ele>556.0</ele><time>2026-04-02T17:39:43.999Z</time></trkpt><trkpt lat="44.32464131234285" lon="7.747629738640588"><ele>556.0</ele><time>2026-04-02T17:39:44.999Z</time></trkpt><trkpt lat="44.32476807490165" lon="7.747725385023316"><ele>556.0</ele><time>2026-04-02T17:39:45.999Z</time></trkpt><trkpt lat="44.32491976394719" lon="7.747846531980736"><ele>555.6666666666667</ele><time>2026-04-02T17:39:46.998Z</time></trkpt><trkpt lat="44.3250708182179" lon="7.747948653404423"><ele>555.3333333333334</ele><time>2026-04-02T17:39:47.998Z</time></trkpt><trkpt lat="44.32521195881454" lon="7.748077120716397"><ele>555.0</ele><time>2026-04-02T17:39:48.998Z</time></trkpt><trkpt lat="44.3253634241485" lon="7.74819035875608"><ele>555.0</ele><time>2026-04-02T17:39:49.998Z</time></trkpt><trkpt lat="44.325529324995905" lon="7.7483066574292785"><ele>555.0</ele><time>2026-04-02T17:39:50.998Z</time></trkpt><trkpt lat="44.325695824122334" lon="7.748425013826626"><ele>555.0</ele><time>2026-04-02T17:39:51.998Z</time></trkpt><trkpt lat="44.325869355209576" lon="7.748549379545722"><ele>554.0</ele><time>2026-04-02T17:39:52.998Z</time></trkpt><trkpt lat="44.326037817131706" lon="7.7486956069086395"><ele>553.0</ele><time>2026-04-02T17:39:53.998Z</time></trkpt><trkpt lat="44.32621743398503" lon="7.748832204362639"><ele>552.0</ele><time>2026-04-02T17:39:54.998Z</time></trkpt><trkpt lat="44.32640910964503" lon="7.74896899760365"><ele>551.0</ele><time>2026-04-02T17:39:55.998Z</time></trkpt><trkpt lat="44.32656770213313" lon="7.749115913002851"><ele>550.0</ele><time>2026-04-02T17:39:56.998Z</time></trkpt><trkpt lat="44.326729865624245" lon="7.749204309585748"><ele>549.0</ele><time>2026-04-02T17:39:57.998Z</time></trkpt><trkpt lat="44.32688297079737" lon="7.749358042516443"><ele>549.0</ele><time>2026-04-02T17:39:58.998Z</time></trkpt><trkpt lat="44.32703544606057" lon="7.749500115919012"><ele>549.0</ele><time>2026-04-02T17:39:59.998Z</time></trkpt><trkpt lat="44.327183217571154" lon="7.749631144198389"><ele>549.0</ele><time>2026-04-02T17:40:00.998Z</time></trkpt><trkpt lat="44.32732774557638" lon="7.74976314759208"><ele>548.6666666666666</ele><time>2026-04-02T17:40:01.998Z</time></trkpt><trkpt lat="44.32747013921564" lon="7.749911365379236"><ele>548.3333333333333</ele><time>2026-04-02T17:40:02.998Z</time></trkpt><trkpt lat="44.32761958406073" lon="7.750038248344144"><ele>548.0</ele><time>2026-04-02T17:40:03.998Z</time></trkpt><trkpt lat="44.32776175849292" lon="7.750179860241896"><ele>547.3333333333333</ele><time>2026-04-02T17:40:04.998Z</time></trkpt><trkpt lat="44.327900928036165" lon="7.750332315458191"><ele>546.6666666666666</ele><time>2026-04-02T17:40:05.998Z</time></trkpt><trkpt lat="44.32803785576271" lon="7.750485157314812"><ele>546.0</ele><time>2026-04-02T17:40:06.998Z</time></trkpt><trkpt lat="44.328181190501" lon="7.750628803070688"><ele>545.0</ele><time>2026-04-02T17:40:07.998Z</time></trkpt><trkpt lat="44.328320309016746" lon="7.75078467877847"><ele>544.0</ele><time>2026-04-02T17:40:08.998Z</time></trkpt><trkpt lat="44.32846376355406" lon="7.750934234934299"><ele>543.0</ele><time>2026-04-02T17:40:09.998Z</time></trkpt><trkpt lat="44.3286052790999" lon="7.751084525908923"><ele>542.3333333333334</ele><time>2026-04-02T17:40:10.998Z</time></trkpt><trkpt lat="44.32874836327838" lon="7.751238199613994"><ele>541.6666666666667</ele><time>2026-04-02T17:40:12Z</time></trkpt><trkpt lat="44.32889340421957" lon="7.751390817192614"><ele>541.0</ele><time>2026-04-02T17:40:13Z</time></trkpt><trkpt lat="44.32904260483718" lon="7.751552854255028"><ele>541.0</ele><time>2026-04-02T17:40:14Z</time></trkpt><trkpt lat="44.32919397149443" lon="7.751721158217269"><ele>541.0</ele><time>2026-04-02T17:40:15Z</time></trkpt><trkpt lat="44.32934798382851" lon="7.751890984443415"><ele>541.0</ele><time>2026-04-02T17:40:16Z</time></trkpt><trkpt lat="44.32950611745639" lon="7.752051367762007"><ele>540.0</ele><time>2026-04-02T17:40:17Z</time></trkpt><trkpt lat="44.32964231395145" lon="7.7522195217839185"><ele>539.0</ele><time>2026-04-02T17:40:18Z</time></trkpt><trkpt lat="44.32980193917683" lon="7.752366283819564"><ele>538.0</ele><time>2026-04-02T17:40:19Z</time></trkpt><trkpt lat="44.32995427696047" lon="7.752533146913373"><ele>537.6666666666667</ele><time>2026-04-02T17:40:20Z</time></trkpt><trkpt lat="44.33010793967287" lon="7.752700533690339"><ele>537.3333333333334</ele><time>2026-04-02T17:40:21Z</time></trkpt><trkpt lat="44.33024536515556" lon="7.752877618243291"><ele>537.0</ele><time>2026-04-02T17:40:22Z</time></trkpt><trkpt lat="44.33039718087926" lon="7.753014770631482"><ele>535.3333333333334</ele><time>2026-04-02T17:40:23Z</time></trkpt><trkpt lat="44.330531210514636" lon="7.753186521024121"><ele>533.6666666666667</ele><time>2026-04-02T17:40:24Z</time></trkpt><trkpt lat="44.330688797132574" lon="7.753332569652705"><ele>532.0</ele><time>2026-04-02T17:40:25Z</time></trkpt><trkpt lat="44.33083491197425" lon="7.753494194112865"><ele>531.6666666666667</ele><time>2026-04-02T17:40:26Z</time></trkpt><trkpt lat="44.33097865994795" lon="7.753644743759889"><ele>531.3333333333334</ele><time>2026-04-02T17:40:27Z</time></trkpt><trkpt lat="44.33112155533878" lon="7.7538008064301565"><ele>531.0</ele><time>2026-04-02T17:40:28Z</time></trkpt><trkpt lat="44.331252914704436" lon="7.753966440708755"><ele>530.3333333333334</ele><time>2026-04-02T17:40:29Z</time></trkpt><trkpt lat="44.33139938863756" lon="7.754125426035731"><ele>529.6666666666667</ele><time>2026-04-02T17:40:30Z</time></trkpt><trkpt lat="44.331539705847554" lon="7.754276667861255"><ele>529.0</ele><time>2026-04-02T17:40:31Z</time></trkpt><trkpt lat="44.33167959209069" lon="7.754428777032902"><ele>529.0</ele><time>2026-04-02T17:40:32Z</time></trkpt><trkpt lat="44.33182147657251" lon="7.754555253321337"><ele>529.0</ele><time>2026-04-02T17:40:33Z</time></trkpt><trkpt lat="44.331960839943804" lon="7.754706264797259"><ele>529.0</ele><time>2026-04-02T17:40:34Z</time></trkpt><trkpt lat="44.3320886622884" lon="7.75488223716403"><ele>529.0</ele><time>2026-04-02T17:40:35Z</time></trkpt><trkpt lat="44.33221744049166" lon="7.755033014170067"><ele>529.0</ele><time>2026-04-02T17:40:36Z</time></trkpt><trkpt lat="44.33233895560332" lon="7.755180029932867"><ele>529.0</ele><time>2026-04-02T17:40:37Z</time></trkpt><trkpt lat="44.33246296743451" lon="7.755330115710325"><ele>529.3333333333334</ele><time>2026-04-02T17:40:38Z</time></trkpt><trkpt lat="44.33259164972022" lon="7.755486030171671"><ele>529.6666666666666</ele><time>2026-04-02T17:40:39Z</time></trkpt><trkpt lat="44.33272384829194" lon="7.755643868503643"><ele>530.0</ele><time>2026-04-02T17:40:40Z</time></trkpt><trkpt lat="44.33287258420828" lon="7.755797534655669"><ele>530.0</ele><time>2026-04-02T17:40:41Z</time></trkpt><trkpt lat="44.33301384727353" lon="7.755967084342942"><ele>530.0</ele><time>2026-04-02T17:40:42Z</time></trkpt><trkpt lat="44.33314789849567" lon="7.7561515491817214"><ele>530.0</ele><time>2026-04-02T17:40:43Z</time></trkpt><trkpt lat="44.33330132948051" lon="7.756336252908015"><ele>529.6666666666666</ele><time>2026-04-02T17:40:44Z</time></trkpt><trkpt lat="44.33346071445674" lon="7.756529400651058"><ele>529.3333333333334</ele><time>2026-04-02T17:40:45Z</time></trkpt><trkpt lat="44.33360837396993" lon="7.756708601902342"><ele>529.0</ele><time>2026-04-02T17:40:46Z</time></trkpt><trkpt lat="44.333751214113676" lon="7.756878718051462"><ele>528.3333333333334</ele><time>2026-04-02T17:40:47Z</time></trkpt><trkpt lat="44.33390639087379" lon="7.757048805858472"><ele>527.6666666666666</ele><time>2026-04-02T17:40:48Z</time></trkpt><trkpt lat="44.33406582433898" lon="7.7572084903935865"><ele>527.0</ele><time>2026-04-02T17:40:49Z</time></trkpt><trkpt lat="44.334234945957206" lon="7.757363879402082"><ele>527.0</ele><time>2026-04-02T17:40:50Z</time></trkpt><trkpt lat="44.33440608192929" lon="7.757523761890134"><ele>527.0</ele><time>2026-04-02T17:40:51Z</time></trkpt><trkpt lat="44.33458493067956" lon="7.757690850097016"><ele>527.0</ele><time>2026-04-02T17:40:52Z</time></trkpt><trkpt lat="44.334763761506835" lon="7.757858678781895"><ele>525.3333333333333</ele><time>2026-04-02T17:40:53Z</time></trkpt><trkpt lat="44.33493312955576" lon="7.758017943091305"><ele>523.6666666666666</ele><time>2026-04-02T17:40:54Z</time></trkpt><trkpt lat="44.33510679810639" lon="7.758152897867722"><ele>522.0</ele><time>2026-04-02T17:40:54.999Z</time></trkpt><trkpt lat="44.335253032451945" lon="7.75829411717772"><ele>522.0</ele><time>2026-04-02T17:40:55.999Z</time></trkpt><trkpt lat="44.33540522927982" lon="7.75842901755665"><ele>522.0</ele><time>2026-04-02T17:40:56.999Z</time></trkpt><trkpt lat="44.335539865401486" lon="7.758582805269099"><ele>522.0</ele><time>2026-04-02T17:40:57.999Z</time></trkpt><trkpt lat="44.3356858962052" lon="7.758696828319223"><ele>521.6666666666666</ele><time>2026-04-02T17:40:58.999Z</time></trkpt><trkpt lat="44.33582142946051" lon="7.758829203447345"><ele>521.3333333333333</ele><time>2026-04-02T17:40:59.999Z</time></trkpt><trkpt lat="44.33593062995645" lon="7.758991942064626"><ele>521.0</ele><time>2026-04-02T17:41:00.999Z</time></trkpt><trkpt lat="44.336046427199626" lon="7.759161284519707"><ele>521.0</ele><time>2026-04-02T17:41:01.999Z</time></trkpt><trkpt lat="44.33614798001854" lon="7.759355309527319"><ele>521.0</ele><time>2026-04-02T17:41:02.999Z</time></trkpt><trkpt lat="44.33624384932205" lon="7.7595638607377575"><ele>521.0</ele><time>2026-04-02T17:41:03.999Z</time></trkpt><trkpt lat="44.336330042837254" lon="7.759763238257784"><ele>521.6666666666666</ele><time>2026-04-02T17:41:04.999Z</time></trkpt><trkpt lat="44.33641488801138" lon="7.759947822877319"><ele>522.3333333333334</ele><time>2026-04-02T17:41:05.999Z</time></trkpt><trkpt lat="44.33651045948035" lon="7.760131487157962"><ele>523.0</ele><time>2026-04-02T17:41:06.999Z</time></trkpt><trkpt lat="44.336623729771844" lon="7.760314104699175"><ele>521.6666666666667</ele><time>2026-04-02T17:41:07.999Z</time></trkpt><trkpt lat="44.33675647708886" lon="7.760473856930532"><ele>520.3333333333334</ele><time>2026-04-02T17:41:08.999Z</time></trkpt><trkpt lat="44.33690548690789" lon="7.760610881956479"><ele>519.0</ele><time>2026-04-02T17:41:09.999Z</time></trkpt><trkpt lat="44.337053760318454" lon="7.760730703384919"><ele>519.0</ele><time>2026-04-02T17:41:10.999Z</time></trkpt><trkpt lat="44.33720436535156" lon="7.7608438582822235"><ele>519.0</ele><time>2026-04-02T17:41:11.999Z</time></trkpt><trkpt lat="44.33734134458038" lon="7.760945649755306"><ele>519.0</ele><time>2026-04-02T17:41:12.999Z</time></trkpt><trkpt lat="44.33746159694468" lon="7.761034210271087"><ele>519.6666666666666</ele><time>2026-04-02T17:41:13.999Z</time></trkpt><trkpt lat="44.33758878475112" lon="7.761127561267678"><ele>520.3333333333333</ele><time>2026-04-02T17:41:14.999Z</time></trkpt><trkpt lat="44.33773272715039" lon="7.761206732321157"><ele>521.0</ele><time>2026-04-02T17:41:15.999Z</time></trkpt><trkpt lat="44.33785938483216" lon="7.761323482890651"><ele>521.0</ele><time>2026-04-02T17:41:16.999Z</time></trkpt><trkpt lat="44.33798266292247" lon="7.761412751179365"><ele>521.0</ele><time>2026-04-02T17:41:17.999Z</time></trkpt><trkpt lat="44.33811180219514" lon="7.761507205381288"><ele>521.0</ele><time>2026-04-02T17:41:18.999Z</time></trkpt><trkpt lat="44.338238836195586" lon="7.761600175400782"><ele>521.0</ele><time>2026-04-02T17:41:19.999Z</time></trkpt><trkpt lat="44.33835859114689" lon="7.761687818269882"><ele>521.0</ele><time>2026-04-02T17:41:20.999Z</time></trkpt><trkpt lat="44.33847428000442" lon="7.761772485452517"><ele>521.0</ele><time>2026-04-02T17:41:21.999Z</time></trkpt><trkpt lat="44.3385941816027" lon="7.7618602373609455"><ele>521.0</ele><time>2026-04-02T17:41:22.999Z</time></trkpt><trkpt lat="44.338705576433696" lon="7.761941761950686"><ele>521.0</ele><time>2026-04-02T17:41:23.999Z</time></trkpt><trkpt lat="44.3388142999727" lon="7.7620213313691035"><ele>521.25</ele><time>2026-04-02T17:41:24.999Z</time></trkpt><trkpt lat="44.33891607841798" lon="7.762094306682496"><ele>521.5</ele><time>2026-04-02T17:41:25.999Z</time></trkpt><trkpt lat="44.33902120396114" lon="7.762168850763876"><ele>521.75</ele><time>2026-04-02T17:41:26.999Z</time></trkpt><trkpt lat="44.339130291185796" lon="7.762221387212887"><ele>522.0</ele><time>2026-04-02T17:41:27.999Z</time></trkpt><trkpt lat="44.3392254778146" lon="7.762294970112915"><ele>522.0</ele><time>2026-04-02T17:41:28.999Z</time></trkpt><trkpt lat="44.339315925596104" lon="7.762368870706593"><ele>522.0</ele><time>2026-04-02T17:41:29.999Z</time></trkpt><trkpt lat="44.33941104662634" lon="7.762441519492513"><ele>522.0</ele><time>2026-04-02T17:41:30.999Z</time></trkpt><trkpt lat="44.3395030962988" lon="7.76250644701355"><ele>522.0</ele><time>2026-04-02T17:41:31.999Z</time></trkpt><trkpt lat="44.33958731694282" lon="7.762569011015614"><ele>522.0</ele><time>2026-04-02T17:41:32.999Z</time></trkpt><trkpt lat="44.33967711926427" lon="7.762636133624304"><ele>520.6</ele><time>2026-04-02T17:41:33.999Z</time></trkpt><trkpt lat="44.33976998798636" lon="7.762704718819895"><ele>519.2</ele><time>2026-04-02T17:41:34.999Z</time></trkpt><trkpt lat="44.33986652634131" lon="7.7627726669092425"><ele>517.8</ele><time>2026-04-02T17:41:35.999Z</time></trkpt><trkpt lat="44.33996923983645" lon="7.762842551723856"><ele>516.4</ele><time>2026-04-02T17:41:36.999Z</time></trkpt><trkpt lat="44.340062811293706" lon="7.7629115880812325"><ele>515.0</ele><time>2026-04-02T17:41:37.999Z</time></trkpt><trkpt lat="44.34015412999937" lon="7.762977910815213"><ele>515.0</ele><time>2026-04-02T17:41:38.999Z</time></trkpt><trkpt lat="44.34024797309277" lon="7.7630490055851435"><ele>515.0</ele><time>2026-04-02T17:41:39.999Z</time></trkpt><trkpt lat="44.34033546491242" lon="7.763119894886137"><ele>515.0</ele><time>2026-04-02T17:41:40.999Z</time></trkpt><trkpt lat="44.34042438851623" lon="7.7631935093026305"><ele>515.0</ele><time>2026-04-02T17:41:41.999Z</time></trkpt><trkpt lat="44.340512419815575" lon="7.763271428972464"><ele>515.0</ele><time>2026-04-02T17:41:42.999Z</time></trkpt><trkpt lat="44.34060797984997" lon="7.763347215340976"><ele>515.0</ele><time>2026-04-02T17:41:43.999Z</time></trkpt><trkpt lat="44.34071865905411" lon="7.763436998998669"><ele>515.0</ele><time>2026-04-02T17:41:44.999Z</time></trkpt><trkpt lat="44.34081107585779" lon="7.763525166467663"><ele>515.0</ele><time>2026-04-02T17:41:45.999Z</time></trkpt><trkpt lat="44.34090048944506" lon="7.763610856199411"><ele>515.0</ele><time>2026-04-02T17:41:46.999Z</time></trkpt><trkpt lat="44.34098527097485" lon="7.7636946403250775"><ele>515.0</ele><time>2026-04-02T17:41:47.999Z</time></trkpt><trkpt lat="44.341073357893265" lon="7.763776235908951"><ele>515.0</ele><time>2026-04-02T17:41:48.999Z</time></trkpt><trkpt lat="44.34115837410927" lon="7.7638604356819885"><ele>515.0</ele><time>2026-04-02T17:41:49.999Z</time></trkpt><trkpt lat="44.341245756405385" lon="7.763946288513984"><ele>515.0</ele><time>2026-04-02T17:41:50.998Z</time></trkpt><trkpt lat="44.34133221398676" lon="7.764034615094978"><ele>515.0</ele><time>2026-04-02T17:41:51.998Z</time></trkpt><trkpt lat="44.34142095296612" lon="7.764128336865479"><ele>515.2</ele><time>2026-04-02T17:41:52.998Z</time></trkpt><trkpt lat="44.34150452196836" lon="7.764223155328489"><ele>515.4</ele><time>2026-04-02T17:41:53.998Z</time></trkpt><trkpt lat="44.34158790751919" lon="7.764322923543416"><ele>515.6</ele><time>2026-04-02T17:41:54.998Z</time></trkpt><trkpt lat="44.34166589137952" lon="7.7644141956519634"><ele>515.8</ele><time>2026-04-02T17:41:55.998Z</time></trkpt><trkpt lat="44.341739638783814" lon="7.764505510409102"><ele>516.0</ele><time>2026-04-02T17:41:56.998Z</time></trkpt><trkpt lat="44.3418184131973" lon="7.764586895507536"><ele>516.0</ele><time>2026-04-02T17:41:57.998Z</time></trkpt><trkpt lat="44.3418874480005" lon="7.764693367345879"><ele>516.0</ele><time>2026-04-02T17:41:58.998Z</time></trkpt><trkpt lat="44.341957394392466" lon="7.764795137734541"><ele>516.0</ele><time>2026-04-02T17:41:59.998Z</time></trkpt><trkpt lat="44.342032114731566" lon="7.764899376078243"><ele>516.0</ele><time>2026-04-02T17:42:00.998Z</time></trkpt><trkpt lat="44.34210029712816" lon="7.76500900775854"><ele>516.0</ele><time>2026-04-02T17:42:01.998Z</time></trkpt><trkpt lat="44.34217274175397" lon="7.76511858108164"><ele>516.4</ele><time>2026-04-02T17:42:02.998Z</time></trkpt><trkpt lat="44.342246777250374" lon="7.765234216834619"><ele>516.8</ele><time>2026-04-02T17:42:03.998Z</time></trkpt><trkpt lat="44.34231258411224" lon="7.765352463130328"><ele>517.1999999999999</ele><time>2026-04-02T17:42:04.998Z</time></trkpt><trkpt lat="44.34237983615832" lon="7.765473582114752"><ele>517.6</ele><time>2026-04-02T17:42:05.998Z</time></trkpt><trkpt lat="44.34244422275239" lon="7.76559577269704"><ele>518.0</ele><time>2026-04-02T17:42:06.998Z</time></trkpt><trkpt lat="44.342518583880214" lon="7.765717334620357"><ele>518.0</ele><time>2026-04-02T17:42:07.998Z</time></trkpt><trkpt lat="44.342587265105784" lon="7.7658379951479395"><ele>518.0</ele><time>2026-04-02T17:42:08.998Z</time></trkpt><trkpt lat="44.34265822437901" lon="7.765951388631897"><ele>518.0</ele><time>2026-04-02T17:42:09.998Z</time></trkpt><trkpt lat="44.34273029240169" lon="7.766071088772875"><ele>518.0</ele><time>2026-04-02T17:42:10.998Z</time></trkpt><trkpt lat="44.342797469105804" lon="7.7661879448724465"><ele>518.0</ele><time>2026-04-02T17:42:11.998Z</time></trkpt><trkpt lat="44.34287190773166" lon="7.766296285067091"><ele>518.4</ele><time>2026-04-02T17:42:12.998Z</time></trkpt><trkpt lat="44.34294547239802" lon="7.766402295400845"><ele>518.8</ele><time>2026-04-02T17:42:13.998Z</time></trkpt><trkpt lat="44.34302228350838" lon="7.766501342115461"><ele>519.2</ele><time>2026-04-02T17:42:14.998Z</time></trkpt><trkpt lat="44.343109464862934" lon="7.766587241524651"><ele>519.6</ele><time>2026-04-02T17:42:15.998Z</time></trkpt><trkpt lat="44.34320068174605" lon="7.766666400043725"><ele>520.0</ele><time>2026-04-02T17:42:16.998Z</time></trkpt><trkpt lat="44.343295216611615" lon="7.7667359685199955"><ele>520.0</ele><time>2026-04-02T17:42:18Z</time></trkpt><trkpt lat="44.34339119559473" lon="7.766792639827306"><ele>520.0</ele><time>2026-04-02T17:42:19Z</time></trkpt><trkpt lat="44.34348769800516" lon="7.766827397508578"><ele>520.0</ele><time>2026-04-02T17:42:20Z</time></trkpt><trkpt lat="44.34359304846782" lon="7.766851539962352"><ele>520.0</ele><time>2026-04-02T17:42:21Z</time></trkpt><trkpt lat="44.343694839007185" lon="7.766859700848901"><ele>520.0</ele><time>2026-04-02T17:42:22Z</time></trkpt><trkpt lat="44.34380834429204" lon="7.766849533347578"><ele>520.4</ele><time>2026-04-02T17:42:23Z</time></trkpt><trkpt lat="44.343932673888354" lon="7.766843129784387"><ele>520.8</ele><time>2026-04-02T17:42:24Z</time></trkpt><trkpt lat="44.344032678391294" lon="7.766838841172617"><ele>521.2</ele><time>2026-04-02T17:42:25Z</time></trkpt><trkpt lat="44.34413267420842" lon="7.766835405602234"><ele>521.6</ele><time>2026-04-02T17:42:26Z</time></trkpt><trkpt lat="44.3442370800268" lon="7.76682482134326"><ele>522.0</ele><time>2026-04-02T17:42:27Z</time></trkpt><trkpt lat="44.34433718888832" lon="7.766815845733241"><ele>522.0</ele><time>2026-04-02T17:42:28Z</time></trkpt><trkpt lat="44.34444499725669" lon="7.766806310135987"><ele>522.0</ele><time>2026-04-02T17:42:29Z</time></trkpt><trkpt lat="44.344542342668674" lon="7.7667991555058205"><ele>522.0</ele><time>2026-04-02T17:42:30Z</time></trkpt><trkpt lat="44.34464412225599" lon="7.766791989265442"><ele>522.0</ele><time>2026-04-02T17:42:31Z</time></trkpt><trkpt lat="44.34474457268098" lon="7.766780424590456"><ele>522.0</ele><time>2026-04-02T17:42:32Z</time></trkpt><trkpt lat="44.344853917956485" lon="7.766773325000929"><ele>522.2</ele><time>2026-04-02T17:42:33Z</time></trkpt><trkpt lat="44.34496050006457" lon="7.766761324090486"><ele>522.4000000000001</ele><time>2026-04-02T17:42:34Z</time></trkpt><trkpt lat="44.345066676643505" lon="7.766759952254757"><ele>522.5999999999999</ele><time>2026-04-02T17:42:35Z</time></trkpt><trkpt lat="44.34518339400089" lon="7.766759724942186"><ele>522.8</ele><time>2026-04-02T17:42:36Z</time></trkpt><trkpt lat="44.345284730677506" lon="7.76675932484856"><ele>523.0</ele><time>2026-04-02T17:42:37Z</time></trkpt><trkpt lat="44.345387969580116" lon="7.766767533481798"><ele>523.0</ele><time>2026-04-02T17:42:38Z</time></trkpt><trkpt lat="44.345489249205045" lon="7.766789841180552"><ele>523.0</ele><time>2026-04-02T17:42:39Z</time></trkpt><trkpt lat="44.345593280509554" lon="7.766824012319855"><ele>523.0</ele><time>2026-04-02T17:42:40Z</time></trkpt><trkpt lat="44.34570110839142" lon="7.7668786461321435"><ele>523.0</ele><time>2026-04-02T17:42:41Z</time></trkpt><trkpt lat="44.34579746598013" lon="7.766945544231498"><ele>523.0</ele><time>2026-04-02T17:42:42Z</time></trkpt><trkpt lat="44.34588721578994" lon="7.7670248913411175"><ele>522.8</ele><time>2026-04-02T17:42:43Z</time></trkpt><trkpt lat="44.345973448122095" lon="7.767111258938361"><ele>522.5999999999999</ele><time>2026-04-02T17:42:44Z</time></trkpt><trkpt lat="44.34605241117917" lon="7.767189952809535"><ele>522.4000000000001</ele><time>2026-04-02T17:42:45Z</time></trkpt><trkpt lat="44.34611903420791" lon="7.767279505178075"><ele>522.2</ele><time>2026-04-02T17:42:46Z</time></trkpt><trkpt lat="44.34618683751736" lon="7.767385762796808"><ele>522.0</ele><time>2026-04-02T17:42:47Z</time></trkpt><trkpt lat="44.34624982334093" lon="7.767504378739927"><ele>522.0</ele><time>2026-04-02T17:42:48Z</time></trkpt><trkpt lat="44.346308100962105" lon="7.767630785330936"><ele>522.0</ele><time>2026-04-02T17:42:49Z</time></trkpt><trkpt lat="44.34635957416676" lon="7.767757347324005"><ele>522.0</ele><time>2026-04-02T17:42:50Z</time></trkpt><trkpt lat="44.346405614324055" lon="7.767881802466742"><ele>522.0</ele><time>2026-04-02T17:42:51Z</time></trkpt><trkpt lat="44.34645322862974" lon="7.768001794710459"><ele>522.0</ele><time>2026-04-02T17:42:52Z</time></trkpt><trkpt lat="44.346506548066216" lon="7.768123336384084"><ele>521.8000000000001</ele><time>2026-04-02T17:42:53Z</time></trkpt><trkpt lat="44.34655784568627" lon="7.768245520379824"><ele>521.6</ele><time>2026-04-02T17:42:54Z</time></trkpt><trkpt lat="44.34662136118952" lon="7.7683571637872815"><ele>521.4000000000001</ele><time>2026-04-02T17:42:55Z</time></trkpt><trkpt lat="44.3466746641688" lon="7.768475698220443"><ele>521.2</ele><time>2026-04-02T17:42:56Z</time></trkpt><trkpt lat="44.3467278076738" lon="7.768583522864792"><ele>521.0</ele><time>2026-04-02T17:42:57Z</time></trkpt><trkpt lat="44.34678645641393" lon="7.768694218905583"><ele>520.4</ele><time>2026-04-02T17:42:58Z</time></trkpt><trkpt lat="44.34685250418488" lon="7.768820896383023"><ele>519.8</ele><time>2026-04-02T17:42:59Z</time></trkpt><trkpt lat="44.34690183596304" lon="7.768940742026859"><ele>519.1999999999999</ele><time>2026-04-02T17:42:59.999Z</time></trkpt><trkpt lat="44.346959504204854" lon="7.76906645855666"><ele>518.6</ele><time>2026-04-02T17:43:00.999Z</time></trkpt><trkpt lat="44.34701358934718" lon="7.769186172053405"><ele>518.0</ele><time>2026-04-02T17:43:01.999Z</time></trkpt><trkpt lat="44.347066694661876" lon="7.769299071207269"><ele>517.6</ele><time>2026-04-02T17:43:02.999Z</time></trkpt><trkpt lat="44.3471169984433" lon="7.769410276503854"><ele>517.1999999999999</ele><time>2026-04-02T17:43:03.999Z</time></trkpt><trkpt lat="44.34716589470765" lon="7.769519673654312"><ele>516.8</ele><time>2026-04-02T17:43:04.999Z</time></trkpt><trkpt lat="44.34721746538527" lon="7.769627327959269"><ele>516.4</ele><time>2026-04-02T17:43:05.999Z</time></trkpt><trkpt lat="44.347269580959725" lon="7.769732260693167"><ele>516.0</ele><time>2026-04-02T17:43:06.999Z</time></trkpt><trkpt lat="44.34731897949035" lon="7.769831430839528"><ele>515.9999999999999</ele><time>2026-04-02T17:43:07.999Z</time></trkpt><trkpt lat="44.34735702682693" lon="7.76992320938406"><ele>516.0</ele><time>2026-04-02T17:43:08.999Z</time></trkpt><trkpt lat="44.34739276218974" lon="7.770011895533595"><ele>516.0</ele><time>2026-04-02T17:43:09.999Z</time></trkpt><trkpt lat="44.34742492832592" lon="7.770105770199859"><ele>516.0</ele><time>2026-04-02T17:43:10.999Z</time></trkpt><trkpt lat="44.34744401480905" lon="7.770199640154113"><ele>516.0</ele><time>2026-04-02T17:43:11.999Z</time></trkpt><trkpt lat="44.347464092447964" lon="7.770291865338955"><ele>515.9999999999999</ele><time>2026-04-02T17:43:12.999Z</time></trkpt><trkpt lat="44.34749516048248" lon="7.770399706870777"><ele>516.0</ele><time>2026-04-02T17:43:13.999Z</time></trkpt><trkpt lat="44.34756594890146" lon="7.770477310057092"><ele>515.5</ele><time>2026-04-02T17:43:14.999Z</time></trkpt><trkpt lat="44.34761912541832" lon="7.770568663807256"><ele>515.0</ele><time>2026-04-02T17:43:15.999Z</time></trkpt><trkpt lat="44.34766290793282" lon="7.770660988755379"><ele>514.5</ele><time>2026-04-02T17:43:16.999Z</time></trkpt><trkpt lat="44.34769434562013" lon="7.770773284096636"><ele>514.0</ele><time>2026-04-02T17:43:17.999Z</time></trkpt><trkpt lat="44.34772491616826" lon="7.770882601293916"><ele>513.5</ele><time>2026-04-02T17:43:18.999Z</time></trkpt><trkpt lat="44.34774827340794" lon="7.770981963605092"><ele>513.0</ele><time>2026-04-02T17:43:19.999Z</time></trkpt><trkpt lat="44.347756674879754" lon="7.7710849388621455"><ele>512.3333333333334</ele><time>2026-04-02T17:43:20.999Z</time></trkpt><trkpt lat="44.34775701899077" lon="7.771195576176297"><ele>511.66666666666663</ele><time>2026-04-02T17:43:21.999Z</time></trkpt><trkpt lat="44.34777508475987" lon="7.7712864578203185"><ele>511.0</ele><time>2026-04-02T17:43:22.999Z</time></trkpt><trkpt lat="44.347760314534256" lon="7.771373545001264"><ele>510.3333333333333</ele><time>2026-04-02T17:43:23.999Z</time></trkpt><trkpt lat="44.34781820437133" lon="7.771523138298298"><ele>509.66666666666663</ele><time>2026-04-02T17:43:25.999Z</time></trkpt><trkpt lat="44.34787672167439" lon="7.771572904860427"><ele>509.0</ele><time>2026-04-02T17:43:26.999Z</time></trkpt><trkpt lat="44.34794768286356" lon="7.771616577778162"><ele>508.99999999999994</ele><time>2026-04-02T17:43:27.999Z</time></trkpt><trkpt lat="44.348026508874355" lon="7.771674539895047"><ele>509.0</ele><time>2026-04-02T17:43:28.999Z</time></trkpt><trkpt lat="44.348100632689274" lon="7.771749058512446"><ele>509.0</ele><time>2026-04-02T17:43:29.999Z</time></trkpt><trkpt lat="44.34816549258816" lon="7.771816347820222"><ele>509.0</ele><time>2026-04-02T17:43:30.999Z</time></trkpt><trkpt lat="44.34822981305" lon="7.771909863127735"><ele>508.99999999999994</ele><time>2026-04-02T17:43:31.999Z</time></trkpt><trkpt lat="44.348290873355715" lon="7.771996958908597"><ele>509.0</ele><time>2026-04-02T17:43:32.999Z</time></trkpt><trkpt lat="44.348352623970406" lon="7.772083794939172"><ele>509.0</ele><time>2026-04-02T17:43:33.999Z</time></trkpt><trkpt lat="44.34841499997521" lon="7.772180573172615"><ele>509.0</ele><time>2026-04-02T17:43:34.999Z</time></trkpt><trkpt lat="44.34847172244715" lon="7.772277492882637"><ele>509.0</ele><time>2026-04-02T17:43:35.999Z</time></trkpt><trkpt lat="44.34853226050143" lon="7.772373032400758"><ele>509.0</ele><time>2026-04-02T17:43:36.999Z</time></trkpt><trkpt lat="44.348587707556746" lon="7.772476434328355"><ele>509.0</ele><time>2026-04-02T17:43:37.999Z</time></trkpt><trkpt lat="44.3486446737675" lon="7.772585449534663"><ele>508.79999999999995</ele><time>2026-04-02T17:43:38.999Z</time></trkpt><trkpt lat="44.34869582258326" lon="7.772699762129065"><ele>508.59999999999997</ele><time>2026-04-02T17:43:39.999Z</time></trkpt><trkpt lat="44.3487495901662" lon="7.772816904401405"><ele>508.4</ele><time>2026-04-02T17:43:40.999Z</time></trkpt><trkpt lat="44.34880060131235" lon="7.772934369888008"><ele>508.2</ele><time>2026-04-02T17:43:41.999Z</time></trkpt><trkpt lat="44.34884390712216" lon="7.7730591659835016"><ele>508.0</ele><time>2026-04-02T17:43:42.999Z</time></trkpt><trkpt lat="44.34889411570684" lon="7.773181896628858"><ele>508.0</ele><time>2026-04-02T17:43:43.999Z</time></trkpt><trkpt lat="44.34894882160311" lon="7.773306281738101"><ele>507.99999999999994</ele><time>2026-04-02T17:43:44.999Z</time></trkpt><trkpt lat="44.34900551923719" lon="7.773425288172238"><ele>507.99999999999994</ele><time>2026-04-02T17:43:45.999Z</time></trkpt><trkpt lat="44.34906232383422" lon="7.773548185276152"><ele>508.0</ele><time>2026-04-02T17:43:46.999Z</time></trkpt><trkpt lat="44.349113428660424" lon="7.773661270529017"><ele>508.0</ele><time>2026-04-02T17:43:47.999Z</time></trkpt><trkpt lat="44.34917710100475" lon="7.773791795476472"><ele>508.0</ele><time>2026-04-02T17:43:48.999Z</time></trkpt><trkpt lat="44.3492308306862" lon="7.773923198257041"><ele>507.99999999999994</ele><time>2026-04-02T17:43:49.999Z</time></trkpt><trkpt lat="44.349291925707064" lon="7.774053988635149"><ele>507.99999999999994</ele><time>2026-04-02T17:43:50.999Z</time></trkpt><trkpt lat="44.34934490531556" lon="7.774176786182834"><ele>508.0</ele><time>2026-04-02T17:43:51.999Z</time></trkpt><trkpt lat="44.3493942870645" lon="7.774294269497959"><ele>508.0</ele><time>2026-04-02T17:43:52.999Z</time></trkpt><trkpt lat="44.34945201079439" lon="7.774417263548511"><ele>507.79999999999995</ele><time>2026-04-02T17:43:53.999Z</time></trkpt><trkpt lat="44.34950245254839" lon="7.77454709713322"><ele>507.59999999999997</ele><time>2026-04-02T17:43:54.999Z</time></trkpt><trkpt lat="44.349554524122006" lon="7.774658496604926"><ele>507.40000000000003</ele><time>2026-04-02T17:43:55.998Z</time></trkpt><trkpt lat="44.34960556923187" lon="7.774776407673738"><ele>507.20000000000005</ele><time>2026-04-02T17:43:56.998Z</time></trkpt><trkpt lat="44.34965566561583" lon="7.7748975178934385"><ele>507.0</ele><time>2026-04-02T17:43:57.998Z</time></trkpt><trkpt lat="44.34971021714208" lon="7.7750274466019125"><ele>507.0</ele><time>2026-04-02T17:43:58.998Z</time></trkpt><trkpt lat="44.349759038111046" lon="7.775147249289811"><ele>507.00000000000006</ele><time>2026-04-02T17:43:59.998Z</time></trkpt><trkpt lat="44.349810425935125" lon="7.775270168594847"><ele>507.00000000000006</ele><time>2026-04-02T17:44:00.998Z</time></trkpt><trkpt lat="44.349864286255965" lon="7.775390734416299"><ele>507.0</ele><time>2026-04-02T17:44:01.998Z</time></trkpt><trkpt lat="44.34991852008639" lon="7.775516721015058"><ele>507.0</ele><time>2026-04-02T17:44:02.998Z</time></trkpt><trkpt lat="44.3499756121779" lon="7.775642838089807"><ele>506.6</ele><time>2026-04-02T17:44:03.998Z</time></trkpt><trkpt lat="44.35002890997119" lon="7.7757526423424155"><ele>506.20000000000005</ele><time>2026-04-02T17:44:04.998Z</time></trkpt><trkpt lat="44.35007935587922" lon="7.775872748737618"><ele>505.8</ele><time>2026-04-02T17:44:05.998Z</time></trkpt><trkpt lat="44.35014159290212" lon="7.775999898704758"><ele>505.4</ele><time>2026-04-02T17:44:06.998Z</time></trkpt><trkpt lat="44.3501906578549" lon="7.776118853884841"><ele>505.0</ele><time>2026-04-02T17:44:07.998Z</time></trkpt><trkpt lat="44.350252407052025" lon="7.776251990506256"><ele>505.0</ele><time>2026-04-02T17:44:08.998Z</time></trkpt><trkpt lat="44.3503038537159" lon="7.77638117656444"><ele>505.0</ele><time>2026-04-02T17:44:09.998Z</time></trkpt><trkpt lat="44.35035795727365" lon="7.776515963668322"><ele>505.0</ele><time>2026-04-02T17:44:10.998Z</time></trkpt><trkpt lat="44.35041620977001" lon="7.776657672686691"><ele>505.0</ele><time>2026-04-02T17:44:11.998Z</time></trkpt><trkpt lat="44.35047379821984" lon="7.776808692075231"><ele>504.25</ele><time>2026-04-02T17:44:12.998Z</time></trkpt><trkpt lat="44.350542765866706" lon="7.77695117270666"><ele>503.5</ele><time>2026-04-02T17:44:13.998Z</time></trkpt><trkpt lat="44.35061098658038" lon="7.777091083853764"><ele>502.75</ele><time>2026-04-02T17:44:14.998Z</time></trkpt><trkpt lat="44.35067159083854" lon="7.777228822044168"><ele>502.0</ele><time>2026-04-02T17:44:15.998Z</time></trkpt><trkpt lat="44.35072858425849" lon="7.777357005659015"><ele>502.0</ele><time>2026-04-02T17:44:16.998Z</time></trkpt><trkpt lat="44.350793235911986" lon="7.777484442620415"><ele>502.0</ele><time>2026-04-02T17:44:17.998Z</time></trkpt><trkpt lat="44.35084632010672" lon="7.7776176748663985"><ele>502.0</ele><time>2026-04-02T17:44:18.998Z</time></trkpt><trkpt lat="44.350901264184884" lon="7.777757682704112"><ele>502.0</ele><time>2026-04-02T17:44:19.998Z</time></trkpt><trkpt lat="44.350960782933875" lon="7.777898371387676"><ele>501.40000000000003</ele><time>2026-04-02T17:44:20.998Z</time></trkpt><trkpt lat="44.35101885348171" lon="7.7780267250834365"><ele>500.80000000000007</ele><time>2026-04-02T17:44:21.998Z</time></trkpt><trkpt lat="44.351084005726186" lon="7.778152913443997"><ele>500.2</ele><time>2026-04-02T17:44:22.998Z</time></trkpt><trkpt lat="44.35114568742365" lon="7.778290416387275"><ele>499.6</ele><time>2026-04-02T17:44:24Z</time></trkpt><trkpt lat="44.35120244766204" lon="7.778418823687238"><ele>499.0</ele><time>2026-04-02T17:44:25Z</time></trkpt><trkpt lat="44.351259849502064" lon="7.77854671330631"><ele>499.2</ele><time>2026-04-02T17:44:26Z</time></trkpt><trkpt lat="44.3513170961161" lon="7.778661710211373"><ele>499.4</ele><time>2026-04-02T17:44:27Z</time></trkpt><trkpt lat="44.351371973079324" lon="7.778789208857209"><ele>499.6</ele><time>2026-04-02T17:44:28Z</time></trkpt><trkpt lat="44.3514363780309" lon="7.778901623093137"><ele>499.8</ele><time>2026-04-02T17:44:29Z</time></trkpt><trkpt lat="44.35150303816103" lon="7.779024753558896"><ele>500.0</ele><time>2026-04-02T17:44:30Z</time></trkpt><trkpt lat="44.35155431820303" lon="7.779153323423664"><ele>500.0</ele><time>2026-04-02T17:44:31Z</time></trkpt><trkpt lat="44.35160370287247" lon="7.779277939666289"><ele>500.0</ele><time>2026-04-02T17:44:32Z</time></trkpt><trkpt lat="44.35166004415032" lon="7.77939910672524"><ele>500.0</ele><time>2026-04-02T17:44:33Z</time></trkpt><trkpt lat="44.351711545179604" lon="7.779532537495347"><ele>500.0</ele><time>2026-04-02T17:44:34Z</time></trkpt><trkpt lat="44.35176703804995" lon="7.779667288823104"><ele>500.0</ele><time>2026-04-02T17:44:35Z</time></trkpt><trkpt lat="44.351832179747156" lon="7.779801103338066"><ele>499.8</ele><time>2026-04-02T17:44:36Z</time></trkpt><trkpt lat="44.351889735067935" lon="7.779925484549545"><ele>499.6</ele><time>2026-04-02T17:44:37Z</time></trkpt><trkpt lat="44.35194799829283" lon="7.780043818869041"><ele>499.4</ele><time>2026-04-02T17:44:38Z</time></trkpt><trkpt lat="44.352003370321164" lon="7.780167932276175"><ele>499.2</ele><time>2026-04-02T17:44:39Z</time></trkpt><trkpt lat="44.352061675671266" lon="7.780297969912579"><ele>499.0</ele><time>2026-04-02T17:44:40Z</time></trkpt><trkpt lat="44.352117676319715" lon="7.7804282176704485"><ele>499.0</ele><time>2026-04-02T17:44:41Z</time></trkpt><trkpt lat="44.35217804500655" lon="7.780552451462426"><ele>499.0</ele><time>2026-04-02T17:44:42Z</time></trkpt><trkpt lat="44.35222875765019" lon="7.780687895819012"><ele>499.0</ele><time>2026-04-02T17:44:43Z</time></trkpt><trkpt lat="44.3522851674602" lon="7.780810551374081"><ele>499.0</ele><time>2026-04-02T17:44:44Z</time></trkpt><trkpt lat="44.35234096264122" lon="7.780944671420274"><ele>499.0</ele><time>2026-04-02T17:44:45Z</time></trkpt><trkpt lat="44.352388452470215" lon="7.781069953256911"><ele>499.2</ele><time>2026-04-02T17:44:46Z</time></trkpt><trkpt lat="44.35243803055323" lon="7.781183789818889"><ele>499.4</ele><time>2026-04-02T17:44:47Z</time></trkpt><trkpt lat="44.35249210904157" lon="7.781302457129603"><ele>499.6</ele><time>2026-04-02T17:44:48Z</time></trkpt><trkpt lat="44.35255239562479" lon="7.781425473496638"><ele>499.8</ele><time>2026-04-02T17:44:49Z</time></trkpt><trkpt lat="44.35261625252254" lon="7.781544130720124"><ele>500.0</ele><time>2026-04-02T17:44:50Z</time></trkpt><trkpt lat="44.35267161959864" lon="7.78165276381188"><ele>500.0</ele><time>2026-04-02T17:44:51Z</time></trkpt><trkpt lat="44.35272725207143" lon="7.7817818394497555"><ele>500.0</ele><time>2026-04-02T17:44:52Z</time></trkpt><trkpt lat="44.35278870244158" lon="7.781914704558552"><ele>500.0</ele><time>2026-04-02T17:44:53Z</time></trkpt><trkpt lat="44.35284137612337" lon="7.782042529008845"><ele>500.0</ele><time>2026-04-02T17:44:54Z</time></trkpt><trkpt lat="44.35290555707255" lon="7.782175652822771"><ele>500.0</ele><time>2026-04-02T17:44:55Z</time></trkpt><trkpt lat="44.35295738890279" lon="7.782310286888319"><ele>499.8</ele><time>2026-04-02T17:44:56Z</time></trkpt><trkpt lat="44.35302072273393" lon="7.782438352584022"><ele>499.6</ele><time>2026-04-02T17:44:57Z</time></trkpt><trkpt lat="44.35307410779055" lon="7.782566504801043"><ele>499.4</ele><time>2026-04-02T17:44:58Z</time></trkpt><trkpt lat="44.35313275907925" lon="7.782694162891147"><ele>499.2</ele><time>2026-04-02T17:44:59Z</time></trkpt><trkpt lat="44.35318631092028" lon="7.782827189625145"><ele>499.0</ele><time>2026-04-02T17:45:00Z</time></trkpt><trkpt lat="44.35324387483135" lon="7.78295705921137"><ele>498.5</ele><time>2026-04-02T17:45:01Z</time></trkpt><trkpt lat="44.353305469013215" lon="7.783079585800007"><ele>498.0</ele><time>2026-04-02T17:45:02Z</time></trkpt><trkpt lat="44.35335902941552" lon="7.7832038582046765"><ele>497.5</ele><time>2026-04-02T17:45:03Z</time></trkpt><trkpt lat="44.35342646186665" lon="7.783344873479373"><ele>497.0</ele><time>2026-04-02T17:45:04Z</time></trkpt><trkpt lat="44.3534899442815" lon="7.783491473207096"><ele>496.40000000000003</ele><time>2026-04-02T17:45:05Z</time></trkpt><trkpt lat="44.35354773753584" lon="7.783614908402659"><ele>495.80000000000007</ele><time>2026-04-02T17:45:06Z</time></trkpt><trkpt lat="44.35360779951321" lon="7.783737148044813"><ele>495.2</ele><time>2026-04-02T17:45:06.999Z</time></trkpt><trkpt lat="44.35367265429238" lon="7.783854680185128"><ele>494.6</ele><time>2026-04-02T17:45:07.999Z</time></trkpt><trkpt lat="44.353740352896374" lon="7.78400003756633"><ele>494.0</ele><time>2026-04-02T17:45:08.999Z</time></trkpt><trkpt lat="44.35380008861458" lon="7.784142302247495"><ele>494.0</ele><time>2026-04-02T17:45:09.999Z</time></trkpt><trkpt lat="44.35385985931915" lon="7.784275017240405"><ele>494.0</ele><time>2026-04-02T17:45:10.999Z</time></trkpt><trkpt lat="44.35391784889843" lon="7.784398842264591"><ele>494.0</ele><time>2026-04-02T17:45:11.999Z</time></trkpt><trkpt lat="44.35397746005627" lon="7.784539894421549"><ele>494.0</ele><time>2026-04-02T17:45:12.999Z</time></trkpt><trkpt lat="44.35403106018672" lon="7.7846742504723245"><ele>494.0</ele><time>2026-04-02T17:45:13.999Z</time></trkpt><trkpt lat="44.354084165332665" lon="7.784789691512542"><ele>494.2</ele><time>2026-04-02T17:45:14.999Z</time></trkpt><trkpt lat="44.35413072811652" lon="7.7849026976988425"><ele>494.4</ele><time>2026-04-02T17:45:15.999Z</time></trkpt><trkpt lat="44.3541864952749" lon="7.785004472997392"><ele>494.6</ele><time>2026-04-02T17:45:16.999Z</time></trkpt><trkpt lat="44.35424936592013" lon="7.78511854861549"><ele>494.8</ele><time>2026-04-02T17:45:17.999Z</time></trkpt><trkpt lat="44.3542929228806" lon="7.785207798202429"><ele>495.0</ele><time>2026-04-02T17:45:18.999Z</time></trkpt><trkpt lat="44.354345006207076" lon="7.785307671734201"><ele>494.4</ele><time>2026-04-02T17:45:19.999Z</time></trkpt><trkpt lat="44.35438738745926" lon="7.785415047348918"><ele>493.8</ele><time>2026-04-02T17:45:20.999Z</time></trkpt><trkpt lat="44.354427851261285" lon="7.785526107647702"><ele>493.20000000000005</ele><time>2026-04-02T17:45:21.999Z</time></trkpt><trkpt lat="44.354469980356356" lon="7.785632982891477"><ele>492.6</ele><time>2026-04-02T17:45:22.999Z</time></trkpt><trkpt lat="44.354529203893726" lon="7.78575050123197"><ele>492.0</ele><time>2026-04-02T17:45:23.999Z</time></trkpt><trkpt lat="44.35461788634728" lon="7.785867149751477"><ele>492.25</ele><time>2026-04-02T17:45:24.999Z</time></trkpt><trkpt lat="44.35472549577643" lon="7.785964726169133"><ele>492.5</ele><time>2026-04-02T17:45:25.999Z</time></trkpt><trkpt lat="44.35485728974316" lon="7.786021163774011"><ele>492.75</ele><time>2026-04-02T17:45:26.999Z</time></trkpt><trkpt lat="44.35496176223007" lon="7.786188777893307"><ele>493.0</ele><time>2026-04-02T17:45:27.999Z</time></trkpt><trkpt lat="44.35509832244195" lon="7.78632481195535"><ele>492.33333333333337</ele><time>2026-04-02T17:45:28.999Z</time></trkpt><trkpt lat="44.35523587555234" lon="7.786458468479434"><ele>491.66666666666663</ele><time>2026-04-02T17:45:29.999Z</time></trkpt><trkpt lat="44.35538074957783" lon="7.786593405612505"><ele>491.0</ele><time>2026-04-02T17:45:30.999Z</time></trkpt><trkpt lat="44.355535769780055" lon="7.786735913925851"><ele>489.66666666666663</ele><time>2026-04-02T17:45:31.999Z</time></trkpt><trkpt lat="44.35568928810836" lon="7.786887239338288"><ele>488.33333333333337</ele><time>2026-04-02T17:45:32.999Z</time></trkpt><trkpt lat="44.35585959186157" lon="7.787032245632004"><ele>487.0</ele><time>2026-04-02T17:45:33.999Z</time></trkpt><trkpt lat="44.35602006474165" lon="7.787181379798039"><ele>487.0</ele><time>2026-04-02T17:45:34.999Z</time></trkpt><trkpt lat="44.35616238228449" lon="7.787328864175815"><ele>487.0</ele><time>2026-04-02T17:45:35.999Z</time></trkpt><trkpt lat="44.35630470127828" lon="7.7874544638665855"><ele>487.0</ele><time>2026-04-02T17:45:36.999Z</time></trkpt><trkpt lat="44.356436326525525" lon="7.78756283049463"><ele>486.8</ele><time>2026-04-02T17:45:37.999Z</time></trkpt><trkpt lat="44.35653372164493" lon="7.787644258384954"><ele>486.6</ele><time>2026-04-02T17:45:38.999Z</time></trkpt><trkpt lat="44.356623520629086" lon="7.787743255761688"><ele>486.40000000000003</ele><time>2026-04-02T17:45:39.999Z</time></trkpt><trkpt lat="44.35670230703095" lon="7.7878336771791545"><ele>486.20000000000005</ele><time>2026-04-02T17:45:40.999Z</time></trkpt><trkpt lat="44.35677632876504" lon="7.787916768820269"><ele>486.0</ele><time>2026-04-02T17:45:41.999Z</time></trkpt><trkpt lat="44.35682829968632" lon="7.788006404800007"><ele>486.0</ele><time>2026-04-02T17:45:42.999Z</time></trkpt><trkpt lat="44.35687386743141" lon="7.788095779783711"><ele>486.0</ele><time>2026-04-02T17:45:43.999Z</time></trkpt><trkpt lat="44.35690902054975" lon="7.788197392729349"><ele>486.0</ele><time>2026-04-02T17:45:44.999Z</time></trkpt><trkpt lat="44.35697819939114" lon="7.7882462810483455"><ele>486.0</ele><time>2026-04-02T17:45:45.999Z</time></trkpt><trkpt lat="44.3570486958058" lon="7.78828950348323"><ele>486.0</ele><time>2026-04-02T17:45:46.999Z</time></trkpt><trkpt lat="44.35715008932073" lon="7.788324791339711"><ele>486.0</ele><time>2026-04-02T17:45:47.999Z</time></trkpt><trkpt lat="44.35725962088521" lon="7.788359377731156"><ele>485.75</ele><time>2026-04-02T17:45:48.999Z</time></trkpt><trkpt lat="44.35737950892656" lon="7.788436131102239"><ele>485.5</ele><time>2026-04-02T17:45:49.999Z</time></trkpt><trkpt lat="44.35749733364947" lon="7.788542046244909"><ele>485.25</ele><time>2026-04-02T17:45:50.999Z</time></trkpt><trkpt lat="44.35761854667783" lon="7.7886642391982654"><ele>485.0</ele><time>2026-04-02T17:45:51.999Z</time></trkpt><trkpt lat="44.35775592970568" lon="7.788798614298611"><ele>484.66666666666663</ele><time>2026-04-02T17:45:52.999Z</time></trkpt><trkpt lat="44.357895855012025" lon="7.788928480484294"><ele>484.33333333333337</ele><time>2026-04-02T17:45:53.999Z</time></trkpt><trkpt lat="44.358043699601616" lon="7.789065543465967"><ele>484.0</ele><time>2026-04-02T17:45:54.999Z</time></trkpt><trkpt lat="44.35819932422727" lon="7.789213641766878"><ele>483.33333333333337</ele><time>2026-04-02T17:45:55.999Z</time></trkpt><trkpt lat="44.358360413491994" lon="7.789368209881031"><ele>482.66666666666663</ele><time>2026-04-02T17:45:56.999Z</time></trkpt><trkpt lat="44.358517764037266" lon="7.7895348082038955"><ele>482.0</ele><time>2026-04-02T17:45:57.999Z</time></trkpt><trkpt lat="44.358685562043064" lon="7.789692440408046"><ele>482.0</ele><time>2026-04-02T17:45:58.999Z</time></trkpt><trkpt lat="44.358854041978965" lon="7.7898628731051485"><ele>482.0</ele><time>2026-04-02T17:45:59.999Z</time></trkpt><trkpt lat="44.359037888588205" lon="7.7900364399853235"><ele>482.0</ele><time>2026-04-02T17:46:00.999Z</time></trkpt><trkpt lat="44.35922081605544" lon="7.790240376791813"><ele>483.5</ele><time>2026-04-02T17:46:01.999Z</time></trkpt><trkpt lat="44.35941994608566" lon="7.790408679983903"><ele>485.0</ele><time>2026-04-02T17:46:02.998Z</time></trkpt><trkpt lat="44.35960383619483" lon="7.790612387333849"><ele>483.5</ele><time>2026-04-02T17:46:03.998Z</time></trkpt><trkpt lat="44.359798719254506" lon="7.790789788195855"><ele>482.0</ele><time>2026-04-02T17:46:04.998Z</time></trkpt><trkpt lat="44.35999237796852" lon="7.790981289106798"><ele>482.5</ele><time>2026-04-02T17:46:05.998Z</time></trkpt><trkpt lat="44.36019567512561" lon="7.791150209502333"><ele>483.0</ele><time>2026-04-02T17:46:06.998Z</time></trkpt><trkpt lat="44.36039281239759" lon="7.7913279403055355"><ele>482.0</ele><time>2026-04-02T17:46:07.998Z</time></trkpt><trkpt lat="44.36059239390576" lon="7.791499459706996"><ele>481.0</ele><time>2026-04-02T17:46:08.998Z</time></trkpt><trkpt lat="44.360787090780484" lon="7.791661658242182"><ele>481.0</ele><time>2026-04-02T17:46:09.998Z</time></trkpt><trkpt lat="44.36098954830395" lon="7.791828503861579"><ele>481.0</ele><time>2026-04-02T17:46:10.998Z</time></trkpt><trkpt lat="44.36117529344521" lon="7.792014903342689"><ele>481.5</ele><time>2026-04-02T17:46:11.998Z</time></trkpt><trkpt lat="44.361367376334044" lon="7.792195303199076"><ele>482.0</ele><time>2026-04-02T17:46:12.998Z</time></trkpt><trkpt lat="44.36155405656878" lon="7.7923706284417955"><ele>482.0</ele><time>2026-04-02T17:46:13.998Z</time></trkpt><trkpt lat="44.36174453075103" lon="7.792550128882079"><ele>482.0</ele><time>2026-04-02T17:46:14.998Z</time></trkpt><trkpt lat="44.36193529985442" lon="7.792729863755748"><ele>482.0</ele><time>2026-04-02T17:46:15.998Z</time></trkpt><trkpt lat="44.36212507475473" lon="7.79290866194422"><ele>482.0</ele><time>2026-04-02T17:46:16.998Z</time></trkpt><trkpt lat="44.362313038552635" lon="7.793085753768901"><ele>481.5</ele><time>2026-04-02T17:46:17.998Z</time></trkpt><trkpt lat="44.362504732890145" lon="7.7932640111799305"><ele>481.0</ele><time>2026-04-02T17:46:18.998Z</time></trkpt><trkpt lat="44.362696298056605" lon="7.79344192324612"><ele>480.0</ele><time>2026-04-02T17:46:19.998Z</time></trkpt><trkpt lat="44.36288392888786" lon="7.793616181433269"><ele>479.0</ele><time>2026-04-02T17:46:20.998Z</time></trkpt><trkpt lat="44.36307489281378" lon="7.79379581625969"><ele>479.0</ele><time>2026-04-02T17:46:21.998Z</time></trkpt><trkpt lat="44.36326272308767" lon="7.793973370385675"><ele>479.0</ele><time>2026-04-02T17:46:22.998Z</time></trkpt><trkpt lat="44.36345611315137" lon="7.794155874065753"><ele>479.0</ele><time>2026-04-02T17:46:23.998Z</time></trkpt><trkpt lat="44.36364786561826" lon="7.79433667211281"><ele>479.0</ele><time>2026-04-02T17:46:24.998Z</time></trkpt><trkpt lat="44.36384098118611" lon="7.794518755480222"><ele>477.5</ele><time>2026-04-02T17:46:25.998Z</time></trkpt><trkpt lat="44.36403443134796" lon="7.7947011551275995"><ele>476.0</ele><time>2026-04-02T17:46:26.998Z</time></trkpt><trkpt lat="44.364228756463504" lon="7.794883709701019"><ele>476.0</ele><time>2026-04-02T17:46:27.998Z</time></trkpt><trkpt lat="44.36443174915207" lon="7.7950744667810605"><ele>476.0</ele><time>2026-04-02T17:46:28.998Z</time></trkpt><trkpt lat="44.364640471092954" lon="7.795270607874573"><ele>476.5</ele><time>2026-04-02T17:46:30Z</time></trkpt><trkpt lat="44.36485270617783" lon="7.795470050248535"><ele>477.0</ele><time>2026-04-02T17:46:31Z</time></trkpt><trkpt lat="44.36505426040418" lon="7.795659455601608"><ele>477.0</ele><time>2026-04-02T17:46:32Z</time></trkpt><trkpt lat="44.36523259298855" lon="7.795827038714072"><ele>477.0</ele><time>2026-04-02T17:46:33Z</time></trkpt><trkpt lat="44.36540360429362" lon="7.795987742290071"><ele>477.0</ele><time>2026-04-02T17:46:34Z</time></trkpt><trkpt lat="44.365568723182584" lon="7.796142908090772"><ele>476.66666666666663</ele><time>2026-04-02T17:46:35Z</time></trkpt><trkpt lat="44.36573039822629" lon="7.796295702595399"><ele>476.3333333333333</ele><time>2026-04-02T17:46:36Z</time></trkpt><trkpt lat="44.36588796832138" lon="7.796444571212418"><ele>476.0</ele><time>2026-04-02T17:46:37Z</time></trkpt><trkpt lat="44.366035027285335" lon="7.796583509060841"><ele>476.0</ele><time>2026-04-02T17:46:38Z</time></trkpt><trkpt lat="44.366171922043684" lon="7.796712842956365"><ele>476.0</ele><time>2026-04-02T17:46:39Z</time></trkpt><trkpt lat="44.366315891695166" lon="7.796812182330491"><ele>476.0</ele><time>2026-04-02T17:46:40Z</time></trkpt><trkpt lat="44.36644971517997" lon="7.796933843003945"><ele>475.5</ele><time>2026-04-02T17:46:41Z</time></trkpt><trkpt lat="44.3665743009491" lon="7.797050067138501"><ele>475.0</ele><time>2026-04-02T17:46:42Z</time></trkpt><trkpt lat="44.36669712375107" lon="7.797165723654408"><ele>474.5</ele><time>2026-04-02T17:46:43Z</time></trkpt><trkpt lat="44.36679915656174" lon="7.7973032991385605"><ele>474.0</ele><time>2026-04-02T17:46:44Z</time></trkpt><trkpt lat="44.366920260650616" lon="7.797398630923939"><ele>474.0</ele><time>2026-04-02T17:46:45Z</time></trkpt><trkpt lat="44.36701813166327" lon="7.797498059048154"><ele>474.0</ele><time>2026-04-02T17:46:46Z</time></trkpt><trkpt lat="44.367110318209065" lon="7.79758844088407"><ele>474.0</ele><time>2026-04-02T17:46:47Z</time></trkpt><trkpt lat="44.36718806166342" lon="7.79767942201585"><ele>474.0</ele><time>2026-04-02T17:46:48Z</time></trkpt><trkpt lat="44.36725451202819" lon="7.797763271294961"><ele>474.0</ele><time>2026-04-02T17:46:49Z</time></trkpt><trkpt lat="44.367301204941725" lon="7.797853547418359"><ele>473.6666666666667</ele><time>2026-04-02T17:46:50Z</time></trkpt><trkpt lat="44.36733642073965" lon="7.797943253767886"><ele>473.33333333333337</ele><time>2026-04-02T17:46:51Z</time></trkpt><trkpt lat="44.367361606008224" lon="7.7980494692720015"><ele>473.0</ele><time>2026-04-02T17:46:52Z</time></trkpt><trkpt lat="44.3673716521285" lon="7.798179000081772"><ele>472.6666666666667</ele><time>2026-04-02T17:46:53Z</time></trkpt><trkpt lat="44.36737803100247" lon="7.798291005077097"><ele>472.33333333333337</ele><time>2026-04-02T17:46:54Z</time></trkpt><trkpt lat="44.36739548860144" lon="7.798395380754473"><ele>472.0</ele><time>2026-04-02T17:46:55Z</time></trkpt><trkpt lat="44.36742205990742" lon="7.798490517663412"><ele>471.50000000000006</ele><time>2026-04-02T17:46:56Z</time></trkpt><trkpt lat="44.3674643931554" lon="7.798575313493164"><ele>471.0</ele><time>2026-04-02T17:46:57Z</time></trkpt><trkpt lat="44.36752361294985" lon="7.798631071851789"><ele>470.5</ele><time>2026-04-02T17:46:58Z</time></trkpt><trkpt lat="44.36759106776846" lon="7.798703471707472"><ele>470.0</ele><time>2026-04-02T17:46:59Z</time></trkpt><trkpt lat="44.367688231132824" lon="7.798729669301651"><ele>469.50000000000006</ele><time>2026-04-02T17:47:00Z</time></trkpt><trkpt lat="44.36778813320023" lon="7.798717341591794"><ele>469.0</ele><time>2026-04-02T17:47:01Z</time></trkpt><trkpt lat="44.36788383614911" lon="7.798663641283869"><ele>469.0</ele><time>2026-04-02T17:47:02Z</time></trkpt><trkpt lat="44.3679844787081" lon="7.798638283228467"><ele>469.0</ele><time>2026-04-02T17:47:03Z</time></trkpt><trkpt lat="44.36808040980206" lon="7.7986293021411495"><ele>469.0</ele><time>2026-04-02T17:47:04Z</time></trkpt><trkpt lat="44.36818448177739" lon="7.798655318954626"><ele>469.0</ele><time>2026-04-02T17:47:05Z</time></trkpt><trkpt lat="44.36829295534689" lon="7.79867096381877"><ele>469.0</ele><time>2026-04-02T17:47:06Z</time></trkpt><trkpt lat="44.36840795810009" lon="7.798812150936179"><ele>469.25</ele><time>2026-04-02T17:47:07Z</time></trkpt><trkpt lat="44.368518475607644" lon="7.798924227028946"><ele>469.5</ele><time>2026-04-02T17:47:08Z</time></trkpt><trkpt lat="44.36862646495389" lon="7.799048716962287"><ele>469.75</ele><time>2026-04-02T17:47:09Z</time></trkpt><trkpt lat="44.368752257225076" lon="7.799174075404911"><ele>470.0</ele><time>2026-04-02T17:47:10Z</time></trkpt><trkpt lat="44.368875878539484" lon="7.799298119285019"><ele>469.66666666666663</ele><time>2026-04-02T17:47:11Z</time></trkpt><trkpt lat="44.36900955223007" lon="7.7994282471379845"><ele>469.33333333333337</ele><time>2026-04-02T17:47:12Z</time></trkpt><trkpt lat="44.36914645053094" lon="7.799566528369662"><ele>469.0</ele><time>2026-04-02T17:47:12.999Z</time></trkpt><trkpt lat="44.36929107633489" lon="7.799709662369393"><ele>469.0</ele><time>2026-04-02T17:47:13.999Z</time></trkpt><trkpt lat="44.369442858247375" lon="7.799868718288345"><ele>469.0</ele><time>2026-04-02T17:47:14.999Z</time></trkpt><trkpt lat="44.369599248819384" lon="7.800025043515806"><ele>469.0</ele><time>2026-04-02T17:47:15.999Z</time></trkpt><trkpt lat="44.36975473318165" lon="7.800190395575136"><ele>468.6666666666667</ele><time>2026-04-02T17:47:16.999Z</time></trkpt><trkpt lat="44.36990788919561" lon="7.800348985860064"><ele>468.33333333333337</ele><time>2026-04-02T17:47:17.999Z</time></trkpt><trkpt lat="44.370050279747524" lon="7.800499459430296"><ele>468.0</ele><time>2026-04-02T17:47:18.999Z</time></trkpt><trkpt lat="44.37019616161558" lon="7.800660380581139"><ele>468.0</ele><time>2026-04-02T17:47:19.999Z</time></trkpt><trkpt lat="44.37033867428495" lon="7.800822007208822"><ele>468.0</ele><time>2026-04-02T17:47:20.999Z</time></trkpt><trkpt lat="44.37047914892195" lon="7.800994544684095"><ele>468.0</ele><time>2026-04-02T17:47:21.999Z</time></trkpt><trkpt lat="44.37061533617827" lon="7.801177004951663"><ele>467.33333333333337</ele><time>2026-04-02T17:47:22.999Z</time></trkpt><trkpt lat="44.37074400129357" lon="7.8013720774066195"><ele>466.6666666666667</ele><time>2026-04-02T17:47:23.999Z</time></trkpt><trkpt lat="44.37086705263153" lon="7.8015739139544165"><ele>466.0</ele><time>2026-04-02T17:47:24.999Z</time></trkpt><trkpt lat="44.37098246038079" lon="7.801790372937072"><ele>465.0</ele><time>2026-04-02T17:47:25.999Z</time></trkpt><trkpt lat="44.371093309299624" lon="7.802007509429942"><ele>464.0</ele><time>2026-04-02T17:47:26.999Z</time></trkpt><trkpt lat="44.37119513017702" lon="7.802234295093172"><ele>463.0</ele><time>2026-04-02T17:47:27.999Z</time></trkpt><trkpt lat="44.371288203273934" lon="7.802468241483844"><ele>463.6666666666667</ele><time>2026-04-02T17:47:28.999Z</time></trkpt><trkpt lat="44.37137896102958" lon="7.802710178603892"><ele>464.33333333333337</ele><time>2026-04-02T17:47:29.999Z</time></trkpt><trkpt lat="44.371472668161886" lon="7.802955657825727"><ele>465.0</ele><time>2026-04-02T17:47:30.999Z</time></trkpt><trkpt lat="44.3715616522446" lon="7.803203145749729"><ele>465.0</ele><time>2026-04-02T17:47:31.999Z</time></trkpt><trkpt lat="44.37164230509442" lon="7.803437542802535"><ele>465.0</ele><time>2026-04-02T17:47:32.999Z</time></trkpt><trkpt lat="44.37172235830657" lon="7.803668864580807"><ele>465.0</ele><time>2026-04-02T17:47:33.999Z</time></trkpt><trkpt lat="44.37179497900985" lon="7.803903305258259"><ele>463.66666666666663</ele><time>2026-04-02T17:47:34.999Z</time></trkpt><trkpt lat="44.37186533294805" lon="7.804147074230576"><ele>462.3333333333333</ele><time>2026-04-02T17:47:35.999Z</time></trkpt><trkpt lat="44.37192582555871" lon="7.804379183202341"><ele>461.0</ele><time>2026-04-02T17:47:36.999Z</time></trkpt><trkpt lat="44.371987383547705" lon="7.804604554124048"><ele>461.0</ele><time>2026-04-02T17:47:37.999Z</time></trkpt><trkpt lat="44.37204809107891" lon="7.804823948763562"><ele>461.0</ele><time>2026-04-02T17:47:38.999Z</time></trkpt><trkpt lat="44.37210792165162" lon="7.805042023504011"><ele>461.0</ele><time>2026-04-02T17:47:39.999Z</time></trkpt><trkpt lat="44.37216909486172" lon="7.80525014953188"><ele>459.25</ele><time>2026-04-02T17:47:40.999Z</time></trkpt><trkpt lat="44.37222714804773" lon="7.805442882106111"><ele>457.5</ele><time>2026-04-02T17:47:41.999Z</time></trkpt><trkpt lat="44.37228289242561" lon="7.805612153806929"><ele>455.75</ele><time>2026-04-02T17:47:42.999Z</time></trkpt><trkpt lat="44.37234582597299" lon="7.805776590298259"><ele>454.0</ele><time>2026-04-02T17:47:43.999Z</time></trkpt><trkpt lat="44.37241398450732" lon="7.805922828889089"><ele>452.5</ele><time>2026-04-02T17:47:44.999Z</time></trkpt><trkpt lat="44.372497990751334" lon="7.8060622028042435"><ele>451.0</ele><time>2026-04-02T17:47:45.999Z</time></trkpt><trkpt lat="44.37258909895249" lon="7.806200855728319"><ele>449.5</ele><time>2026-04-02T17:47:46.999Z</time></trkpt><trkpt lat="44.372699091204176" lon="7.8063259085835535"><ele>448.0</ele><time>2026-04-02T17:47:47.999Z</time></trkpt><trkpt lat="44.37282100993546" lon="7.806439486535575"><ele>448.0</ele><time>2026-04-02T17:47:48.999Z</time></trkpt><trkpt lat="44.37295573464079" lon="7.806549494133803"><ele>448.0</ele><time>2026-04-02T17:47:49.999Z</time></trkpt><trkpt lat="44.37310729730212" lon="7.806635982834118"><ele>448.0</ele><time>2026-04-02T17:47:50.999Z</time></trkpt><trkpt lat="44.373261296835494" lon="7.806722617896121"><ele>446.33333333333337</ele><time>2026-04-02T17:47:51.999Z</time></trkpt><trkpt lat="44.37344080239829" lon="7.806832519316982"><ele>444.66666666666663</ele><time>2026-04-02T17:47:52.999Z</time></trkpt><trkpt lat="44.37362269042913" lon="7.806924239569013"><ele>443.0</ele><time>2026-04-02T17:47:53.999Z</time></trkpt><trkpt lat="44.37380235194372" lon="7.807031005681397"><ele>442.3333333333333</ele><time>2026-04-02T17:47:54.999Z</time></trkpt><trkpt lat="44.37399541999113" lon="7.8071446810832645"><ele>441.66666666666663</ele><time>2026-04-02T17:47:55.999Z</time></trkpt><trkpt lat="44.37420431048866" lon="7.80724801921368"><ele>441.0</ele><time>2026-04-02T17:47:56.999Z</time></trkpt><trkpt lat="44.37441422619555" lon="7.807364550625965"><ele>441.0</ele><time>2026-04-02T17:47:57.999Z</time></trkpt><trkpt lat="44.37462568252608" lon="7.807483568122447"><ele>441.0</ele><time>2026-04-02T17:47:58.999Z</time></trkpt><trkpt lat="44.37484598898969" lon="7.807607181338625"><ele>440.5</ele><time>2026-04-02T17:47:59.999Z</time></trkpt><trkpt lat="44.375074150833875" lon="7.80773185096313"><ele>440.0</ele><time>2026-04-02T17:48:00.999Z</time></trkpt><trkpt lat="44.37528726739809" lon="7.807853675340652"><ele>440.0</ele><time>2026-04-02T17:48:01.999Z</time></trkpt><trkpt lat="44.37547993588659" lon="7.80796043427092"><ele>440.0</ele><time>2026-04-02T17:48:02.999Z</time></trkpt><trkpt lat="44.37567309037483" lon="7.808065749833227"><ele>440.0</ele><time>2026-04-02T17:48:03.999Z</time></trkpt><trkpt lat="44.375857827992895" lon="7.808169310748061"><ele>439.66666666666663</ele><time>2026-04-02T17:48:04.999Z</time></trkpt><trkpt lat="44.3760346951895" lon="7.808267280429044"><ele>439.33333333333337</ele><time>2026-04-02T17:48:05.999Z</time></trkpt><trkpt lat="44.376192598218736" lon="7.808358068875171"><ele>439.0</ele><time>2026-04-02T17:48:06.999Z</time></trkpt><trkpt lat="44.3763422230126" lon="7.808444189296192"><ele>438.75</ele><time>2026-04-02T17:48:07.999Z</time></trkpt><trkpt lat="44.37648882446243" lon="7.80853660844308"><ele>438.5</ele><time>2026-04-02T17:48:08.998Z</time></trkpt><trkpt lat="44.3766132515952" lon="7.808625604521349"><ele>438.25</ele><time>2026-04-02T17:48:09.998Z</time></trkpt><trkpt lat="44.37673634149144" lon="7.808716980789419"><ele>438.0</ele><time>2026-04-02T17:48:10.998Z</time></trkpt><trkpt lat="44.37683744732973" lon="7.8088088892521"><ele>438.0</ele><time>2026-04-02T17:48:11.998Z</time></trkpt><trkpt lat="44.376937432568674" lon="7.808889457219142"><ele>438.0</ele><time>2026-04-02T17:48:12.998Z</time></trkpt><trkpt lat="44.37702860756317" lon="7.808978203571083"><ele>438.0</ele><time>2026-04-02T17:48:13.998Z</time></trkpt><trkpt lat="44.37712771069697" lon="7.809058689293306"><ele>438.0</ele><time>2026-04-02T17:48:14.998Z</time></trkpt><trkpt lat="44.377225222754" lon="7.809136909016119"><ele>437.59999999999997</ele><time>2026-04-02T17:48:15.998Z</time></trkpt><trkpt lat="44.37731347660359" lon="7.809213797844024"><ele>437.19999999999993</ele><time>2026-04-02T17:48:16.998Z</time></trkpt><trkpt lat="44.37738379222365" lon="7.809313262637483"><ele>436.8</ele><time>2026-04-02T17:48:17.998Z</time></trkpt><trkpt lat="44.37747487321178" lon="7.809402123647717"><ele>436.4</ele><time>2026-04-02T17:48:18.998Z</time></trkpt><trkpt lat="44.37756308777389" lon="7.8094749376726105"><ele>436.0</ele><time>2026-04-02T17:48:19.998Z</time></trkpt><trkpt lat="44.37764939637788" lon="7.809555382018719"><ele>436.0</ele><time>2026-04-02T17:48:20.998Z</time></trkpt><trkpt lat="44.37773812277408" lon="7.809633247800167"><ele>436.0</ele><time>2026-04-02T17:48:21.998Z</time></trkpt><trkpt lat="44.377822567232734" lon="7.809717745985774"><ele>436.0</ele><time>2026-04-02T17:48:22.998Z</time></trkpt><trkpt lat="44.37791050236781" lon="7.809793595821147"><ele>436.0</ele><time>2026-04-02T17:48:23.998Z</time></trkpt><trkpt lat="44.37799792408913" lon="7.809872311953808"><ele>436.0</ele><time>2026-04-02T17:48:24.998Z</time></trkpt><trkpt lat="44.37808114344414" lon="7.809949957962765"><ele>435.8</ele><time>2026-04-02T17:48:25.998Z</time></trkpt><trkpt lat="44.37817047463689" lon="7.810025707569592"><ele>435.6</ele><time>2026-04-02T17:48:26.998Z</time></trkpt><trkpt lat="44.37825781369981" lon="7.81010828541344"><ele>435.4</ele><time>2026-04-02T17:48:27.998Z</time></trkpt><trkpt lat="44.37834076177429" lon="7.810181536028414"><ele>435.2</ele><time>2026-04-02T17:48:28.998Z</time></trkpt><trkpt lat="44.37842780714854" lon="7.810252760910016"><ele>435.0</ele><time>2026-04-02T17:48:29.998Z</time></trkpt><trkpt lat="44.37850919668967" lon="7.810332565926682"><ele>435.0</ele><time>2026-04-02T17:48:30.998Z</time></trkpt><trkpt lat="44.37859500190381" lon="7.810408019330874"><ele>435.0</ele><time>2026-04-02T17:48:31.998Z</time></trkpt><trkpt lat="44.37868639988414" lon="7.810495796616157"><ele>435.0</ele><time>2026-04-02T17:48:32.998Z</time></trkpt><trkpt lat="44.37877514866062" lon="7.810578368801403"><ele>435.0</ele><time>2026-04-02T17:48:33.998Z</time></trkpt><trkpt lat="44.37885675075753" lon="7.8106641036215025"><ele>435.0</ele><time>2026-04-02T17:48:34.998Z</time></trkpt><trkpt lat="44.378939507986175" lon="7.810741485833804"><ele>435.0</ele><time>2026-04-02T17:48:36Z</time></trkpt><trkpt lat="44.37902522661181" lon="7.81080579368533"><ele>435.0</ele><time>2026-04-02T17:48:37Z</time></trkpt><trkpt lat="44.37909714470177" lon="7.810879493003532"><ele>435.0</ele><time>2026-04-02T17:48:38Z</time></trkpt><trkpt lat="44.37917509280084" lon="7.810957005403403"><ele>435.0</ele><time>2026-04-02T17:48:39Z</time></trkpt><trkpt lat="44.379258290248906" lon="7.811034505724391"><ele>435.0</ele><time>2026-04-02T17:48:40Z</time></trkpt><trkpt lat="44.37934841793919" lon="7.81110347137349"><ele>434.4</ele><time>2026-04-02T17:48:41Z</time></trkpt><trkpt lat="44.379437600853976" lon="7.811183939853601"><ele>433.8</ele><time>2026-04-02T17:48:42Z</time></trkpt><trkpt lat="44.379524889563974" lon="7.8112542491073285"><ele>433.20000000000005</ele><time>2026-04-02T17:48:43Z</time></trkpt><trkpt lat="44.37960901741026" lon="7.811329643505524"><ele>432.6</ele><time>2026-04-02T17:48:44Z</time></trkpt><trkpt lat="44.37969677503574" lon="7.8114074106948985"><ele>432.0</ele><time>2026-04-02T17:48:45Z</time></trkpt><trkpt lat="44.37978656888885" lon="7.811482830759919"><ele>432.0</ele><time>2026-04-02T17:48:46Z</time></trkpt><trkpt lat="44.37986851062914" lon="7.81155287360004"><ele>432.00000000000006</ele><time>2026-04-02T17:48:47Z</time></trkpt><trkpt lat="44.37994544641344" lon="7.811628187262439"><ele>432.00000000000006</ele><time>2026-04-02T17:48:48Z</time></trkpt><trkpt lat="44.38002906624923" lon="7.811709626313576"><ele>432.0</ele><time>2026-04-02T17:48:49Z</time></trkpt><trkpt lat="44.380110189181075" lon="7.811784317053979"><ele>432.0</ele><time>2026-04-02T17:48:50Z</time></trkpt><trkpt lat="44.38019483282636" lon="7.811861161293276"><ele>432.0</ele><time>2026-04-02T17:48:51Z</time></trkpt><trkpt lat="44.3802780158992" lon="7.811932939567315"><ele>432.00000000000006</ele><time>2026-04-02T17:48:52Z</time></trkpt><trkpt lat="44.38035707339344" lon="7.8120049746366345"><ele>432.00000000000006</ele><time>2026-04-02T17:48:53Z</time></trkpt><trkpt lat="44.38043571604839" lon="7.812082929361276"><ele>432.0</ele><time>2026-04-02T17:48:54Z</time></trkpt><trkpt lat="44.38052866654583" lon="7.812160431436015"><ele>432.0</ele><time>2026-04-02T17:48:55Z</time></trkpt><trkpt lat="44.380613838328664" lon="7.812246109119333"><ele>431.8</ele><time>2026-04-02T17:48:56Z</time></trkpt><trkpt lat="44.38070476982815" lon="7.8123287469782134"><ele>431.6</ele><time>2026-04-02T17:48:57Z</time></trkpt><trkpt lat="44.38079534301556" lon="7.812406842165159"><ele>431.40000000000003</ele><time>2026-04-02T17:48:58Z</time></trkpt><trkpt lat="44.38088320282063" lon="7.812485059020361"><ele>431.20000000000005</ele><time>2026-04-02T17:48:59Z</time></trkpt><trkpt lat="44.38096968788898" lon="7.81256667779983"><ele>431.0</ele><time>2026-04-02T17:49:00Z</time></trkpt><trkpt lat="44.38105926548505" lon="7.812639117423725"><ele>431.0</ele><time>2026-04-02T17:49:01Z</time></trkpt><trkpt lat="44.381148168826805" lon="7.812719798736381"><ele>431.0</ele><time>2026-04-02T17:49:02Z</time></trkpt><trkpt lat="44.38123952402301" lon="7.812792248782417"><ele>431.0</ele><time>2026-04-02T17:49:03Z</time></trkpt><trkpt lat="44.381319538694285" lon="7.812865075425813"><ele>431.0</ele><time>2026-04-02T17:49:04Z</time></trkpt><trkpt lat="44.38139888791129" lon="7.812935290361941"><ele>431.0</ele><time>2026-04-02T17:49:05Z</time></trkpt><trkpt lat="44.38148829878664" lon="7.813001468603206"><ele>431.6</ele><time>2026-04-02T17:49:06Z</time></trkpt><trkpt lat="44.38157373935845" lon="7.813071399474634"><ele>432.20000000000005</ele><time>2026-04-02T17:49:07Z</time></trkpt><trkpt lat="44.3816608068091" lon="7.81315234685014"><ele>432.79999999999995</ele><time>2026-04-02T17:49:08Z</time></trkpt><trkpt lat="44.38174816162517" lon="7.813228934211135"><ele>433.4</ele><time>2026-04-02T17:49:09Z</time></trkpt><trkpt lat="44.38183535727376" lon="7.813298838092514"><ele>434.0</ele><time>2026-04-02T17:49:10Z</time></trkpt><trkpt lat="44.38191514711805" lon="7.813366274700549"><ele>434.0</ele><time>2026-04-02T17:49:11Z</time></trkpt><trkpt lat="44.38200523956413" lon="7.813446023338034"><ele>434.0</ele><time>2026-04-02T17:49:12Z</time></trkpt><trkpt lat="44.3820819309674" lon="7.813520128700957"><ele>434.0</ele><time>2026-04-02T17:49:13Z</time></trkpt><trkpt lat="44.38216769533641" lon="7.813587870320342"><ele>434.0</ele><time>2026-04-02T17:49:14Z</time></trkpt><trkpt lat="44.382248667170714" lon="7.813665926046459"><ele>434.0</ele><time>2026-04-02T17:49:15Z</time></trkpt><trkpt lat="44.382334751413964" lon="7.813739786531657"><ele>433.6</ele><time>2026-04-02T17:49:16Z</time></trkpt><trkpt lat="44.382411693619424" lon="7.8138165890858735"><ele>433.2</ele><time>2026-04-02T17:49:17Z</time></trkpt><trkpt lat="44.38250244121719" lon="7.813893730052564"><ele>432.80000000000007</ele><time>2026-04-02T17:49:18Z</time></trkpt><trkpt lat="44.382593670360045" lon="7.813972194005767"><ele>432.40000000000003</ele><time>2026-04-02T17:49:18.999Z</time></trkpt><trkpt lat="44.382683532563014" lon="7.814039577050515"><ele>432.0</ele><time>2026-04-02T17:49:19.999Z</time></trkpt><trkpt lat="44.382766107928944" lon="7.814108276913191"><ele>432.0</ele><time>2026-04-02T17:49:20.999Z</time></trkpt><trkpt lat="44.38285227037597" lon="7.814181648741634"><ele>432.00000000000006</ele><time>2026-04-02T17:49:21.999Z</time></trkpt><trkpt lat="44.38294224765451" lon="7.8142575065968"><ele>432.00000000000006</ele><time>2026-04-02T17:49:22.999Z</time></trkpt><trkpt lat="44.38303105487112" lon="7.814335069497431"><ele>432.0</ele><time>2026-04-02T17:49:23.999Z</time></trkpt><trkpt lat="44.38310919620271" lon="7.8144091230245065"><ele>432.0</ele><time>2026-04-02T17:49:24.999Z</time></trkpt><trkpt lat="44.38318724783217" lon="7.814481125230676"><ele>431.8</ele><time>2026-04-02T17:49:25.999Z</time></trkpt><trkpt lat="44.383269374110235" lon="7.814553160596112"><ele>431.6</ele><time>2026-04-02T17:49:26.999Z</time></trkpt><trkpt lat="44.383342702133255" lon="7.814617184904474"><ele>431.40000000000003</ele><time>2026-04-02T17:49:27.999Z</time></trkpt><trkpt lat="44.383415666448" lon="7.814692879647154"><ele>431.20000000000005</ele><time>2026-04-02T17:49:28.999Z</time></trkpt><trkpt lat="44.38349751149553" lon="7.814761154411037"><ele>431.0</ele><time>2026-04-02T17:49:29.999Z</time></trkpt><trkpt lat="44.38357519463915" lon="7.814819671091614"><ele>430.99999999999994</ele><time>2026-04-02T17:49:30.999Z</time></trkpt><trkpt lat="44.38364840554962" lon="7.814882302799152"><ele>431.0</ele><time>2026-04-02T17:49:31.999Z</time></trkpt><trkpt lat="44.38371825445691" lon="7.81493789335513"><ele>431.0</ele><time>2026-04-02T17:49:32.999Z</time></trkpt><trkpt lat="44.383799916665645" lon="7.8150426813439005"><ele>431.0</ele><time>2026-04-02T17:49:34.999Z</time></trkpt><trkpt lat="44.38380532947019" lon="7.815193965000448"><ele>430.99999999999994</ele><time>2026-04-02T17:49:36.999Z</time></trkpt><trkpt lat="44.38381907471208" lon="7.815281706189997"><ele>431.0</ele><time>2026-04-02T17:49:37.999Z</time></trkpt><trkpt lat="44.383855045624" lon="7.815424195214826"><ele>430.66666666666663</ele><time>2026-04-02T17:49:39.999Z</time></trkpt><trkpt lat="44.383900908358875" lon="7.8155802012911915"><ele>430.3333333333333</ele><time>2026-04-02T17:49:41.999Z</time></trkpt><trkpt lat="44.38393224993796" lon="7.815686973763627"><ele>430.0</ele><time>2026-04-02T17:49:42.999Z</time></trkpt><trkpt lat="44.38395945936618" lon="7.815780833006137"><ele>429.66666666666663</ele><time>2026-04-02T17:49:43.999Z</time></trkpt><trkpt lat="44.383984279973994" lon="7.815866454535556"><ele>429.3333333333333</ele><time>2026-04-02T17:49:44.999Z</time></trkpt><trkpt lat="44.38403921987767" lon="7.815941336824139"><ele>429.0</ele><time>2026-04-02T17:49:45.999Z</time></trkpt><trkpt lat="44.38406327924882" lon="7.816031939948405"><ele>427.6</ele><time>2026-04-02T17:49:46.999Z</time></trkpt><trkpt lat="44.384110396325056" lon="7.816195373530971"><ele>426.2</ele><time>2026-04-02T17:49:48.999Z</time></trkpt><trkpt lat="44.38411104485164" lon="7.8162974012291855"><ele>424.8</ele><time>2026-04-02T17:49:49.999Z</time></trkpt><trkpt lat="44.38413726447037" lon="7.816385641337937"><ele>423.40000000000003</ele><time>2026-04-02T17:49:50.999Z</time></trkpt><trkpt lat="44.38416331185512" lon="7.81646885960981"><ele>422.0</ele><time>2026-04-02T17:49:51.999Z</time></trkpt><trkpt lat="44.38421108450087" lon="7.81662148766869"><ele>422.0</ele><time>2026-04-02T17:49:53.999Z</time></trkpt><trkpt lat="44.384243615425596" lon="7.816722752733073"><ele>422.0</ele><time>2026-04-02T17:49:55.999Z</time></trkpt><trkpt lat="44.384299324366566" lon="7.816864249206697"><ele>422.0</ele><time>2026-04-02T17:49:57.999Z</time></trkpt><trkpt lat="44.38434135832382" lon="7.81694430968365"><ele>422.0</ele><time>2026-04-02T17:49:58.999Z</time></trkpt><trkpt lat="44.38440935934055" lon="7.817017546176504"><ele>422.0</ele><time>2026-04-02T17:49:59.999Z</time></trkpt><trkpt lat="44.38447114158075" lon="7.817123892159357"><ele>420.66666666666663</ele><time>2026-04-02T17:50:00.999Z</time></trkpt><trkpt lat="44.384543470597535" lon="7.817202766302661"><ele>419.3333333333333</ele><time>2026-04-02T17:50:01.999Z</time></trkpt><trkpt lat="44.384623797627484" lon="7.817257051216191"><ele>418.0</ele><time>2026-04-02T17:50:02.999Z</time></trkpt><trkpt lat="44.384694445327916" lon="7.817321778111983"><ele>416.66666666666663</ele><time>2026-04-02T17:50:03.999Z</time></trkpt><trkpt lat="44.38476634234906" lon="7.817375373554786"><ele>415.3333333333333</ele><time>2026-04-02T17:50:04.999Z</time></trkpt><trkpt lat="44.38484206447584" lon="7.817411143990592"><ele>414.0</ele><time>2026-04-02T17:50:05.999Z</time></trkpt><trkpt lat="44.38490777850547" lon="7.817438627205698"><ele>414.0</ele><time>2026-04-02T17:50:06.999Z</time></trkpt><trkpt lat="44.38497084171362" lon="7.817458025580498"><ele>414.0</ele><time>2026-04-02T17:50:07.999Z</time></trkpt><trkpt lat="44.385067851143134" lon="7.817498637855928"><ele>414.0</ele><time>2026-04-02T17:50:09.999Z</time></trkpt><trkpt lat="44.385138719134616" lon="7.817541924547154"><ele>414.0</ele><time>2026-04-02T17:50:11.999Z</time></trkpt><trkpt lat="44.38509634816202" lon="7.817646746517776"><ele>414.0</ele><time>2026-04-02T17:50:13.999Z</time></trkpt><trkpt lat="44.38507632317101" lon="7.817736975311562"><ele>414.0</ele><time>2026-04-02T17:50:14.998Z</time></trkpt><trkpt lat="44.385053160801355" lon="7.81784134020286"><ele>413.0</ele><time>2026-04-02T17:50:15.998Z</time></trkpt><trkpt lat="44.385029604519325" lon="7.817957854366671"><ele>412.0</ele><time>2026-04-02T17:50:16.998Z</time></trkpt><trkpt lat="44.385002908590586" lon="7.818106562925386"><ele>411.0</ele><time>2026-04-02T17:50:17.998Z</time></trkpt><trkpt lat="44.38497932447711" lon="7.818251332616669"><ele>410.0</ele><time>2026-04-02T17:50:18.998Z</time></trkpt><trkpt lat="44.38495611275442" lon="7.8183941994445885"><ele>409.0</ele><time>2026-04-02T17:50:19.998Z</time></trkpt><trkpt lat="44.3849357184005" lon="7.818520284792168"><ele>408.6</ele><time>2026-04-02T17:50:20.998Z</time></trkpt><trkpt lat="44.38491374392758" lon="7.818656142731436"><ele>408.2</ele><time>2026-04-02T17:50:21.998Z</time></trkpt><trkpt lat="44.38489196775801" lon="7.818790477483265"><ele>407.8</ele><time>2026-04-02T17:50:22.998Z</time></trkpt><trkpt lat="44.38488374622263" lon="7.818925400167206"><ele>407.40000000000003</ele><time>2026-04-02T17:50:23.998Z</time></trkpt><trkpt lat="44.38486298547243" lon="7.81905774061721"><ele>407.0</ele><time>2026-04-02T17:50:24.998Z</time></trkpt><trkpt lat="44.384831124013786" lon="7.819164655749552"><ele>406.99999999999994</ele><time>2026-04-02T17:50:25.998Z</time></trkpt><trkpt lat="44.38481066320871" lon="7.819285479198629"><ele>407.0</ele><time>2026-04-02T17:50:26.998Z</time></trkpt><trkpt lat="44.38480486255613" lon="7.8194112708842605"><ele>407.0</ele><time>2026-04-02T17:50:27.998Z</time></trkpt><trkpt lat="44.38477024730827" lon="7.819520547456665"><ele>407.0</ele><time>2026-04-02T17:50:28.998Z</time></trkpt><trkpt lat="44.384753734961485" lon="7.8196134816203156"><ele>406.99999999999994</ele><time>2026-04-02T17:50:29.998Z</time></trkpt><trkpt lat="44.38473645698428" lon="7.819706900855776"><ele>407.0</ele><time>2026-04-02T17:50:30.998Z</time></trkpt><trkpt lat="44.384733572523764" lon="7.8197999497698225"><ele>406.16666666666663</ele><time>2026-04-02T17:50:31.998Z</time></trkpt><trkpt lat="44.38470245913012" lon="7.819903506835031"><ele>405.3333333333333</ele><time>2026-04-02T17:50:33.998Z</time></trkpt><trkpt lat="44.38470442633122" lon="7.820002781044534"><ele>404.5</ele><time>2026-04-02T17:50:36.998Z</time></trkpt><trkpt lat="44.384770851125786" lon="7.820090034195783"><ele>403.66666666666663</ele><time>2026-04-02T17:50:38.998Z</time></trkpt><trkpt lat="44.38486397386259" lon="7.820141250337831"><ele>402.8333333333333</ele><time>2026-04-02T17:50:40.998Z</time></trkpt><trkpt lat="44.38495726922279" lon="7.820202540965601"><ele>402.0</ele><time>2026-04-02T17:50:43Z</time></trkpt><trkpt lat="44.38504133073944" lon="7.820136970142799"><ele>402.0</ele><time>2026-04-02T17:50:44Z</time></trkpt><trkpt lat="44.385117787414" lon="7.820105429092756"><ele>402.0</ele><time>2026-04-02T17:50:45Z</time></trkpt><trkpt lat="44.3852044181647" lon="7.820070937103467"><ele>402.0</ele><time>2026-04-02T17:50:46Z</time></trkpt><trkpt lat="44.38528134991255" lon="7.820051880299733"><ele>402.0</ele><time>2026-04-02T17:50:47Z</time></trkpt><trkpt lat="44.3853516383082" lon="7.8200120996898805"><ele>402.0</ele><time>2026-04-02T17:50:48Z</time></trkpt><trkpt lat="44.38544658484985" lon="7.819936250864199"><ele>402.0</ele><time>2026-04-02T17:50:49Z</time></trkpt><trkpt lat="44.38551020653544" lon="7.819876799330204"><ele>401.40000000000003</ele><time>2026-04-02T17:50:50Z</time></trkpt><trkpt lat="44.38557245770228" lon="7.819814183449868"><ele>400.8</ele><time>2026-04-02T17:50:51Z</time></trkpt><trkpt lat="44.3856505380423" lon="7.819736265469123"><ele>400.2</ele><time>2026-04-02T17:50:53Z</time></trkpt><trkpt lat="44.38572797857481" lon="7.819732857739187"><ele>399.6</ele><time>2026-04-02T17:50:55Z</time></trkpt><trkpt lat="44.38584127863132" lon="7.819822378947812"><ele>399.0</ele><time>2026-04-02T17:50:57Z</time></trkpt><trkpt lat="44.38591776489004" lon="7.819927005967879"><ele>399.0</ele><time>2026-04-02T17:50:58Z</time></trkpt><trkpt lat="44.38597497494915" lon="7.819984971619537"><ele>399.0</ele><time>2026-04-02T17:50:59Z</time></trkpt><trkpt lat="44.386034147865054" lon="7.820044894831795"><ele>399.0</ele><time>2026-04-02T17:51:00Z</time></trkpt><trkpt lat="44.38611768859505" lon="7.820124903452793"><ele>399.0</ele><time>2026-04-02T17:51:02Z</time></trkpt><trkpt lat="44.38616849923134" lon="7.820180339631149"><ele>399.0</ele><time>2026-04-02T17:51:08Z</time></trkpt><trkpt lat="44.38623587159852" lon="7.82024995754302"><ele>399.0</ele><time>2026-04-02T17:51:13Z</time></trkpt><trkpt lat="44.386307479489645" lon="7.820249564787467"><ele>399.0</ele><time>2026-04-02T17:51:15Z</time></trkpt><trkpt lat="44.3864034117319" lon="7.820177985537799"><ele>399.0</ele><time>2026-04-02T17:51:17Z</time></trkpt><trkpt lat="44.38647834038525" lon="7.820170788173941"><ele>399.0</ele><time>2026-04-02T17:51:18Z</time></trkpt><trkpt lat="44.3865629035496" lon="7.820144484701673"><ele>399.0</ele><time>2026-04-02T17:51:19Z</time></trkpt><trkpt lat="44.386672154637694" lon="7.820119586291626"><ele>399.0</ele><time>2026-04-02T17:51:20Z</time></trkpt><trkpt lat="44.38677011905622" lon="7.820091173421087"><ele>399.0</ele><time>2026-04-02T17:51:21Z</time></trkpt><trkpt lat="44.386870438953615" lon="7.820055229645378"><ele>399.0</ele><time>2026-04-02T17:51:22Z</time></trkpt><trkpt lat="44.38697558540283" lon="7.820047130386408"><ele>399.0</ele><time>2026-04-02T17:51:23Z</time></trkpt><trkpt lat="44.38707913114223" lon="7.820029334917391"><ele>399.0</ele><time>2026-04-02T17:51:23.999Z</time></trkpt><trkpt lat="44.387167093754314" lon="7.820028665272143"><ele>399.0</ele><time>2026-04-02T17:51:24.999Z</time></trkpt><trkpt lat="44.38724343264891" lon="7.8200344690652965"><ele>399.0</ele><time>2026-04-02T17:51:25.999Z</time></trkpt><trkpt lat="44.3873439771761" lon="7.820051946591626"><ele>399.0</ele><time>2026-04-02T17:51:26.999Z</time></trkpt><trkpt lat="44.38743738282274" lon="7.820084369691328"><ele>399.0</ele><time>2026-04-02T17:51:27.999Z</time></trkpt><trkpt lat="44.38752636394595" lon="7.820140652112157"><ele>399.0</ele><time>2026-04-02T17:51:28.999Z</time></trkpt><trkpt lat="44.387613734513586" lon="7.820198118696698"><ele>399.0</ele><time>2026-04-02T17:51:29.999Z</time></trkpt><trkpt lat="44.38769307935041" lon="7.820245916784924"><ele>399.6</ele><time>2026-04-02T17:51:30.999Z</time></trkpt><trkpt lat="44.38775413337067" lon="7.820335540027439"><ele>400.2</ele><time>2026-04-02T17:51:31.999Z</time></trkpt><trkpt lat="44.3878327947219" lon="7.82038182909128"><ele>400.8</ele><time>2026-04-02T17:51:32.999Z</time></trkpt><trkpt lat="44.38791736697621" lon="7.820421149212353"><ele>401.40000000000003</ele><time>2026-04-02T17:51:33.999Z</time></trkpt><trkpt lat="44.38801450861449" lon="7.820466876163128"><ele>402.0</ele><time>2026-04-02T17:51:34.999Z</time></trkpt><trkpt lat="44.388097735536086" lon="7.820508854270543"><ele>402.0</ele><time>2026-04-02T17:51:35.999Z</time></trkpt><trkpt lat="44.3881818149706" lon="7.820536555377565"><ele>402.0</ele><time>2026-04-02T17:51:36.999Z</time></trkpt><trkpt lat="44.38827625019093" lon="7.820537474629966"><ele>402.0</ele><time>2026-04-02T17:51:37.999Z</time></trkpt><trkpt lat="44.38838476471019" lon="7.820549613726603"><ele>402.0</ele><time>2026-04-02T17:51:38.999Z</time></trkpt><trkpt lat="44.388503349821114" lon="7.820534319189461"><ele>402.0</ele><time>2026-04-02T17:51:39.999Z</time></trkpt><trkpt lat="44.38858183150043" lon="7.820515316030464"><ele>402.0</ele><time>2026-04-02T17:51:40.999Z</time></trkpt><trkpt lat="44.38865850614477" lon="7.820498914692393"><ele>402.0</ele><time>2026-04-02T17:51:41.999Z</time></trkpt><trkpt lat="44.388790917178596" lon="7.820470518455561"><ele>402.0</ele><time>2026-04-02T17:51:43.999Z</time></trkpt><trkpt lat="44.38887563961909" lon="7.82039530914067"><ele>402.0</ele><time>2026-04-02T17:51:45.999Z</time></trkpt><trkpt lat="44.38895305599787" lon="7.820365713929337"><ele>402.0</ele><time>2026-04-02T17:51:46.999Z</time></trkpt><trkpt lat="44.3890251432237" lon="7.820344810264802"><ele>401.5</ele><time>2026-04-02T17:51:47.999Z</time></trkpt><trkpt lat="44.38908771159791" lon="7.820326122891081"><ele>401.0</ele><time>2026-04-02T17:51:48.999Z</time></trkpt><trkpt lat="44.389176978213655" lon="7.820310218758676"><ele>400.5</ele><time>2026-04-02T17:51:49.999Z</time></trkpt><trkpt lat="44.38925513724638" lon="7.820308424110805"><ele>400.0</ele><time>2026-04-02T17:51:50.999Z</time></trkpt><trkpt lat="44.38933405042321" lon="7.8203105556973025"><ele>399.5</ele><time>2026-04-02T17:51:51.999Z</time></trkpt><trkpt lat="44.38940392566054" lon="7.8203336199834155"><ele>399.0</ele><time>2026-04-02T17:51:52.999Z</time></trkpt><trkpt lat="44.38947550940787" lon="7.8203528855514"><ele>399.0</ele><time>2026-04-02T17:51:53.999Z</time></trkpt><trkpt lat="44.38954675724658" lon="7.820364339036956"><ele>399.0</ele><time>2026-04-02T17:51:54.999Z</time></trkpt><trkpt lat="44.38963101116707" lon="7.820387144854129"><ele>399.0</ele><time>2026-04-02T17:51:56.999Z</time></trkpt><trkpt lat="44.38970847012078" lon="7.820412350715494"><ele>399.0</ele><time>2026-04-02T17:52:00.999Z</time></trkpt><trkpt lat="44.38977666582724" lon="7.820430710118214"><ele>399.0</ele><time>2026-04-02T17:52:05.999Z</time></trkpt><trkpt lat="44.38984127360112" lon="7.820479481004858"><ele>399.0</ele><time>2026-04-02T17:52:07.999Z</time></trkpt><trkpt lat="44.38992949182967" lon="7.820570802068789"><ele>398.0</ele><time>2026-04-02T17:52:09.999Z</time></trkpt><trkpt lat="44.390031861651494" lon="7.820638227040486"><ele>397.0</ele><time>2026-04-02T17:52:11.999Z</time></trkpt><trkpt lat="44.39013563298888" lon="7.820690844361206"><ele>396.0</ele><time>2026-04-02T17:52:13.999Z</time></trkpt><trkpt lat="44.390203485136354" lon="7.820701920649282"><ele>395.0</ele><time>2026-04-02T17:52:14.999Z</time></trkpt><trkpt lat="44.39029630252892" lon="7.820722892691665"><ele>394.0</ele><time>2026-04-02T17:52:15.999Z</time></trkpt><trkpt lat="44.39037379041416" lon="7.820696267751713"><ele>394.0</ele><time>2026-04-02T17:52:16.999Z</time></trkpt><trkpt lat="44.39044755077987" lon="7.820691523315174"><ele>394.0</ele><time>2026-04-02T17:52:17.999Z</time></trkpt><trkpt lat="44.39052680935555" lon="7.820686820103473"><ele>394.0</ele><time>2026-04-02T17:52:18.999Z</time></trkpt><trkpt lat="44.39062934454795" lon="7.820705035533153"><ele>394.0</ele><time>2026-04-02T17:52:20.998Z</time></trkpt><trkpt lat="44.39075352106486" lon="7.820698791716305"><ele>394.0</ele><time>2026-04-02T17:52:22.998Z</time></trkpt><trkpt lat="44.39087112523936" lon="7.8206918035027435"><ele>393.6</ele><time>2026-04-02T17:52:24.998Z</time></trkpt><trkpt lat="44.39097269658233" lon="7.820653076139456"><ele>393.2</ele><time>2026-04-02T17:52:26.998Z</time></trkpt><trkpt lat="44.39107300884435" lon="7.82063668320951"><ele>392.8</ele><time>2026-04-02T17:52:28.998Z</time></trkpt><trkpt lat="44.3911838146461" lon="7.820629504054392"><ele>392.40000000000003</ele><time>2026-04-02T17:52:30.998Z</time></trkpt><trkpt lat="44.39128295707823" lon="7.8206203536082"><ele>392.0</ele><time>2026-04-02T17:52:32.998Z</time></trkpt><trkpt lat="44.391383644746135" lon="7.8206190463119345"><ele>391.40000000000003</ele><time>2026-04-02T17:52:34.998Z</time></trkpt><trkpt lat="44.39148338418872" lon="7.820596096194598"><ele>390.8</ele><time>2026-04-02T17:52:36.998Z</time></trkpt><trkpt lat="44.391586692610666" lon="7.8205809214909525"><ele>390.2</ele><time>2026-04-02T17:52:38.998Z</time></trkpt><trkpt lat="44.39172205582486" lon="7.820625796304463"><ele>389.6</ele><time>2026-04-02T17:52:40.998Z</time></trkpt><trkpt lat="44.39177275613107" lon="7.820563926229008"><ele>389.0</ele><time>2026-04-02T17:52:41.998Z</time></trkpt><trkpt lat="44.39184393741296" lon="7.820550267069013"><ele>389.0</ele><time>2026-04-02T17:52:42.998Z</time></trkpt><trkpt lat="44.39190630013817" lon="7.820536739698676"><ele>389.0</ele><time>2026-04-02T17:52:43.998Z</time></trkpt><trkpt lat="44.39201723307574" lon="7.820520684815239"><ele>389.0</ele><time>2026-04-02T17:52:45.998Z</time></trkpt><trkpt lat="44.39213595828774" lon="7.8204971228496865"><ele>389.0</ele><time>2026-04-02T17:52:48Z</time></trkpt><trkpt lat="44.39221910290581" lon="7.820480825127129"><ele>389.0</ele><time>2026-04-02T17:52:49Z</time></trkpt><trkpt lat="44.39229975704248" lon="7.820465189864857"><ele>388.8333333333333</ele><time>2026-04-02T17:52:50Z</time></trkpt><trkpt lat="44.392368023870844" lon="7.820475881432987"><ele>388.66666666666663</ele><time>2026-04-02T17:52:51Z</time></trkpt><trkpt lat="44.39243444939557" lon="7.820481415695103"><ele>388.5</ele><time>2026-04-02T17:52:52Z</time></trkpt><trkpt lat="44.39252463649264" lon="7.820486671331086"><ele>388.33333333333337</ele><time>2026-04-02T17:52:53Z</time></trkpt><trkpt lat="44.392617641263264" lon="7.820490480895217"><ele>388.1666666666667</ele><time>2026-04-02T17:52:54Z</time></trkpt><trkpt lat="44.3927422770835" lon="7.820538813012573"><ele>388.0</ele><time>2026-04-02T17:52:56Z</time></trkpt><trkpt lat="44.39280013646506" lon="7.820583545957134"><ele>388.00000000000006</ele><time>2026-04-02T17:52:57Z</time></trkpt><trkpt lat="44.392881477701835" lon="7.820716077373066"><ele>388.0</ele><time>2026-04-02T17:52:59Z</time></trkpt><trkpt lat="44.39294601120771" lon="7.820824007678423"><ele>388.0</ele><time>2026-04-02T17:53:00Z</time></trkpt><trkpt lat="44.39296444101825" lon="7.820908625854895"><ele>388.0</ele><time>2026-04-02T17:53:01Z</time></trkpt><trkpt lat="44.39301203473214" lon="7.821012891651952"><ele>388.00000000000006</ele><time>2026-04-02T17:53:02Z</time></trkpt><trkpt lat="44.39303280682893" lon="7.821106436833351"><ele>388.0</ele><time>2026-04-02T17:53:03Z</time></trkpt><trkpt lat="44.39304215525528" lon="7.821232306273449"><ele>387.4</ele><time>2026-04-02T17:53:04Z</time></trkpt><trkpt lat="44.39303533780134" lon="7.821375913898517"><ele>386.79999999999995</ele><time>2026-04-02T17:53:05Z</time></trkpt><trkpt lat="44.393037400491544" lon="7.821539870999169"><ele>386.2</ele><time>2026-04-02T17:53:06Z</time></trkpt><trkpt lat="44.39304119713149" lon="7.8216787754124075"><ele>385.6</ele><time>2026-04-02T17:53:07Z</time></trkpt><trkpt lat="44.39304235485155" lon="7.8217801782923555"><ele>385.0</ele><time>2026-04-02T17:53:08Z</time></trkpt><trkpt lat="44.39304918022902" lon="7.82192136835132"><ele>384.25</ele><time>2026-04-02T17:53:10Z</time></trkpt><trkpt lat="44.39312985965117" lon="7.822086118402463"><ele>383.5</ele><time>2026-04-02T17:53:12Z</time></trkpt><trkpt lat="44.39318207561651" lon="7.822143124792782"><ele>382.75</ele><time>2026-04-02T17:53:13Z</time></trkpt><trkpt lat="44.393280344395265" lon="7.822254530993229"><ele>382.0</ele><time>2026-04-02T17:53:15Z</time></trkpt><trkpt lat="44.39337723811741" lon="7.8223754824865805"><ele>382.0</ele><time>2026-04-02T17:53:17Z</time></trkpt><trkpt lat="44.393450247582145" lon="7.822440984681134"><ele>382.0</ele><time>2026-04-02T17:53:18Z</time></trkpt><trkpt lat="44.39353278295238" lon="7.8225051183877445"><ele>382.0</ele><time>2026-04-02T17:53:19Z</time></trkpt><trkpt lat="44.39363671380173" lon="7.822601436977769"><ele>382.0</ele><time>2026-04-02T17:53:20Z</time></trkpt><trkpt lat="44.393738018114426" lon="7.822704327520456"><ele>382.0</ele><time>2026-04-02T17:53:21Z</time></trkpt><trkpt lat="44.39383122371983" lon="7.8228101265568"><ele>381.25</ele><time>2026-04-02T17:53:22Z</time></trkpt><trkpt lat="44.393921946411346" lon="7.822906772852938"><ele>380.5</ele><time>2026-04-02T17:53:23Z</time></trkpt><trkpt lat="44.39401136899728" lon="7.8230002801570935"><ele>379.75</ele><time>2026-04-02T17:53:24Z</time></trkpt><trkpt lat="44.39410589104594" lon="7.823091946759004"><ele>379.0</ele><time>2026-04-02T17:53:25Z</time></trkpt><trkpt lat="44.39419365061524" lon="7.8231854848890965"><ele>379.0</ele><time>2026-04-02T17:53:26Z</time></trkpt><trkpt lat="44.39428243759062" lon="7.823256586070517"><ele>379.0</ele><time>2026-04-02T17:53:27Z</time></trkpt><trkpt lat="44.39437768015998" lon="7.823323964112828"><ele>379.0</ele><time>2026-04-02T17:53:28Z</time></trkpt><trkpt lat="44.394471627315795" lon="7.823401737953361"><ele>379.0</ele><time>2026-04-02T17:53:29Z</time></trkpt><trkpt lat="44.39456752860955" lon="7.823478043337212"><ele>379.0</ele><time>2026-04-02T17:53:29.999Z</time></trkpt><trkpt lat="44.39465685054681" lon="7.823549857713934"><ele>379.3333333333333</ele><time>2026-04-02T17:53:30.999Z</time></trkpt><trkpt lat="44.394732168837976" lon="7.823619461735823"><ele>379.66666666666663</ele><time>2026-04-02T17:53:31.999Z</time></trkpt><trkpt lat="44.39479847493763" lon="7.823681063798458"><ele>380.0</ele><time>2026-04-02T17:53:32.999Z</time></trkpt><trkpt lat="44.394859625469955" lon="7.823739869757631"><ele>380.3333333333333</ele><time>2026-04-02T17:53:33.999Z</time></trkpt><trkpt lat="44.394956071239775" lon="7.823850382839256"><ele>380.6666666666667</ele><time>2026-04-02T17:53:35.999Z</time></trkpt><trkpt lat="44.39500482564782" lon="7.823924990096934"><ele>381.0</ele><time>2026-04-02T17:53:36.999Z</time></trkpt><trkpt lat="44.39506477630037" lon="7.824049880137416"><ele>381.0</ele><time>2026-04-02T17:53:38.999Z</time></trkpt><trkpt lat="44.395175665587765" lon="7.824098403361235"><ele>381.0</ele><time>2026-04-02T17:53:40.999Z</time></trkpt><trkpt lat="44.39525434421153" lon="7.824105334594808"><ele>381.0</ele><time>2026-04-02T17:53:41.999Z</time></trkpt><trkpt lat="44.39534595106813" lon="7.824148888695215"><ele>381.0</ele><time>2026-04-02T17:53:42.999Z</time></trkpt><trkpt lat="44.395430024970686" lon="7.824207452235345"><ele>381.0</ele><time>2026-04-02T17:53:43.999Z</time></trkpt><trkpt lat="44.39552079379504" lon="7.824261939980197"><ele>380.75</ele><time>2026-04-02T17:53:44.999Z</time></trkpt><trkpt lat="44.39562866185087" lon="7.8243260858872405"><ele>380.5</ele><time>2026-04-02T17:53:45.999Z</time></trkpt><trkpt lat="44.39574902822537" lon="7.824385432740532"><ele>380.25</ele><time>2026-04-02T17:53:46.999Z</time></trkpt><trkpt lat="44.395862001616464" lon="7.824440636051353"><ele>380.0</ele><time>2026-04-02T17:53:47.999Z</time></trkpt><trkpt lat="44.39598907723415" lon="7.824511170995898"><ele>380.0</ele><time>2026-04-02T17:53:48.999Z</time></trkpt><trkpt lat="44.39612713467107" lon="7.824554142874186"><ele>380.0</ele><time>2026-04-02T17:53:49.999Z</time></trkpt><trkpt lat="44.396274866099944" lon="7.824592282345858"><ele>380.0</ele><time>2026-04-02T17:53:50.999Z</time></trkpt><trkpt lat="44.39640819622314" lon="7.824622321461714"><ele>380.0</ele><time>2026-04-02T17:53:51.999Z</time></trkpt><trkpt lat="44.39654726476684" lon="7.824638407881318"><ele>383.6666666666667</ele><time>2026-04-02T17:53:52.999Z</time></trkpt><trkpt lat="44.39669804935116" lon="7.824649675535629"><ele>387.33333333333337</ele><time>2026-04-02T17:53:53.999Z</time></trkpt><trkpt lat="44.39685175064874" lon="7.824649588792336"><ele>391.0</ele><time>2026-04-02T17:53:54.999Z</time></trkpt><trkpt lat="44.39700771890332" lon="7.824636484294962"><ele>391.0</ele><time>2026-04-02T17:53:55.999Z</time></trkpt><trkpt lat="44.39714276660836" lon="7.824615348783859"><ele>391.0</ele><time>2026-04-02T17:53:56.999Z</time></trkpt><trkpt lat="44.39726157590541" lon="7.824609973277564"><ele>391.0</ele><time>2026-04-02T17:53:57.999Z</time></trkpt><trkpt lat="44.397383308829504" lon="7.824615352812345"><ele>391.0</ele><time>2026-04-02T17:53:58.999Z</time></trkpt><trkpt lat="44.397495306965816" lon="7.824640940784904"><ele>392.20000000000005</ele><time>2026-04-02T17:53:59.999Z</time></trkpt><trkpt lat="44.39761352790304" lon="7.824691312055289"><ele>393.40000000000003</ele><time>2026-04-02T17:54:00.999Z</time></trkpt><trkpt lat="44.39771104991859" lon="7.824747511413595"><ele>394.6</ele><time>2026-04-02T17:54:01.999Z</time></trkpt><trkpt lat="44.397799897552304" lon="7.824809171753906"><ele>395.8</ele><time>2026-04-02T17:54:02.999Z</time></trkpt><trkpt lat="44.39789055062794" lon="7.824860380614674"><ele>397.0</ele><time>2026-04-02T17:54:03.999Z</time></trkpt><trkpt lat="44.39796869340704" lon="7.8249055713794125"><ele>398.00000000000006</ele><time>2026-04-02T17:54:04.999Z</time></trkpt><trkpt lat="44.398031709302145" lon="7.82495381046088"><ele>399.0</ele><time>2026-04-02T17:54:05.999Z</time></trkpt><trkpt lat="44.39810209692957" lon="7.824982032951393"><ele>400.0</ele><time>2026-04-02T17:54:06.999Z</time></trkpt><trkpt lat="44.39817347187017" lon="7.8250128570381765"><ele>401.0</ele><time>2026-04-02T17:54:07.999Z</time></trkpt><trkpt lat="44.3982701393217" lon="7.824998106073743"><ele>402.00000000000006</ele><time>2026-04-02T17:54:08.999Z</time></trkpt><trkpt lat="44.39835819552569" lon="7.825014878966103"><ele>403.0</ele><time>2026-04-02T17:54:09.999Z</time></trkpt><trkpt lat="44.398436025617904" lon="7.825104900064579"><ele>399.25</ele><time>2026-04-02T17:54:10.999Z</time></trkpt><trkpt lat="44.398522050162434" lon="7.825204391472479"><ele>395.5</ele><time>2026-04-02T17:54:11.999Z</time></trkpt><trkpt lat="44.398615331352254" lon="7.82529197014104"><ele>391.75</ele><time>2026-04-02T17:54:12.999Z</time></trkpt><trkpt lat="44.398712832368844" lon="7.8253811570876435"><ele>388.0</ele><time>2026-04-02T17:54:13.999Z</time></trkpt><trkpt lat="44.398820877944324" lon="7.825481809136597"><ele>390.2</ele><time>2026-04-02T17:54:14.999Z</time></trkpt><trkpt lat="44.39890988087929" lon="7.825565301982055"><ele>392.4</ele><time>2026-04-02T17:54:15.999Z</time></trkpt><trkpt lat="44.39899605159636" lon="7.825621360605479"><ele>394.59999999999997</ele><time>2026-04-02T17:54:16.999Z</time></trkpt><trkpt lat="44.399091479225014" lon="7.825726370536564"><ele>396.79999999999995</ele><time>2026-04-02T17:54:17.999Z</time></trkpt><trkpt lat="44.39918616976184" lon="7.825818792943604"><ele>399.0</ele><time>2026-04-02T17:54:18.999Z</time></trkpt><trkpt lat="44.39927011381714" lon="7.825904992713238"><ele>394.5</ele><time>2026-04-02T17:54:19.999Z</time></trkpt><trkpt lat="44.39936172750713" lon="7.82599804245848"><ele>390.0</ele><time>2026-04-02T17:54:20.999Z</time></trkpt><trkpt lat="44.39946275047853" lon="7.826083836461847"><ele>385.5</ele><time>2026-04-02T17:54:21.999Z</time></trkpt><trkpt lat="44.399559587760216" lon="7.8261576790932095"><ele>381.0</ele><time>2026-04-02T17:54:22.999Z</time></trkpt><trkpt lat="44.399652068757554" lon="7.8262371060832105"><ele>383.8</ele><time>2026-04-02T17:54:23.999Z</time></trkpt><trkpt lat="44.39974355622195" lon="7.826313261126275"><ele>386.6</ele><time>2026-04-02T17:54:24.999Z</time></trkpt><trkpt lat="44.3998346397194" lon="7.826383048476917"><ele>389.4</ele><time>2026-04-02T17:54:25.998Z</time></trkpt><trkpt lat="44.39993344122691" lon="7.826445160793516"><ele>392.2</ele><time>2026-04-02T17:54:26.998Z</time></trkpt><trkpt lat="44.40004307767863" lon="7.826498058994302"><ele>395.0</ele><time>2026-04-02T17:54:27.998Z</time></trkpt><trkpt lat="44.400150317025755" lon="7.826552875949729"><ele>395.0</ele><time>2026-04-02T17:54:28.998Z</time></trkpt><trkpt lat="44.400248279346876" lon="7.826597033421934"><ele>395.0</ele><time>2026-04-02T17:54:29.998Z</time></trkpt><trkpt lat="44.40034675968966" lon="7.826642136650017"><ele>395.0</ele><time>2026-04-02T17:54:30.998Z</time></trkpt><trkpt lat="44.40045464121622" lon="7.826688370219524"><ele>395.0</ele><time>2026-04-02T17:54:31.998Z</time></trkpt><trkpt lat="44.40055176688625" lon="7.8267551703316665"><ele>395.0</ele><time>2026-04-02T17:54:32.998Z</time></trkpt><trkpt lat="44.40064687731578" lon="7.826835373489977"><ele>393.75</ele><time>2026-04-02T17:54:33.998Z</time></trkpt><trkpt lat="44.4007455742449" lon="7.82692046939996"><ele>392.5</ele><time>2026-04-02T17:54:34.998Z</time></trkpt><trkpt lat="44.40083561708186" lon="7.82700653465433"><ele>391.25</ele><time>2026-04-02T17:54:35.998Z</time></trkpt><trkpt lat="44.4009324737949" lon="7.827108670472492"><ele>390.0</ele><time>2026-04-02T17:54:36.998Z</time></trkpt><trkpt lat="44.40102272441729" lon="7.82720225391195"><ele>390.0</ele><time>2026-04-02T17:54:37.998Z</time></trkpt><trkpt lat="44.401121851471956" lon="7.827285815074076"><ele>390.0</ele><time>2026-04-02T17:54:38.998Z</time></trkpt><trkpt lat="44.4012154200907" lon="7.8273685594226015"><ele>390.0</ele><time>2026-04-02T17:54:39.998Z</time></trkpt><trkpt lat="44.40130218892603" lon="7.827462925754529"><ele>390.0</ele><time>2026-04-02T17:54:40.998Z</time></trkpt><trkpt lat="44.40139178079787" lon="7.827564253218264"><ele>390.8</ele><time>2026-04-02T17:54:41.998Z</time></trkpt><trkpt lat="44.40147942277642" lon="7.8276579959303465"><ele>391.6</ele><time>2026-04-02T17:54:42.998Z</time></trkpt><trkpt lat="44.40155747848997" lon="7.827721878950749"><ele>392.4</ele><time>2026-04-02T17:54:43.998Z</time></trkpt><trkpt lat="44.40164130312434" lon="7.827808269830786"><ele>393.2</ele><time>2026-04-02T17:54:44.998Z</time></trkpt><trkpt lat="44.40172693157993" lon="7.827896524492172"><ele>394.0</ele><time>2026-04-02T17:54:45.998Z</time></trkpt><trkpt lat="44.401803999184104" lon="7.827977694411343"><ele>394.0</ele><time>2026-04-02T17:54:46.998Z</time></trkpt><trkpt lat="44.4019024681388" lon="7.8280709913451485"><ele>394.0</ele><time>2026-04-02T17:54:47.998Z</time></trkpt><trkpt lat="44.40198572872534" lon="7.828161067243995"><ele>394.0</ele><time>2026-04-02T17:54:48.998Z</time></trkpt><trkpt lat="44.40207318675745" lon="7.828248564762546"><ele>394.0</ele><time>2026-04-02T17:54:49.998Z</time></trkpt><trkpt lat="44.402167765688525" lon="7.828329907274116"><ele>394.0</ele><time>2026-04-02T17:54:50.998Z</time></trkpt><trkpt lat="44.402256960554574" lon="7.828419537339647"><ele>394.5</ele><time>2026-04-02T17:54:51.998Z</time></trkpt><trkpt lat="44.40235410542896" lon="7.828517461557971"><ele>395.0</ele><time>2026-04-02T17:54:52.998Z</time></trkpt><trkpt lat="44.40244923095852" lon="7.828610232611598"><ele>395.5</ele><time>2026-04-02T17:54:54Z</time></trkpt><trkpt lat="44.40254438840621" lon="7.828714962123718"><ele>396.0</ele><time>2026-04-02T17:54:55Z</time></trkpt><trkpt lat="44.40263503682046" lon="7.828803047748255"><ele>396.0</ele><time>2026-04-02T17:54:56Z</time></trkpt><trkpt lat="44.40272695561877" lon="7.8288961437340046"><ele>396.0</ele><time>2026-04-02T17:54:57Z</time></trkpt><trkpt lat="44.40280888498594" lon="7.8289823752372785"><ele>396.0</ele><time>2026-04-02T17:54:58Z</time></trkpt><trkpt lat="44.40288720519959" lon="7.829052152573808"><ele>396.0</ele><time>2026-04-02T17:54:59Z</time></trkpt><trkpt lat="44.40295467643607" lon="7.829128246992052"><ele>396.0</ele><time>2026-04-02T17:55:00Z</time></trkpt><trkpt lat="44.40302615871729" lon="7.829190592016631"><ele>396.4</ele><time>2026-04-02T17:55:01Z</time></trkpt><trkpt lat="44.403129103315564" lon="7.829281976404113"><ele>396.8</ele><time>2026-04-02T17:55:03Z</time></trkpt><trkpt lat="44.403194115825094" lon="7.829345173655328"><ele>397.2</ele><time>2026-04-02T17:55:04Z</time></trkpt><trkpt lat="44.403255060792134" lon="7.829415291375217"><ele>397.59999999999997</ele><time>2026-04-02T17:55:05Z</time></trkpt><trkpt lat="44.40330787754363" lon="7.829471694699285"><ele>398.0</ele><time>2026-04-02T17:55:06Z</time></trkpt><trkpt lat="44.4034079067817" lon="7.829604542601324"><ele>397.99999999999994</ele><time>2026-04-02T17:55:08Z</time></trkpt><trkpt lat="44.40346665455415" lon="7.829679560530843"><ele>398.0</ele><time>2026-04-02T17:55:09Z</time></trkpt><trkpt lat="44.40352817950621" lon="7.829756457244386"><ele>398.0</ele><time>2026-04-02T17:55:10Z</time></trkpt><trkpt lat="44.40359764309057" lon="7.829813018323282"><ele>398.0</ele><time>2026-04-02T17:55:11Z</time></trkpt><trkpt lat="44.403662431439145" lon="7.829870003076881"><ele>397.99999999999994</ele><time>2026-04-02T17:55:12Z</time></trkpt><trkpt lat="44.403741953667755" lon="7.829939304608206"><ele>398.0</ele><time>2026-04-02T17:55:13Z</time></trkpt><trkpt lat="44.403818103781916" lon="7.830010800921406"><ele>397.79999999999995</ele><time>2026-04-02T17:55:14Z</time></trkpt><trkpt lat="44.40389569090903" lon="7.830083732993542"><ele>397.6</ele><time>2026-04-02T17:55:15Z</time></trkpt><trkpt lat="44.40397622428181" lon="7.830165942149211"><ele>397.4</ele><time>2026-04-02T17:55:16Z</time></trkpt><trkpt lat="44.40405108632238" lon="7.830242973293051"><ele>397.20000000000005</ele><time>2026-04-02T17:55:17Z</time></trkpt><trkpt lat="44.404131780262915" lon="7.830328690186483"><ele>397.0</ele><time>2026-04-02T17:55:18Z</time></trkpt><trkpt lat="44.40423305262945" lon="7.830422782582617"><ele>396.8</ele><time>2026-04-02T17:55:19Z</time></trkpt><trkpt lat="44.40432479991926" lon="7.830518908012114"><ele>396.6</ele><time>2026-04-02T17:55:20Z</time></trkpt><trkpt lat="44.404384770190184" lon="7.830596276850596"><ele>396.40000000000003</ele><time>2026-04-02T17:55:21Z</time></trkpt><trkpt lat="44.40447174673974" lon="7.830682221772075"><ele>396.20000000000005</ele><time>2026-04-02T17:55:22Z</time></trkpt><trkpt lat="44.40456663487769" lon="7.830765191082941"><ele>396.0</ele><time>2026-04-02T17:55:23Z</time></trkpt><trkpt lat="44.404662147970505" lon="7.830859276340063"><ele>396.0</ele><time>2026-04-02T17:55:24Z</time></trkpt><trkpt lat="44.404745976384014" lon="7.830948996363377"><ele>396.0</ele><time>2026-04-02T17:55:25Z</time></trkpt><trkpt lat="44.40483217631286" lon="7.831036200781196"><ele>396.0</ele><time>2026-04-02T17:55:26Z</time></trkpt><trkpt lat="44.40492109816587" lon="7.831128970026857"><ele>396.0</ele><time>2026-04-02T17:55:27Z</time></trkpt><trkpt lat="44.4050027528507" lon="7.8312106106695305"><ele>396.0</ele><time>2026-04-02T17:55:28Z</time></trkpt><trkpt lat="44.405079423988404" lon="7.831295848984753"><ele>396.0</ele><time>2026-04-02T17:55:29Z</time></trkpt><trkpt lat="44.40514213310274" lon="7.83135939644529"><ele>396.0</ele><time>2026-04-02T17:55:30Z</time></trkpt><trkpt lat="44.4052131105669" lon="7.831421077345355"><ele>396.0</ele><time>2026-04-02T17:55:31Z</time></trkpt><trkpt lat="44.40527189419081" lon="7.831497386875335"><ele>396.0</ele><time>2026-04-02T17:55:32Z</time></trkpt><trkpt lat="44.40533798880143" lon="7.831568330571029"><ele>396.0</ele><time>2026-04-02T17:55:33Z</time></trkpt><trkpt lat="44.40539048231472" lon="7.831653151053986"><ele>396.0</ele><time>2026-04-02T17:55:34Z</time></trkpt><trkpt lat="44.405459395672665" lon="7.831768350769772"><ele>396.5</ele><time>2026-04-02T17:55:35Z</time></trkpt><trkpt lat="44.40551586180089" lon="7.831896220439126"><ele>397.0</ele><time>2026-04-02T17:55:36Z</time></trkpt><trkpt lat="44.40557396423637" lon="7.832031792535693"><ele>397.5</ele><time>2026-04-02T17:55:36.999Z</time></trkpt><trkpt lat="44.405631239264274" lon="7.832186571996978"><ele>398.0</ele><time>2026-04-02T17:55:37.999Z</time></trkpt><trkpt lat="44.405692691678084" lon="7.832358919427433"><ele>398.0</ele><time>2026-04-02T17:55:38.999Z</time></trkpt><trkpt lat="44.405749696257594" lon="7.832535110665817"><ele>398.0</ele><time>2026-04-02T17:55:39.999Z</time></trkpt><trkpt lat="44.40580007802525" lon="7.832714794630479"><ele>398.0</ele><time>2026-04-02T17:55:40.999Z</time></trkpt><trkpt lat="44.405861924305086" lon="7.832897756357442"><ele>398.0</ele><time>2026-04-02T17:55:41.999Z</time></trkpt><trkpt lat="44.4059024075051" lon="7.833089233863589"><ele>396.5</ele><time>2026-04-02T17:55:42.999Z</time></trkpt><trkpt lat="44.40594241925269" lon="7.833282177345019"><ele>395.0</ele><time>2026-04-02T17:55:43.999Z</time></trkpt><trkpt lat="44.405978655811694" lon="7.83346479238367"><ele>393.5</ele><time>2026-04-02T17:55:44.999Z</time></trkpt><trkpt lat="44.406016606455765" lon="7.833646416341009"><ele>392.0</ele><time>2026-04-02T17:55:45.999Z</time></trkpt><trkpt lat="44.40605737749849" lon="7.833819524687409"><ele>392.0</ele><time>2026-04-02T17:55:46.999Z</time></trkpt><trkpt lat="44.40609717736375" lon="7.833991076833874"><ele>392.0</ele><time>2026-04-02T17:55:47.999Z</time></trkpt><trkpt lat="44.406166175608696" lon="7.834167880913524"><ele>392.0</ele><time>2026-04-02T17:55:48.999Z</time></trkpt><trkpt lat="44.406243518919986" lon="7.83432633423557"><ele>392.0</ele><time>2026-04-02T17:55:49.999Z</time></trkpt><trkpt lat="44.40634779489816" lon="7.8344915503716575"><ele>394.0</ele><time>2026-04-02T17:55:50.999Z</time></trkpt><trkpt lat="44.40646568526081" lon="7.834655583046478"><ele>396.0</ele><time>2026-04-02T17:55:51.999Z</time></trkpt><trkpt lat="44.40659611025431" lon="7.834804427834141"><ele>398.0</ele><time>2026-04-02T17:55:52.999Z</time></trkpt><trkpt lat="44.406722312811176" lon="7.834950283409481"><ele>398.0</ele><time>2026-04-02T17:55:53.999Z</time></trkpt><trkpt lat="44.406834712892184" lon="7.835095545095329"><ele>398.0</ele><time>2026-04-02T17:55:54.999Z</time></trkpt><trkpt lat="44.40694555168247" lon="7.8352384366436745"><ele>398.0</ele><time>2026-04-02T17:55:55.999Z</time></trkpt><trkpt lat="44.407059142460184" lon="7.835377490488041"><ele>397.75</ele><time>2026-04-02T17:55:56.999Z</time></trkpt><trkpt lat="44.40716569046907" lon="7.8355073568628715"><ele>397.5</ele><time>2026-04-02T17:55:57.999Z</time></trkpt><trkpt lat="44.40727620827342" lon="7.835645974997669"><ele>397.25</ele><time>2026-04-02T17:55:58.999Z</time></trkpt><trkpt lat="44.407396765494305" lon="7.835786892410826"><ele>397.0</ele><time>2026-04-02T17:55:59.999Z</time></trkpt><trkpt lat="44.40751166252401" lon="7.835924188574365"><ele>397.0</ele><time>2026-04-02T17:56:00.999Z</time></trkpt><trkpt lat="44.407627198678775" lon="7.836062182699795"><ele>397.0</ele><time>2026-04-02T17:56:01.999Z</time></trkpt><trkpt lat="44.40773286762276" lon="7.836198942841714"><ele>397.0</ele><time>2026-04-02T17:56:02.999Z</time></trkpt><trkpt lat="44.40783975547823" lon="7.83633151828291"><ele>397.0</ele><time>2026-04-02T17:56:03.999Z</time></trkpt><trkpt lat="44.40794356452822" lon="7.836470434769172"><ele>397.0</ele><time>2026-04-02T17:56:04.999Z</time></trkpt><trkpt lat="44.40805573177848" lon="7.836617807135183"><ele>397.0</ele><time>2026-04-02T17:56:05.999Z</time></trkpt><trkpt lat="44.4081660608321" lon="7.83675536057659"><ele>397.0</ele><time>2026-04-02T17:56:06.999Z</time></trkpt><trkpt lat="44.4082928577455" lon="7.836898620651023"><ele>397.0</ele><time>2026-04-02T17:56:07.999Z</time></trkpt><trkpt lat="44.408408307690856" lon="7.837036262433958"><ele>397.0</ele><time>2026-04-02T17:56:08.999Z</time></trkpt><trkpt lat="44.408515603035696" lon="7.837165026863697"><ele>397.0</ele><time>2026-04-02T17:56:09.999Z</time></trkpt><trkpt lat="44.40862267869125" lon="7.8373010638331735"><ele>397.0</ele><time>2026-04-02T17:56:10.999Z</time></trkpt><trkpt lat="44.408723225468506" lon="7.837418029984149"><ele>397.0</ele><time>2026-04-02T17:56:11.999Z</time></trkpt><trkpt lat="44.408818816134804" lon="7.837535234842658"><ele>397.0</ele><time>2026-04-02T17:56:12.999Z</time></trkpt><trkpt lat="44.40891982625663" lon="7.83765526966382"><ele>397.0</ele><time>2026-04-02T17:56:13.999Z</time></trkpt><trkpt lat="44.40901740861434" lon="7.8377766344508455"><ele>397.0</ele><time>2026-04-02T17:56:14.999Z</time></trkpt><trkpt lat="44.40912021511522" lon="7.837900168835175"><ele>397.0</ele><time>2026-04-02T17:56:15.999Z</time></trkpt><trkpt lat="44.40921698155603" lon="7.838019112223233"><ele>397.0</ele><time>2026-04-02T17:56:16.999Z</time></trkpt><trkpt lat="44.4093218387273" lon="7.8381424822520405"><ele>397.0</ele><time>2026-04-02T17:56:17.999Z</time></trkpt><trkpt lat="44.40942595754202" lon="7.838270265423902"><ele>397.0</ele><time>2026-04-02T17:56:18.999Z</time></trkpt><trkpt lat="44.40954055020763" lon="7.838414239773966"><ele>396.75</ele><time>2026-04-02T17:56:19.999Z</time></trkpt><trkpt lat="44.40964874202363" lon="7.8385454080377635"><ele>396.5</ele><time>2026-04-02T17:56:20.999Z</time></trkpt><trkpt lat="44.40976060689146" lon="7.8386771393039965"><ele>396.25</ele><time>2026-04-02T17:56:21.999Z</time></trkpt><trkpt lat="44.40987754469725" lon="7.8388164324688425"><ele>396.0</ele><time>2026-04-02T17:56:22.999Z</time></trkpt><trkpt lat="44.40999898762622" lon="7.838963281540865"><ele>395.66666666666663</ele><time>2026-04-02T17:56:23.999Z</time></trkpt><trkpt lat="44.41011105807004" lon="7.83909714565511"><ele>395.3333333333333</ele><time>2026-04-02T17:56:24.999Z</time></trkpt><trkpt lat="44.41022988384805" lon="7.839244144833602"><ele>395.0</ele><time>2026-04-02T17:56:25.999Z</time></trkpt><trkpt lat="44.41034136431486" lon="7.839386917660729"><ele>394.5</ele><time>2026-04-02T17:56:26.999Z</time></trkpt><trkpt lat="44.410461729975786" lon="7.839522714956734"><ele>394.0</ele><time>2026-04-02T17:56:27.999Z</time></trkpt><trkpt lat="44.41057638357462" lon="7.839654970740779"><ele>393.5</ele><time>2026-04-02T17:56:28.999Z</time></trkpt><trkpt lat="44.41068287552676" lon="7.839788855163139"><ele>393.0</ele><time>2026-04-02T17:56:29.999Z</time></trkpt><trkpt lat="44.41079197278798" lon="7.8399202848997955"><ele>392.66666666666663</ele><time>2026-04-02T17:56:30.999Z</time></trkpt><trkpt lat="44.410903267655115" lon="7.840054060797261"><ele>392.3333333333333</ele><time>2026-04-02T17:56:31.999Z</time></trkpt><trkpt lat="44.41102727747998" lon="7.840194795347826"><ele>392.0</ele><time>2026-04-02T17:56:32.999Z</time></trkpt><trkpt lat="44.41113290406185" lon="7.840336048796561"><ele>392.0</ele><time>2026-04-02T17:56:33.998Z</time></trkpt><trkpt lat="44.411245935849266" lon="7.8404827248994495"><ele>392.0</ele><time>2026-04-02T17:56:34.998Z</time></trkpt><trkpt lat="44.411360961412484" lon="7.84063367247967"><ele>392.0</ele><time>2026-04-02T17:56:35.998Z</time></trkpt><trkpt lat="44.411484046542824" lon="7.8407713648497275"><ele>392.0</ele><time>2026-04-02T17:56:36.998Z</time></trkpt><trkpt lat="44.41157675964417" lon="7.84092150363516"><ele>392.0</ele><time>2026-04-02T17:56:37.998Z</time></trkpt><trkpt lat="44.41167945694404" lon="7.841040719856258"><ele>392.0</ele><time>2026-04-02T17:56:38.998Z</time></trkpt><trkpt lat="44.41177156286679" lon="7.841152067300791"><ele>392.0</ele><time>2026-04-02T17:56:39.998Z</time></trkpt><trkpt lat="44.41185979141849" lon="7.841255690777086"><ele>392.0</ele><time>2026-04-02T17:56:40.998Z</time></trkpt><trkpt lat="44.41194743358357" lon="7.84135727492309"><ele>392.0</ele><time>2026-04-02T17:56:41.998Z</time></trkpt><trkpt lat="44.41202948871681" lon="7.841452437006397"><ele>392.0</ele><time>2026-04-02T17:56:42.998Z</time></trkpt><trkpt lat="44.412098018724876" lon="7.841540784761068"><ele>392.0</ele><time>2026-04-02T17:56:43.998Z</time></trkpt><trkpt lat="44.41215645702088" lon="7.841628775864317"><ele>392.0</ele><time>2026-04-02T17:56:44.998Z</time></trkpt><trkpt lat="44.412199935628706" lon="7.8417134979269125"><ele>392.20000000000005</ele><time>2026-04-02T17:56:45.998Z</time></trkpt><trkpt lat="44.41223442945819" lon="7.841797949025824"><ele>392.4</ele><time>2026-04-02T17:56:46.998Z</time></trkpt><trkpt lat="44.41226821424168" lon="7.841884737790594"><ele>392.6</ele><time>2026-04-02T17:56:47.998Z</time></trkpt><trkpt lat="44.41232763530371" lon="7.842036279674245"><ele>392.79999999999995</ele><time>2026-04-02T17:56:49.998Z</time></trkpt><trkpt lat="44.41229999082095" lon="7.842158019537176"><ele>393.0</ele><time>2026-04-02T17:56:50.998Z</time></trkpt><trkpt lat="44.41230018955469" lon="7.842312647444076"><ele>392.59999999999997</ele><time>2026-04-02T17:56:52.998Z</time></trkpt><trkpt lat="44.41236230894894" lon="7.842452000186075"><ele>392.2</ele><time>2026-04-02T17:56:54.998Z</time></trkpt><trkpt lat="44.4124895928038" lon="7.842530733697319"><ele>391.8</ele><time>2026-04-02T17:56:56.998Z</time></trkpt><trkpt lat="44.412567601497024" lon="7.842507294909813"><ele>391.4</ele><time>2026-04-02T17:56:57.998Z</time></trkpt><trkpt lat="44.41261868815651" lon="7.842444748179046"><ele>391.0</ele><time>2026-04-02T17:56:58.998Z</time></trkpt><trkpt lat="44.41268020642452" lon="7.842370515848366"><ele>391.0</ele><time>2026-04-02T17:57:00Z</time></trkpt><trkpt lat="44.41271755646944" lon="7.842283423929984"><ele>391.0</ele><time>2026-04-02T17:57:01Z</time></trkpt><trkpt lat="44.41285208575811" lon="7.842213725728751"><ele>391.0</ele><time>2026-04-02T17:57:03Z</time></trkpt><trkpt lat="44.412933955685" lon="7.84221365380901"><ele>391.0</ele><time>2026-04-02T17:57:04Z</time></trkpt><trkpt lat="44.41301843732033" lon="7.842233494006198"><ele>391.0</ele><time>2026-04-02T17:57:05Z</time></trkpt><trkpt lat="44.41311228532526" lon="7.84228278353534"><ele>391.0</ele><time>2026-04-02T17:57:06Z</time></trkpt><trkpt lat="44.413196231200516" lon="7.842359373070433"><ele>391.0</ele><time>2026-04-02T17:57:07Z</time></trkpt><trkpt lat="44.41331066622236" lon="7.842400392531163"><ele>391.0</ele><time>2026-04-02T17:57:08Z</time></trkpt><trkpt lat="44.41342638746015" lon="7.842471572050365"><ele>391.0</ele><time>2026-04-02T17:57:09Z</time></trkpt><trkpt lat="44.41354596328336" lon="7.8425506427302345"><ele>391.0</ele><time>2026-04-02T17:57:10Z</time></trkpt><trkpt lat="44.413671000566225" lon="7.842630496949808"><ele>391.0</ele><time>2026-04-02T17:57:11Z</time></trkpt><trkpt lat="44.41380126845742" lon="7.8427087010669405"><ele>391.0</ele><time>2026-04-02T17:57:12Z</time></trkpt><trkpt lat="44.413920407102125" lon="7.842805876177596"><ele>391.0</ele><time>2026-04-02T17:57:13Z</time></trkpt><trkpt lat="44.41406119945084" lon="7.8428895241747085"><ele>391.0</ele><time>2026-04-02T17:57:14Z</time></trkpt><trkpt lat="44.41421462972619" lon="7.842977001770275"><ele>391.0</ele><time>2026-04-02T17:57:15Z</time></trkpt><trkpt lat="44.41436073779788" lon="7.8430568178983435"><ele>391.0</ele><time>2026-04-02T17:57:16Z</time></trkpt><trkpt lat="44.41450269420983" lon="7.843131879985724"><ele>391.0</ele><time>2026-04-02T17:57:17Z</time></trkpt><trkpt lat="44.414636803737025" lon="7.843206297809667"><ele>391.0</ele><time>2026-04-02T17:57:18Z</time></trkpt><trkpt lat="44.41477366214274" lon="7.843278291171824"><ele>391.0</ele><time>2026-04-02T17:57:19Z</time></trkpt><trkpt lat="44.41492549767677" lon="7.843390535930109"><ele>390.75</ele><time>2026-04-02T17:57:20Z</time></trkpt><trkpt lat="44.41506512449777" lon="7.8434773382152985"><ele>390.5</ele><time>2026-04-02T17:57:21Z</time></trkpt><trkpt lat="44.41520244253081" lon="7.8435578835212265"><ele>390.25</ele><time>2026-04-02T17:57:22Z</time></trkpt><trkpt lat="44.41533555281822" lon="7.843642389493501"><ele>390.0</ele><time>2026-04-02T17:57:23Z</time></trkpt><trkpt lat="44.415465969456314" lon="7.843738157289568"><ele>390.25</ele><time>2026-04-02T17:57:24Z</time></trkpt><trkpt lat="44.41559863342846" lon="7.843839232958954"><ele>390.5</ele><time>2026-04-02T17:57:25Z</time></trkpt><trkpt lat="44.415716165749245" lon="7.843954749414365"><ele>390.75</ele><time>2026-04-02T17:57:26Z</time></trkpt><trkpt lat="44.41584805219881" lon="7.844065260318904"><ele>391.0</ele><time>2026-04-02T17:57:27Z</time></trkpt><trkpt lat="44.41597435170402" lon="7.844169126166755"><ele>391.0</ele><time>2026-04-02T17:57:28Z</time></trkpt><trkpt lat="44.41609661152954" lon="7.844282427232121"><ele>391.0</ele><time>2026-04-02T17:57:29Z</time></trkpt><trkpt lat="44.416212873505884" lon="7.8443909701300525"><ele>391.0</ele><time>2026-04-02T17:57:30Z</time></trkpt><trkpt lat="44.4163334430713" lon="7.844502266089341"><ele>391.0</ele><time>2026-04-02T17:57:31Z</time></trkpt><trkpt lat="44.41645491133658" lon="7.844620314571858"><ele>390.5</ele><time>2026-04-02T17:57:32Z</time></trkpt><trkpt lat="44.41656890603891" lon="7.844718301202366"><ele>390.0</ele><time>2026-04-02T17:57:33Z</time></trkpt><trkpt lat="44.4166806451344" lon="7.844826729643843"><ele>389.5</ele><time>2026-04-02T17:57:34Z</time></trkpt><trkpt lat="44.41680911824631" lon="7.844930240217431"><ele>389.0</ele><time>2026-04-02T17:57:35Z</time></trkpt><trkpt lat="44.41693393113539" lon="7.845043658811718"><ele>389.25</ele><time>2026-04-02T17:57:36Z</time></trkpt><trkpt lat="44.41705946096417" lon="7.8451525812627"><ele>389.5</ele><time>2026-04-02T17:57:37Z</time></trkpt><trkpt lat="44.41718096808665" lon="7.8452701340815265"><ele>389.75</ele><time>2026-04-02T17:57:38Z</time></trkpt><trkpt lat="44.417297433997106" lon="7.845377869828592"><ele>390.0</ele><time>2026-04-02T17:57:39Z</time></trkpt><trkpt lat="44.41741782747105" lon="7.845481949552213"><ele>390.25</ele><time>2026-04-02T17:57:40Z</time></trkpt><trkpt lat="44.41752692764463" lon="7.845568771998483"><ele>390.5</ele><time>2026-04-02T17:57:41Z</time></trkpt><trkpt lat="44.41764739173471" lon="7.845662529143498"><ele>390.75</ele><time>2026-04-02T17:57:41.999Z</time></trkpt><trkpt lat="44.41775360182141" lon="7.8457665599727555"><ele>391.0</ele><time>2026-04-02T17:57:42.999Z</time></trkpt><trkpt lat="44.41787224490905" lon="7.845853740275901"><ele>390.75</ele><time>2026-04-02T17:57:43.999Z</time></trkpt><trkpt lat="44.417985672989936" lon="7.845951342065238"><ele>390.5</ele><time>2026-04-02T17:57:44.999Z</time></trkpt><trkpt lat="44.4180963147714" lon="7.846052032246699"><ele>390.25</ele><time>2026-04-02T17:57:45.999Z</time></trkpt><trkpt lat="44.418194662384444" lon="7.8461354530286656"><ele>390.0</ele><time>2026-04-02T17:57:46.999Z</time></trkpt><trkpt lat="44.418292206977654" lon="7.8462240137196"><ele>390.0</ele><time>2026-04-02T17:57:47.999Z</time></trkpt><trkpt lat="44.41839478569513" lon="7.846305633169472"><ele>390.0</ele><time>2026-04-02T17:57:48.999Z</time></trkpt><trkpt lat="44.418493141504236" lon="7.846388543145888"><ele>390.0</ele><time>2026-04-02T17:57:49.999Z</time></trkpt><trkpt lat="44.418586113310106" lon="7.846477769271361"><ele>390.0</ele><time>2026-04-02T17:57:50.999Z</time></trkpt><trkpt lat="44.41868038267181" lon="7.846555212588585"><ele>390.0</ele><time>2026-04-02T17:57:51.999Z</time></trkpt><trkpt lat="44.418757850469596" lon="7.846623295926189"><ele>390.0</ele><time>2026-04-02T17:57:52.999Z</time></trkpt><trkpt lat="44.41883281697017" lon="7.846682648089209"><ele>390.0</ele><time>2026-04-02T17:57:53.999Z</time></trkpt><trkpt lat="44.418895434813734" lon="7.846734592867586"><ele>390.0</ele><time>2026-04-02T17:57:54.999Z</time></trkpt><trkpt lat="44.41896448141462" lon="7.846793956471045"><ele>390.0</ele><time>2026-04-02T17:57:55.999Z</time></trkpt><trkpt lat="44.419019229755726" lon="7.8468523107253185"><ele>390.0</ele><time>2026-04-02T17:57:56.999Z</time></trkpt><trkpt lat="44.41909956843302" lon="7.846963079610979"><ele>389.6</ele><time>2026-04-02T17:57:58.999Z</time></trkpt><trkpt lat="44.41913804645225" lon="7.847036199880803"><ele>389.2</ele><time>2026-04-02T17:57:59.999Z</time></trkpt><trkpt lat="44.419120377644674" lon="7.847168232045462"><ele>388.79999999999995</ele><time>2026-04-02T17:58:00.999Z</time></trkpt><trkpt lat="44.419144145489064" lon="7.847314862406339"><ele>388.4</ele><time>2026-04-02T17:58:02.999Z</time></trkpt><trkpt lat="44.41922710745707" lon="7.847446198239521"><ele>388.0</ele><time>2026-04-02T17:58:04.999Z</time></trkpt><trkpt lat="44.41934241597277" lon="7.847464500284833"><ele>388.0</ele><time>2026-04-02T17:58:06.999Z</time></trkpt><trkpt lat="44.419416902179755" lon="7.847453887038094"><ele>388.0</ele><time>2026-04-02T17:58:07.999Z</time></trkpt><trkpt lat="44.41947643556254" lon="7.847386672474833"><ele>388.0</ele><time>2026-04-02T17:58:08.999Z</time></trkpt><trkpt lat="44.41960456331699" lon="7.847496492021395"><ele>388.0</ele><time>2026-04-02T17:58:09.999Z</time></trkpt><trkpt lat="44.419703302916155" lon="7.847522453076746"><ele>388.0</ele><time>2026-04-02T17:58:10.999Z</time></trkpt><trkpt lat="44.419804872614634" lon="7.847598003781622"><ele>388.0</ele><time>2026-04-02T17:58:11.999Z</time></trkpt><trkpt lat="44.41989922692663" lon="7.8477027221253675"><ele>388.0</ele><time>2026-04-02T17:58:12.999Z</time></trkpt><trkpt lat="44.4200020294386" lon="7.847808101048688"><ele>388.0</ele><time>2026-04-02T17:58:13.999Z</time></trkpt><trkpt lat="44.42010684430486" lon="7.847931561867373"><ele>388.0</ele><time>2026-04-02T17:58:14.999Z</time></trkpt><trkpt lat="44.42020511944479" lon="7.848049761502428"><ele>388.0</ele><time>2026-04-02T17:58:15.999Z</time></trkpt><trkpt lat="44.4203192191975" lon="7.848178184116293"><ele>388.0</ele><time>2026-04-02T17:58:16.999Z</time></trkpt><trkpt lat="44.42044840517547" lon="7.848295911819422"><ele>388.0</ele><time>2026-04-02T17:58:17.999Z</time></trkpt><trkpt lat="44.4205489092733" lon="7.84841218012528"><ele>388.0</ele><time>2026-04-02T17:58:18.999Z</time></trkpt><trkpt lat="44.42065070675715" lon="7.848523953053435"><ele>387.59999999999997</ele><time>2026-04-02T17:58:19.999Z</time></trkpt><trkpt lat="44.42074061951331" lon="7.848613553982499"><ele>387.2</ele><time>2026-04-02T17:58:20.999Z</time></trkpt><trkpt lat="44.420832521480946" lon="7.8487002447669285"><ele>386.8</ele><time>2026-04-02T17:58:21.999Z</time></trkpt><trkpt lat="44.42091017011763" lon="7.8488012265395355"><ele>386.4</ele><time>2026-04-02T17:58:22.999Z</time></trkpt><trkpt lat="44.4210103553791" lon="7.848866624227325"><ele>386.0</ele><time>2026-04-02T17:58:23.999Z</time></trkpt><trkpt lat="44.42110245511256" lon="7.8489149580996855"><ele>385.99999999999994</ele><time>2026-04-02T17:58:24.999Z</time></trkpt><trkpt lat="44.42120217955019" lon="7.848939114536701"><ele>386.0</ele><time>2026-04-02T17:58:25.999Z</time></trkpt><trkpt lat="44.42127276687669" lon="7.848991031314396"><ele>386.0</ele><time>2026-04-02T17:58:26.999Z</time></trkpt><trkpt lat="44.42134772606865" lon="7.849023898034875"><ele>386.0</ele><time>2026-04-02T17:58:27.999Z</time></trkpt><trkpt lat="44.42141270524161" lon="7.849058999554389"><ele>385.99999999999994</ele><time>2026-04-02T17:58:28.999Z</time></trkpt><trkpt lat="44.42151274865468" lon="7.84914521811367"><ele>386.0</ele><time>2026-04-02T17:58:30.999Z</time></trkpt><trkpt lat="44.421551013287655" lon="7.84931296305132"><ele>385.8333333333333</ele><time>2026-04-02T17:58:32.999Z</time></trkpt><trkpt lat="44.42156565407807" lon="7.849410216656271"><ele>385.66666666666663</ele><time>2026-04-02T17:58:33.999Z</time></trkpt><trkpt lat="44.42159352856476" lon="7.849489271454839"><ele>385.5</ele><time>2026-04-02T17:58:34.999Z</time></trkpt><trkpt lat="44.42166559782751" lon="7.849618359279806"><ele>385.33333333333337</ele><time>2026-04-02T17:58:36.999Z</time></trkpt><trkpt lat="44.421729251630886" lon="7.849664872727349"><ele>385.1666666666667</ele><time>2026-04-02T17:58:37.998Z</time></trkpt><trkpt lat="44.42179255034454" lon="7.8496782683043484"><ele>385.0</ele><time>2026-04-02T17:58:38.998Z</time></trkpt><trkpt lat="44.421870140025355" lon="7.8496744571050305"><ele>385.00000000000006</ele><time>2026-04-02T17:58:39.998Z</time></trkpt><trkpt lat="44.4219564873106" lon="7.84967285340867"><ele>385.0</ele><time>2026-04-02T17:58:40.998Z</time></trkpt><trkpt lat="44.42203155321144" lon="7.849617022219318"><ele>385.0</ele><time>2026-04-02T17:58:41.998Z</time></trkpt><trkpt lat="44.422071850745056" lon="7.849532188609385"><ele>385.0</ele><time>2026-04-02T17:58:42.998Z</time></trkpt><trkpt lat="44.42211843366148" lon="7.849433234020769"><ele>385.00000000000006</ele><time>2026-04-02T17:58:43.998Z</time></trkpt><trkpt lat="44.42213460857079" lon="7.849339065637535"><ele>385.0</ele><time>2026-04-02T17:58:44.998Z</time></trkpt><trkpt lat="44.42234306414598" lon="7.849244320661905"><ele>385.0</ele><time>2026-04-02T17:58:47.998Z</time></trkpt><trkpt lat="44.42243656881666" lon="7.84926739944177"><ele>385.0</ele><time>2026-04-02T17:58:48.998Z</time></trkpt><trkpt lat="44.422528822484125" lon="7.8493061543893825"><ele>385.0</ele><time>2026-04-02T17:58:49.998Z</time></trkpt><trkpt lat="44.42261708241951" lon="7.849356790583144"><ele>385.0</ele><time>2026-04-02T17:58:50.998Z</time></trkpt><trkpt lat="44.42271566300813" lon="7.849434785840558"><ele>385.0</ele><time>2026-04-02T17:58:51.998Z</time></trkpt><trkpt lat="44.4227880406324" lon="7.849538865814693"><ele>385.00000000000006</ele><time>2026-04-02T17:58:52.998Z</time></trkpt><trkpt lat="44.42287086715841" lon="7.849642790461673"><ele>385.0</ele><time>2026-04-02T17:58:53.998Z</time></trkpt><trkpt lat="44.42293761317218" lon="7.849715162693498"><ele>385.0</ele><time>2026-04-02T17:58:54.998Z</time></trkpt><trkpt lat="44.42298742271061" lon="7.849806746860601"><ele>385.0</ele><time>2026-04-02T17:58:55.998Z</time></trkpt><trkpt lat="44.423020850589076" lon="7.849907852617996"><ele>385.00000000000006</ele><time>2026-04-02T17:58:56.998Z</time></trkpt><trkpt lat="44.42306293814208" lon="7.850009454859451"><ele>385.0</ele><time>2026-04-02T17:58:57.998Z</time></trkpt><trkpt lat="44.42310243587903" lon="7.850121799374468"><ele>384.8</ele><time>2026-04-02T17:58:58.998Z</time></trkpt><trkpt lat="44.423166429994836" lon="7.850213050814627"><ele>384.6</ele><time>2026-04-02T17:58:59.998Z</time></trkpt><trkpt lat="44.42325277728413" lon="7.850302238063616"><ele>384.4</ele><time>2026-04-02T17:59:00.998Z</time></trkpt><trkpt lat="44.42335135615276" lon="7.8503956786802105"><ele>384.2</ele><time>2026-04-02T17:59:01.998Z</time></trkpt><trkpt lat="44.42344445221571" lon="7.8505213645322085"><ele>384.0</ele><time>2026-04-02T17:59:02.998Z</time></trkpt><trkpt lat="44.42353097821294" lon="7.8506691771160675"><ele>384.0</ele><time>2026-04-02T17:59:03.998Z</time></trkpt><trkpt lat="44.42361374597488" lon="7.850823748753314"><ele>384.0</ele><time>2026-04-02T17:59:04.998Z</time></trkpt><trkpt lat="44.42370811048251" lon="7.851002154394484"><ele>384.0</ele><time>2026-04-02T17:59:06Z</time></trkpt><trkpt lat="44.42379701887808" lon="7.85119678613782"><ele>383.6666666666667</ele><time>2026-04-02T17:59:07Z</time></trkpt><trkpt lat="44.42387969441598" lon="7.851372918409101"><ele>383.33333333333337</ele><time>2026-04-02T17:59:08Z</time></trkpt><trkpt lat="44.42397507333475" lon="7.851590864218358"><ele>383.0</ele><time>2026-04-02T17:59:09Z</time></trkpt><trkpt lat="44.42409676393294" lon="7.851805951452923"><ele>382.6666666666667</ele><time>2026-04-02T17:59:10Z</time></trkpt><trkpt lat="44.424203099018904" lon="7.852026029942134"><ele>382.3333333333333</ele><time>2026-04-02T17:59:11Z</time></trkpt><trkpt lat="44.424296949238936" lon="7.852240915522149"><ele>382.0</ele><time>2026-04-02T17:59:12Z</time></trkpt><trkpt lat="44.42439722579741" lon="7.852448273300454"><ele>382.0</ele><time>2026-04-02T17:59:13Z</time></trkpt><trkpt lat="44.42450011612405" lon="7.852656189364793"><ele>382.0</ele><time>2026-04-02T17:59:14Z</time></trkpt><trkpt lat="44.42461927885603" lon="7.852861771329596"><ele>382.0</ele><time>2026-04-02T17:59:15Z</time></trkpt><trkpt lat="44.42475365378822" lon="7.853060448024634"><ele>382.0</ele><time>2026-04-02T17:59:16Z</time></trkpt><trkpt lat="44.42490024232166" lon="7.853248480446223"><ele>382.0</ele><time>2026-04-02T17:59:17Z</time></trkpt><trkpt lat="44.425050580475265" lon="7.853433441670003"><ele>382.0</ele><time>2026-04-02T17:59:18Z</time></trkpt><trkpt lat="44.425197119513584" lon="7.853627041735676"><ele>382.3333333333333</ele><time>2026-04-02T17:59:19Z</time></trkpt><trkpt lat="44.42534752186881" lon="7.8538254609119935"><ele>382.6666666666667</ele><time>2026-04-02T17:59:20Z</time></trkpt><trkpt lat="44.42550010568979" lon="7.85402629999032"><ele>383.0</ele><time>2026-04-02T17:59:21Z</time></trkpt><trkpt lat="44.42565546809538" lon="7.8542286688601415"><ele>383.0</ele><time>2026-04-02T17:59:22Z</time></trkpt><trkpt lat="44.42581179990416" lon="7.854441608464716"><ele>383.0</ele><time>2026-04-02T17:59:23Z</time></trkpt><trkpt lat="44.42597724436195" lon="7.854647892510724"><ele>383.0</ele><time>2026-04-02T17:59:24Z</time></trkpt><trkpt lat="44.42614501896486" lon="7.854869082726735"><ele>382.5</ele><time>2026-04-02T17:59:25Z</time></trkpt><trkpt lat="44.42631628331508" lon="7.855092183654878"><ele>382.0</ele><time>2026-04-02T17:59:26Z</time></trkpt><trkpt lat="44.4264743810349" lon="7.855324297274857"><ele>382.0</ele><time>2026-04-02T17:59:27Z</time></trkpt><trkpt lat="44.426660532931145" lon="7.855552631379308"><ele>382.0</ele><time>2026-04-02T17:59:28Z</time></trkpt><trkpt lat="44.42684346585591" lon="7.855800475933452"><ele>382.0</ele><time>2026-04-02T17:59:29Z</time></trkpt><trkpt lat="44.427035866248424" lon="7.856007027638544"><ele>382.0</ele><time>2026-04-02T17:59:30Z</time></trkpt><trkpt lat="44.42720022093558" lon="7.856228763720895"><ele>382.0</ele><time>2026-04-02T17:59:31Z</time></trkpt><trkpt lat="44.42736773594953" lon="7.8564578924935695"><ele>382.0</ele><time>2026-04-02T17:59:32Z</time></trkpt><trkpt lat="44.42755145425624" lon="7.856674492243629"><ele>381.5</ele><time>2026-04-02T17:59:33Z</time></trkpt><trkpt lat="44.427729575215835" lon="7.856899986920338"><ele>381.0</ele><time>2026-04-02T17:59:34Z</time></trkpt><trkpt lat="44.42791535548265" lon="7.857126356922123"><ele>380.0</ele><time>2026-04-02T17:59:35Z</time></trkpt><trkpt lat="44.428109366695004" lon="7.857352037986114"><ele>379.0</ele><time>2026-04-02T17:59:36Z</time></trkpt><trkpt lat="44.42830375746686" lon="7.8575635454521775"><ele>379.0</ele><time>2026-04-02T17:59:37Z</time></trkpt><trkpt lat="44.42850462743883" lon="7.857787287309732"><ele>379.0</ele><time>2026-04-02T17:59:38Z</time></trkpt><trkpt lat="44.428704205659145" lon="7.858009358450054"><ele>379.0</ele><time>2026-04-02T17:59:39Z</time></trkpt><trkpt lat="44.42888871150167" lon="7.858246753838931"><ele>379.0</ele><time>2026-04-02T17:59:40Z</time></trkpt><trkpt lat="44.429087157774475" lon="7.858470449870724"><ele>379.0</ele><time>2026-04-02T17:59:41Z</time></trkpt><trkpt lat="44.42928454289051" lon="7.858692949759013"><ele>379.0</ele><time>2026-04-02T17:59:42Z</time></trkpt><trkpt lat="44.42948179482706" lon="7.85891444711517"><ele>378.5</ele><time>2026-04-02T17:59:43Z</time></trkpt><trkpt lat="44.429684756288495" lon="7.859141836915988"><ele>378.0</ele><time>2026-04-02T17:59:44Z</time></trkpt><trkpt lat="44.4298865071263" lon="7.859367870412509"><ele>379.0</ele><time>2026-04-02T17:59:45Z</time></trkpt><trkpt lat="44.43008678038117" lon="7.859592389388236"><ele>380.0</ele><time>2026-04-02T17:59:46Z</time></trkpt><trkpt lat="44.43028231418483" lon="7.8598121583935985"><ele>379.0</ele><time>2026-04-02T17:59:47Z</time></trkpt><trkpt lat="44.43047816076302" lon="7.860032278914542"><ele>378.0</ele><time>2026-04-02T17:59:47.999Z</time></trkpt><trkpt lat="44.43067682619032" lon="7.86025513936899"><ele>378.0</ele><time>2026-04-02T17:59:48.999Z</time></trkpt><trkpt lat="44.43087724601397" lon="7.860479000811779"><ele>378.0</ele><time>2026-04-02T17:59:49.999Z</time></trkpt><trkpt lat="44.431086051140575" lon="7.860685995611382"><ele>378.0</ele><time>2026-04-02T17:59:50.999Z</time></trkpt><trkpt lat="44.43127379435335" lon="7.860925510506718"><ele>378.0</ele><time>2026-04-02T17:59:51.999Z</time></trkpt><trkpt lat="44.431471971305285" lon="7.861147728463993"><ele>378.5</ele><time>2026-04-02T17:59:52.999Z</time></trkpt><trkpt lat="44.431677530529" lon="7.861363667782743"><ele>379.0</ele><time>2026-04-02T17:59:53.999Z</time></trkpt><trkpt lat="44.431877892504275" lon="7.861576771541789"><ele>378.5</ele><time>2026-04-02T17:59:54.999Z</time></trkpt><trkpt lat="44.43207252271971" lon="7.86180952448354"><ele>378.0</ele><time>2026-04-02T17:59:55.999Z</time></trkpt><trkpt lat="44.43226272303359" lon="7.862037996519417"><ele>376.5</ele><time>2026-04-02T17:59:56.999Z</time></trkpt><trkpt lat="44.43245863243075" lon="7.862257842798149"><ele>375.0</ele><time>2026-04-02T17:59:57.999Z</time></trkpt><trkpt lat="44.432655372685886" lon="7.862484920931891"><ele>375.0</ele><time>2026-04-02T17:59:58.999Z</time></trkpt><trkpt lat="44.4328527941319" lon="7.862706489701556"><ele>375.0</ele><time>2026-04-02T17:59:59.999Z</time></trkpt><trkpt lat="44.43304544262198" lon="7.862927804673384"><ele>375.0</ele><time>2026-04-02T18:00:00.999Z</time></trkpt><trkpt lat="44.43324405537955" lon="7.8631334864762"><ele>375.0</ele><time>2026-04-02T18:00:01.999Z</time></trkpt><trkpt lat="44.433442278398935" lon="7.8633516198829865"><ele>375.0</ele><time>2026-04-02T18:00:02.999Z</time></trkpt><trkpt lat="44.433628750450765" lon="7.863569091645847"><ele>375.0</ele><time>2026-04-02T18:00:03.999Z</time></trkpt><trkpt lat="44.433821930394174" lon="7.8637825944319095"><ele>374.5</ele><time>2026-04-02T18:00:04.999Z</time></trkpt><trkpt lat="44.434020297098336" lon="7.864002772542136"><ele>374.0</ele><time>2026-04-02T18:00:05.999Z</time></trkpt><trkpt lat="44.43420469986711" lon="7.864215829080331"><ele>374.0</ele><time>2026-04-02T18:00:06.999Z</time></trkpt><trkpt lat="44.43440368419537" lon="7.864447849980255"><ele>374.0</ele><time>2026-04-02T18:00:07.999Z</time></trkpt><trkpt lat="44.434589794470675" lon="7.864656297992685"><ele>373.5</ele><time>2026-04-02T18:00:08.999Z</time></trkpt><trkpt lat="44.43477676380509" lon="7.864870547485162"><ele>373.0</ele><time>2026-04-02T18:00:09.999Z</time></trkpt><trkpt lat="44.43496846970942" lon="7.865086580498351"><ele>373.5</ele><time>2026-04-02T18:00:10.999Z</time></trkpt><trkpt lat="44.4351598472149" lon="7.865295884860152"><ele>374.0</ele><time>2026-04-02T18:00:11.999Z</time></trkpt><trkpt lat="44.43535977136825" lon="7.865508247288066"><ele>373.5</ele><time>2026-04-02T18:00:12.999Z</time></trkpt><trkpt lat="44.43554812439931" lon="7.865718996934086"><ele>373.0</ele><time>2026-04-02T18:00:13.999Z</time></trkpt><trkpt lat="44.43574443437678" lon="7.865938649411088"><ele>373.5</ele><time>2026-04-02T18:00:14.999Z</time></trkpt><trkpt lat="44.43593379772883" lon="7.866150671021805"><ele>374.0</ele><time>2026-04-02T18:00:15.999Z</time></trkpt><trkpt lat="44.436116078636395" lon="7.866355014773889"><ele>374.0</ele><time>2026-04-02T18:00:16.999Z</time></trkpt><trkpt lat="44.43629780881747" lon="7.866558909997491"><ele>374.0</ele><time>2026-04-02T18:00:17.999Z</time></trkpt><trkpt lat="44.43647877556952" lon="7.866762270802136"><ele>373.5</ele><time>2026-04-02T18:00:18.999Z</time></trkpt><trkpt lat="44.43666758011748" lon="7.866972407351205"><ele>373.0</ele><time>2026-04-02T18:00:19.999Z</time></trkpt><trkpt lat="44.43684635328624" lon="7.867171379167466"><ele>373.0</ele><time>2026-04-02T18:00:20.999Z</time></trkpt><trkpt lat="44.437028781445306" lon="7.867374418896567"><ele>373.0</ele><time>2026-04-02T18:00:21.999Z</time></trkpt><trkpt lat="44.437196302821555" lon="7.8675608676249515"><ele>373.0</ele><time>2026-04-02T18:00:22.999Z</time></trkpt><trkpt lat="44.43735752923243" lon="7.867719710594414"><ele>372.3333333333333</ele><time>2026-04-02T18:00:23.999Z</time></trkpt><trkpt lat="44.43752931184275" lon="7.86792490684001"><ele>371.6666666666667</ele><time>2026-04-02T18:00:24.999Z</time></trkpt><trkpt lat="44.4377074179182" lon="7.8681079098799325"><ele>371.0</ele><time>2026-04-02T18:00:25.999Z</time></trkpt><trkpt lat="44.437885977323404" lon="7.868288944820082"><ele>371.0</ele><time>2026-04-02T18:00:26.999Z</time></trkpt><trkpt lat="44.43806615977419" lon="7.868468074057465"><ele>371.0</ele><time>2026-04-02T18:00:27.999Z</time></trkpt><trkpt lat="44.438259647919516" lon="7.86864976179925"><ele>371.0</ele><time>2026-04-02T18:00:28.999Z</time></trkpt><trkpt lat="44.43845315734967" lon="7.868823487846095"><ele>371.0</ele><time>2026-04-02T18:00:29.999Z</time></trkpt><trkpt lat="44.438646548560655" lon="7.868992753944126"><ele>371.0</ele><time>2026-04-02T18:00:30.999Z</time></trkpt><trkpt lat="44.43884925313965" lon="7.8691656345601935"><ele>371.0</ele><time>2026-04-02T18:00:31.999Z</time></trkpt><trkpt lat="44.439049489931136" lon="7.8693300429370145"><ele>371.0</ele><time>2026-04-02T18:00:32.999Z</time></trkpt><trkpt lat="44.439260881333645" lon="7.869496836471154"><ele>371.0</ele><time>2026-04-02T18:00:33.999Z</time></trkpt><trkpt lat="44.43947093017508" lon="7.869655441988842"><ele>371.0</ele><time>2026-04-02T18:00:34.999Z</time></trkpt><trkpt lat="44.439679490110635" lon="7.869811349083557"><ele>371.0</ele><time>2026-04-02T18:00:35.999Z</time></trkpt><trkpt lat="44.43989047354467" lon="7.869969067848208"><ele>371.0</ele><time>2026-04-02T18:00:36.999Z</time></trkpt><trkpt lat="44.440083041350825" lon="7.870115988605944"><ele>371.0</ele><time>2026-04-02T18:00:37.999Z</time></trkpt><trkpt lat="44.44027020172357" lon="7.870259415401577"><ele>371.0</ele><time>2026-04-02T18:00:38.999Z</time></trkpt><trkpt lat="44.440462981117726" lon="7.870405886390144"><ele>370.6666666666667</ele><time>2026-04-02T18:00:39.999Z</time></trkpt><trkpt lat="44.440658529292236" lon="7.8705535149726185"><ele>370.3333333333333</ele><time>2026-04-02T18:00:40.999Z</time></trkpt><trkpt lat="44.440858466521" lon="7.870704457055884"><ele>370.0</ele><time>2026-04-02T18:00:41.999Z</time></trkpt><trkpt lat="44.441044184391714" lon="7.8708446642893195"><ele>369.0</ele><time>2026-04-02T18:00:42.999Z</time></trkpt><trkpt lat="44.441247647820816" lon="7.870999819924677"><ele>368.0</ele><time>2026-04-02T18:00:43.998Z</time></trkpt><trkpt lat="44.44144483429789" lon="7.871150355029107"><ele>366.33333333333337</ele><time>2026-04-02T18:00:44.998Z</time></trkpt><trkpt lat="44.441636543069436" lon="7.871296459534212"><ele>364.6666666666667</ele><time>2026-04-02T18:00:45.998Z</time></trkpt><trkpt lat="44.44182530262595" lon="7.871438244453434"><ele>363.0</ele><time>2026-04-02T18:00:46.998Z</time></trkpt><trkpt lat="44.442008521510324" lon="7.871562364356526"><ele>361.3333333333333</ele><time>2026-04-02T18:00:47.998Z</time></trkpt><trkpt lat="44.44218837321356" lon="7.8717141371175305"><ele>359.66666666666663</ele><time>2026-04-02T18:00:48.998Z</time></trkpt><trkpt lat="44.44236999095068" lon="7.871829859715468"><ele>358.0</ele><time>2026-04-02T18:00:49.998Z</time></trkpt><trkpt lat="44.442529531419396" lon="7.871963912181516"><ele>357.66666666666663</ele><time>2026-04-02T18:00:50.998Z</time></trkpt><trkpt lat="44.442685602015125" lon="7.872100247610543"><ele>357.3333333333333</ele><time>2026-04-02T18:00:51.998Z</time></trkpt><trkpt lat="44.442839787031495" lon="7.872232024448163"><ele>357.0</ele><time>2026-04-02T18:00:52.998Z</time></trkpt><trkpt lat="44.442996633000995" lon="7.87236077302162"><ele>356.0</ele><time>2026-04-02T18:00:53.998Z</time></trkpt><trkpt lat="44.44313642175023" lon="7.87248911405988"><ele>355.0</ele><time>2026-04-02T18:00:54.998Z</time></trkpt><trkpt lat="44.44327397559005" lon="7.872613576352223"><ele>354.0</ele><time>2026-04-02T18:00:55.998Z</time></trkpt><trkpt lat="44.44340913018559" lon="7.87273851027194"><ele>350.0</ele><time>2026-04-02T18:00:56.998Z</time></trkpt><trkpt lat="44.44354232243432" lon="7.872869052262287"><ele>346.0</ele><time>2026-04-02T18:00:57.998Z</time></trkpt><trkpt lat="44.44366590066486" lon="7.87301472487052"><ele>342.0</ele><time>2026-04-02T18:00:58.998Z</time></trkpt><trkpt lat="44.44379478256641" lon="7.873141524161502"><ele>342.3333333333333</ele><time>2026-04-02T18:00:59.998Z</time></trkpt><trkpt lat="44.443922458658704" lon="7.87326713674231"><ele>342.66666666666663</ele><time>2026-04-02T18:01:00.998Z</time></trkpt><trkpt lat="44.444066307133966" lon="7.873354749612799"><ele>343.0</ele><time>2026-04-02T18:01:01.998Z</time></trkpt><trkpt lat="44.44419321672587" lon="7.873475605601418"><ele>342.0</ele><time>2026-04-02T18:01:02.998Z</time></trkpt><trkpt lat="44.44431382122953" lon="7.873600424646323"><ele>341.0</ele><time>2026-04-02T18:01:03.998Z</time></trkpt><trkpt lat="44.444426628358904" lon="7.873724161159607"><ele>340.0</ele><time>2026-04-02T18:01:04.998Z</time></trkpt><trkpt lat="44.444542632825616" lon="7.873842532082015"><ele>339.0</ele><time>2026-04-02T18:01:05.998Z</time></trkpt><trkpt lat="44.44463939858243" lon="7.873953456301448"><ele>339.0</ele><time>2026-04-02T18:01:06.998Z</time></trkpt><trkpt lat="44.444735626193236" lon="7.874072098694577"><ele>339.0</ele><time>2026-04-02T18:01:07.998Z</time></trkpt><trkpt lat="44.44483301533394" lon="7.874199375542479"><ele>339.0</ele><time>2026-04-02T18:01:08.998Z</time></trkpt><trkpt lat="44.44492758084309" lon="7.874339285004347"><ele>339.0</ele><time>2026-04-02T18:01:09.998Z</time></trkpt><trkpt lat="44.44500983483334" lon="7.8744826719864"><ele>336.25</ele><time>2026-04-02T18:01:10.998Z</time></trkpt><trkpt lat="44.44509442974625" lon="7.874638529181343"><ele>333.5</ele><time>2026-04-02T18:01:12Z</time></trkpt><trkpt lat="44.445166918090315" lon="7.874811654901631"><ele>330.75</ele><time>2026-04-02T18:01:13Z</time></trkpt><trkpt lat="44.44523557575969" lon="7.87497534964932"><ele>328.0</ele><time>2026-04-02T18:01:14Z</time></trkpt><trkpt lat="44.445299717134375" lon="7.875149316658726"><ele>324.5</ele><time>2026-04-02T18:01:15Z</time></trkpt><trkpt lat="44.445355260152255" lon="7.875326129694703"><ele>321.0</ele><time>2026-04-02T18:01:16Z</time></trkpt><trkpt lat="44.44540195204945" lon="7.8755070863999"><ele>317.5</ele><time>2026-04-02T18:01:17Z</time></trkpt><trkpt lat="44.44544608017299" lon="7.875695046575448"><ele>314.0</ele><time>2026-04-02T18:01:18Z</time></trkpt><trkpt lat="44.4454763940043" lon="7.875883750615909"><ele>319.0</ele><time>2026-04-02T18:01:19Z</time></trkpt><trkpt lat="44.44550309212211" lon="7.876067134313074"><ele>324.0</ele><time>2026-04-02T18:01:20Z</time></trkpt><trkpt lat="44.4455308070699" lon="7.876252748704005"><ele>329.0</ele><time>2026-04-02T18:01:21Z</time></trkpt><trkpt lat="44.44555995526468" lon="7.8764349832413965"><ele>334.0</ele><time>2026-04-02T18:01:22Z</time></trkpt><trkpt lat="44.445593402104116" lon="7.8766027517081865"><ele>334.0</ele><time>2026-04-02T18:01:23Z</time></trkpt><trkpt lat="44.44562489006774" lon="7.876763923618771"><ele>334.0</ele><time>2026-04-02T18:01:24Z</time></trkpt><trkpt lat="44.445663604044256" lon="7.876915654422849"><ele>334.0</ele><time>2026-04-02T18:01:25Z</time></trkpt><trkpt lat="44.44568266681848" lon="7.877065916870764"><ele>334.0</ele><time>2026-04-02T18:01:26Z</time></trkpt><trkpt lat="44.445728617793584" lon="7.877216439829166"><ele>330.75</ele><time>2026-04-02T18:01:27Z</time></trkpt><trkpt lat="44.445782908626384" lon="7.877367126474585"><ele>327.5</ele><time>2026-04-02T18:01:28Z</time></trkpt><trkpt lat="44.44585175113658" lon="7.877512782428865"><ele>324.25</ele><time>2026-04-02T18:01:29Z</time></trkpt><trkpt lat="44.44592360482355" lon="7.877643728675238"><ele>321.0</ele><time>2026-04-02T18:01:30Z</time></trkpt><trkpt lat="44.44600847353378" lon="7.877780470342344"><ele>322.0</ele><time>2026-04-02T18:01:31Z</time></trkpt><trkpt lat="44.44611610500839" lon="7.877906763847708"><ele>323.0</ele><time>2026-04-02T18:01:32Z</time></trkpt><trkpt lat="44.44622353492587" lon="7.878024048374382"><ele>324.0</ele><time>2026-04-02T18:01:33Z</time></trkpt><trkpt lat="44.44632988012392" lon="7.878145553720992"><ele>325.0</ele><time>2026-04-02T18:01:34Z</time></trkpt><trkpt lat="44.44643866286075" lon="7.878258739320371"><ele>325.0</ele><time>2026-04-02T18:01:35Z</time></trkpt><trkpt lat="44.44653794117216" lon="7.878380543347929"><ele>325.0</ele><time>2026-04-02T18:01:36Z</time></trkpt><trkpt lat="44.44664835089617" lon="7.878494820522652"><ele>325.0</ele><time>2026-04-02T18:01:37Z</time></trkpt><trkpt lat="44.44674640969332" lon="7.8786117480998925"><ele>325.0</ele><time>2026-04-02T18:01:38Z</time></trkpt><trkpt lat="44.446831826069406" lon="7.878767825634"><ele>319.5</ele><time>2026-04-02T18:01:39Z</time></trkpt><trkpt lat="44.44691058083756" lon="7.878911931501201"><ele>314.0</ele><time>2026-04-02T18:01:40Z</time></trkpt><trkpt lat="44.44697446171727" lon="7.879087530018748"><ele>308.5</ele><time>2026-04-02T18:01:41Z</time></trkpt><trkpt lat="44.44703435040047" lon="7.879279189877267"><ele>303.0</ele><time>2026-04-02T18:01:42Z</time></trkpt><trkpt lat="44.44707837909806" lon="7.879507588527473"><ele>300.6666666666667</ele><time>2026-04-02T18:01:43Z</time></trkpt><trkpt lat="44.44711383884864" lon="7.879753010773352"><ele>298.33333333333337</ele><time>2026-04-02T18:01:44Z</time></trkpt><trkpt lat="44.447140151444714" lon="7.8800098550226645"><ele>296.0</ele><time>2026-04-02T18:01:45Z</time></trkpt><trkpt lat="44.44715716197369" lon="7.88027866760664"><ele>300.33333333333337</ele><time>2026-04-02T18:01:46Z</time></trkpt><trkpt lat="44.447174792275874" lon="7.880570475961214"><ele>304.6666666666667</ele><time>2026-04-02T18:01:47Z</time></trkpt><trkpt lat="44.447199405796745" lon="7.88086644239697"><ele>309.0</ele><time>2026-04-02T18:01:48Z</time></trkpt><trkpt lat="44.44720799048613" lon="7.881178865961343"><ele>309.0</ele><time>2026-04-02T18:01:49Z</time></trkpt><trkpt lat="44.44724091292956" lon="7.881502002478293"><ele>309.0</ele><time>2026-04-02T18:01:50Z</time></trkpt><trkpt lat="44.44724649569494" lon="7.881825344366468"><ele>308.0</ele><time>2026-04-02T18:01:51Z</time></trkpt><trkpt lat="44.447263024329104" lon="7.8821231515286865"><ele>307.0</ele><time>2026-04-02T18:01:52Z</time></trkpt><trkpt lat="44.44727171086395" lon="7.882431215288811"><ele>306.0</ele><time>2026-04-02T18:01:53Z</time></trkpt><trkpt lat="44.44730172850498" lon="7.882695851465265"><ele>304.6666666666667</ele><time>2026-04-02T18:01:53.999Z</time></trkpt><trkpt lat="44.447322271409845" lon="7.882946503714263"><ele>303.33333333333337</ele><time>2026-04-02T18:01:54.999Z</time></trkpt><trkpt lat="44.44733109484786" lon="7.8832074631407005"><ele>302.0</ele><time>2026-04-02T18:01:55.999Z</time></trkpt><trkpt lat="44.44734868658611" lon="7.883457941155712"><ele>299.6666666666667</ele><time>2026-04-02T18:01:56.999Z</time></trkpt><trkpt lat="44.44738599452987" lon="7.883677202961562"><ele>297.3333333333333</ele><time>2026-04-02T18:01:57.999Z</time></trkpt><trkpt lat="44.44743252959912" lon="7.883922169818256"><ele>295.0</ele><time>2026-04-02T18:01:58.999Z</time></trkpt><trkpt lat="44.447499039440835" lon="7.8841637854811415"><ele>294.3333333333333</ele><time>2026-04-02T18:01:59.999Z</time></trkpt><trkpt lat="44.44756826818532" lon="7.884433653016039"><ele>293.6666666666667</ele><time>2026-04-02T18:02:00.999Z</time></trkpt><trkpt lat="44.447650115340515" lon="7.884691984733129"><ele>293.0</ele><time>2026-04-02T18:02:01.999Z</time></trkpt><trkpt lat="44.44774232294586" lon="7.8849431108116095"><ele>292.0</ele><time>2026-04-02T18:02:02.999Z</time></trkpt><trkpt lat="44.447842007706186" lon="7.885197424277627"><ele>291.0</ele><time>2026-04-02T18:02:03.999Z</time></trkpt><trkpt lat="44.447961255804586" lon="7.88545250574319"><ele>290.0</ele><time>2026-04-02T18:02:04.999Z</time></trkpt><trkpt lat="44.44808115159284" lon="7.885710537720386"><ele>291.0</ele><time>2026-04-02T18:02:05.999Z</time></trkpt><trkpt lat="44.44821450694991" lon="7.885957190899011"><ele>292.0</ele><time>2026-04-02T18:02:06.999Z</time></trkpt><trkpt lat="44.44834033519557" lon="7.886217299367458"><ele>293.0</ele><time>2026-04-02T18:02:07.999Z</time></trkpt><trkpt lat="44.44846963367522" lon="7.886451375063284"><ele>293.0</ele><time>2026-04-02T18:02:08.999Z</time></trkpt><trkpt lat="44.448582897104146" lon="7.886717127263453"><ele>293.0</ele><time>2026-04-02T18:02:09.999Z</time></trkpt><trkpt lat="44.44871110009689" lon="7.886977538848412"><ele>293.0</ele><time>2026-04-02T18:02:10.999Z</time></trkpt><trkpt lat="44.44883973274893" lon="7.887246973220611"><ele>293.0</ele><time>2026-04-02T18:02:11.999Z</time></trkpt><trkpt lat="44.44897216445346" lon="7.887501897303104"><ele>293.0</ele><time>2026-04-02T18:02:12.999Z</time></trkpt><trkpt lat="44.4491038537071" lon="7.887747024169082"><ele>293.0</ele><time>2026-04-02T18:02:13.999Z</time></trkpt><trkpt lat="44.44923287976309" lon="7.888006640729782"><ele>293.0</ele><time>2026-04-02T18:02:14.999Z</time></trkpt><trkpt lat="44.44936933979073" lon="7.888282666089068"><ele>293.0</ele><time>2026-04-02T18:02:15.999Z</time></trkpt><trkpt lat="44.44950847265391" lon="7.8885637503258055"><ele>290.0</ele><time>2026-04-02T18:02:16.999Z</time></trkpt><trkpt lat="44.449649686645074" lon="7.888842089166538"><ele>287.0</ele><time>2026-04-02T18:02:17.999Z</time></trkpt><trkpt lat="44.44977837391008" lon="7.889118719320843"><ele>288.0</ele><time>2026-04-02T18:02:18.999Z</time></trkpt><trkpt lat="44.44991336889775" lon="7.889400449595231"><ele>289.0</ele><time>2026-04-02T18:02:19.999Z</time></trkpt><trkpt lat="44.4500392959142" lon="7.8896562429226655"><ele>289.0</ele><time>2026-04-02T18:02:20.999Z</time></trkpt><trkpt lat="44.450160707877465" lon="7.8899203886614755"><ele>289.0</ele><time>2026-04-02T18:02:21.999Z</time></trkpt><trkpt lat="44.45028291821325" lon="7.89014228607499"><ele>289.0</ele><time>2026-04-02T18:02:22.999Z</time></trkpt><trkpt lat="44.45038732335753" lon="7.890341656425916"><ele>286.0</ele><time>2026-04-02T18:02:23.999Z</time></trkpt><trkpt lat="44.45048786729911" lon="7.890534154548111"><ele>283.0</ele><time>2026-04-02T18:02:24.999Z</time></trkpt><trkpt lat="44.45058181963203" lon="7.890722232228831"><ele>280.0</ele><time>2026-04-02T18:02:25.999Z</time></trkpt><trkpt lat="44.45066822431528" lon="7.890893443230909"><ele>281.0</ele><time>2026-04-02T18:02:26.999Z</time></trkpt><trkpt lat="44.45075477788935" lon="7.891067886520239"><ele>282.0</ele><time>2026-04-02T18:02:27.999Z</time></trkpt><trkpt lat="44.450832555184654" lon="7.891226722953369"><ele>283.0</ele><time>2026-04-02T18:02:28.999Z</time></trkpt><trkpt lat="44.45090983049124" lon="7.891378721632721"><ele>284.0</ele><time>2026-04-02T18:02:29.999Z</time></trkpt><trkpt lat="44.45097835875028" lon="7.891515399677382"><ele>284.0</ele><time>2026-04-02T18:02:30.999Z</time></trkpt><trkpt lat="44.451043838454964" lon="7.891648569672407"><ele>284.0</ele><time>2026-04-02T18:02:31.999Z</time></trkpt><trkpt lat="44.45109912427124" lon="7.891771153374627"><ele>284.0</ele><time>2026-04-02T18:02:32.999Z</time></trkpt><trkpt lat="44.45114504668624" lon="7.891890801876366"><ele>284.0</ele><time>2026-04-02T18:02:33.999Z</time></trkpt><trkpt lat="44.45118307407383" lon="7.891993885360316"><ele>284.0</ele><time>2026-04-02T18:02:34.999Z</time></trkpt><trkpt lat="44.451211410738956" lon="7.892108160527947"><ele>284.0</ele><time>2026-04-02T18:02:35.999Z</time></trkpt><trkpt lat="44.451230515078834" lon="7.892232175589244"><ele>284.0</ele><time>2026-04-02T18:02:36.999Z</time></trkpt><trkpt lat="44.45124490867714" lon="7.892349186512212"><ele>284.0</ele><time>2026-04-02T18:02:37.999Z</time></trkpt><trkpt lat="44.45125473653547" lon="7.89245293580738"><ele>284.0</ele><time>2026-04-02T18:02:38.999Z</time></trkpt><trkpt lat="44.451266287958134" lon="7.8925472926891755"><ele>284.0</ele><time>2026-04-02T18:02:39.999Z</time></trkpt><trkpt lat="44.451295564354766" lon="7.892713041332187"><ele>284.0</ele><time>2026-04-02T18:02:41.999Z</time></trkpt><trkpt lat="44.45139458715889" lon="7.892823637020345"><ele>283.59999999999997</ele><time>2026-04-02T18:02:43.999Z</time></trkpt><trkpt lat="44.451466187738724" lon="7.892840996449978"><ele>283.2</ele><time>2026-04-02T18:02:44.999Z</time></trkpt><trkpt lat="44.4515467097355" lon="7.892822478452108"><ele>282.79999999999995</ele><time>2026-04-02T18:02:45.999Z</time></trkpt><trkpt lat="44.451640460968605" lon="7.892764719002864"><ele>282.4</ele><time>2026-04-02T18:02:46.999Z</time></trkpt><trkpt lat="44.451747719623064" lon="7.892700638991349"><ele>282.0</ele><time>2026-04-02T18:02:47.999Z</time></trkpt><trkpt lat="44.45185773568687" lon="7.892640235279535"><ele>282.25</ele><time>2026-04-02T18:02:48.999Z</time></trkpt><trkpt lat="44.451973259094366" lon="7.892582904727627"><ele>282.5</ele><time>2026-04-02T18:02:49.998Z</time></trkpt><trkpt lat="44.45210843890703" lon="7.892536353668638"><ele>282.75</ele><time>2026-04-02T18:02:50.998Z</time></trkpt><trkpt lat="44.452255833591295" lon="7.8924878518922625"><ele>283.0</ele><time>2026-04-02T18:02:51.998Z</time></trkpt><trkpt lat="44.45240661805202" lon="7.892433238746117"><ele>282.0</ele><time>2026-04-02T18:02:52.998Z</time></trkpt><trkpt lat="44.45257042828928" lon="7.892376263243811"><ele>281.0</ele><time>2026-04-02T18:02:53.998Z</time></trkpt><trkpt lat="44.45273568603217" lon="7.892317014457721"><ele>280.0</ele><time>2026-04-02T18:02:54.998Z</time></trkpt><trkpt lat="44.45292019301552" lon="7.89226015549286"><ele>279.3333333333333</ele><time>2026-04-02T18:02:55.998Z</time></trkpt><trkpt lat="44.45309547916919" lon="7.892192691508687"><ele>278.6666666666667</ele><time>2026-04-02T18:02:56.998Z</time></trkpt><trkpt lat="44.45328120857245" lon="7.892123083345019"><ele>278.0</ele><time>2026-04-02T18:02:57.998Z</time></trkpt><trkpt lat="44.4534573485612" lon="7.892065217419408"><ele>278.0</ele><time>2026-04-02T18:02:58.998Z</time></trkpt><trkpt lat="44.453608298949995" lon="7.892007994164288"><ele>278.0</ele><time>2026-04-02T18:02:59.998Z</time></trkpt><trkpt lat="44.4537496283743" lon="7.891954225943537"><ele>278.0</ele><time>2026-04-02T18:03:00.998Z</time></trkpt><trkpt lat="44.45390239478525" lon="7.891898540672091"><ele>279.0</ele><time>2026-04-02T18:03:01.998Z</time></trkpt><trkpt lat="44.454047839156054" lon="7.891841279507326"><ele>280.0</ele><time>2026-04-02T18:03:02.998Z</time></trkpt><trkpt lat="44.4541929352413" lon="7.891792375779765"><ele>281.0</ele><time>2026-04-02T18:03:03.998Z</time></trkpt><trkpt lat="44.454326311228456" lon="7.891762594489661"><ele>282.0</ele><time>2026-04-02T18:03:04.998Z</time></trkpt><trkpt lat="44.454473667442656" lon="7.891710856078576"><ele>283.0</ele><time>2026-04-02T18:03:05.998Z</time></trkpt><trkpt lat="44.45463088043809" lon="7.8916556568734615"><ele>284.0</ele><time>2026-04-02T18:03:06.998Z</time></trkpt><trkpt lat="44.454772580504844" lon="7.891607646278802"><ele>285.0</ele><time>2026-04-02T18:03:07.998Z</time></trkpt><trkpt lat="44.45495476637447" lon="7.891545909188288"><ele>285.0</ele><time>2026-04-02T18:03:08.998Z</time></trkpt><trkpt lat="44.45512122274666" lon="7.891488987168818"><ele>285.0</ele><time>2026-04-02T18:03:09.998Z</time></trkpt><trkpt lat="44.45528557382317" lon="7.891410621840949"><ele>285.0</ele><time>2026-04-02T18:03:10.998Z</time></trkpt><trkpt lat="44.45544733268959" lon="7.891355450561206"><ele>284.0</ele><time>2026-04-02T18:03:11.998Z</time></trkpt><trkpt lat="44.45562254019468" lon="7.891315685590811"><ele>283.0</ele><time>2026-04-02T18:03:12.998Z</time></trkpt><trkpt lat="44.455812075076416" lon="7.891230846214776"><ele>282.0</ele><time>2026-04-02T18:03:13.998Z</time></trkpt><trkpt lat="44.45600760547179" lon="7.891182570143113"><ele>282.0</ele><time>2026-04-02T18:03:14.998Z</time></trkpt><trkpt lat="44.456203958641" lon="7.8911146916547"><ele>282.0</ele><time>2026-04-02T18:03:15.998Z</time></trkpt><trkpt lat="44.45640580428263" lon="7.891045004594273"><ele>282.0</ele><time>2026-04-02T18:03:16.998Z</time></trkpt><trkpt lat="44.456611221707796" lon="7.890974093048801"><ele>280.0</ele><time>2026-04-02T18:03:18Z</time></trkpt><trkpt lat="44.45682554873271" lon="7.890899633101876"><ele>278.0</ele><time>2026-04-02T18:03:19Z</time></trkpt><trkpt lat="44.45703714990594" lon="7.890825137848251"><ele>276.0</ele><time>2026-04-02T18:03:20Z</time></trkpt><trkpt lat="44.45725430460488" lon="7.890748703672333"><ele>274.0</ele><time>2026-04-02T18:03:21Z</time></trkpt><trkpt lat="44.457470909806105" lon="7.890673867985608"><ele>272.0</ele><time>2026-04-02T18:03:22Z</time></trkpt><trkpt lat="44.45769352242385" lon="7.890597458416127"><ele>272.0</ele><time>2026-04-02T18:03:23Z</time></trkpt><trkpt lat="44.45792942909799" lon="7.89051565042404"><ele>272.0</ele><time>2026-04-02T18:03:24Z</time></trkpt><trkpt lat="44.45814089721645" lon="7.890442317120357"><ele>272.33333333333337</ele><time>2026-04-02T18:03:25Z</time></trkpt><trkpt lat="44.45832802424207" lon="7.8903543129431295"><ele>272.6666666666667</ele><time>2026-04-02T18:03:26Z</time></trkpt><trkpt lat="44.458500458034955" lon="7.89029492455765"><ele>273.0</ele><time>2026-04-02T18:03:27Z</time></trkpt><trkpt lat="44.45867174554308" lon="7.890240000185921"><ele>273.6666666666667</ele><time>2026-04-02T18:03:28Z</time></trkpt><trkpt lat="44.45882894567892" lon="7.890180766546848"><ele>274.33333333333337</ele><time>2026-04-02T18:03:29Z</time></trkpt><trkpt lat="44.458990043095575" lon="7.890110329649946"><ele>275.0</ele><time>2026-04-02T18:03:30Z</time></trkpt><trkpt lat="44.459148421193255" lon="7.890036228437049"><ele>275.6666666666667</ele><time>2026-04-02T18:03:31Z</time></trkpt><trkpt lat="44.45932248859154" lon="7.889927759796293"><ele>276.3333333333333</ele><time>2026-04-02T18:03:32Z</time></trkpt><trkpt lat="44.459485444138174" lon="7.889806377229098"><ele>277.0</ele><time>2026-04-02T18:03:33Z</time></trkpt><trkpt lat="44.459639471418775" lon="7.889696697224318"><ele>277.0</ele><time>2026-04-02T18:03:34Z</time></trkpt><trkpt lat="44.45980519190565" lon="7.889548489748335"><ele>277.0</ele><time>2026-04-02T18:03:35Z</time></trkpt><trkpt lat="44.459972095597784" lon="7.8893798091577425"><ele>277.0</ele><time>2026-04-02T18:03:36Z</time></trkpt><trkpt lat="44.46012314459628" lon="7.88918267339911"><ele>277.66666666666663</ele><time>2026-04-02T18:03:37Z</time></trkpt><trkpt lat="44.46029158974058" lon="7.889008285398281"><ele>278.3333333333333</ele><time>2026-04-02T18:03:38Z</time></trkpt><trkpt lat="44.46045077209331" lon="7.888812288846797"><ele>279.0</ele><time>2026-04-02T18:03:39Z</time></trkpt><trkpt lat="44.460613316427576" lon="7.888612151620975"><ele>279.6666666666667</ele><time>2026-04-02T18:03:40Z</time></trkpt><trkpt lat="44.460776802843775" lon="7.888410854230741"><ele>280.33333333333337</ele><time>2026-04-02T18:03:41Z</time></trkpt><trkpt lat="44.4609359469175" lon="7.888187760718594"><ele>281.0</ele><time>2026-04-02T18:03:42Z</time></trkpt><trkpt lat="44.46110864683223" lon="7.887980290977818"><ele>281.0</ele><time>2026-04-02T18:03:43Z</time></trkpt><trkpt lat="44.46127059280537" lon="7.887775140869204"><ele>281.0</ele><time>2026-04-02T18:03:44Z</time></trkpt><trkpt lat="44.4614321208926" lon="7.887605122041394"><ele>281.0</ele><time>2026-04-02T18:03:45Z</time></trkpt><trkpt lat="44.46158834843939" lon="7.8874113857896395"><ele>281.33333333333337</ele><time>2026-04-02T18:03:46Z</time></trkpt><trkpt lat="44.46175395769536" lon="7.887206015326805"><ele>281.6666666666667</ele><time>2026-04-02T18:03:47Z</time></trkpt><trkpt lat="44.46189999666712" lon="7.886994761102104"><ele>282.0</ele><time>2026-04-02T18:03:48Z</time></trkpt><trkpt lat="44.462038360464994" lon="7.886822628560084"><ele>283.3333333333333</ele><time>2026-04-02T18:03:49Z</time></trkpt><trkpt lat="44.46219054374812" lon="7.886664609159445"><ele>284.66666666666663</ele><time>2026-04-02T18:03:50Z</time></trkpt><trkpt lat="44.46233505135526" lon="7.886485406532014"><ele>286.0</ele><time>2026-04-02T18:03:51Z</time></trkpt><trkpt lat="44.462476185949974" lon="7.886310529137906"><ele>286.0</ele><time>2026-04-02T18:03:52Z</time></trkpt><trkpt lat="44.46262234050172" lon="7.886129980531561"><ele>286.0</ele><time>2026-04-02T18:03:53Z</time></trkpt><trkpt lat="44.462772347574344" lon="7.885946407310804"><ele>286.0</ele><time>2026-04-02T18:03:54Z</time></trkpt><trkpt lat="44.46292162441442" lon="7.88576278330671"><ele>281.66666666666663</ele><time>2026-04-02T18:03:55Z</time></trkpt><trkpt lat="44.46308444151264" lon="7.885584061652563"><ele>277.3333333333333</ele><time>2026-04-02T18:03:56Z</time></trkpt><trkpt lat="44.46325056852822" lon="7.885410481463588"><ele>273.0</ele><time>2026-04-02T18:03:57Z</time></trkpt><trkpt lat="44.463428019740846" lon="7.88524870224551"><ele>274.0</ele><time>2026-04-02T18:03:58Z</time></trkpt><trkpt lat="44.46361627233607" lon="7.885086886553761"><ele>275.0</ele><time>2026-04-02T18:03:59Z</time></trkpt><trkpt lat="44.463807014588184" lon="7.884938565530998"><ele>276.0</ele><time>2026-04-02T18:03:59.999Z</time></trkpt><trkpt lat="44.46400262238791" lon="7.884801246468717"><ele>276.3333333333333</ele><time>2026-04-02T18:04:00.999Z</time></trkpt><trkpt lat="44.46419498862275" lon="7.884657770004349"><ele>276.66666666666663</ele><time>2026-04-02T18:04:01.999Z</time></trkpt><trkpt lat="44.46439707609589" lon="7.884552108042263"><ele>277.0</ele><time>2026-04-02T18:04:02.999Z</time></trkpt><trkpt lat="44.464601374343594" lon="7.884452273281677"><ele>276.3333333333333</ele><time>2026-04-02T18:04:03.999Z</time></trkpt><trkpt lat="44.46478657778572" lon="7.884359464803797"><ele>275.6666666666667</ele><time>2026-04-02T18:04:04.999Z</time></trkpt><trkpt lat="44.46499389510099" lon="7.884304528144017"><ele>275.0</ele><time>2026-04-02T18:04:05.999Z</time></trkpt><trkpt lat="44.465195724064266" lon="7.884219905356825"><ele>276.33333333333337</ele><time>2026-04-02T18:04:06.999Z</time></trkpt><trkpt lat="44.46539941881956" lon="7.884164817197374"><ele>277.6666666666667</ele><time>2026-04-02T18:04:07.999Z</time></trkpt><trkpt lat="44.465601088772154" lon="7.884127032233324"><ele>279.0</ele><time>2026-04-02T18:04:08.999Z</time></trkpt><trkpt lat="44.46580236684131" lon="7.884106035456011"><ele>279.3333333333333</ele><time>2026-04-02T18:04:09.999Z</time></trkpt><trkpt lat="44.466011102180026" lon="7.884089731348562"><ele>279.66666666666663</ele><time>2026-04-02T18:04:10.999Z</time></trkpt><trkpt lat="44.46621215738329" lon="7.884079792870079"><ele>280.0</ele><time>2026-04-02T18:04:11.999Z</time></trkpt><trkpt lat="44.46641808064609" lon="7.884089911377233"><ele>281.66666666666663</ele><time>2026-04-02T18:04:12.999Z</time></trkpt><trkpt lat="44.46661509385459" lon="7.884105672545889"><ele>283.3333333333333</ele><time>2026-04-02T18:04:13.999Z</time></trkpt><trkpt lat="44.466799781245605" lon="7.8841256185177695"><ele>285.0</ele><time>2026-04-02T18:04:14.999Z</time></trkpt><trkpt lat="44.46698950225736" lon="7.884156551441917"><ele>285.0</ele><time>2026-04-02T18:04:15.999Z</time></trkpt><trkpt lat="44.467175800496356" lon="7.884183983452677"><ele>285.0</ele><time>2026-04-02T18:04:16.999Z</time></trkpt><trkpt lat="44.4673267920295" lon="7.884229858669384"><ele>285.0</ele><time>2026-04-02T18:04:17.999Z</time></trkpt><trkpt lat="44.46747876254959" lon="7.884278469275707"><ele>285.0</ele><time>2026-04-02T18:04:18.999Z</time></trkpt><trkpt lat="44.46760246849164" lon="7.884327478764086"><ele>285.0</ele><time>2026-04-02T18:04:19.999Z</time></trkpt><trkpt lat="44.467754198957756" lon="7.8843770579766215"><ele>285.0</ele><time>2026-04-02T18:04:20.999Z</time></trkpt><trkpt lat="44.467899593000745" lon="7.884442489951377"><ele>285.0</ele><time>2026-04-02T18:04:21.999Z</time></trkpt><trkpt lat="44.46805897394816" lon="7.88452019591776"><ele>285.0</ele><time>2026-04-02T18:04:22.999Z</time></trkpt><trkpt lat="44.46820491140051" lon="7.884603609357162"><ele>285.0</ele><time>2026-04-02T18:04:23.999Z</time></trkpt><trkpt lat="44.46834973484755" lon="7.884691577049963"><ele>285.0</ele><time>2026-04-02T18:04:24.999Z</time></trkpt><trkpt lat="44.468482462276626" lon="7.884783186505796"><ele>285.0</ele><time>2026-04-02T18:04:25.999Z</time></trkpt><trkpt lat="44.46863827576143" lon="7.884879423106791"><ele>285.0</ele><time>2026-04-02T18:04:26.999Z</time></trkpt><trkpt lat="44.46879345403124" lon="7.8849970886657985"><ele>285.0</ele><time>2026-04-02T18:04:27.999Z</time></trkpt><trkpt lat="44.4689424287143" lon="7.885110409423775"><ele>285.3333333333333</ele><time>2026-04-02T18:04:28.999Z</time></trkpt><trkpt lat="44.469082772135124" lon="7.885232266762833"><ele>285.66666666666663</ele><time>2026-04-02T18:04:29.999Z</time></trkpt><trkpt lat="44.46921053145995" lon="7.885346162394739"><ele>286.0</ele><time>2026-04-02T18:04:30.999Z</time></trkpt><trkpt lat="44.46933234339112" lon="7.885462778307582"><ele>286.0</ele><time>2026-04-02T18:04:31.999Z</time></trkpt><trkpt lat="44.46944685466692" lon="7.8855779274916635"><ele>286.0</ele><time>2026-04-02T18:04:32.999Z</time></trkpt><trkpt lat="44.46955414344326" lon="7.885692445571204"><ele>286.0</ele><time>2026-04-02T18:04:33.999Z</time></trkpt><trkpt lat="44.469652650777185" lon="7.885803662260024"><ele>286.0</ele><time>2026-04-02T18:04:34.999Z</time></trkpt><trkpt lat="44.46972078794883" lon="7.885919358763344"><ele>286.2</ele><time>2026-04-02T18:04:35.999Z</time></trkpt><trkpt lat="44.46980518815372" lon="7.88602437682962"><ele>286.40000000000003</ele><time>2026-04-02T18:04:36.999Z</time></trkpt><trkpt lat="44.46989111284039" lon="7.886132306760813"><ele>286.6</ele><time>2026-04-02T18:04:37.999Z</time></trkpt><trkpt lat="44.469967580129605" lon="7.886233499808091"><ele>286.8</ele><time>2026-04-02T18:04:38.999Z</time></trkpt><trkpt lat="44.470050769241354" lon="7.886329933481519"><ele>287.0</ele><time>2026-04-02T18:04:39.999Z</time></trkpt><trkpt lat="44.470139783521994" lon="7.886446591162965"><ele>287.0</ele><time>2026-04-02T18:04:40.999Z</time></trkpt><trkpt lat="44.47022964205248" lon="7.886567991460435"><ele>287.0</ele><time>2026-04-02T18:04:41.999Z</time></trkpt><trkpt lat="44.470324662514706" lon="7.8867058307807545"><ele>287.0</ele><time>2026-04-02T18:04:42.999Z</time></trkpt><trkpt lat="44.470435381051836" lon="7.8868597097291"><ele>287.0</ele><time>2026-04-02T18:04:43.999Z</time></trkpt><trkpt lat="44.47054930721531" lon="7.887022654114252"><ele>286.33333333333337</ele><time>2026-04-02T18:04:44.999Z</time></trkpt><trkpt lat="44.47067052205394" lon="7.887173084019971"><ele>285.6666666666667</ele><time>2026-04-02T18:04:45.999Z</time></trkpt><trkpt lat="44.47077798922396" lon="7.887390058632648"><ele>285.0</ele><time>2026-04-02T18:04:46.999Z</time></trkpt><trkpt lat="44.470919919605365" lon="7.887585455596917"><ele>284.0</ele><time>2026-04-02T18:04:47.999Z</time></trkpt><trkpt lat="44.47105534804377" lon="7.887758794231969"><ele>283.0</ele><time>2026-04-02T18:04:48.999Z</time></trkpt><trkpt lat="44.47120640766973" lon="7.88793945805264"><ele>282.0</ele><time>2026-04-02T18:04:49.999Z</time></trkpt><trkpt lat="44.47139893270572" lon="7.888124731043835"><ele>281.6666666666667</ele><time>2026-04-02T18:04:50.999Z</time></trkpt><trkpt lat="44.47156387524545" lon="7.888270478210359"><ele>281.33333333333337</ele><time>2026-04-02T18:04:51.999Z</time></trkpt><trkpt lat="44.47173876385714" lon="7.888429946583359"><ele>281.0</ele><time>2026-04-02T18:04:52.999Z</time></trkpt><trkpt lat="44.47191839971482" lon="7.888574333138259"><ele>280.33333333333337</ele><time>2026-04-02T18:04:53.999Z</time></trkpt><trkpt lat="44.47210004843355" lon="7.888718832936188"><ele>279.6666666666667</ele><time>2026-04-02T18:04:54.999Z</time></trkpt><trkpt lat="44.47227903583886" lon="7.888840807993967"><ele>279.0</ele><time>2026-04-02T18:04:55.998Z</time></trkpt><trkpt lat="44.472447240824685" lon="7.888958345917077"><ele>279.0</ele><time>2026-04-02T18:04:56.998Z</time></trkpt><trkpt lat="44.4726248828191" lon="7.88905846063761"><ele>279.0</ele><time>2026-04-02T18:04:57.998Z</time></trkpt><trkpt lat="44.47280743243468" lon="7.889155370064036"><ele>279.0</ele><time>2026-04-02T18:04:58.998Z</time></trkpt><trkpt lat="44.47298750285646" lon="7.889239503724826"><ele>278.3333333333333</ele><time>2026-04-02T18:04:59.998Z</time></trkpt><trkpt lat="44.47317351389944" lon="7.889325759858064"><ele>277.66666666666663</ele><time>2026-04-02T18:05:00.998Z</time></trkpt><trkpt lat="44.4733573126163" lon="7.88939361852269"><ele>277.0</ele><time>2026-04-02T18:05:01.998Z</time></trkpt><trkpt lat="44.473540140440036" lon="7.889461867893589"><ele>277.0</ele><time>2026-04-02T18:05:02.998Z</time></trkpt><trkpt lat="44.473716166409616" lon="7.889523846162453"><ele>277.0</ele><time>2026-04-02T18:05:03.998Z</time></trkpt><trkpt lat="44.473904784095524" lon="7.889576123591483"><ele>277.0</ele><time>2026-04-02T18:05:04.998Z</time></trkpt><trkpt lat="44.4740991731794" lon="7.88961767845018"><ele>277.3333333333333</ele><time>2026-04-02T18:05:05.998Z</time></trkpt><trkpt lat="44.47429523837927" lon="7.889655339928908"><ele>277.6666666666667</ele><time>2026-04-02T18:05:06.998Z</time></trkpt><trkpt lat="44.47449886527929" lon="7.889685795604142"><ele>278.0</ele><time>2026-04-02T18:05:07.998Z</time></trkpt><trkpt lat="44.47471186429555" lon="7.889699785352335"><ele>277.33333333333337</ele><time>2026-04-02T18:05:08.998Z</time></trkpt><trkpt lat="44.47493397669973" lon="7.88970408231659"><ele>276.6666666666667</ele><time>2026-04-02T18:05:09.998Z</time></trkpt><trkpt lat="44.47515746034776" lon="7.889702106201587"><ele>276.0</ele><time>2026-04-02T18:05:10.998Z</time></trkpt><trkpt lat="44.47536118662025" lon="7.8896889287464935"><ele>275.3333333333333</ele><time>2026-04-02T18:05:11.998Z</time></trkpt><trkpt lat="44.47556805887163" lon="7.889688018524334"><ele>274.66666666666663</ele><time>2026-04-02T18:05:12.998Z</time></trkpt><trkpt lat="44.47577902494708" lon="7.889689102834442"><ele>274.0</ele><time>2026-04-02T18:05:13.998Z</time></trkpt><trkpt lat="44.47598881936254" lon="7.889675994886838"><ele>274.0</ele><time>2026-04-02T18:05:14.998Z</time></trkpt><trkpt lat="44.476199724360406" lon="7.889693680313788"><ele>274.0</ele><time>2026-04-02T18:05:15.998Z</time></trkpt><trkpt lat="44.47641762897256" lon="7.889729880967138"><ele>274.0</ele><time>2026-04-02T18:05:16.998Z</time></trkpt><trkpt lat="44.47664394116289" lon="7.889782192926699"><ele>274.0</ele><time>2026-04-02T18:05:17.998Z</time></trkpt><trkpt lat="44.47687310933639" lon="7.889850764750376"><ele>274.0</ele><time>2026-04-02T18:05:18.998Z</time></trkpt><trkpt lat="44.47707954946165" lon="7.889949905813646"><ele>274.3333333333333</ele><time>2026-04-02T18:05:19.998Z</time></trkpt><trkpt lat="44.477271288172446" lon="7.890021920290588"><ele>274.6666666666667</ele><time>2026-04-02T18:05:20.998Z</time></trkpt><trkpt lat="44.477458846247266" lon="7.890095320293559"><ele>275.0</ele><time>2026-04-02T18:05:21.998Z</time></trkpt><trkpt lat="44.47764035540287" lon="7.890160538720731"><ele>275.33333333333337</ele><time>2026-04-02T18:05:22.998Z</time></trkpt><trkpt lat="44.477822419311174" lon="7.890218497482406"><ele>275.6666666666667</ele><time>2026-04-02T18:05:24Z</time></trkpt><trkpt lat="44.47799090596651" lon="7.890273939301396"><ele>276.0</ele><time>2026-04-02T18:05:25Z</time></trkpt><trkpt lat="44.47813803818624" lon="7.890317873905476"><ele>275.25</ele><time>2026-04-02T18:05:26Z</time></trkpt><trkpt lat="44.47826732841796" lon="7.890347574747214"><ele>274.5</ele><time>2026-04-02T18:05:27Z</time></trkpt><trkpt lat="44.478397502766214" lon="7.8903709990308535"><ele>273.75</ele><time>2026-04-02T18:05:28Z</time></trkpt><trkpt lat="44.478573040059146" lon="7.890369325391694"><ele>273.0</ele><time>2026-04-02T18:05:29Z</time></trkpt><trkpt lat="44.47869711049432" lon="7.890354288210667"><ele>273.2</ele><time>2026-04-02T18:05:30Z</time></trkpt><trkpt lat="44.47880111393568" lon="7.8903365003657"><ele>273.4</ele><time>2026-04-02T18:05:31Z</time></trkpt><trkpt lat="44.4789043238613" lon="7.890301733816157"><ele>273.59999999999997</ele><time>2026-04-02T18:05:32Z</time></trkpt><trkpt lat="44.47899873973747" lon="7.890272910165677"><ele>273.8</ele><time>2026-04-02T18:05:33Z</time></trkpt><trkpt lat="44.47907894420384" lon="7.890251914760185"><ele>274.0</ele><time>2026-04-02T18:05:34Z</time></trkpt><trkpt lat="44.47915504880017" lon="7.890231745364164"><ele>274.0</ele><time>2026-04-02T18:05:35Z</time></trkpt><trkpt lat="44.47923055540211" lon="7.890235673257809"><ele>274.0</ele><time>2026-04-02T18:05:36Z</time></trkpt><trkpt lat="44.47934421957688" lon="7.890257821411075"><ele>274.0</ele><time>2026-04-02T18:05:38Z</time></trkpt><trkpt lat="44.479466728658075" lon="7.890324582141514"><ele>274.0</ele><time>2026-04-02T18:05:40Z</time></trkpt><trkpt lat="44.47961671921786" lon="7.89020384070167"><ele>274.0</ele><time>2026-04-02T18:05:42Z</time></trkpt><trkpt lat="44.479644305667264" lon="7.890106299220726"><ele>274.0</ele><time>2026-04-02T18:05:43Z</time></trkpt><trkpt lat="44.47964591341826" lon="7.889990148916894"><ele>274.0</ele><time>2026-04-02T18:05:44Z</time></trkpt><trkpt lat="44.47956855281755" lon="7.88987229957194"><ele>274.0</ele><time>2026-04-02T18:05:45Z</time></trkpt><trkpt lat="44.47951581085374" lon="7.889790862199717"><ele>274.0</ele><time>2026-04-02T18:05:46Z</time></trkpt><trkpt lat="44.47948636617021" lon="7.889669936662868"><ele>274.0</ele><time>2026-04-02T18:05:47Z</time></trkpt><trkpt lat="44.479464038886455" lon="7.889534756732067"><ele>274.0</ele><time>2026-04-02T18:05:48Z</time></trkpt><trkpt lat="44.47944956210612" lon="7.889379092919842"><ele>274.0</ele><time>2026-04-02T18:05:49Z</time></trkpt><trkpt lat="44.479440280866044" lon="7.889202096625757"><ele>274.0</ele><time>2026-04-02T18:05:50Z</time></trkpt><trkpt lat="44.47943292195717" lon="7.889031636948673"><ele>274.0</ele><time>2026-04-02T18:05:51Z</time></trkpt><trkpt lat="44.479426823912654" lon="7.88884397469256"><ele>274.4</ele><time>2026-04-02T18:05:52Z</time></trkpt><trkpt lat="44.4794027391846" lon="7.888657045905342"><ele>274.79999999999995</ele><time>2026-04-02T18:05:53Z</time></trkpt><trkpt lat="44.47939192233239" lon="7.888487210799983"><ele>275.20000000000005</ele><time>2026-04-02T18:05:54Z</time></trkpt><trkpt lat="44.47938405955595" lon="7.888355250363812"><ele>275.6</ele><time>2026-04-02T18:05:55Z</time></trkpt><trkpt lat="44.47938990700858" lon="7.888227105948858"><ele>276.0</ele><time>2026-04-02T18:05:56Z</time></trkpt><trkpt lat="44.47940592139518" lon="7.888117578806841"><ele>276.5</ele><time>2026-04-02T18:05:57Z</time></trkpt><trkpt lat="44.479478685991005" lon="7.887981123964506"><ele>277.0</ele><time>2026-04-02T18:05:58Z</time></trkpt><trkpt lat="44.47956043421165" lon="7.887870357649893"><ele>277.5</ele><time>2026-04-02T18:05:59Z</time></trkpt><trkpt lat="44.47966449748855" lon="7.887763263921562"><ele>278.0</ele><time>2026-04-02T18:06:00Z</time></trkpt><trkpt lat="44.479753028410784" lon="7.887659846877554"><ele>280.6666666666667</ele><time>2026-04-02T18:06:01Z</time></trkpt><trkpt lat="44.47982536639454" lon="7.887572065140675"><ele>283.33333333333337</ele><time>2026-04-02T18:06:02Z</time></trkpt><trkpt lat="44.47988143150708" lon="7.8874809782513"><ele>286.0</ele><time>2026-04-02T18:06:03Z</time></trkpt><trkpt lat="44.479906926154165" lon="7.887396836380388"><ele>288.6666666666667</ele><time>2026-04-02T18:06:04Z</time></trkpt><trkpt lat="44.479920709037586" lon="7.8872815571904304"><ele>291.3333333333333</ele><time>2026-04-02T18:06:05Z</time></trkpt><trkpt lat="44.47992113476059" lon="7.887165749449331"><ele>294.0</ele><time>2026-04-02T18:06:05.999Z</time></trkpt><trkpt lat="44.47990706185301" lon="7.887040021186702"><ele>294.0</ele><time>2026-04-02T18:06:06.999Z</time></trkpt><trkpt lat="44.47988245832451" lon="7.886895017901361"><ele>294.0</ele><time>2026-04-02T18:06:07.999Z</time></trkpt><trkpt lat="44.47984822649262" lon="7.8867253510700195"><ele>294.0</ele><time>2026-04-02T18:06:08.999Z</time></trkpt><trkpt lat="44.47980873321499" lon="7.886536508250851"><ele>294.0</ele><time>2026-04-02T18:06:09.999Z</time></trkpt><trkpt lat="44.479768726894676" lon="7.886345804789175"><ele>297.6666666666667</ele><time>2026-04-02T18:06:10.999Z</time></trkpt><trkpt lat="44.47974085290921" lon="7.886141241517122"><ele>301.33333333333337</ele><time>2026-04-02T18:06:11.999Z</time></trkpt><trkpt lat="44.47968922128573" lon="7.885937150428479"><ele>305.0</ele><time>2026-04-02T18:06:12.999Z</time></trkpt><trkpt lat="44.47963207583198" lon="7.885710717794627"><ele>303.6666666666667</ele><time>2026-04-02T18:06:13.999Z</time></trkpt><trkpt lat="44.47957923202027" lon="7.885501638365489"><ele>302.3333333333333</ele><time>2026-04-02T18:06:14.999Z</time></trkpt><trkpt lat="44.47951233961027" lon="7.885283222356985"><ele>301.0</ele><time>2026-04-02T18:06:15.999Z</time></trkpt><trkpt lat="44.4794323178461" lon="7.8850671918064705"><ele>301.0</ele><time>2026-04-02T18:06:16.999Z</time></trkpt><trkpt lat="44.47934378211846" lon="7.884867043971008"><ele>301.0</ele><time>2026-04-02T18:06:17.999Z</time></trkpt><trkpt lat="44.47923794912494" lon="7.8846832450091915"><ele>301.0</ele><time>2026-04-02T18:06:18.999Z</time></trkpt><trkpt lat="44.479116323955736" lon="7.884496604376759"><ele>301.0</ele><time>2026-04-02T18:06:19.999Z</time></trkpt><trkpt lat="44.47900111996063" lon="7.88432215463795"><ele>301.0</ele><time>2026-04-02T18:06:20.999Z</time></trkpt><trkpt lat="44.478902121912974" lon="7.884171138649708"><ele>301.0</ele><time>2026-04-02T18:06:21.999Z</time></trkpt><trkpt lat="44.47882715092224" lon="7.884048801428013"><ele>301.0</ele><time>2026-04-02T18:06:22.999Z</time></trkpt><trkpt lat="44.47876000615581" lon="7.883933783484919"><ele>300.8333333333333</ele><time>2026-04-02T18:06:23.999Z</time></trkpt><trkpt lat="44.47871642762734" lon="7.883835872188031"><ele>300.66666666666663</ele><time>2026-04-02T18:06:24.999Z</time></trkpt><trkpt lat="44.47867204341124" lon="7.883727379908174"><ele>300.5</ele><time>2026-04-02T18:06:25.999Z</time></trkpt><trkpt lat="44.47863226590541" lon="7.883608830242073"><ele>300.3333333333333</ele><time>2026-04-02T18:06:26.999Z</time></trkpt><trkpt lat="44.478602660887454" lon="7.883498404831992"><ele>300.1666666666667</ele><time>2026-04-02T18:06:27.999Z</time></trkpt><trkpt lat="44.47859292640145" lon="7.883395831719602"><ele>300.0</ele><time>2026-04-02T18:06:28.999Z</time></trkpt><trkpt lat="44.47861257992797" lon="7.883295566184845"><ele>300.0</ele><time>2026-04-02T18:06:29.999Z</time></trkpt><trkpt lat="44.47866665349407" lon="7.8832382150387375"><ele>300.0</ele><time>2026-04-02T18:06:30.999Z</time></trkpt><trkpt lat="44.47874131698049" lon="7.883221508757691"><ele>300.0</ele><time>2026-04-02T18:06:31.999Z</time></trkpt><trkpt lat="44.47880645473661" lon="7.883177135979359"><ele>300.0</ele><time>2026-04-02T18:06:32.999Z</time></trkpt><trkpt lat="44.47889214272948" lon="7.883119125259947"><ele>300.0</ele><time>2026-04-02T18:06:33.999Z</time></trkpt><trkpt lat="44.47899411322003" lon="7.883051323490899"><ele>300.0</ele><time>2026-04-02T18:06:34.999Z</time></trkpt><trkpt lat="44.479072161857474" lon="7.882992760765762"><ele>304.0</ele><time>2026-04-02T18:06:35.999Z</time></trkpt><trkpt lat="44.479124215350545" lon="7.88292189409756"><ele>308.0</ele><time>2026-04-02T18:06:36.999Z</time></trkpt><trkpt lat="44.479200962216495" lon="7.882867271058179"><ele>312.0</ele><time>2026-04-02T18:06:37.999Z</time></trkpt><trkpt lat="44.479254693893076" lon="7.882778233345937"><ele>316.0</ele><time>2026-04-02T18:06:38.999Z</time></trkpt><trkpt lat="44.47928829238373" lon="7.8826872020863945"><ele>320.0</ele><time>2026-04-02T18:06:39.999Z</time></trkpt><trkpt lat="44.47930263601337" lon="7.882580789498247"><ele>324.0</ele><time>2026-04-02T18:06:40.999Z</time></trkpt><trkpt lat="44.47930044893738" lon="7.882491195346573"><ele>324.3333333333333</ele><time>2026-04-02T18:06:41.999Z</time></trkpt><trkpt lat="44.479240077441375" lon="7.882343840388341"><ele>324.6666666666667</ele><time>2026-04-02T18:06:43.999Z</time></trkpt><trkpt lat="44.47918675275909" lon="7.882295277463125"><ele>325.0</ele><time>2026-04-02T18:06:44.999Z</time></trkpt><trkpt lat="44.47912065247154" lon="7.882275342410183"><ele>325.33333333333337</ele><time>2026-04-02T18:06:45.999Z</time></trkpt><trkpt lat="44.479053619813534" lon="7.882280387509607"><ele>325.6666666666667</ele><time>2026-04-02T18:06:46.999Z</time></trkpt><trkpt lat="44.47897524625846" lon="7.882336220933012"><ele>326.0</ele><time>2026-04-02T18:06:47.999Z</time></trkpt><trkpt lat="44.4788830560569" lon="7.882401296772805"><ele>326.0</ele><time>2026-04-02T18:06:48.999Z</time></trkpt><trkpt lat="44.47879859378381" lon="7.882450615368277"><ele>326.0</ele><time>2026-04-02T18:06:49.999Z</time></trkpt><trkpt lat="44.478726139919765" lon="7.882450444652045"><ele>326.0</ele><time>2026-04-02T18:06:50.999Z</time></trkpt><trkpt lat="44.4786623659557" lon="7.88244099711077"><ele>326.0</ele><time>2026-04-02T18:06:51.999Z</time></trkpt><trkpt lat="44.47859281417707" lon="7.882420203681938"><ele>326.0</ele><time>2026-04-02T18:06:52.999Z</time></trkpt><trkpt lat="44.478527891959914" lon="7.882390324098635"><ele>326.0</ele><time>2026-04-02T18:06:53.999Z</time></trkpt><trkpt lat="44.4784653661599" lon="7.88232960046089"><ele>326.0</ele><time>2026-04-02T18:06:54.999Z</time></trkpt><trkpt lat="44.478397591540315" lon="7.882243441763904"><ele>323.25</ele><time>2026-04-02T18:06:55.999Z</time></trkpt><trkpt lat="44.47832404953564" lon="7.882151476792491"><ele>320.5</ele><time>2026-04-02T18:06:56.999Z</time></trkpt><trkpt lat="44.478240605244046" lon="7.882050489059861"><ele>317.75</ele><time>2026-04-02T18:06:57.999Z</time></trkpt><trkpt lat="44.47814636559052" lon="7.881941231939967"><ele>315.0</ele><time>2026-04-02T18:06:58.999Z</time></trkpt><trkpt lat="44.47805428811627" lon="7.881835700478959"><ele>314.5</ele><time>2026-04-02T18:06:59.999Z</time></trkpt><trkpt lat="44.47797080222975" lon="7.881706167163527"><ele>314.0</ele><time>2026-04-02T18:07:00.999Z</time></trkpt><trkpt lat="44.477895072100445" lon="7.881586066667372"><ele>313.5</ele><time>2026-04-02T18:07:01.999Z</time></trkpt><trkpt lat="44.477824959700655" lon="7.881457161940298"><ele>313.0</ele><time>2026-04-02T18:07:02.998Z</time></trkpt><trkpt lat="44.47777306986533" lon="7.881327606129746"><ele>313.0</ele><time>2026-04-02T18:07:03.998Z</time></trkpt><trkpt lat="44.47771645906077" lon="7.88120323955223"><ele>313.0</ele><time>2026-04-02T18:07:04.998Z</time></trkpt><trkpt lat="44.47768531711367" lon="7.88112088187716"><ele>313.0</ele><time>2026-04-02T18:07:05.998Z</time></trkpt><trkpt lat="44.47764539458625" lon="7.88098926795469"><ele>313.0</ele><time>2026-04-02T18:07:07.998Z</time></trkpt><trkpt lat="44.477637277468865" lon="7.8808965084907365"><ele>313.0</ele><time>2026-04-02T18:07:09.998Z</time></trkpt><trkpt lat="44.477700849217584" lon="7.8808639408843195"><ele>313.0</ele><time>2026-04-02T18:07:11.998Z</time></trkpt><trkpt lat="44.47774154603689" lon="7.881011949013431"><ele>313.0</ele><time>2026-04-02T18:07:13.998Z</time></trkpt><trkpt lat="44.47777545181357" lon="7.881110168405065"><ele>313.0</ele><time>2026-04-02T18:07:14.998Z</time></trkpt><trkpt lat="44.47782196918745" lon="7.881237029168212"><ele>313.0</ele><time>2026-04-02T18:07:15.998Z</time></trkpt><trkpt lat="44.477883174377034" lon="7.881362441408737"><ele>313.0</ele><time>2026-04-02T18:07:16.998Z</time></trkpt><trkpt lat="44.47796156659425" lon="7.881480206260927"><ele>313.0</ele><time>2026-04-02T18:07:17.998Z</time></trkpt><trkpt lat="44.478073086208205" lon="7.881595928614327"><ele>313.5</ele><time>2026-04-02T18:07:18.998Z</time></trkpt><trkpt lat="44.478190459419636" lon="7.881693484566121"><ele>314.0</ele><time>2026-04-02T18:07:19.998Z</time></trkpt><trkpt lat="44.478304486490394" lon="7.881760832433907"><ele>314.5</ele><time>2026-04-02T18:07:20.998Z</time></trkpt><trkpt lat="44.47841043075135" lon="7.88184363570595"><ele>315.0</ele><time>2026-04-02T18:07:21.998Z</time></trkpt><trkpt lat="44.47848737606619" lon="7.881939721875162"><ele>315.0</ele><time>2026-04-02T18:07:22.998Z</time></trkpt><trkpt lat="44.4785497362999" lon="7.881976222727374"><ele>315.0</ele><time>2026-04-02T18:07:23.998Z</time></trkpt><trkpt lat="44.478650850012045" lon="7.882062073029682"><ele>315.0</ele><time>2026-04-02T18:07:25.998Z</time></trkpt><trkpt lat="44.47871934320626" lon="7.882087447088884"><ele>315.0</ele><time>2026-04-02T18:07:26.998Z</time></trkpt><trkpt lat="44.47876505037424" lon="7.88200893067757"><ele>315.0</ele><time>2026-04-02T18:07:28.998Z</time></trkpt><trkpt lat="44.47871813626223" lon="7.881848079524195"><ele>315.0</ele><time>2026-04-02T18:07:31Z</time></trkpt><trkpt lat="44.478631218542155" lon="7.881794889097249"><ele>315.0</ele><time>2026-04-02T18:07:32Z</time></trkpt><trkpt lat="44.478551871147886" lon="7.881736666151771"><ele>315.0</ele><time>2026-04-02T18:07:33Z</time></trkpt><trkpt lat="44.4784622809704" lon="7.88166263862194"><ele>315.0</ele><time>2026-04-02T18:07:34Z</time></trkpt><trkpt lat="44.47837945957051" lon="7.881560788491183"><ele>315.0</ele><time>2026-04-02T18:07:35Z</time></trkpt><trkpt lat="44.478285520130804" lon="7.881430779670379"><ele>320.0</ele><time>2026-04-02T18:07:36Z</time></trkpt><trkpt lat="44.47818780730554" lon="7.881310776201388"><ele>325.0</ele><time>2026-04-02T18:07:37Z</time></trkpt><trkpt lat="44.478142706974346" lon="7.881165070414568"><ele>330.0</ele><time>2026-04-02T18:07:38Z</time></trkpt><trkpt lat="44.47808308180764" lon="7.881050964439392"><ele>335.0</ele><time>2026-04-02T18:07:39Z</time></trkpt><trkpt lat="44.478062684007405" lon="7.880887847624523"><ele>333.6</ele><time>2026-04-02T18:07:40Z</time></trkpt><trkpt lat="44.4780226168781" lon="7.880761008294718"><ele>332.2</ele><time>2026-04-02T18:07:41Z</time></trkpt><trkpt lat="44.47799464547827" lon="7.880607505828689"><ele>330.79999999999995</ele><time>2026-04-02T18:07:42Z</time></trkpt><trkpt lat="44.477969644190594" lon="7.880468723157444"><ele>329.4</ele><time>2026-04-02T18:07:43Z</time></trkpt><trkpt lat="44.477940516046715" lon="7.880353270734448"><ele>328.0</ele><time>2026-04-02T18:07:44Z</time></trkpt><trkpt lat="44.47791744657983" lon="7.880242585240004"><ele>328.0</ele><time>2026-04-02T18:07:45Z</time></trkpt><trkpt lat="44.477911560746435" lon="7.8801271841001235"><ele>328.0</ele><time>2026-04-02T18:07:46Z</time></trkpt><trkpt lat="44.477924596739" lon="7.880016919742823"><ele>328.0</ele><time>2026-04-02T18:07:47Z</time></trkpt><trkpt lat="44.47795403528725" lon="7.879899142150206"><ele>328.0</ele><time>2026-04-02T18:07:48Z</time></trkpt><trkpt lat="44.47798045078773" lon="7.879797068420232"><ele>328.0</ele><time>2026-04-02T18:07:49Z</time></trkpt><trkpt lat="44.478002847259134" lon="7.879686737793895"><ele>328.0</ele><time>2026-04-02T18:07:50Z</time></trkpt><trkpt lat="44.47802685414711" lon="7.879558897335158"><ele>333.3333333333333</ele><time>2026-04-02T18:07:51Z</time></trkpt><trkpt lat="44.47804589938546" lon="7.879438472922839"><ele>338.66666666666663</ele><time>2026-04-02T18:07:52Z</time></trkpt><trkpt lat="44.47804922049868" lon="7.879326764221085"><ele>344.0</ele><time>2026-04-02T18:07:53Z</time></trkpt><trkpt lat="44.478042559269994" lon="7.879218274680133"><ele>349.3333333333333</ele><time>2026-04-02T18:07:54Z</time></trkpt><trkpt lat="44.47803376876494" lon="7.87912926934236"><ele>354.6666666666667</ele><time>2026-04-02T18:07:55Z</time></trkpt><trkpt lat="44.47803894415629" lon="7.878972140035902"><ele>360.0</ele><time>2026-04-02T18:07:57Z</time></trkpt><trkpt lat="44.47807133612965" lon="7.878891459407328"><ele>360.3333333333333</ele><time>2026-04-02T18:07:58Z</time></trkpt><trkpt lat="44.47812211798283" lon="7.878816859905622"><ele>360.6666666666667</ele><time>2026-04-02T18:07:59Z</time></trkpt><trkpt lat="44.47819117285992" lon="7.878753750902059"><ele>361.0</ele><time>2026-04-02T18:08:00Z</time></trkpt><trkpt lat="44.47825680822738" lon="7.878682833874241"><ele>361.33333333333337</ele><time>2026-04-02T18:08:01Z</time></trkpt><trkpt lat="44.47832489235941" lon="7.878612400690424"><ele>361.6666666666667</ele><time>2026-04-02T18:08:02Z</time></trkpt><trkpt lat="44.47840462871216" lon="7.87854641204766"><ele>362.0</ele><time>2026-04-02T18:08:03Z</time></trkpt><trkpt lat="44.47849157130368" lon="7.878454283250047"><ele>362.0</ele><time>2026-04-02T18:08:04Z</time></trkpt><trkpt lat="44.47857827932263" lon="7.878359230406455"><ele>362.0</ele><time>2026-04-02T18:08:05Z</time></trkpt><trkpt lat="44.47866057620214" lon="7.878246310492206"><ele>362.0</ele><time>2026-04-02T18:08:06Z</time></trkpt><trkpt lat="44.478736786591" lon="7.878158706431588"><ele>362.0</ele><time>2026-04-02T18:08:07Z</time></trkpt><trkpt lat="44.47880073766206" lon="7.878045324698492"><ele>362.0</ele><time>2026-04-02T18:08:08Z</time></trkpt><trkpt lat="44.47884238737426" lon="7.877937548990129"><ele>362.0</ele><time>2026-04-02T18:08:09Z</time></trkpt><trkpt lat="44.478880758468264" lon="7.877850431389669"><ele>362.0</ele><time>2026-04-02T18:08:10Z</time></trkpt><trkpt lat="44.47895024842485" lon="7.877720412018428"><ele>362.0</ele><time>2026-04-02T18:08:11.999Z</time></trkpt><trkpt lat="44.47896084096954" lon="7.87762177705518"><ele>362.0</ele><time>2026-04-02T18:08:13.999Z</time></trkpt><trkpt lat="44.47883824707904" lon="7.877543046812642"><ele>362.0</ele><time>2026-04-02T18:08:16.999Z</time></trkpt><trkpt lat="44.47873938162417" lon="7.877497736480794"><ele>362.0</ele><time>2026-04-02T18:08:17.999Z</time></trkpt><trkpt lat="44.47864018951526" lon="7.877448793489021"><ele>362.0</ele><time>2026-04-02T18:08:18.999Z</time></trkpt><trkpt lat="44.47856009906267" lon="7.877410291883007"><ele>362.0</ele><time>2026-04-02T18:08:19.999Z</time></trkpt><trkpt lat="44.47848385683305" lon="7.877389551294318"><ele>362.0</ele><time>2026-04-02T18:08:20.999Z</time></trkpt><trkpt lat="44.47841183379931" lon="7.877366669878734"><ele>362.0</ele><time>2026-04-02T18:08:21.999Z</time></trkpt><trkpt lat="44.478353454154714" lon="7.877326766665075"><ele>362.0</ele><time>2026-04-02T18:08:22.999Z</time></trkpt><trkpt lat="44.47828393085848" lon="7.877299095982374"><ele>362.0</ele><time>2026-04-02T18:08:23.999Z</time></trkpt><trkpt lat="44.47821463724208" lon="7.877252993197017"><ele>362.0</ele><time>2026-04-02T18:08:25.999Z</time></trkpt><trkpt lat="44.478148430912654" lon="7.87721952531247"><ele>362.0</ele><time>2026-04-02T18:08:27.999Z</time></trkpt><trkpt lat="44.478207583352614" lon="7.877034460026877"><ele>362.0</ele><time>2026-04-02T18:08:29.999Z</time></trkpt><trkpt lat="44.47823786709695" lon="7.876921410714673"><ele>362.0</ele><time>2026-04-02T18:08:30.999Z</time></trkpt><trkpt lat="44.478300732874054" lon="7.876764718923098"><ele>361.8</ele><time>2026-04-02T18:08:32.999Z</time></trkpt><trkpt lat="44.47832966428189" lon="7.876630813286659"><ele>361.6</ele><time>2026-04-02T18:08:33.999Z</time></trkpt><trkpt lat="44.47834093510167" lon="7.876488757787606"><ele>361.40000000000003</ele><time>2026-04-02T18:08:34.999Z</time></trkpt><trkpt lat="44.47834743110936" lon="7.8763305084239965"><ele>361.20000000000005</ele><time>2026-04-02T18:08:35.999Z</time></trkpt><trkpt lat="44.47834504957441" lon="7.8761593455156165"><ele>361.0</ele><time>2026-04-02T18:08:36.999Z</time></trkpt><trkpt lat="44.47834929513398" lon="7.875983313000675"><ele>361.0</ele><time>2026-04-02T18:08:37.999Z</time></trkpt><trkpt lat="44.47834676589999" lon="7.875826150768897"><ele>361.0</ele><time>2026-04-02T18:08:38.999Z</time></trkpt><trkpt lat="44.47834488733884" lon="7.875704958319146"><ele>361.0</ele><time>2026-04-02T18:08:39.999Z</time></trkpt><trkpt lat="44.478342048121526" lon="7.875534426835905"><ele>361.0</ele><time>2026-04-02T18:08:41.999Z</time></trkpt><trkpt lat="44.47833626821944" lon="7.87537085893325"><ele>361.0</ele><time>2026-04-02T18:08:43.999Z</time></trkpt><trkpt lat="44.47833106305038" lon="7.875212128399293"><ele>361.0</ele><time>2026-04-02T18:08:45.999Z</time></trkpt><trkpt lat="44.47832376222245" lon="7.875072109828931"><ele>361.0</ele><time>2026-04-02T18:08:46.999Z</time></trkpt><trkpt lat="44.47832613122646" lon="7.874935560923448"><ele>361.0</ele><time>2026-04-02T18:08:47.999Z</time></trkpt><trkpt lat="44.478327669390595" lon="7.874805577369765"><ele>361.0</ele><time>2026-04-02T18:08:48.999Z</time></trkpt><trkpt lat="44.47830711033978" lon="7.874700105674825"><ele>361.0</ele><time>2026-04-02T18:08:49.999Z</time></trkpt><trkpt lat="44.47831374421147" lon="7.874589859379172"><ele>361.0</ele><time>2026-04-02T18:08:50.999Z</time></trkpt><trkpt lat="44.47828978904898" lon="7.874459269226566"><ele>361.0</ele><time>2026-04-02T18:08:52.999Z</time></trkpt><trkpt lat="44.478476174578084" lon="7.874395778860021"><ele>361.0</ele><time>2026-04-02T18:08:55.999Z</time></trkpt><trkpt lat="44.47854918369748" lon="7.874374533197812"><ele>361.0</ele><time>2026-04-02T18:08:56.999Z</time></trkpt><trkpt lat="44.478615329807106" lon="7.874366379606807"><ele>361.0</ele><time>2026-04-02T18:08:57.999Z</time></trkpt><trkpt lat="44.478726114212705" lon="7.87434037961753"><ele>361.0</ele><time>2026-04-02T18:08:59.999Z</time></trkpt><trkpt lat="44.47887888429774" lon="7.874332638636481"><ele>361.0</ele><time>2026-04-02T18:09:01.999Z</time></trkpt><trkpt lat="44.47896174053494" lon="7.874319319723423"><ele>361.0</ele><time>2026-04-02T18:09:02.999Z</time></trkpt><trkpt lat="44.4790633739753" lon="7.874302982429403"><ele>361.0</ele><time>2026-04-02T18:09:03.999Z</time></trkpt><trkpt lat="44.47915345855205" lon="7.874288501561491"><ele>361.0</ele><time>2026-04-02T18:09:04.999Z</time></trkpt><trkpt lat="44.47923659416332" lon="7.874274531112781"><ele>361.0</ele><time>2026-04-02T18:09:05.999Z</time></trkpt><trkpt lat="44.47935710403281" lon="7.874254352065175"><ele>361.20000000000005</ele><time>2026-04-02T18:09:07.998Z</time></trkpt><trkpt lat="44.47942622379718" lon="7.8742277592899566"><ele>361.40000000000003</ele><time>2026-04-02T18:09:22.998Z</time></trkpt><trkpt lat="44.47943109182133" lon="7.874004234746124"><ele>361.6</ele><time>2026-04-02T18:09:25.998Z</time></trkpt><trkpt lat="44.479428822040866" lon="7.8738810220784305"><ele>361.8</ele><time>2026-04-02T18:09:26.998Z</time></trkpt><trkpt lat="44.47939621704115" lon="7.8737515093939265"><ele>362.0</ele><time>2026-04-02T18:09:27.998Z</time></trkpt><trkpt lat="44.479360334796546" lon="7.873596526578092"><ele>362.0</ele><time>2026-04-02T18:09:28.998Z</time></trkpt><trkpt lat="44.479310009831735" lon="7.873451989401326"><ele>362.0</ele><time>2026-04-02T18:09:29.998Z</time></trkpt><trkpt lat="44.479272238286846" lon="7.8733356682210776"><ele>362.0</ele><time>2026-04-02T18:09:30.998Z</time></trkpt><trkpt lat="44.47923208888114" lon="7.873221443196895"><ele>362.0</ele><time>2026-04-02T18:09:31.998Z</time></trkpt><trkpt lat="44.47920166133914" lon="7.873120409302668"><ele>362.0</ele><time>2026-04-02T18:09:32.998Z</time></trkpt><trkpt lat="44.4791698358247" lon="7.873028307630313"><ele>362.0</ele><time>2026-04-02T18:09:33.998Z</time></trkpt><trkpt lat="44.479142668208524" lon="7.872907541438873"><ele>362.20000000000005</ele><time>2026-04-02T18:09:36Z</time></trkpt><trkpt lat="44.47925809642727" lon="7.872806095221533"><ele>362.4</ele><time>2026-04-02T18:09:39Z</time></trkpt><trkpt lat="44.47933954504342" lon="7.872766009378749"><ele>362.6</ele><time>2026-04-02T18:09:40Z</time></trkpt><trkpt lat="44.47942891753312" lon="7.872727037603453"><ele>362.79999999999995</ele><time>2026-04-02T18:09:41Z</time></trkpt><trkpt lat="44.4795085489569" lon="7.872700838842407"><ele>363.0</ele><time>2026-04-02T18:09:42Z</time></trkpt><trkpt lat="44.47960710115362" lon="7.87267513573998"><ele>363.0</ele><time>2026-04-02T18:09:43Z</time></trkpt><trkpt lat="44.47970789365271" lon="7.872653767352855"><ele>363.0</ele><time>2026-04-02T18:09:44Z</time></trkpt><trkpt lat="44.47982878734361" lon="7.872621546750206"><ele>363.0</ele><time>2026-04-02T18:09:45Z</time></trkpt><trkpt lat="44.47992911110638" lon="7.872593559840543"><ele>363.0</ele><time>2026-04-02T18:09:46Z</time></trkpt><trkpt lat="44.4800027424945" lon="7.872573873118239"><ele>363.0</ele><time>2026-04-02T18:09:47Z</time></trkpt><trkpt lat="44.48011572443917" lon="7.872543665227832"><ele>363.0</ele><time>2026-04-02T18:09:49Z</time></trkpt><trkpt lat="44.480187753951505" lon="7.872524406773633"><ele>363.0</ele><time>2026-04-02T18:09:51Z</time></trkpt><trkpt lat="44.48022048335051" lon="7.872617860655431"><ele>363.0</ele><time>2026-04-02T18:10:09Z</time></trkpt><trkpt lat="44.48020780936785" lon="7.872745145474401"><ele>363.0</ele><time>2026-04-02T18:10:11Z</time></trkpt><trkpt lat="44.48020887147298" lon="7.87288172993022"><ele>363.0</ele><time>2026-04-02T18:10:13Z</time></trkpt><trkpt lat="44.48021808260201" lon="7.8730035460913514"><ele>363.0</ele><time>2026-04-02T18:10:15.016Z</time></trkpt><trkpt lat="44.4802338508358" lon="7.873133171436709"><ele>363.0</ele><time>2026-04-02T18:10:17.012Z</time></trkpt><trkpt lat="44.48011715838549" lon="7.873121244528442"><ele>363.0</ele><time>2026-04-02T18:10:31.999Z</time></trkpt><trkpt lat="44.48005838319443" lon="7.8730792207783775"><ele>363.0</ele><time>2026-04-02T18:10:32.999Z</time></trkpt><trkpt lat="44.479732168880055" lon="7.873000530533373"><ele>363.0</ele><time>2026-04-02T18:10:41.999Z</time></trkpt><trkpt lat="44.47963568920664" lon="7.872991323396246"><ele>363.0</ele><time>2026-04-02T18:10:43.999Z</time></trkpt><trkpt lat="44.47954650123762" lon="7.872983860398988"><ele>363.0</ele><time>2026-04-02T18:10:45.999Z</time></trkpt><trkpt lat="44.48007781709912" lon="7.87300967034715"><ele>363.0</ele><time>2026-04-02T18:10:46.999Z</time></trkpt><trkpt lat="44.47985917696765" lon="7.87306892898283"><ele>363.0</ele><time>2026-04-02T18:10:48.999Z</time></trkpt><trkpt lat="44.47953628380293" lon="7.8730286099089986"><ele>363.0</ele><time>2026-04-02T18:10:56.999Z</time></trkpt><trkpt lat="44.47969355880762" lon="7.872994967143496"><ele>363.0</ele><time>2026-04-02T18:11:22.017Z</time></trkpt><trkpt lat="44.479626884241846" lon="7.872980254107715"><ele>363.0</ele><time>2026-04-02T18:11:38.756Z</time></trkpt><trkpt lat="44.47963303061053" lon="7.8728180122297315"><ele>363.0</ele><time>2026-04-02T18:11:44.839Z</time></trkpt><trkpt lat="44.47957160703417" lon="7.872794156274716"><ele>363.0</ele><time>2026-04-02T18:11:47.998Z</time></trkpt><trkpt lat="44.47964621578977" lon="7.8729480630083675"><ele>363.0</ele><time>2026-04-02T18:12:36.999Z</time></trkpt><trkpt lat="44.47968768901371" lon="7.872875526545105"><ele>363.0</ele><time>2026-04-02T18:15:24.999Z</time></trkpt><trkpt lat="44.47968872902134" lon="7.872964381980598"><ele>363.0</ele><time>2026-04-02T18:15:41.998Z</time></trkpt></trkseg></trk></gpx>